Wetterdaten: Freitag, 02.11.2018
Datum Zeit Temp. A. Feuchte A. Luftdruck Regen Wind Richtung Richtung Sonnenschein ET UV Solar Taupunkt Windchill Windböen
02.11.2018 00:00 5,8 °C 85 % 1016,9 hPa 0,0 mm 0,7 km/h (0 Bft) S-SW 213 ° 0 min 0,000 mm 0,0 UV-I 0 W/m² 3,5 °C 5,8 °C 1,6 km/h (1 Bft)
02.11.2018 00:01 5,5 °C 85 % 1016,9 hPa 0,0 mm 0,0 km/h (0 Bft) S-SW 213 ° 0 min 0,000 mm 0,0 UV-I 0 W/m² 3,2 °C 5,5 °C 0,0 km/h (0 Bft)
02.11.2018 00:02 5,2 °C 85 % 1016,9 hPa 0,0 mm 0,0 km/h (0 Bft) S-SW 213 ° 0 min 0,000 mm 0,0 UV-I 0 W/m² 2,9 °C 5,2 °C 0,0 km/h (0 Bft)
02.11.2018 00:03 5,0 °C 86 % 1017,0 hPa 0,0 mm 0,0 km/h (0 Bft) S-SW 213 ° 0 min 0,000 mm 0,0 UV-I 0 W/m² 2,9 °C 5,0 °C 0,0 km/h (0 Bft)
02.11.2018 00:04 4,8 °C 86 % 1017,0 hPa 0,0 mm 0,1 km/h (0 Bft) S-SW 213 ° 0 min 0,000 mm 0,0 UV-I 0 W/m² 2,7 °C 4,8 °C 1,6 km/h (1 Bft)
02.11.2018 00:05 4,6 °C 87 % 1017,0 hPa 0,0 mm 0,0 km/h (0 Bft) S-SW 213 ° 0 min 0,000 mm 0,0 UV-I 0 W/m² 2,6 °C 4,6 °C 0,0 km/h (0 Bft)
02.11.2018 00:06 4,5 °C 87 % 1017,0 hPa 0,0 mm 0,0 km/h (0 Bft) S-SW 213 ° 0 min 0,000 mm 0,0 UV-I 0 W/m² 2,5 °C 4,5 °C 0,0 km/h (0 Bft)
02.11.2018 00:07 4,4 °C 88 % 1017,0 hPa 0,0 mm 0,0 km/h (0 Bft) S-SW 213 ° 0 min 0,000 mm 0,0 UV-I 0 W/m² 2,6 °C 4,4 °C 0,0 km/h (0 Bft)
02.11.2018 00:08 4,4 °C 89 % 1017,1 hPa 0,0 mm 0,0 km/h (0 Bft) S-SW 213 ° 0 min 0,000 mm 0,0 UV-I 0 W/m² 2,7 °C 4,4 °C 0,0 km/h (0 Bft)
02.11.2018 00:09 4,5 °C 90 % 1017,2 hPa 0,0 mm 0,0 km/h (0 Bft) S-SW 213 ° 0 min 0,000 mm 0,0 UV-I 0 W/m² 3,0 °C 4,5 °C 0,0 km/h (0 Bft)
02.11.2018 00:10 4,6 °C 90 % 1017,2 hPa 0,0 mm 0,0 km/h (0 Bft) S-SW 213 ° 0 min 0,000 mm 0,0 UV-I 0 W/m² 3,1 °C 4,6 °C 0,0 km/h (0 Bft)
02.11.2018 00:11 4,6 °C 90 % 1017,2 hPa 0,0 mm 0,0 km/h (0 Bft) S-SW 213 ° 0 min 0,000 mm 0,0 UV-I 0 W/m² 3,1 °C 4,6 °C 0,0 km/h (0 Bft)
02.11.2018 00:12 4,6 °C 90 % 1017,2 hPa 0,0 mm 0,0 km/h (0 Bft) S-SW 213 ° 0 min 0,000 mm 0,0 UV-I 0 W/m² 3,1 °C 4,6 °C 0,0 km/h (0 Bft)
02.11.2018 00:13 4,6 °C 90 % 1017,3 hPa 0,0 mm 0,0 km/h (0 Bft) S-SW 213 ° 0 min 0,000 mm 0,0 UV-I 0 W/m² 3,1 °C 4,6 °C 0,0 km/h (0 Bft)
02.11.2018 00:14 4,6 °C 90 % 1017,3 hPa 0,0 mm 0,0 km/h (0 Bft) S-SW 213 ° 0 min 0,000 mm 0,0 UV-I 0 W/m² 3,1 °C 4,6 °C 0,0 km/h (0 Bft)
02.11.2018 00:15 4,7 °C 90 % 1017,3 hPa 0,0 mm 0,0 km/h (0 Bft) S-SW 213 ° 0 min 0,000 mm 0,0 UV-I 0 W/m² 3,2 °C 4,7 °C 0,0 km/h (0 Bft)
02.11.2018 00:16 4,7 °C 90 % 1017,3 hPa 0,0 mm 0,0 km/h (0 Bft) S-SW 213 ° 0 min 0,000 mm 0,0 UV-I 0 W/m² 3,2 °C 4,7 °C 0,0 km/h (0 Bft)
02.11.2018 00:17 4,7 °C 90 % 1017,3 hPa 0,0 mm 0,0 km/h (0 Bft) S-SW 213 ° 0 min 0,000 mm 0,0 UV-I 0 W/m² 3,2 °C 4,7 °C 0,0 km/h (0 Bft)
02.11.2018 00:18 4,7 °C 90 % 1017,4 hPa 0,0 mm 0,0 km/h (0 Bft) S-SW 213 ° 0 min 0,000 mm 0,0 UV-I 0 W/m² 3,2 °C 4,7 °C 0,0 km/h (0 Bft)
02.11.2018 00:19 4,7 °C 90 % 1017,4 hPa 0,0 mm 0,0 km/h (0 Bft) S-SW 213 ° 0 min 0,000 mm 0,0 UV-I 0 W/m² 3,2 °C 4,7 °C 0,0 km/h (0 Bft)
02.11.2018 00:20 4,7 °C 90 % 1017,4 hPa 0,0 mm 0,0 km/h (0 Bft) S-SW 213 ° 0 min 0,000 mm 0,0 UV-I 0 W/m² 3,2 °C 4,7 °C 0,0 km/h (0 Bft)
02.11.2018 00:21 4,7 °C 90 % 1017,4 hPa 0,0 mm 0,0 km/h (0 Bft) S-SW 213 ° 0 min 0,000 mm 0,0 UV-I 0 W/m² 3,2 °C 4,7 °C 0,0 km/h (0 Bft)
02.11.2018 00:22 4,6 °C 90 % 1017,4 hPa 0,0 mm 0,0 km/h (0 Bft) S-SW 213 ° 0 min 0,000 mm 0,0 UV-I 0 W/m² 3,1 °C 4,6 °C 0,0 km/h (0 Bft)
02.11.2018 00:23 4,6 °C 90 % 1017,5 hPa 0,0 mm 0,0 km/h (0 Bft) S-SW 213 ° 0 min 0,000 mm 0,0 UV-I 0 W/m² 3,1 °C 4,6 °C 0,0 km/h (0 Bft)
02.11.2018 00:24 4,5 °C 90 % 1017,5 hPa 0,0 mm 0,0 km/h (0 Bft) S-SW 213 ° 0 min 0,000 mm 0,0 UV-I 0 W/m² 3,0 °C 4,5 °C 0,0 km/h (0 Bft)
02.11.2018 00:25 4,5 °C 90 % 1017,5 hPa 0,0 mm 0,0 km/h (0 Bft) S-SW 213 ° 0 min 0,000 mm 0,0 UV-I 0 W/m² 3,0 °C 4,5 °C 0,0 km/h (0 Bft)
02.11.2018 00:26 4,4 °C 90 % 1017,5 hPa 0,0 mm 0,0 km/h (0 Bft) S-SW 213 ° 0 min 0,000 mm 0,0 UV-I 0 W/m² 2,9 °C 4,4 °C 0,0 km/h (0 Bft)
02.11.2018 00:27 4,4 °C 91 % 1017,5 hPa 0,0 mm 0,0 km/h (0 Bft) S-SW 213 ° 0 min 0,000 mm 0,0 UV-I 0 W/m² 3,1 °C 4,4 °C 0,0 km/h (0 Bft)
02.11.2018 00:28 4,4 °C 91 % 1017,5 hPa 0,0 mm 0,0 km/h (0 Bft) S-SW 213 ° 0 min 0,000 mm 0,0 UV-I 0 W/m² 3,1 °C 4,4 °C 0,0 km/h (0 Bft)
02.11.2018 00:29 4,5 °C 91 % 1017,5 hPa 0,0 mm 0,0 km/h (0 Bft) S-SW 213 ° 0 min 0,000 mm 0,0 UV-I 0 W/m² 3,2 °C 4,5 °C 0,0 km/h (0 Bft)
02.11.2018 00:30 4,6 °C 91 % 1017,5 hPa 0,0 mm 0,0 km/h (0 Bft) S-SW 213 ° 0 min 0,000 mm 0,0 UV-I 0 W/m² 3,3 °C 4,6 °C 0,0 km/h (0 Bft)
02.11.2018 00:31 4,6 °C 91 % 1017,4 hPa 0,0 mm 0,0 km/h (0 Bft) S-SW 213 ° 0 min 0,000 mm 0,0 UV-I 0 W/m² 3,3 °C 4,6 °C 0,0 km/h (0 Bft)
02.11.2018 00:32 4,6 °C 91 % 1017,5 hPa 0,0 mm 0,0 km/h (0 Bft) S-SW 213 ° 0 min 0,000 mm 0,0 UV-I 0 W/m² 3,3 °C 4,6 °C 0,0 km/h (0 Bft)
02.11.2018 00:33 4,5 °C 91 % 1017,5 hPa 0,0 mm 0,9 km/h (0 Bft) S-SW 213 ° 0 min 0,000 mm 0,0 UV-I 0 W/m² 3,2 °C 4,5 °C 1,6 km/h (1 Bft)
02.11.2018 00:34 4,5 °C 91 % 1017,4 hPa 0,0 mm 0,0 km/h (0 Bft) S-SW 213 ° 0 min 0,000 mm 0,0 UV-I 0 W/m² 3,2 °C 4,5 °C 0,0 km/h (0 Bft)
02.11.2018 00:35 4,4 °C 91 % 1017,5 hPa 0,0 mm 0,0 km/h (0 Bft) S-SW 213 ° 0 min 0,000 mm 0,0 UV-I 0 W/m² 3,1 °C 4,4 °C 0,0 km/h (0 Bft)
02.11.2018 00:36 4,4 °C 90 % 1017,5 hPa 0,0 mm 0,0 km/h (0 Bft) S-SW 213 ° 0 min 0,000 mm 0,0 UV-I 0 W/m² 2,9 °C 4,4 °C 0,0 km/h (0 Bft)
02.11.2018 00:37 4,3 °C 90 % 1017,5 hPa 0,0 mm 0,0 km/h (0 Bft) S-SW 213 ° 0 min 0,000 mm 0,0 UV-I 0 W/m² 2,8 °C 4,3 °C 0,0 km/h (0 Bft)
02.11.2018 00:38 4,3 °C 91 % 1017,5 hPa 0,0 mm 0,0 km/h (0 Bft) S-SW 213 ° 0 min 0,000 mm 0,0 UV-I 0 W/m² 3,0 °C 4,3 °C 0,0 km/h (0 Bft)
02.11.2018 00:39 4,3 °C 91 % 1017,5 hPa 0,0 mm 0,0 km/h (0 Bft) S-SW 213 ° 0 min 0,000 mm 0,0 UV-I 0 W/m² 3,0 °C 4,3 °C 0,0 km/h (0 Bft)
02.11.2018 00:40 4,3 °C 91 % 1017,5 hPa 0,0 mm 0,0 km/h (0 Bft) S-SW 213 ° 0 min 0,000 mm 0,0 UV-I 0 W/m² 3,0 °C 4,3 °C 0,0 km/h (0 Bft)
02.11.2018 00:41 4,3 °C 91 % 1017,6 hPa 0,0 mm 0,0 km/h (0 Bft) S-SW 213 ° 0 min 0,000 mm 0,0 UV-I 0 W/m² 3,0 °C 4,3 °C 0,0 km/h (0 Bft)
02.11.2018 00:42 4,4 °C 92 % 1017,6 hPa 0,0 mm 0,0 km/h (0 Bft) S-SW 213 ° 0 min 0,000 mm 0,0 UV-I 0 W/m² 3,2 °C 4,4 °C 0,0 km/h (0 Bft)
02.11.2018 00:43 4,4 °C 91 % 1017,5 hPa 0,0 mm 0,0 km/h (0 Bft) S-SW 213 ° 0 min 0,000 mm 0,0 UV-I 0 W/m² 3,1 °C 4,4 °C 0,0 km/h (0 Bft)
02.11.2018 00:44 4,4 °C 91 % 1017,4 hPa 0,0 mm 0,0 km/h (0 Bft) S-SW 213 ° 0 min 0,000 mm 0,0 UV-I 0 W/m² 3,1 °C 4,4 °C 0,0 km/h (0 Bft)
02.11.2018 00:45 4,3 °C 91 % 1017,5 hPa 0,0 mm 0,0 km/h (0 Bft) S-SW 213 ° 0 min 0,000 mm 0,0 UV-I 0 W/m² 3,0 °C 4,3 °C 0,0 km/h (0 Bft)
02.11.2018 00:46 4,2 °C 91 % 1017,5 hPa 0,0 mm 0,0 km/h (0 Bft) S-SW 213 ° 0 min 0,000 mm 0,0 UV-I 0 W/m² 2,9 °C 4,2 °C 0,0 km/h (0 Bft)
02.11.2018 00:47 4,2 °C 91 % 1017,6 hPa 0,0 mm 0,0 km/h (0 Bft) S-SW 213 ° 0 min 0,000 mm 0,0 UV-I 0 W/m² 2,9 °C 4,2 °C 0,0 km/h (0 Bft)
02.11.2018 00:48 4,2 °C 91 % 1017,6 hPa 0,0 mm 0,0 km/h (0 Bft) S-SW 213 ° 0 min 0,000 mm 0,0 UV-I 0 W/m² 2,9 °C 4,2 °C 0,0 km/h (0 Bft)
02.11.2018 00:49 4,1 °C 91 % 1017,6 hPa 0,0 mm 0,0 km/h (0 Bft) S-SW 213 ° 0 min 0,000 mm 0,0 UV-I 0 W/m² 2,8 °C 4,1 °C 0,0 km/h (0 Bft)
02.11.2018 00:50 4,2 °C 91 % 1017,6 hPa 0,0 mm 0,0 km/h (0 Bft) S-SW 213 ° 0 min 0,000 mm 0,0 UV-I 0 W/m² 2,9 °C 4,2 °C 0,0 km/h (0 Bft)
02.11.2018 00:51 4,3 °C 92 % 1017,6 hPa 0,0 mm 0,2 km/h (0 Bft) S-SW 213 ° 0 min 0,000 mm 0,0 UV-I 0 W/m² 3,1 °C 4,3 °C 1,6 km/h (1 Bft)
02.11.2018 00:52 4,6 °C 92 % 1017,6 hPa 0,0 mm 2,2 km/h (1 Bft) S-SW 213 ° 0 min 0,000 mm 0,0 UV-I 0 W/m² 3,4 °C 4,6 °C 3,2 km/h (1 Bft)
02.11.2018 00:53 4,7 °C 92 % 1017,6 hPa 0,0 mm 0,0 km/h (0 Bft) S-SW 213 ° 0 min 0,000 mm 0,0 UV-I 0 W/m² 3,5 °C 4,7 °C 0,0 km/h (0 Bft)
02.11.2018 00:54 4,7 °C 92 % 1017,6 hPa 0,0 mm 0,0 km/h (0 Bft) S-SW 213 ° 0 min 0,000 mm 0,0 UV-I 0 W/m² 3,5 °C 4,7 °C 0,0 km/h (0 Bft)
02.11.2018 00:55 4,7 °C 91 % 1017,5 hPa 0,0 mm 0,0 km/h (0 Bft) S-SW 213 ° 0 min 0,000 mm 0,0 UV-I 0 W/m² 3,4 °C 4,7 °C 0,0 km/h (0 Bft)
02.11.2018 00:56 4,6 °C 91 % 1017,5 hPa 0,0 mm 0,0 km/h (0 Bft) S-SW 213 ° 0 min 0,000 mm 0,0 UV-I 0 W/m² 3,3 °C 4,6 °C 0,0 km/h (0 Bft)
02.11.2018 00:57 4,6 °C 91 % 1017,5 hPa 0,0 mm 0,0 km/h (0 Bft) S-SW 213 ° 0 min 0,000 mm 0,0 UV-I 0 W/m² 3,3 °C 4,6 °C 0,0 km/h (0 Bft)
02.11.2018 00:58 4,5 °C 91 % 1017,4 hPa 0,0 mm 0,1 km/h (0 Bft) S-SW 213 ° 0 min 0,000 mm 0,0 UV-I 0 W/m² 3,2 °C 4,5 °C 1,6 km/h (1 Bft)
02.11.2018 00:59 4,5 °C 91 % 1017,4 hPa 0,0 mm 3,1 km/h (1 Bft) S-SW 213 ° 0 min 0,000 mm 0,0 UV-I 0 W/m² 3,2 °C 4,5 °C 4,8 km/h (1 Bft)
02.11.2018 01:00 4,5 °C 91 % 1017,5 hPa 0,0 mm 1,3 km/h (1 Bft) S-SW 213 ° 0 min 0,000 mm 0,0 UV-I 0 W/m² 3,2 °C 4,5 °C 3,2 km/h (1 Bft)
02.11.2018 01:01 4,6 °C 91 % 1017,5 hPa 0,0 mm 0,5 km/h (0 Bft) S-SW 213 ° 0 min 0,000 mm 0,0 UV-I 0 W/m² 3,3 °C 4,6 °C 3,2 km/h (1 Bft)
02.11.2018 01:02 4,4 °C 90 % 1017,5 hPa 0,0 mm 2,2 km/h (1 Bft) S-SW 213 ° 0 min 0,000 mm 0,0 UV-I 0 W/m² 2,9 °C 4,4 °C 3,2 km/h (1 Bft)
02.11.2018 01:03 4,5 °C 91 % 1017,5 hPa 0,0 mm 3,2 km/h (1 Bft) S-SW 213 ° 0 min 0,000 mm 0,0 UV-I 0 W/m² 3,2 °C 4,5 °C 4,8 km/h (1 Bft)
02.11.2018 01:04 4,6 °C 91 % 1017,6 hPa 0,0 mm 0,9 km/h (0 Bft) S-SW 213 ° 0 min 0,000 mm 0,0 UV-I 0 W/m² 3,3 °C 4,6 °C 3,2 km/h (1 Bft)
02.11.2018 01:05 4,7 °C 92 % 1017,7 hPa 0,0 mm 0,0 km/h (0 Bft) S-SW 213 ° 0 min 0,000 mm 0,0 UV-I 0 W/m² 3,5 °C 4,7 °C 0,0 km/h (0 Bft)
02.11.2018 01:06 4,7 °C 92 % 1017,7 hPa 0,0 mm 0,0 km/h (0 Bft) S-SW 213 ° 0 min 0,000 mm 0,0 UV-I 0 W/m² 3,5 °C 4,7 °C 0,0 km/h (0 Bft)
02.11.2018 01:07 4,7 °C 91 % 1017,7 hPa 0,0 mm 0,0 km/h (0 Bft) S-SW 213 ° 0 min 0,000 mm 0,0 UV-I 0 W/m² 3,4 °C 4,7 °C 0,0 km/h (0 Bft)
02.11.2018 01:08 4,5 °C 90 % 1017,8 hPa 0,0 mm 0,0 km/h (0 Bft) S-SW 213 ° 0 min 0,000 mm 0,0 UV-I 0 W/m² 3,0 °C 4,5 °C 0,0 km/h (0 Bft)
02.11.2018 01:09 4,3 °C 90 % 1017,8 hPa 0,0 mm 0,0 km/h (0 Bft) S-SW 213 ° 0 min 0,000 mm 0,0 UV-I 0 W/m² 2,8 °C 4,3 °C 0,0 km/h (0 Bft)
02.11.2018 01:10 4,2 °C 90 % 1017,8 hPa 0,0 mm 0,0 km/h (0 Bft) S-SW 213 ° 0 min 0,000 mm 0,0 UV-I 0 W/m² 2,7 °C 4,2 °C 0,0 km/h (0 Bft)
02.11.2018 01:11 4,1 °C 90 % 1017,8 hPa 0,0 mm 0,0 km/h (0 Bft) S-SW 213 ° 0 min 0,000 mm 0,0 UV-I 0 W/m² 2,6 °C 4,1 °C 0,0 km/h (0 Bft)
02.11.2018 01:12 4,0 °C 91 % 1017,8 hPa 0,0 mm 0,0 km/h (0 Bft) S-SW 213 ° 0 min 0,000 mm 0,0 UV-I 0 W/m² 2,7 °C 4,0 °C 0,0 km/h (0 Bft)
02.11.2018 01:13 3,9 °C 91 % 1017,8 hPa 0,0 mm 0,0 km/h (0 Bft) S-SW 213 ° 0 min 0,000 mm 0,0 UV-I 0 W/m² 2,6 °C 3,9 °C 0,0 km/h (0 Bft)
02.11.2018 01:14 3,9 °C 91 % 1017,9 hPa 0,0 mm 0,0 km/h (0 Bft) S-SW 213 ° 0 min 0,000 mm 0,0 UV-I 0 W/m² 2,6 °C 3,9 °C 0,0 km/h (0 Bft)
02.11.2018 01:15 3,8 °C 91 % 1017,9 hPa 0,0 mm 0,0 km/h (0 Bft) S-SW 213 ° 0 min 0,000 mm 0,0 UV-I 0 W/m² 2,5 °C 3,8 °C 0,0 km/h (0 Bft)
02.11.2018 01:16 3,8 °C 91 % 1017,9 hPa 0,0 mm 0,0 km/h (0 Bft) S-SW 213 ° 0 min 0,000 mm 0,0 UV-I 0 W/m² 2,5 °C 3,8 °C 0,0 km/h (0 Bft)
02.11.2018 01:17 3,9 °C 91 % 1017,9 hPa 0,0 mm 0,0 km/h (0 Bft) S-SW 213 ° 0 min 0,000 mm 0,0 UV-I 0 W/m² 2,6 °C 3,9 °C 0,0 km/h (0 Bft)
02.11.2018 01:18 4,1 °C 91 % 1017,9 hPa 0,0 mm 0,0 km/h (0 Bft) S-SW 213 ° 0 min 0,000 mm 0,0 UV-I 0 W/m² 2,8 °C 4,1 °C 0,0 km/h (0 Bft)
02.11.2018 01:19 4,2 °C 92 % 1017,8 hPa 0,0 mm 0,0 km/h (0 Bft) S-SW 213 ° 0 min 0,000 mm 0,0 UV-I 0 W/m² 3,0 °C 4,2 °C 0,0 km/h (0 Bft)
02.11.2018 01:20 4,2 °C 92 % 1017,8 hPa 0,0 mm 0,0 km/h (0 Bft) S-SW 213 ° 0 min 0,000 mm 0,0 UV-I 0 W/m² 3,0 °C 4,2 °C 0,0 km/h (0 Bft)
02.11.2018 01:21 4,1 °C 91 % 1017,8 hPa 0,0 mm 0,0 km/h (0 Bft) S-SW 213 ° 0 min 0,000 mm 0,0 UV-I 0 W/m² 2,8 °C 4,1 °C 0,0 km/h (0 Bft)
02.11.2018 01:22 4,1 °C 91 % 1017,7 hPa 0,0 mm 0,0 km/h (0 Bft) S-SW 213 ° 0 min 0,000 mm 0,0 UV-I 0 W/m² 2,8 °C 4,1 °C 0,0 km/h (0 Bft)
02.11.2018 01:23 3,9 °C 91 % 1017,7 hPa 0,0 mm 0,0 km/h (0 Bft) S-SW 213 ° 0 min 0,000 mm 0,0 UV-I 0 W/m² 2,6 °C 3,9 °C 0,0 km/h (0 Bft)
02.11.2018 01:24 3,9 °C 91 % 1017,7 hPa 0,0 mm 0,0 km/h (0 Bft) S-SW 213 ° 0 min 0,000 mm 0,0 UV-I 0 W/m² 2,6 °C 3,9 °C 0,0 km/h (0 Bft)
02.11.2018 01:25 3,9 °C 91 % 1017,7 hPa 0,0 mm 0,0 km/h (0 Bft) S-SW 213 ° 0 min 0,000 mm 0,0 UV-I 0 W/m² 2,6 °C 3,9 °C 0,0 km/h (0 Bft)
02.11.2018 01:26 3,9 °C 91 % 1017,7 hPa 0,0 mm 0,0 km/h (0 Bft) S-SW 213 ° 0 min 0,000 mm 0,0 UV-I 0 W/m² 2,6 °C 3,9 °C 0,0 km/h (0 Bft)
02.11.2018 01:27 3,9 °C 91 % 1017,6 hPa 0,0 mm 0,0 km/h (0 Bft) S-SW 213 ° 0 min 0,000 mm 0,0 UV-I 0 W/m² 2,6 °C 3,9 °C 0,0 km/h (0 Bft)
02.11.2018 01:28 3,9 °C 91 % 1017,7 hPa 0,0 mm 0,0 km/h (0 Bft) S-SW 213 ° 0 min 0,000 mm 0,0 UV-I 0 W/m² 2,6 °C 3,9 °C 0,0 km/h (0 Bft)
02.11.2018 01:29 3,9 °C 91 % 1017,7 hPa 0,0 mm 0,0 km/h (0 Bft) S-SW 213 ° 0 min 0,000 mm 0,0 UV-I 0 W/m² 2,6 °C 3,9 °C 0,0 km/h (0 Bft)
02.11.2018 01:30 3,8 °C 91 % 1017,7 hPa 0,0 mm 0,0 km/h (0 Bft) S-SW 213 ° 0 min 0,000 mm 0,0 UV-I 0 W/m² 2,5 °C 3,8 °C 0,0 km/h (0 Bft)
02.11.2018 01:31 3,8 °C 92 % 1017,7 hPa 0,0 mm 0,0 km/h (0 Bft) S-SW 213 ° 0 min 0,000 mm 0,0 UV-I 0 W/m² 2,6 °C 3,8 °C 0,0 km/h (0 Bft)
02.11.2018 01:32 3,8 °C 92 % 1017,6 hPa 0,0 mm 0,0 km/h (0 Bft) S-SW 213 ° 0 min 0,000 mm 0,0 UV-I 0 W/m² 2,6 °C 3,8 °C 0,0 km/h (0 Bft)
02.11.2018 01:33 3,8 °C 92 % 1017,6 hPa 0,0 mm 0,0 km/h (0 Bft) S-SW 213 ° 0 min 0,000 mm 0,0 UV-I 0 W/m² 2,6 °C 3,8 °C 0,0 km/h (0 Bft)
02.11.2018 01:34 3,8 °C 92 % 1017,5 hPa 0,0 mm 0,0 km/h (0 Bft) S-SW 213 ° 0 min 0,000 mm 0,0 UV-I 0 W/m² 2,6 °C 3,8 °C 0,0 km/h (0 Bft)
02.11.2018 01:35 3,8 °C 92 % 1017,5 hPa 0,0 mm 0,0 km/h (0 Bft) S-SW 213 ° 0 min 0,000 mm 0,0 UV-I 0 W/m² 2,6 °C 3,8 °C 0,0 km/h (0 Bft)
02.11.2018 01:36 3,8 °C 92 % 1017,6 hPa 0,0 mm 0,0 km/h (0 Bft) S-SW 213 ° 0 min 0,000 mm 0,0 UV-I 0 W/m² 2,6 °C 3,8 °C 0,0 km/h (0 Bft)
02.11.2018 01:37 3,8 °C 92 % 1017,6 hPa 0,0 mm 0,0 km/h (0 Bft) S-SW 213 ° 0 min 0,000 mm 0,0 UV-I 0 W/m² 2,6 °C 3,8 °C 0,0 km/h (0 Bft)
02.11.2018 01:38 3,9 °C 92 % 1017,6 hPa 0,0 mm 0,0 km/h (0 Bft) S-SW 213 ° 0 min 0,000 mm 0,0 UV-I 0 W/m² 2,7 °C 3,9 °C 0,0 km/h (0 Bft)
02.11.2018 01:39 4,0 °C 92 % 1017,6 hPa 0,0 mm 0,0 km/h (0 Bft) S-SW 213 ° 0 min 0,000 mm 0,0 UV-I 0 W/m² 2,8 °C 4,0 °C 0,0 km/h (0 Bft)
02.11.2018 01:40 4,1 °C 92 % 1017,6 hPa 0,0 mm 0,0 km/h (0 Bft) S-SW 213 ° 0 min 0,000 mm 0,0 UV-I 0 W/m² 2,9 °C 4,1 °C 0,0 km/h (0 Bft)
02.11.2018 01:41 4,3 °C 92 % 1017,6 hPa 0,0 mm 0,0 km/h (0 Bft) S-SW 213 ° 0 min 0,000 mm 0,0 UV-I 0 W/m² 3,1 °C 4,3 °C 0,0 km/h (0 Bft)
02.11.2018 01:42 4,3 °C 93 % 1017,6 hPa 0,0 mm 0,0 km/h (0 Bft) S-SW 213 ° 0 min 0,000 mm 0,0 UV-I 0 W/m² 3,3 °C 4,3 °C 0,0 km/h (0 Bft)
02.11.2018 01:43 4,3 °C 92 % 1017,6 hPa 0,0 mm 1,0 km/h (0 Bft) S-SW 213 ° 0 min 0,000 mm 0,0 UV-I 0 W/m² 3,1 °C 4,3 °C 3,2 km/h (1 Bft)
02.11.2018 01:44 4,2 °C 91 % 1017,7 hPa 0,0 mm 0,0 km/h (0 Bft) S-SW 213 ° 0 min 0,000 mm 0,0 UV-I 0 W/m² 2,9 °C 4,2 °C 0,0 km/h (0 Bft)
02.11.2018 01:45 4,0 °C 92 % 1017,6 hPa 0,0 mm 0,1 km/h (0 Bft) S-SW 213 ° 0 min 0,000 mm 0,0 UV-I 0 W/m² 2,8 °C 4,0 °C 1,6 km/h (1 Bft)
02.11.2018 01:46 3,9 °C 91 % 1017,6 hPa 0,0 mm 0,1 km/h (0 Bft) S-SW 213 ° 0 min 0,000 mm 0,0 UV-I 0 W/m² 2,6 °C 3,9 °C 1,6 km/h (1 Bft)
02.11.2018 01:47 4,0 °C 92 % 1017,7 hPa 0,0 mm 0,0 km/h (0 Bft) S-SW 213 ° 0 min 0,000 mm 0,0 UV-I 0 W/m² 2,8 °C 4,0 °C 0,0 km/h (0 Bft)
02.11.2018 01:48 4,0 °C 92 % 1017,7 hPa 0,0 mm 0,0 km/h (0 Bft) S-SW 213 ° 0 min 0,000 mm 0,0 UV-I 0 W/m² 2,8 °C 4,0 °C 0,0 km/h (0 Bft)
02.11.2018 01:49 4,0 °C 92 % 1017,7 hPa 0,0 mm 0,0 km/h (0 Bft) S-SW 213 ° 0 min 0,000 mm 0,0 UV-I 0 W/m² 2,8 °C 4,0 °C 0,0 km/h (0 Bft)
02.11.2018 01:50 3,9 °C 92 % 1017,7 hPa 0,0 mm 0,0 km/h (0 Bft) S-SW 213 ° 0 min 0,000 mm 0,0 UV-I 0 W/m² 2,7 °C 3,9 °C 0,0 km/h (0 Bft)
02.11.2018 01:51 3,8 °C 92 % 1017,8 hPa 0,0 mm 0,0 km/h (0 Bft) S-SW 213 ° 0 min 0,000 mm 0,0 UV-I 0 W/m² 2,6 °C 3,8 °C 0,0 km/h (0 Bft)
02.11.2018 01:52 3,8 °C 91 % 1017,8 hPa 0,0 mm 0,0 km/h (0 Bft) S-SW 213 ° 0 min 0,000 mm 0,0 UV-I 0 W/m² 2,5 °C 3,8 °C 0,0 km/h (0 Bft)
02.11.2018 01:53 3,8 °C 92 % 1017,7 hPa 0,0 mm 0,0 km/h (0 Bft) S-SW 213 ° 0 min 0,000 mm 0,0 UV-I 0 W/m² 2,6 °C 3,8 °C 0,0 km/h (0 Bft)
02.11.2018 01:54 3,8 °C 92 % 1017,7 hPa 0,0 mm 0,0 km/h (0 Bft) S-SW 213 ° 0 min 0,000 mm 0,0 UV-I 0 W/m² 2,6 °C 3,8 °C 0,0 km/h (0 Bft)
02.11.2018 01:55 3,8 °C 92 % 1017,7 hPa 0,0 mm 0,0 km/h (0 Bft) S-SW 213 ° 0 min 0,000 mm 0,0 UV-I 0 W/m² 2,6 °C 3,8 °C 0,0 km/h (0 Bft)
02.11.2018 01:56 3,9 °C 92 % 1017,6 hPa 0,0 mm 0,0 km/h (0 Bft) S-SW 213 ° 0 min 0,000 mm 0,0 UV-I 0 W/m² 2,7 °C 3,9 °C 0,0 km/h (0 Bft)
02.11.2018 01:57 4,0 °C 92 % 1017,8 hPa 0,0 mm 0,5 km/h (0 Bft) S-SW 213 ° 0 min 0,000 mm 0,0 UV-I 0 W/m² 2,8 °C 4,0 °C 1,6 km/h (1 Bft)
02.11.2018 01:58 4,1 °C 93 % 1017,8 hPa 0,0 mm 0,6 km/h (0 Bft) S-SW 213 ° 0 min 0,000 mm 0,0 UV-I 0 W/m² 3,1 °C 4,1 °C 1,6 km/h (1 Bft)
02.11.2018 01:59 4,2 °C 92 % 1017,7 hPa 0,0 mm 0,0 km/h (0 Bft) S-SW 213 ° 0 min 0,000 mm 0,0 UV-I 0 W/m² 3,0 °C 4,2 °C 0,0 km/h (0 Bft)
02.11.2018 02:00 4,1 °C 92 % 1017,7 hPa 0,0 mm 0,0 km/h (0 Bft) S-SW 213 ° 0 min 0,000 mm 0,0 UV-I 0 W/m² 2,9 °C 4,1 °C 0,0 km/h (0 Bft)
02.11.2018 02:01 4,0 °C 92 % 1017,8 hPa 0,0 mm 0,0 km/h (0 Bft) S-SW 213 ° 0 min 0,000 mm 0,0 UV-I 0 W/m² 2,8 °C 4,0 °C 0,0 km/h (0 Bft)
02.11.2018 02:02 3,9 °C 92 % 1017,8 hPa 0,0 mm 0,0 km/h (0 Bft) S-SW 213 ° 0 min 0,000 mm 0,0 UV-I 0 W/m² 2,7 °C 3,9 °C 0,0 km/h (0 Bft)
02.11.2018 02:03 3,8 °C 91 % 1017,8 hPa 0,0 mm 0,0 km/h (0 Bft) S-SW 213 ° 0 min 0,000 mm 0,0 UV-I 0 W/m² 2,5 °C 3,8 °C 0,0 km/h (0 Bft)
02.11.2018 02:04 3,7 °C 91 % 1017,9 hPa 0,0 mm 0,0 km/h (0 Bft) S-SW 213 ° 0 min 0,000 mm 0,0 UV-I 0 W/m² 2,4 °C 3,7 °C 0,0 km/h (0 Bft)
02.11.2018 02:05 3,7 °C 91 % 1017,9 hPa 0,0 mm 0,0 km/h (0 Bft) S-SW 213 ° 0 min 0,000 mm 0,0 UV-I 0 W/m² 2,4 °C 3,7 °C 0,0 km/h (0 Bft)
02.11.2018 02:06 3,7 °C 92 % 1017,8 hPa 0,0 mm 0,0 km/h (0 Bft) S-SW 213 ° 0 min 0,000 mm 0,0 UV-I 0 W/m² 2,5 °C 3,7 °C 0,0 km/h (0 Bft)
02.11.2018 02:07 3,6 °C 92 % 1017,8 hPa 0,0 mm 0,0 km/h (0 Bft) S-SW 213 ° 0 min 0,000 mm 0,0 UV-I 0 W/m² 2,4 °C 3,6 °C 0,0 km/h (0 Bft)
02.11.2018 02:08 3,6 °C 92 % 1017,9 hPa 0,0 mm 0,0 km/h (0 Bft) S-SW 213 ° 0 min 0,000 mm 0,0 UV-I 0 W/m² 2,4 °C 3,6 °C 0,0 km/h (0 Bft)
02.11.2018 02:09 3,4 °C 92 % 1017,8 hPa 0,0 mm 0,0 km/h (0 Bft) S-SW 213 ° 0 min 0,000 mm 0,0 UV-I 0 W/m² 2,2 °C 3,4 °C 0,0 km/h (0 Bft)
02.11.2018 02:10 3,4 °C 92 % 1017,9 hPa 0,0 mm 0,0 km/h (0 Bft) S-SW 213 ° 0 min 0,000 mm 0,0 UV-I 0 W/m² 2,2 °C 3,4 °C 0,0 km/h (0 Bft)
02.11.2018 02:11 3,3 °C 92 % 1017,8 hPa 0,0 mm 0,0 km/h (0 Bft) S-SW 213 ° 0 min 0,000 mm 0,0 UV-I 0 W/m² 2,1 °C 3,3 °C 0,0 km/h (0 Bft)
02.11.2018 02:12 3,3 °C 92 % 1017,8 hPa 0,0 mm 0,0 km/h (0 Bft) S-SW 213 ° 0 min 0,000 mm 0,0 UV-I 0 W/m² 2,1 °C 3,3 °C 0,0 km/h (0 Bft)
02.11.2018 02:13 3,3 °C 92 % 1017,9 hPa 0,0 mm 0,0 km/h (0 Bft) S-SW 213 ° 0 min 0,000 mm 0,0 UV-I 0 W/m² 2,1 °C 3,3 °C 0,0 km/h (0 Bft)
02.11.2018 02:14 3,3 °C 92 % 1017,8 hPa 0,0 mm 0,0 km/h (0 Bft) S-SW 213 ° 0 min 0,000 mm 0,0 UV-I 0 W/m² 2,1 °C 3,3 °C 0,0 km/h (0 Bft)
02.11.2018 02:15 3,3 °C 92 % 1017,8 hPa 0,0 mm 0,0 km/h (0 Bft) S-SW 213 ° 0 min 0,000 mm 0,0 UV-I 0 W/m² 2,1 °C 3,3 °C 0,0 km/h (0 Bft)
02.11.2018 02:16 3,3 °C 92 % 1017,8 hPa 0,0 mm 0,0 km/h (0 Bft) S-SW 213 ° 0 min 0,000 mm 0,0 UV-I 0 W/m² 2,1 °C 3,3 °C 0,0 km/h (0 Bft)
02.11.2018 02:17 3,4 °C 92 % 1017,8 hPa 0,0 mm 0,0 km/h (0 Bft) S-SW 213 ° 0 min 0,000 mm 0,0 UV-I 0 W/m² 2,2 °C 3,4 °C 0,0 km/h (0 Bft)
02.11.2018 02:18 3,4 °C 92 % 1017,9 hPa 0,0 mm 0,0 km/h (0 Bft) S-SW 213 ° 0 min 0,000 mm 0,0 UV-I 0 W/m² 2,2 °C 3,4 °C 0,0 km/h (0 Bft)
02.11.2018 02:19 3,4 °C 92 % 1017,9 hPa 0,0 mm 0,0 km/h (0 Bft) S-SW 213 ° 0 min 0,000 mm 0,0 UV-I 0 W/m² 2,2 °C 3,4 °C 0,0 km/h (0 Bft)
02.11.2018 02:20 3,4 °C 92 % 1017,9 hPa 0,0 mm 0,0 km/h (0 Bft) S-SW 213 ° 0 min 0,000 mm 0,0 UV-I 0 W/m² 2,2 °C 3,4 °C 0,0 km/h (0 Bft)
02.11.2018 02:21 3,4 °C 92 % 1017,9 hPa 0,0 mm 0,0 km/h (0 Bft) S-SW 213 ° 0 min 0,000 mm 0,0 UV-I 0 W/m² 2,2 °C 3,4 °C 0,0 km/h (0 Bft)
02.11.2018 02:22 3,4 °C 92 % 1017,9 hPa 0,0 mm 0,0 km/h (0 Bft) S-SW 213 ° 0 min 0,000 mm 0,0 UV-I 0 W/m² 2,2 °C 3,4 °C 0,0 km/h (0 Bft)
02.11.2018 02:23 3,4 °C 92 % 1017,9 hPa 0,0 mm 0,0 km/h (0 Bft) S-SW 213 ° 0 min 0,000 mm 0,0 UV-I 0 W/m² 2,2 °C 3,4 °C 0,0 km/h (0 Bft)
02.11.2018 02:24 3,4 °C 92 % 1017,9 hPa 0,0 mm 0,0 km/h (0 Bft) S-SW 213 ° 0 min 0,000 mm 0,0 UV-I 0 W/m² 2,2 °C 3,4 °C 0,0 km/h (0 Bft)
02.11.2018 02:25 3,4 °C 92 % 1017,9 hPa 0,0 mm 0,0 km/h (0 Bft) S-SW 213 ° 0 min 0,000 mm 0,0 UV-I 0 W/m² 2,2 °C 3,4 °C 0,0 km/h (0 Bft)
02.11.2018 02:26 3,5 °C 93 % 1017,8 hPa 0,0 mm 0,0 km/h (0 Bft) S-SW 213 ° 0 min 0,000 mm 0,0 UV-I 0 W/m² 2,5 °C 3,5 °C 0,0 km/h (0 Bft)
02.11.2018 02:27 3,6 °C 93 % 1017,8 hPa 0,0 mm 0,0 km/h (0 Bft) S-SW 213 ° 0 min 0,000 mm 0,0 UV-I 0 W/m² 2,6 °C 3,6 °C 0,0 km/h (0 Bft)
02.11.2018 02:28 3,6 °C 93 % 1017,8 hPa 0,0 mm 0,0 km/h (0 Bft) S-SW 213 ° 0 min 0,000 mm 0,0 UV-I 0 W/m² 2,6 °C 3,6 °C 0,0 km/h (0 Bft)
02.11.2018 02:29 3,6 °C 92 % 1017,7 hPa 0,0 mm 0,0 km/h (0 Bft) S-SW 213 ° 0 min 0,000 mm 0,0 UV-I 0 W/m² 2,4 °C 3,6 °C 0,0 km/h (0 Bft)
02.11.2018 02:30 3,6 °C 92 % 1017,7 hPa 0,0 mm 0,0 km/h (0 Bft) S-SW 213 ° 0 min 0,000 mm 0,0 UV-I 0 W/m² 2,4 °C 3,6 °C 0,0 km/h (0 Bft)
02.11.2018 02:31 3,6 °C 93 % 1017,7 hPa 0,0 mm 0,0 km/h (0 Bft) S-SW 213 ° 0 min 0,000 mm 0,0 UV-I 0 W/m² 2,6 °C 3,6 °C 0,0 km/h (0 Bft)
02.11.2018 02:32 3,5 °C 93 % 1017,7 hPa 0,0 mm 0,0 km/h (0 Bft) S-SW 213 ° 0 min 0,000 mm 0,0 UV-I 0 W/m² 2,5 °C 3,5 °C 0,0 km/h (0 Bft)
02.11.2018 02:33 3,5 °C 92 % 1017,7 hPa 0,0 mm 0,0 km/h (0 Bft) S-SW 213 ° 0 min 0,000 mm 0,0 UV-I 0 W/m² 2,3 °C 3,5 °C 0,0 km/h (0 Bft)
02.11.2018 02:34 3,4 °C 92 % 1017,7 hPa 0,0 mm 0,0 km/h (0 Bft) S-SW 213 ° 0 min 0,000 mm 0,0 UV-I 0 W/m² 2,2 °C 3,4 °C 0,0 km/h (0 Bft)
02.11.2018 02:35 3,3 °C 92 % 1017,7 hPa 0,0 mm 0,0 km/h (0 Bft) S-SW 213 ° 0 min 0,000 mm 0,0 UV-I 0 W/m² 2,1 °C 3,3 °C 0,0 km/h (0 Bft)
02.11.2018 02:36 3,3 °C 92 % 1017,7 hPa 0,0 mm 0,0 km/h (0 Bft) S-SW 213 ° 0 min 0,000 mm 0,0 UV-I 0 W/m² 2,1 °C 3,3 °C 0,0 km/h (0 Bft)
02.11.2018 02:37 3,3 °C 92 % 1017,7 hPa 0,0 mm 0,0 km/h (0 Bft) S-SW 213 ° 0 min 0,000 mm 0,0 UV-I 0 W/m² 2,1 °C 3,3 °C 0,0 km/h (0 Bft)
02.11.2018 02:38 3,3 °C 92 % 1017,7 hPa 0,0 mm 0,0 km/h (0 Bft) S-SW 213 ° 0 min 0,000 mm 0,0 UV-I 0 W/m² 2,1 °C 3,3 °C 0,0 km/h (0 Bft)
02.11.2018 02:39 3,3 °C 93 % 1017,7 hPa 0,0 mm 0,0 km/h (0 Bft) S-SW 213 ° 0 min 0,000 mm 0,0 UV-I 0 W/m² 2,3 °C 3,3 °C 0,0 km/h (0 Bft)
02.11.2018 02:40 3,3 °C 93 % 1017,7 hPa 0,0 mm 0,0 km/h (0 Bft) S-SW 213 ° 0 min 0,000 mm 0,0 UV-I 0 W/m² 2,3 °C 3,3 °C 0,0 km/h (0 Bft)
02.11.2018 02:41 3,3 °C 93 % 1017,8 hPa 0,0 mm 0,0 km/h (0 Bft) S-SW 213 ° 0 min 0,000 mm 0,0 UV-I 0 W/m² 2,3 °C 3,3 °C 0,0 km/h (0 Bft)
02.11.2018 02:42 3,3 °C 93 % 1017,8 hPa 0,0 mm 0,0 km/h (0 Bft) S-SW 213 ° 0 min 0,000 mm 0,0 UV-I 0 W/m² 2,3 °C 3,3 °C 0,0 km/h (0 Bft)
02.11.2018 02:43 3,3 °C 93 % 1017,8 hPa 0,0 mm 0,0 km/h (0 Bft) S-SW 213 ° 0 min 0,000 mm 0,0 UV-I 0 W/m² 2,3 °C 3,3 °C 0,0 km/h (0 Bft)
02.11.2018 02:44 3,3 °C 93 % 1017,8 hPa 0,0 mm 0,0 km/h (0 Bft) S-SW 213 ° 0 min 0,000 mm 0,0 UV-I 0 W/m² 2,3 °C 3,3 °C 0,0 km/h (0 Bft)
02.11.2018 02:45 3,3 °C 93 % 1017,8 hPa 0,0 mm 0,0 km/h (0 Bft) S-SW 213 ° 0 min 0,000 mm 0,0 UV-I 0 W/m² 2,3 °C 3,3 °C 0,0 km/h (0 Bft)
02.11.2018 02:46 3,3 °C 93 % 1017,9 hPa 0,0 mm 0,0 km/h (0 Bft) S-SW 213 ° 0 min 0,000 mm 0,0 UV-I 0 W/m² 2,3 °C 3,3 °C 0,0 km/h (0 Bft)
02.11.2018 02:47 3,4 °C 93 % 1017,9 hPa 0,0 mm 0,0 km/h (0 Bft) S-SW 213 ° 0 min 0,000 mm 0,0 UV-I 0 W/m² 2,4 °C 3,4 °C 0,0 km/h (0 Bft)
02.11.2018 02:48 3,4 °C 93 % 1017,9 hPa 0,0 mm 0,0 km/h (0 Bft) S-SW 213 ° 0 min 0,000 mm 0,0 UV-I 0 W/m² 2,4 °C 3,4 °C 0,0 km/h (0 Bft)
02.11.2018 02:49 3,4 °C 93 % 1017,8 hPa 0,0 mm 0,0 km/h (0 Bft) S-SW 213 ° 0 min 0,000 mm 0,0 UV-I 0 W/m² 2,4 °C 3,4 °C 0,0 km/h (0 Bft)
02.11.2018 02:50 3,4 °C 93 % 1017,8 hPa 0,0 mm 0,0 km/h (0 Bft) S-SW 213 ° 0 min 0,000 mm 0,0 UV-I 0 W/m² 2,4 °C 3,4 °C 0,0 km/h (0 Bft)
02.11.2018 02:51 3,4 °C 93 % 1017,7 hPa 0,0 mm 0,0 km/h (0 Bft) S-SW 213 ° 0 min 0,000 mm 0,0 UV-I 0 W/m² 2,4 °C 3,4 °C 0,0 km/h (0 Bft)
02.11.2018 02:52 3,4 °C 93 % 1017,7 hPa 0,0 mm 0,0 km/h (0 Bft) S-SW 213 ° 0 min 0,000 mm 0,0 UV-I 0 W/m² 2,4 °C 3,4 °C 0,0 km/h (0 Bft)
02.11.2018 02:53 3,4 °C 93 % 1017,8 hPa 0,0 mm 0,0 km/h (0 Bft) S-SW 213 ° 0 min 0,000 mm 0,0 UV-I 0 W/m² 2,4 °C 3,4 °C 0,0 km/h (0 Bft)
02.11.2018 02:54 3,5 °C 93 % 1017,8 hPa 0,0 mm 0,0 km/h (0 Bft) S-SW 213 ° 0 min 0,000 mm 0,0 UV-I 0 W/m² 2,5 °C 3,5 °C 0,0 km/h (0 Bft)
02.11.2018 02:55 3,6 °C 93 % 1017,8 hPa 0,0 mm 0,0 km/h (0 Bft) S-SW 213 ° 0 min 0,000 mm 0,0 UV-I 0 W/m² 2,6 °C 3,6 °C 0,0 km/h (0 Bft)
02.11.2018 02:56 3,6 °C 93 % 1017,8 hPa 0,0 mm 0,0 km/h (0 Bft) S-SW 213 ° 0 min 0,000 mm 0,0 UV-I 0 W/m² 2,6 °C 3,6 °C 0,0 km/h (0 Bft)
02.11.2018 02:57 3,7 °C 93 % 1017,7 hPa 0,0 mm 0,0 km/h (0 Bft) S-SW 213 ° 0 min 0,000 mm 0,0 UV-I 0 W/m² 2,7 °C 3,7 °C 0,0 km/h (0 Bft)
02.11.2018 02:58 3,6 °C 93 % 1017,7 hPa 0,0 mm 0,0 km/h (0 Bft) S-SW 213 ° 0 min 0,000 mm 0,0 UV-I 0 W/m² 2,6 °C 3,6 °C 0,0 km/h (0 Bft)
02.11.2018 02:59 3,6 °C 93 % 1017,8 hPa 0,0 mm 0,0 km/h (0 Bft) S-SW 213 ° 0 min 0,000 mm 0,0 UV-I 0 W/m² 2,6 °C 3,6 °C 0,0 km/h (0 Bft)
02.11.2018 03:00 3,6 °C 93 % 1017,8 hPa 0,0 mm 0,0 km/h (0 Bft) S-SW 213 ° 0 min 0,000 mm 0,0 UV-I 0 W/m² 2,6 °C 3,6 °C 0,0 km/h (0 Bft)
02.11.2018 03:01 3,6 °C 93 % 1017,8 hPa 0,0 mm 0,0 km/h (0 Bft) S-SW 213 ° 0 min 0,000 mm 0,0 UV-I 0 W/m² 2,6 °C 3,6 °C 0,0 km/h (0 Bft)
02.11.2018 03:02 3,6 °C 93 % 1017,8 hPa 0,0 mm 0,0 km/h (0 Bft) S-SW 213 ° 0 min 0,000 mm 0,0 UV-I 0 W/m² 2,6 °C 3,6 °C 0,0 km/h (0 Bft)
02.11.2018 03:03 3,6 °C 93 % 1017,8 hPa 0,0 mm 0,0 km/h (0 Bft) S-SW 213 ° 0 min 0,000 mm 0,0 UV-I 0 W/m² 2,6 °C 3,6 °C 0,0 km/h (0 Bft)
02.11.2018 03:04 3,6 °C 93 % 1017,8 hPa 0,0 mm 0,0 km/h (0 Bft) S-SW 213 ° 0 min 0,000 mm 0,0 UV-I 0 W/m² 2,6 °C 3,6 °C 0,0 km/h (0 Bft)
02.11.2018 03:05 3,6 °C 93 % 1017,8 hPa 0,0 mm 0,0 km/h (0 Bft) S-SW 213 ° 0 min 0,000 mm 0,0 UV-I 0 W/m² 2,6 °C 3,6 °C 0,0 km/h (0 Bft)
02.11.2018 03:06 3,5 °C 93 % 1017,7 hPa 0,0 mm 0,0 km/h (0 Bft) S-SW 213 ° 0 min 0,000 mm 0,0 UV-I 0 W/m² 2,5 °C 3,5 °C 0,0 km/h (0 Bft)
02.11.2018 03:07 3,4 °C 93 % 1017,7 hPa 0,0 mm 0,0 km/h (0 Bft) S-SW 213 ° 0 min 0,000 mm 0,0 UV-I 0 W/m² 2,4 °C 3,4 °C 0,0 km/h (0 Bft)
02.11.2018 03:08 3,4 °C 93 % 1017,7 hPa 0,0 mm 0,0 km/h (0 Bft) S-SW 213 ° 0 min 0,000 mm 0,0 UV-I 0 W/m² 2,4 °C 3,4 °C 0,0 km/h (0 Bft)
02.11.2018 03:09 3,3 °C 93 % 1017,7 hPa 0,0 mm 0,0 km/h (0 Bft) S-SW 213 ° 0 min 0,000 mm 0,0 UV-I 0 W/m² 2,3 °C 3,3 °C 0,0 km/h (0 Bft)
02.11.2018 03:10 3,4 °C 93 % 1017,8 hPa 0,0 mm 0,0 km/h (0 Bft) S-SW 213 ° 0 min 0,000 mm 0,0 UV-I 0 W/m² 2,4 °C 3,4 °C 0,0 km/h (0 Bft)
02.11.2018 03:11 3,4 °C 93 % 1017,8 hPa 0,0 mm 0,0 km/h (0 Bft) S-SW 213 ° 0 min 0,000 mm 0,0 UV-I 0 W/m² 2,4 °C 3,4 °C 0,0 km/h (0 Bft)
02.11.2018 03:12 3,5 °C 93 % 1017,8 hPa 0,0 mm 0,0 km/h (0 Bft) S-SW 213 ° 0 min 0,000 mm 0,0 UV-I 0 W/m² 2,5 °C 3,5 °C 0,0 km/h (0 Bft)
02.11.2018 03:13 3,6 °C 93 % 1017,8 hPa 0,0 mm 0,0 km/h (0 Bft) S-SW 213 ° 0 min 0,000 mm 0,0 UV-I 0 W/m² 2,6 °C 3,6 °C 0,0 km/h (0 Bft)
02.11.2018 03:14 3,5 °C 93 % 1017,8 hPa 0,0 mm 0,0 km/h (0 Bft) S-SW 213 ° 0 min 0,000 mm 0,0 UV-I 0 W/m² 2,5 °C 3,5 °C 0,0 km/h (0 Bft)
02.11.2018 03:15 3,4 °C 93 % 1017,8 hPa 0,0 mm 0,0 km/h (0 Bft) S-SW 213 ° 0 min 0,000 mm 0,0 UV-I 0 W/m² 2,4 °C 3,4 °C 0,0 km/h (0 Bft)
02.11.2018 03:16 3,4 °C 93 % 1017,7 hPa 0,0 mm 0,0 km/h (0 Bft) S-SW 213 ° 0 min 0,000 mm 0,0 UV-I 0 W/m² 2,4 °C 3,4 °C 0,0 km/h (0 Bft)
02.11.2018 03:17 3,3 °C 93 % 1017,7 hPa 0,0 mm 0,0 km/h (0 Bft) S-SW 213 ° 0 min 0,000 mm 0,0 UV-I 0 W/m² 2,3 °C 3,3 °C 0,0 km/h (0 Bft)
02.11.2018 03:18 3,3 °C 93 % 1017,7 hPa 0,0 mm 0,0 km/h (0 Bft) S-SW 213 ° 0 min 0,000 mm 0,0 UV-I 0 W/m² 2,3 °C 3,3 °C 0,0 km/h (0 Bft)
02.11.2018 03:19 3,3 °C 93 % 1017,7 hPa 0,0 mm 0,0 km/h (0 Bft) S-SW 213 ° 0 min 0,000 mm 0,0 UV-I 0 W/m² 2,3 °C 3,3 °C 0,0 km/h (0 Bft)
02.11.2018 03:20 3,2 °C 93 % 1017,7 hPa 0,0 mm 0,0 km/h (0 Bft) S-SW 213 ° 0 min 0,000 mm 0,0 UV-I 0 W/m² 2,2 °C 3,2 °C 0,0 km/h (0 Bft)
02.11.2018 03:21 3,2 °C 93 % 1017,7 hPa 0,0 mm 0,0 km/h (0 Bft) S-SW 213 ° 0 min 0,000 mm 0,0 UV-I 0 W/m² 2,2 °C 3,2 °C 0,0 km/h (0 Bft)
02.11.2018 03:22 3,1 °C 93 % 1017,7 hPa 0,0 mm 0,0 km/h (0 Bft) S-SW 213 ° 0 min 0,000 mm 0,0 UV-I 0 W/m² 2,1 °C 3,1 °C 0,0 km/h (0 Bft)
02.11.2018 03:23 3,0 °C 93 % 1017,7 hPa 0,0 mm 0,0 km/h (0 Bft) S-SW 213 ° 0 min 0,000 mm 0,0 UV-I 0 W/m² 2,0 °C 3,0 °C 0,0 km/h (0 Bft)
02.11.2018 03:24 2,9 °C 93 % 1017,7 hPa 0,0 mm 0,0 km/h (0 Bft) S-SW 213 ° 0 min 0,000 mm 0,0 UV-I 0 W/m² 1,9 °C 2,9 °C 0,0 km/h (0 Bft)
02.11.2018 03:25 2,9 °C 93 % 1017,7 hPa 0,0 mm 0,0 km/h (0 Bft) S-SW 213 ° 0 min 0,000 mm 0,0 UV-I 0 W/m² 1,9 °C 2,9 °C 0,0 km/h (0 Bft)
02.11.2018 03:26 2,9 °C 93 % 1017,7 hPa 0,0 mm 0,0 km/h (0 Bft) S-SW 213 ° 0 min 0,000 mm 0,0 UV-I 0 W/m² 1,9 °C 2,9 °C 0,0 km/h (0 Bft)
02.11.2018 03:27 2,9 °C 93 % 1017,7 hPa 0,0 mm 0,3 km/h (0 Bft) S-SW 213 ° 0 min 0,000 mm 0,0 UV-I 0 W/m² 1,9 °C 2,9 °C 1,6 km/h (1 Bft)
02.11.2018 03:28 2,9 °C 93 % 1017,7 hPa 0,0 mm 0,2 km/h (0 Bft) S-SW 213 ° 0 min 0,000 mm 0,0 UV-I 0 W/m² 1,9 °C 2,9 °C 1,6 km/h (1 Bft)
02.11.2018 03:29 2,9 °C 93 % 1017,7 hPa 0,0 mm 0,0 km/h (0 Bft) S-SW 213 ° 0 min 0,000 mm 0,0 UV-I 0 W/m² 1,9 °C 2,9 °C 0,0 km/h (0 Bft)
02.11.2018 03:30 2,9 °C 93 % 1017,7 hPa 0,0 mm 0,0 km/h (0 Bft) S-SW 213 ° 0 min 0,000 mm 0,0 UV-I 0 W/m² 1,9 °C 2,9 °C 0,0 km/h (0 Bft)
02.11.2018 03:31 3,0 °C 93 % 1017,7 hPa 0,0 mm 0,0 km/h (0 Bft) S-SW 213 ° 0 min 0,000 mm 0,0 UV-I 0 W/m² 2,0 °C 3,0 °C 0,0 km/h (0 Bft)
02.11.2018 03:32 3,2 °C 93 % 1017,7 hPa 0,0 mm 0,0 km/h (0 Bft) S-SW 213 ° 0 min 0,000 mm 0,0 UV-I 0 W/m² 2,2 °C 3,2 °C 0,0 km/h (0 Bft)
02.11.2018 03:33 3,2 °C 93 % 1017,7 hPa 0,0 mm 0,0 km/h (0 Bft) S-SW 213 ° 0 min 0,000 mm 0,0 UV-I 0 W/m² 2,2 °C 3,2 °C 0,0 km/h (0 Bft)
02.11.2018 03:34 3,3 °C 93 % 1017,7 hPa 0,0 mm 0,0 km/h (0 Bft) S-SW 213 ° 0 min 0,000 mm 0,0 UV-I 0 W/m² 2,3 °C 3,3 °C 0,0 km/h (0 Bft)
02.11.2018 03:35 3,3 °C 93 % 1017,6 hPa 0,0 mm 0,0 km/h (0 Bft) S-SW 213 ° 0 min 0,000 mm 0,0 UV-I 0 W/m² 2,3 °C 3,3 °C 0,0 km/h (0 Bft)
02.11.2018 03:36 3,2 °C 93 % 1017,7 hPa 0,0 mm 0,0 km/h (0 Bft) S-SW 213 ° 0 min 0,000 mm 0,0 UV-I 0 W/m² 2,2 °C 3,2 °C 0,0 km/h (0 Bft)
02.11.2018 03:37 3,2 °C 93 % 1017,6 hPa 0,0 mm 0,0 km/h (0 Bft) S-SW 213 ° 0 min 0,000 mm 0,0 UV-I 0 W/m² 2,2 °C 3,2 °C 0,0 km/h (0 Bft)
02.11.2018 03:38 3,3 °C 93 % 1017,7 hPa 0,0 mm 0,0 km/h (0 Bft) S-SW 213 ° 0 min 0,000 mm 0,0 UV-I 0 W/m² 2,3 °C 3,3 °C 0,0 km/h (0 Bft)
02.11.2018 03:39 3,3 °C 93 % 1017,7 hPa 0,0 mm 0,0 km/h (0 Bft) S-SW 213 ° 0 min 0,000 mm 0,0 UV-I 0 W/m² 2,3 °C 3,3 °C 0,0 km/h (0 Bft)
02.11.2018 03:40 3,3 °C 93 % 1017,7 hPa 0,0 mm 0,0 km/h (0 Bft) S-SW 213 ° 0 min 0,000 mm 0,0 UV-I 0 W/m² 2,3 °C 3,3 °C 0,0 km/h (0 Bft)
02.11.2018 03:41 3,3 °C 93 % 1017,7 hPa 0,0 mm 0,0 km/h (0 Bft) S-SW 213 ° 0 min 0,000 mm 0,0 UV-I 0 W/m² 2,3 °C 3,3 °C 0,0 km/h (0 Bft)
02.11.2018 03:42 3,3 °C 93 % 1017,7 hPa 0,0 mm 0,0 km/h (0 Bft) S-SW 213 ° 0 min 0,000 mm 0,0 UV-I 0 W/m² 2,3 °C 3,3 °C 0,0 km/h (0 Bft)
02.11.2018 03:43 3,3 °C 93 % 1017,7 hPa 0,0 mm 0,0 km/h (0 Bft) S-SW 213 ° 0 min 0,000 mm 0,0 UV-I 0 W/m² 2,3 °C 3,3 °C 0,0 km/h (0 Bft)
02.11.2018 03:44 3,3 °C 93 % 1017,8 hPa 0,0 mm 0,0 km/h (0 Bft) S-SW 213 ° 0 min 0,000 mm 0,0 UV-I 0 W/m² 2,3 °C 3,3 °C 0,0 km/h (0 Bft)
02.11.2018 03:45 3,3 °C 93 % 1017,8 hPa 0,0 mm 0,0 km/h (0 Bft) S-SW 213 ° 0 min 0,000 mm 0,0 UV-I 0 W/m² 2,3 °C 3,3 °C 0,0 km/h (0 Bft)
02.11.2018 03:46 3,3 °C 93 % 1017,7 hPa 0,0 mm 0,0 km/h (0 Bft) S-SW 213 ° 0 min 0,000 mm 0,0 UV-I 0 W/m² 2,3 °C 3,3 °C 0,0 km/h (0 Bft)
02.11.2018 03:47 3,3 °C 93 % 1017,8 hPa 0,0 mm 0,0 km/h (0 Bft) S-SW 213 ° 0 min 0,000 mm 0,0 UV-I 0 W/m² 2,3 °C 3,3 °C 0,0 km/h (0 Bft)
02.11.2018 03:48 3,3 °C 93 % 1017,7 hPa 0,0 mm 0,0 km/h (0 Bft) S-SW 213 ° 0 min 0,000 mm 0,0 UV-I 0 W/m² 2,3 °C 3,3 °C 0,0 km/h (0 Bft)
02.11.2018 03:49 3,3 °C 93 % 1017,7 hPa 0,0 mm 0,0 km/h (0 Bft) S-SW 213 ° 0 min 0,000 mm 0,0 UV-I 0 W/m² 2,3 °C 3,3 °C 0,0 km/h (0 Bft)
02.11.2018 03:50 3,3 °C 93 % 1017,7 hPa 0,0 mm 0,0 km/h (0 Bft) S-SW 213 ° 0 min 0,000 mm 0,0 UV-I 0 W/m² 2,3 °C 3,3 °C 0,0 km/h (0 Bft)
02.11.2018 03:51 3,3 °C 93 % 1017,7 hPa 0,0 mm 0,0 km/h (0 Bft) S-SW 213 ° 0 min 0,000 mm 0,0 UV-I 0 W/m² 2,3 °C 3,3 °C 0,0 km/h (0 Bft)
02.11.2018 03:52 3,3 °C 93 % 1017,7 hPa 0,0 mm 0,0 km/h (0 Bft) S-SW 213 ° 0 min 0,000 mm 0,0 UV-I 0 W/m² 2,3 °C 3,3 °C 0,0 km/h (0 Bft)
02.11.2018 03:53 3,3 °C 93 % 1017,7 hPa 0,0 mm 0,0 km/h (0 Bft) S-SW 213 ° 0 min 0,000 mm 0,0 UV-I 0 W/m² 2,3 °C 3,3 °C 0,0 km/h (0 Bft)
02.11.2018 03:54 3,3 °C 93 % 1017,7 hPa 0,0 mm 0,0 km/h (0 Bft) S-SW 213 ° 0 min 0,000 mm 0,0 UV-I 0 W/m² 2,3 °C 3,3 °C 0,0 km/h (0 Bft)
02.11.2018 03:55 3,2 °C 93 % 1017,7 hPa 0,0 mm 0,0 km/h (0 Bft) S-SW 213 ° 0 min 0,000 mm 0,0 UV-I 0 W/m² 2,2 °C 3,2 °C 0,0 km/h (0 Bft)
02.11.2018 03:56 3,2 °C 93 % 1017,7 hPa 0,0 mm 0,0 km/h (0 Bft) S-SW 213 ° 0 min 0,000 mm 0,0 UV-I 0 W/m² 2,2 °C 3,2 °C 0,0 km/h (0 Bft)
02.11.2018 03:57 3,2 °C 93 % 1017,7 hPa 0,0 mm 0,0 km/h (0 Bft) S-SW 213 ° 0 min 0,000 mm 0,0 UV-I 0 W/m² 2,2 °C 3,2 °C 0,0 km/h (0 Bft)
02.11.2018 03:58 3,1 °C 93 % 1017,8 hPa 0,0 mm 0,0 km/h (0 Bft) S-SW 213 ° 0 min 0,000 mm 0,0 UV-I 0 W/m² 2,1 °C 3,1 °C 0,0 km/h (0 Bft)
02.11.2018 03:59 3,0 °C 93 % 1017,8 hPa 0,0 mm 0,0 km/h (0 Bft) S-SW 213 ° 0 min 0,000 mm 0,0 UV-I 0 W/m² 2,0 °C 3,0 °C 0,0 km/h (0 Bft)
02.11.2018 04:00 2,9 °C 93 % 1017,8 hPa 0,0 mm 0,0 km/h (0 Bft) S-SW 213 ° 0 min 0,000 mm 0,0 UV-I 0 W/m² 1,9 °C 2,9 °C 0,0 km/h (0 Bft)
02.11.2018 04:01 2,9 °C 93 % 1017,8 hPa 0,0 mm 0,0 km/h (0 Bft) S-SW 213 ° 0 min 0,000 mm 0,0 UV-I 0 W/m² 1,9 °C 2,9 °C 0,0 km/h (0 Bft)
02.11.2018 04:02 2,9 °C 93 % 1017,8 hPa 0,0 mm 0,0 km/h (0 Bft) S-SW 213 ° 0 min 0,000 mm 0,0 UV-I 0 W/m² 1,9 °C 2,9 °C 0,0 km/h (0 Bft)
02.11.2018 04:03 2,8 °C 93 % 1017,8 hPa 0,0 mm 0,0 km/h (0 Bft) S-SW 213 ° 0 min 0,000 mm 0,0 UV-I 0 W/m² 1,8 °C 2,8 °C 0,0 km/h (0 Bft)
02.11.2018 04:04 2,8 °C 93 % 1017,9 hPa 0,0 mm 0,0 km/h (0 Bft) S-SW 213 ° 0 min 0,000 mm 0,0 UV-I 0 W/m² 1,8 °C 2,8 °C 0,0 km/h (0 Bft)
02.11.2018 04:05 2,8 °C 93 % 1017,9 hPa 0,0 mm 0,0 km/h (0 Bft) S-SW 213 ° 0 min 0,000 mm 0,0 UV-I 0 W/m² 1,8 °C 2,8 °C 0,0 km/h (0 Bft)
02.11.2018 04:06 2,8 °C 93 % 1017,9 hPa 0,0 mm 0,0 km/h (0 Bft) S-SW 213 ° 0 min 0,000 mm 0,0 UV-I 0 W/m² 1,8 °C 2,8 °C 0,0 km/h (0 Bft)
02.11.2018 04:07 2,8 °C 93 % 1017,8 hPa 0,0 mm 0,0 km/h (0 Bft) S-SW 213 ° 0 min 0,000 mm 0,0 UV-I 0 W/m² 1,8 °C 2,8 °C 0,0 km/h (0 Bft)
02.11.2018 04:08 2,9 °C 93 % 1017,8 hPa 0,0 mm 0,0 km/h (0 Bft) S-SW 213 ° 0 min 0,000 mm 0,0 UV-I 0 W/m² 1,9 °C 2,9 °C 0,0 km/h (0 Bft)
02.11.2018 04:09 2,9 °C 93 % 1017,9 hPa 0,0 mm 0,0 km/h (0 Bft) S-SW 213 ° 0 min 0,000 mm 0,0 UV-I 0 W/m² 1,9 °C 2,9 °C 0,0 km/h (0 Bft)
02.11.2018 04:10 2,9 °C 93 % 1017,8 hPa 0,0 mm 0,0 km/h (0 Bft) S-SW 213 ° 0 min 0,000 mm 0,0 UV-I 0 W/m² 1,9 °C 2,9 °C 0,0 km/h (0 Bft)
02.11.2018 04:11 2,8 °C 93 % 1017,9 hPa 0,0 mm 0,0 km/h (0 Bft) S-SW 213 ° 0 min 0,000 mm 0,0 UV-I 0 W/m² 1,8 °C 2,8 °C 0,0 km/h (0 Bft)
02.11.2018 04:12 2,8 °C 93 % 1018,0 hPa 0,0 mm 0,0 km/h (0 Bft) S-SW 213 ° 0 min 0,000 mm 0,0 UV-I 0 W/m² 1,8 °C 2,8 °C 0,0 km/h (0 Bft)
02.11.2018 04:13 2,8 °C 93 % 1017,9 hPa 0,0 mm 0,0 km/h (0 Bft) S-SW 213 ° 0 min 0,000 mm 0,0 UV-I 0 W/m² 1,8 °C 2,8 °C 0,0 km/h (0 Bft)
02.11.2018 04:14 2,8 °C 93 % 1017,9 hPa 0,0 mm 0,0 km/h (0 Bft) S-SW 213 ° 0 min 0,000 mm 0,0 UV-I 0 W/m² 1,8 °C 2,8 °C 0,0 km/h (0 Bft)
02.11.2018 04:15 2,8 °C 93 % 1017,9 hPa 0,0 mm 0,0 km/h (0 Bft) S-SW 213 ° 0 min 0,000 mm 0,0 UV-I 0 W/m² 1,8 °C 2,8 °C 0,0 km/h (0 Bft)
02.11.2018 04:16 2,8 °C 93 % 1017,9 hPa 0,0 mm 0,0 km/h (0 Bft) S-SW 213 ° 0 min 0,000 mm 0,0 UV-I 0 W/m² 1,8 °C 2,8 °C 0,0 km/h (0 Bft)
02.11.2018 04:17 2,7 °C 93 % 1017,9 hPa 0,0 mm 0,0 km/h (0 Bft) S-SW 213 ° 0 min 0,000 mm 0,0 UV-I 0 W/m² 1,7 °C 2,7 °C 0,0 km/h (0 Bft)
02.11.2018 04:18 2,7 °C 93 % 1017,9 hPa 0,0 mm 0,0 km/h (0 Bft) S-SW 213 ° 0 min 0,000 mm 0,0 UV-I 0 W/m² 1,7 °C 2,7 °C 0,0 km/h (0 Bft)
02.11.2018 04:19 2,7 °C 93 % 1017,9 hPa 0,0 mm 0,0 km/h (0 Bft) S-SW 213 ° 0 min 0,000 mm 0,0 UV-I 0 W/m² 1,7 °C 2,7 °C 0,0 km/h (0 Bft)
02.11.2018 04:20 2,8 °C 93 % 1017,9 hPa 0,0 mm 0,0 km/h (0 Bft) S-SW 213 ° 0 min 0,000 mm 0,0 UV-I 0 W/m² 1,8 °C 2,8 °C 0,0 km/h (0 Bft)
02.11.2018 04:21 2,8 °C 94 % 1018,0 hPa 0,0 mm 0,0 km/h (0 Bft) S-SW 213 ° 0 min 0,000 mm 0,0 UV-I 0 W/m² 1,9 °C 2,8 °C 0,0 km/h (0 Bft)
02.11.2018 04:22 2,8 °C 94 % 1018,0 hPa 0,0 mm 0,0 km/h (0 Bft) S-SW 213 ° 0 min 0,000 mm 0,0 UV-I 0 W/m² 1,9 °C 2,8 °C 0,0 km/h (0 Bft)
02.11.2018 04:23 2,9 °C 94 % 1018,0 hPa 0,0 mm 0,0 km/h (0 Bft) S-SW 213 ° 0 min 0,000 mm 0,0 UV-I 0 W/m² 2,0 °C 2,9 °C 0,0 km/h (0 Bft)
02.11.2018 04:24 2,9 °C 94 % 1018,0 hPa 0,0 mm 0,0 km/h (0 Bft) S-SW 213 ° 0 min 0,000 mm 0,0 UV-I 0 W/m² 2,0 °C 2,9 °C 0,0 km/h (0 Bft)
02.11.2018 04:25 3,0 °C 94 % 1018,0 hPa 0,0 mm 0,0 km/h (0 Bft) S-SW 213 ° 0 min 0,000 mm 0,0 UV-I 0 W/m² 2,1 °C 3,0 °C 0,0 km/h (0 Bft)
02.11.2018 04:26 3,0 °C 94 % 1018,0 hPa 0,0 mm 0,0 km/h (0 Bft) S-SW 213 ° 0 min 0,000 mm 0,0 UV-I 0 W/m² 2,1 °C 3,0 °C 0,0 km/h (0 Bft)
02.11.2018 04:27 3,1 °C 94 % 1018,0 hPa 0,0 mm 0,0 km/h (0 Bft) S-SW 213 ° 0 min 0,000 mm 0,0 UV-I 0 W/m² 2,2 °C 3,1 °C 0,0 km/h (0 Bft)
02.11.2018 04:28 3,0 °C 93 % 1018,0 hPa 0,0 mm 0,0 km/h (0 Bft) S-SW 213 ° 0 min 0,000 mm 0,0 UV-I 0 W/m² 2,0 °C 3,0 °C 0,0 km/h (0 Bft)
02.11.2018 04:29 2,9 °C 93 % 1018,0 hPa 0,0 mm 0,0 km/h (0 Bft) S-SW 213 ° 0 min 0,000 mm 0,0 UV-I 0 W/m² 1,9 °C 2,9 °C 0,0 km/h (0 Bft)
02.11.2018 04:30 2,9 °C 93 % 1018,0 hPa 0,0 mm 0,0 km/h (0 Bft) S-SW 213 ° 0 min 0,000 mm 0,0 UV-I 0 W/m² 1,9 °C 2,9 °C 0,0 km/h (0 Bft)
02.11.2018 04:31 2,9 °C 93 % 1018,0 hPa 0,0 mm 0,0 km/h (0 Bft) S-SW 213 ° 0 min 0,000 mm 0,0 UV-I 0 W/m² 1,9 °C 2,9 °C 0,0 km/h (0 Bft)
02.11.2018 04:32 2,9 °C 94 % 1018,0 hPa 0,0 mm 0,0 km/h (0 Bft) S-SW 213 ° 0 min 0,000 mm 0,0 UV-I 0 W/m² 2,0 °C 2,9 °C 0,0 km/h (0 Bft)
02.11.2018 04:33 2,9 °C 94 % 1018,1 hPa 0,0 mm 0,0 km/h (0 Bft) S-SW 213 ° 0 min 0,000 mm 0,0 UV-I 0 W/m² 2,0 °C 2,9 °C 0,0 km/h (0 Bft)
02.11.2018 04:34 2,9 °C 94 % 1018,1 hPa 0,0 mm 0,0 km/h (0 Bft) S-SW 213 ° 0 min 0,000 mm 0,0 UV-I 0 W/m² 2,0 °C 2,9 °C 0,0 km/h (0 Bft)
02.11.2018 04:35 2,9 °C 94 % 1018,1 hPa 0,0 mm 0,4 km/h (0 Bft) S-SW 213 ° 0 min 0,000 mm 0,0 UV-I 0 W/m² 2,0 °C 2,9 °C 1,6 km/h (1 Bft)
02.11.2018 04:36 2,9 °C 93 % 1018,2 hPa 0,0 mm 0,0 km/h (0 Bft) S-SW 213 ° 0 min 0,000 mm 0,0 UV-I 0 W/m² 1,9 °C 2,9 °C 0,0 km/h (0 Bft)
02.11.2018 04:37 2,9 °C 94 % 1018,2 hPa 0,0 mm 0,0 km/h (0 Bft) S-SW 213 ° 0 min 0,000 mm 0,0 UV-I 0 W/m² 2,0 °C 2,9 °C 0,0 km/h (0 Bft)
02.11.2018 04:38 2,9 °C 94 % 1018,1 hPa 0,0 mm 0,0 km/h (0 Bft) S-SW 213 ° 0 min 0,000 mm 0,0 UV-I 0 W/m² 2,0 °C 2,9 °C 0,0 km/h (0 Bft)
02.11.2018 04:39 2,9 °C 94 % 1018,1 hPa 0,0 mm 0,0 km/h (0 Bft) S-SW 213 ° 0 min 0,000 mm 0,0 UV-I 0 W/m² 2,0 °C 2,9 °C 0,0 km/h (0 Bft)
02.11.2018 04:40 2,9 °C 94 % 1018,2 hPa 0,0 mm 0,0 km/h (0 Bft) S-SW 213 ° 0 min 0,000 mm 0,0 UV-I 0 W/m² 2,0 °C 2,9 °C 0,0 km/h (0 Bft)
02.11.2018 04:41 2,9 °C 94 % 1018,2 hPa 0,0 mm 0,0 km/h (0 Bft) S-SW 213 ° 0 min 0,000 mm 0,0 UV-I 0 W/m² 2,0 °C 2,9 °C 0,0 km/h (0 Bft)
02.11.2018 04:42 2,9 °C 93 % 1018,2 hPa 0,0 mm 0,0 km/h (0 Bft) S-SW 213 ° 0 min 0,000 mm 0,0 UV-I 0 W/m² 1,9 °C 2,9 °C 0,0 km/h (0 Bft)
02.11.2018 04:43 2,8 °C 93 % 1018,1 hPa 0,0 mm 0,0 km/h (0 Bft) S-SW 213 ° 0 min 0,000 mm 0,0 UV-I 0 W/m² 1,8 °C 2,8 °C 0,0 km/h (0 Bft)
02.11.2018 04:44 2,8 °C 93 % 1018,1 hPa 0,0 mm 0,0 km/h (0 Bft) S-SW 213 ° 0 min 0,000 mm 0,0 UV-I 0 W/m² 1,8 °C 2,8 °C 0,0 km/h (0 Bft)
02.11.2018 04:45 2,8 °C 93 % 1018,1 hPa 0,0 mm 0,0 km/h (0 Bft) S-SW 213 ° 0 min 0,000 mm 0,0 UV-I 0 W/m² 1,8 °C 2,8 °C 0,0 km/h (0 Bft)
02.11.2018 04:46 2,7 °C 93 % 1018,1 hPa 0,0 mm 0,0 km/h (0 Bft) S-SW 213 ° 0 min 0,000 mm 0,0 UV-I 0 W/m² 1,7 °C 2,7 °C 0,0 km/h (0 Bft)
02.11.2018 04:47 2,6 °C 93 % 1018,1 hPa 0,0 mm 0,0 km/h (0 Bft) S-SW 213 ° 0 min 0,000 mm 0,0 UV-I 0 W/m² 1,6 °C 2,6 °C 0,0 km/h (0 Bft)
02.11.2018 04:48 2,6 °C 93 % 1018,1 hPa 0,0 mm 0,0 km/h (0 Bft) S-SW 213 ° 0 min 0,000 mm 0,0 UV-I 0 W/m² 1,6 °C 2,6 °C 0,0 km/h (0 Bft)
02.11.2018 04:49 2,6 °C 93 % 1018,2 hPa 0,0 mm 0,0 km/h (0 Bft) S-SW 213 ° 0 min 0,000 mm 0,0 UV-I 0 W/m² 1,6 °C 2,6 °C 0,0 km/h (0 Bft)
02.11.2018 04:50 2,6 °C 93 % 1018,1 hPa 0,0 mm 0,0 km/h (0 Bft) S-SW 213 ° 0 min 0,000 mm 0,0 UV-I 0 W/m² 1,6 °C 2,6 °C 0,0 km/h (0 Bft)
02.11.2018 04:51 2,7 °C 94 % 1018,1 hPa 0,0 mm 0,0 km/h (0 Bft) S-SW 213 ° 0 min 0,000 mm 0,0 UV-I 0 W/m² 1,8 °C 2,7 °C 0,0 km/h (0 Bft)
02.11.2018 04:52 2,7 °C 94 % 1018,1 hPa 0,0 mm 0,0 km/h (0 Bft) S-SW 213 ° 0 min 0,000 mm 0,0 UV-I 0 W/m² 1,8 °C 2,7 °C 0,0 km/h (0 Bft)
02.11.2018 04:53 2,8 °C 94 % 1018,1 hPa 0,0 mm 0,0 km/h (0 Bft) S-SW 213 ° 0 min 0,000 mm 0,0 UV-I 0 W/m² 1,9 °C 2,8 °C 0,0 km/h (0 Bft)
02.11.2018 04:54 2,8 °C 94 % 1018,2 hPa 0,0 mm 0,0 km/h (0 Bft) S-SW 213 ° 0 min 0,000 mm 0,0 UV-I 0 W/m² 1,9 °C 2,8 °C 0,0 km/h (0 Bft)
02.11.2018 04:55 2,9 °C 94 % 1018,2 hPa 0,0 mm 0,0 km/h (0 Bft) S-SW 213 ° 0 min 0,000 mm 0,0 UV-I 0 W/m² 2,0 °C 2,9 °C 0,0 km/h (0 Bft)
02.11.2018 04:56 2,9 °C 94 % 1018,3 hPa 0,0 mm 0,0 km/h (0 Bft) S-SW 213 ° 0 min 0,000 mm 0,0 UV-I 0 W/m² 2,0 °C 2,9 °C 0,0 km/h (0 Bft)
02.11.2018 04:57 2,9 °C 94 % 1018,3 hPa 0,0 mm 0,0 km/h (0 Bft) S-SW 213 ° 0 min 0,000 mm 0,0 UV-I 0 W/m² 2,0 °C 2,9 °C 0,0 km/h (0 Bft)
02.11.2018 04:58 2,9 °C 94 % 1018,3 hPa 0,0 mm 0,2 km/h (0 Bft) S-SW 213 ° 0 min 0,000 mm 0,0 UV-I 0 W/m² 2,0 °C 2,9 °C 1,6 km/h (1 Bft)
02.11.2018 04:59 2,9 °C 94 % 1018,4 hPa 0,0 mm 0,0 km/h (0 Bft) S-SW 213 ° 0 min 0,000 mm 0,0 UV-I 0 W/m² 2,0 °C 2,9 °C 0,0 km/h (0 Bft)
02.11.2018 05:00 2,8 °C 94 % 1018,4 hPa 0,0 mm 0,0 km/h (0 Bft) S-SW 213 ° 0 min 0,000 mm 0,0 UV-I 0 W/m² 1,9 °C 2,8 °C 0,0 km/h (0 Bft)
02.11.2018 05:01 2,8 °C 93 % 1018,3 hPa 0,0 mm 0,0 km/h (0 Bft) S-SW 213 ° 0 min 0,000 mm 0,0 UV-I 0 W/m² 1,8 °C 2,8 °C 0,0 km/h (0 Bft)
02.11.2018 05:02 2,8 °C 93 % 1018,3 hPa 0,0 mm 0,0 km/h (0 Bft) S-SW 213 ° 0 min 0,000 mm 0,0 UV-I 0 W/m² 1,8 °C 2,8 °C 0,0 km/h (0 Bft)
02.11.2018 05:03 2,8 °C 93 % 1018,3 hPa 0,0 mm 0,0 km/h (0 Bft) S-SW 213 ° 0 min 0,000 mm 0,0 UV-I 0 W/m² 1,8 °C 2,8 °C 0,0 km/h (0 Bft)
02.11.2018 05:04 2,7 °C 93 % 1018,3 hPa 0,0 mm 0,0 km/h (0 Bft) S-SW 213 ° 0 min 0,000 mm 0,0 UV-I 0 W/m² 1,7 °C 2,7 °C 0,0 km/h (0 Bft)
02.11.2018 05:05 2,7 °C 93 % 1018,3 hPa 0,0 mm 0,0 km/h (0 Bft) S-SW 213 ° 0 min 0,000 mm 0,0 UV-I 0 W/m² 1,7 °C 2,7 °C 0,0 km/h (0 Bft)
02.11.2018 05:06 2,7 °C 93 % 1018,3 hPa 0,0 mm 0,0 km/h (0 Bft) S-SW 213 ° 0 min 0,000 mm 0,0 UV-I 0 W/m² 1,7 °C 2,7 °C 0,0 km/h (0 Bft)
02.11.2018 05:07 2,7 °C 93 % 1018,3 hPa 0,0 mm 0,0 km/h (0 Bft) S-SW 213 ° 0 min 0,000 mm 0,0 UV-I 0 W/m² 1,7 °C 2,7 °C 0,0 km/h (0 Bft)
02.11.2018 05:08 2,7 °C 93 % 1018,3 hPa 0,0 mm 0,0 km/h (0 Bft) S-SW 213 ° 0 min 0,000 mm 0,0 UV-I 0 W/m² 1,7 °C 2,7 °C 0,0 km/h (0 Bft)
02.11.2018 05:09 2,8 °C 93 % 1018,3 hPa 0,0 mm 0,0 km/h (0 Bft) S-SW 213 ° 0 min 0,000 mm 0,0 UV-I 0 W/m² 1,8 °C 2,8 °C 0,0 km/h (0 Bft)
02.11.2018 05:10 2,8 °C 93 % 1018,3 hPa 0,0 mm 0,0 km/h (0 Bft) S-SW 213 ° 0 min 0,000 mm 0,0 UV-I 0 W/m² 1,8 °C 2,8 °C 0,0 km/h (0 Bft)
02.11.2018 05:11 2,8 °C 94 % 1018,3 hPa 0,0 mm 0,0 km/h (0 Bft) S-SW 213 ° 0 min 0,000 mm 0,0 UV-I 0 W/m² 1,9 °C 2,8 °C 0,0 km/h (0 Bft)
02.11.2018 05:12 2,9 °C 94 % 1018,4 hPa 0,0 mm 0,0 km/h (0 Bft) S-SW 213 ° 0 min 0,000 mm 0,0 UV-I 0 W/m² 2,0 °C 2,9 °C 0,0 km/h (0 Bft)
02.11.2018 05:13 2,9 °C 94 % 1018,3 hPa 0,0 mm 0,0 km/h (0 Bft) S-SW 213 ° 0 min 0,000 mm 0,0 UV-I 0 W/m² 2,0 °C 2,9 °C 0,0 km/h (0 Bft)
02.11.2018 05:14 2,9 °C 94 % 1018,3 hPa 0,0 mm 0,0 km/h (0 Bft) S-SW 213 ° 0 min 0,000 mm 0,0 UV-I 0 W/m² 2,0 °C 2,9 °C 0,0 km/h (0 Bft)
02.11.2018 05:15 2,9 °C 94 % 1018,3 hPa 0,0 mm 0,0 km/h (0 Bft) S-SW 213 ° 0 min 0,000 mm 0,0 UV-I 0 W/m² 2,0 °C 2,9 °C 0,0 km/h (0 Bft)
02.11.2018 05:16 3,0 °C 94 % 1018,3 hPa 0,0 mm 0,0 km/h (0 Bft) S-SW 213 ° 0 min 0,000 mm 0,0 UV-I 0 W/m² 2,1 °C 3,0 °C 0,0 km/h (0 Bft)
02.11.2018 05:17 3,0 °C 94 % 1018,3 hPa 0,0 mm 0,0 km/h (0 Bft) S-SW 213 ° 0 min 0,000 mm 0,0 UV-I 0 W/m² 2,1 °C 3,0 °C 0,0 km/h (0 Bft)
02.11.2018 05:18 3,1 °C 94 % 1018,3 hPa 0,0 mm 0,0 km/h (0 Bft) S-SW 213 ° 0 min 0,000 mm 0,0 UV-I 0 W/m² 2,2 °C 3,1 °C 0,0 km/h (0 Bft)
02.11.2018 05:19 3,2 °C 94 % 1018,3 hPa 0,0 mm 0,0 km/h (0 Bft) S-SW 213 ° 0 min 0,000 mm 0,0 UV-I 0 W/m² 2,3 °C 3,2 °C 0,0 km/h (0 Bft)
02.11.2018 05:20 3,3 °C 94 % 1018,3 hPa 0,0 mm 0,3 km/h (0 Bft) S-SW 213 ° 0 min 0,000 mm 0,0 UV-I 0 W/m² 2,4 °C 3,3 °C 1,6 km/h (1 Bft)
02.11.2018 05:21 3,3 °C 94 % 1018,3 hPa 0,0 mm 0,0 km/h (0 Bft) S-SW 213 ° 0 min 0,000 mm 0,0 UV-I 0 W/m² 2,4 °C 3,3 °C 0,0 km/h (0 Bft)
02.11.2018 05:22 3,3 °C 94 % 1018,3 hPa 0,0 mm 0,0 km/h (0 Bft) S-SW 213 ° 0 min 0,000 mm 0,0 UV-I 0 W/m² 2,4 °C 3,3 °C 0,0 km/h (0 Bft)
02.11.2018 05:23 3,2 °C 94 % 1018,3 hPa 0,0 mm 0,0 km/h (0 Bft) S-SW 213 ° 0 min 0,000 mm 0,0 UV-I 0 W/m² 2,3 °C 3,2 °C 0,0 km/h (0 Bft)
02.11.2018 05:24 3,2 °C 93 % 1018,3 hPa 0,0 mm 0,0 km/h (0 Bft) S-SW 213 ° 0 min 0,000 mm 0,0 UV-I 0 W/m² 2,2 °C 3,2 °C 0,0 km/h (0 Bft)
02.11.2018 05:25 3,1 °C 93 % 1018,4 hPa 0,0 mm 0,0 km/h (0 Bft) S-SW 213 ° 0 min 0,000 mm 0,0 UV-I 0 W/m² 2,1 °C 3,1 °C 0,0 km/h (0 Bft)
02.11.2018 05:26 3,1 °C 93 % 1018,4 hPa 0,0 mm 0,0 km/h (0 Bft) S-SW 213 ° 0 min 0,000 mm 0,0 UV-I 0 W/m² 2,1 °C 3,1 °C 0,0 km/h (0 Bft)
02.11.2018 05:27 3,2 °C 93 % 1018,4 hPa 0,0 mm 0,0 km/h (0 Bft) S-SW 213 ° 0 min 0,000 mm 0,0 UV-I 0 W/m² 2,2 °C 3,2 °C 0,0 km/h (0 Bft)
02.11.2018 05:28 3,2 °C 93 % 1018,4 hPa 0,0 mm 0,0 km/h (0 Bft) S-SW 213 ° 0 min 0,000 mm 0,0 UV-I 0 W/m² 2,2 °C 3,2 °C 0,0 km/h (0 Bft)
02.11.2018 05:29 3,2 °C 94 % 1018,3 hPa 0,0 mm 0,0 km/h (0 Bft) S-SW 213 ° 0 min 0,000 mm 0,0 UV-I 0 W/m² 2,3 °C 3,2 °C 0,0 km/h (0 Bft)
02.11.2018 05:30 3,2 °C 94 % 1018,4 hPa 0,0 mm 0,0 km/h (0 Bft) S-SW 213 ° 0 min 0,000 mm 0,0 UV-I 0 W/m² 2,3 °C 3,2 °C 0,0 km/h (0 Bft)
02.11.2018 05:31 3,3 °C 94 % 1018,4 hPa 0,0 mm 0,0 km/h (0 Bft) S-SW 213 ° 0 min 0,000 mm 0,0 UV-I 0 W/m² 2,4 °C 3,3 °C 0,0 km/h (0 Bft)
02.11.2018 05:32 3,3 °C 94 % 1018,4 hPa 0,0 mm 0,0 km/h (0 Bft) S-SW 213 ° 0 min 0,000 mm 0,0 UV-I 0 W/m² 2,4 °C 3,3 °C 0,0 km/h (0 Bft)
02.11.2018 05:33 3,3 °C 93 % 1018,3 hPa 0,0 mm 0,0 km/h (0 Bft) S-SW 213 ° 0 min 0,000 mm 0,0 UV-I 0 W/m² 2,3 °C 3,3 °C 0,0 km/h (0 Bft)
02.11.2018 05:34 3,4 °C 93 % 1018,3 hPa 0,0 mm 0,0 km/h (0 Bft) S-SW 213 ° 0 min 0,000 mm 0,0 UV-I 0 W/m² 2,4 °C 3,4 °C 0,0 km/h (0 Bft)
02.11.2018 05:35 3,4 °C 93 % 1018,4 hPa 0,0 mm 0,0 km/h (0 Bft) S-SW 213 ° 0 min 0,000 mm 0,0 UV-I 0 W/m² 2,4 °C 3,4 °C 0,0 km/h (0 Bft)
02.11.2018 05:36 3,4 °C 93 % 1018,4 hPa 0,0 mm 0,0 km/h (0 Bft) S-SW 213 ° 0 min 0,000 mm 0,0 UV-I 0 W/m² 2,4 °C 3,4 °C 0,0 km/h (0 Bft)
02.11.2018 05:37 3,4 °C 93 % 1018,4 hPa 0,0 mm 0,0 km/h (0 Bft) S-SW 213 ° 0 min 0,000 mm 0,0 UV-I 0 W/m² 2,4 °C 3,4 °C 0,0 km/h (0 Bft)
02.11.2018 05:38 3,4 °C 93 % 1018,4 hPa 0,0 mm 0,0 km/h (0 Bft) S-SW 213 ° 0 min 0,000 mm 0,0 UV-I 0 W/m² 2,4 °C 3,4 °C 0,0 km/h (0 Bft)
02.11.2018 05:39 3,3 °C 93 % 1018,4 hPa 0,0 mm 0,0 km/h (0 Bft) S-SW 213 ° 0 min 0,000 mm 0,0 UV-I 0 W/m² 2,3 °C 3,3 °C 0,0 km/h (0 Bft)
02.11.2018 05:40 3,3 °C 93 % 1018,5 hPa 0,0 mm 0,0 km/h (0 Bft) S-SW 213 ° 0 min 0,000 mm 0,0 UV-I 0 W/m² 2,3 °C 3,3 °C 0,0 km/h (0 Bft)
02.11.2018 05:41 3,3 °C 93 % 1018,5 hPa 0,0 mm 0,0 km/h (0 Bft) S-SW 213 ° 0 min 0,000 mm 0,0 UV-I 0 W/m² 2,3 °C 3,3 °C 0,0 km/h (0 Bft)
02.11.2018 05:42 3,2 °C 93 % 1018,6 hPa 0,0 mm 0,0 km/h (0 Bft) S-SW 213 ° 0 min 0,000 mm 0,0 UV-I 0 W/m² 2,2 °C 3,2 °C 0,0 km/h (0 Bft)
02.11.2018 05:43 3,2 °C 93 % 1018,6 hPa 0,0 mm 0,0 km/h (0 Bft) S-SW 213 ° 0 min 0,000 mm 0,0 UV-I 0 W/m² 2,2 °C 3,2 °C 0,0 km/h (0 Bft)
02.11.2018 05:44 3,1 °C 93 % 1018,6 hPa 0,0 mm 0,0 km/h (0 Bft) S-SW 213 ° 0 min 0,000 mm 0,0 UV-I 0 W/m² 2,1 °C 3,1 °C 0,0 km/h (0 Bft)
02.11.2018 05:45 3,1 °C 93 % 1018,6 hPa 0,0 mm 0,0 km/h (0 Bft) S-SW 213 ° 0 min 0,000 mm 0,0 UV-I 0 W/m² 2,1 °C 3,1 °C 0,0 km/h (0 Bft)
02.11.2018 05:46 3,1 °C 93 % 1018,6 hPa 0,0 mm 0,0 km/h (0 Bft) S-SW 213 ° 0 min 0,000 mm 0,0 UV-I 0 W/m² 2,1 °C 3,1 °C 0,0 km/h (0 Bft)
02.11.2018 05:47 3,1 °C 93 % 1018,6 hPa 0,0 mm 0,0 km/h (0 Bft) S-SW 213 ° 0 min 0,000 mm 0,0 UV-I 0 W/m² 2,1 °C 3,1 °C 0,0 km/h (0 Bft)
02.11.2018 05:48 3,1 °C 93 % 1018,6 hPa 0,0 mm 0,0 km/h (0 Bft) S-SW 213 ° 0 min 0,000 mm 0,0 UV-I 0 W/m² 2,1 °C 3,1 °C 0,0 km/h (0 Bft)
02.11.2018 05:49 3,1 °C 93 % 1018,6 hPa 0,0 mm 0,0 km/h (0 Bft) S-SW 213 ° 0 min 0,000 mm 0,0 UV-I 0 W/m² 2,1 °C 3,1 °C 0,0 km/h (0 Bft)
02.11.2018 05:50 3,2 °C 93 % 1018,6 hPa 0,0 mm 0,0 km/h (0 Bft) S-SW 213 ° 0 min 0,000 mm 0,0 UV-I 0 W/m² 2,2 °C 3,2 °C 0,0 km/h (0 Bft)
02.11.2018 05:51 3,2 °C 93 % 1018,6 hPa 0,0 mm 0,0 km/h (0 Bft) S-SW 213 ° 0 min 0,000 mm 0,0 UV-I 0 W/m² 2,2 °C 3,2 °C 0,0 km/h (0 Bft)
02.11.2018 05:52 3,2 °C 93 % 1018,6 hPa 0,0 mm 0,0 km/h (0 Bft) S-SW 213 ° 0 min 0,000 mm 0,0 UV-I 0 W/m² 2,2 °C 3,2 °C 0,0 km/h (0 Bft)
02.11.2018 05:53 3,2 °C 93 % 1018,7 hPa 0,0 mm 0,0 km/h (0 Bft) S-SW 213 ° 0 min 0,000 mm 0,0 UV-I 0 W/m² 2,2 °C 3,2 °C 0,0 km/h (0 Bft)
02.11.2018 05:54 3,2 °C 93 % 1018,7 hPa 0,0 mm 0,0 km/h (0 Bft) S-SW 213 ° 0 min 0,000 mm 0,0 UV-I 0 W/m² 2,2 °C 3,2 °C 0,0 km/h (0 Bft)
02.11.2018 05:55 3,2 °C 93 % 1018,7 hPa 0,0 mm 0,0 km/h (0 Bft) S-SW 213 ° 0 min 0,000 mm 0,0 UV-I 0 W/m² 2,2 °C 3,2 °C 0,0 km/h (0 Bft)
02.11.2018 05:56 3,2 °C 93 % 1018,7 hPa 0,0 mm 0,0 km/h (0 Bft) S-SW 213 ° 0 min 0,000 mm 0,0 UV-I 0 W/m² 2,2 °C 3,2 °C 0,0 km/h (0 Bft)
02.11.2018 05:57 3,1 °C 93 % 1018,7 hPa 0,0 mm 0,0 km/h (0 Bft) S-SW 213 ° 0 min 0,000 mm 0,0 UV-I 0 W/m² 2,1 °C 3,1 °C 0,0 km/h (0 Bft)
02.11.2018 05:58 3,1 °C 93 % 1018,7 hPa 0,0 mm 0,0 km/h (0 Bft) S-SW 213 ° 0 min 0,000 mm 0,0 UV-I 0 W/m² 2,1 °C 3,1 °C 0,0 km/h (0 Bft)
02.11.2018 05:59 3,0 °C 93 % 1018,6 hPa 0,0 mm 0,0 km/h (0 Bft) S-SW 213 ° 0 min 0,000 mm 0,0 UV-I 0 W/m² 2,0 °C 3,0 °C 0,0 km/h (0 Bft)
02.11.2018 06:00 3,0 °C 93 % 1018,6 hPa 0,0 mm 0,0 km/h (0 Bft) S-SW 213 ° 0 min 0,000 mm 0,0 UV-I 0 W/m² 2,0 °C 3,0 °C 0,0 km/h (0 Bft)
02.11.2018 06:01 3,0 °C 93 % 1018,6 hPa 0,0 mm 0,0 km/h (0 Bft) S-SW 213 ° 0 min 0,000 mm 0,0 UV-I 0 W/m² 2,0 °C 3,0 °C 0,0 km/h (0 Bft)
02.11.2018 06:02 3,0 °C 93 % 1018,6 hPa 0,0 mm 0,0 km/h (0 Bft) S-SW 213 ° 0 min 0,000 mm 0,0 UV-I 0 W/m² 2,0 °C 3,0 °C 0,0 km/h (0 Bft)
02.11.2018 06:03 3,0 °C 93 % 1018,6 hPa 0,0 mm 0,0 km/h (0 Bft) S-SW 213 ° 0 min 0,000 mm 0,0 UV-I 0 W/m² 2,0 °C 3,0 °C 0,0 km/h (0 Bft)
02.11.2018 06:04 3,1 °C 93 % 1018,7 hPa 0,0 mm 0,0 km/h (0 Bft) S-SW 213 ° 0 min 0,000 mm 0,0 UV-I 0 W/m² 2,1 °C 3,1 °C 0,0 km/h (0 Bft)
02.11.2018 06:05 3,1 °C 93 % 1018,6 hPa 0,0 mm 0,0 km/h (0 Bft) S-SW 213 ° 0 min 0,000 mm 0,0 UV-I 0 W/m² 2,1 °C 3,1 °C 0,0 km/h (0 Bft)
02.11.2018 06:06 3,1 °C 93 % 1018,7 hPa 0,0 mm 0,0 km/h (0 Bft) S-SW 213 ° 0 min 0,000 mm 0,0 UV-I 0 W/m² 2,1 °C 3,1 °C 0,0 km/h (0 Bft)
02.11.2018 06:07 3,1 °C 93 % 1018,7 hPa 0,0 mm 0,0 km/h (0 Bft) S-SW 213 ° 0 min 0,000 mm 0,0 UV-I 0 W/m² 2,1 °C 3,1 °C 0,0 km/h (0 Bft)
02.11.2018 06:08 3,1 °C 93 % 1018,7 hPa 0,0 mm 0,0 km/h (0 Bft) S-SW 213 ° 0 min 0,000 mm 0,0 UV-I 0 W/m² 2,1 °C 3,1 °C 0,0 km/h (0 Bft)
02.11.2018 06:09 3,1 °C 93 % 1018,7 hPa 0,0 mm 0,0 km/h (0 Bft) S-SW 213 ° 0 min 0,000 mm 0,0 UV-I 0 W/m² 2,1 °C 3,1 °C 0,0 km/h (0 Bft)
02.11.2018 06:10 3,1 °C 93 % 1018,7 hPa 0,0 mm 0,0 km/h (0 Bft) S-SW 213 ° 0 min 0,000 mm 0,0 UV-I 0 W/m² 2,1 °C 3,1 °C 0,0 km/h (0 Bft)
02.11.2018 06:11 3,1 °C 93 % 1018,7 hPa 0,0 mm 0,0 km/h (0 Bft) S-SW 213 ° 0 min 0,000 mm 0,0 UV-I 0 W/m² 2,1 °C 3,1 °C 0,0 km/h (0 Bft)
02.11.2018 06:12 3,1 °C 93 % 1018,7 hPa 0,0 mm 0,0 km/h (0 Bft) S-SW 213 ° 0 min 0,000 mm 0,0 UV-I 0 W/m² 2,1 °C 3,1 °C 0,0 km/h (0 Bft)
02.11.2018 06:13 3,1 °C 93 % 1018,7 hPa 0,0 mm 0,0 km/h (0 Bft) S-SW 213 ° 0 min 0,000 mm 0,0 UV-I 0 W/m² 2,1 °C 3,1 °C 0,0 km/h (0 Bft)
02.11.2018 06:14 3,1 °C 93 % 1018,7 hPa 0,0 mm 0,0 km/h (0 Bft) S-SW 213 ° 0 min 0,000 mm 0,0 UV-I 0 W/m² 2,1 °C 3,1 °C 0,0 km/h (0 Bft)
02.11.2018 06:15 3,1 °C 93 % 1018,7 hPa 0,0 mm 0,0 km/h (0 Bft) S-SW 213 ° 0 min 0,000 mm 0,0 UV-I 0 W/m² 2,1 °C 3,1 °C 0,0 km/h (0 Bft)
02.11.2018 06:16 3,1 °C 93 % 1018,8 hPa 0,0 mm 0,0 km/h (0 Bft) S-SW 213 ° 0 min 0,000 mm 0,0 UV-I 0 W/m² 2,1 °C 3,1 °C 0,0 km/h (0 Bft)
02.11.2018 06:17 3,1 °C 93 % 1018,8 hPa 0,0 mm 0,0 km/h (0 Bft) S-SW 213 ° 0 min 0,000 mm 0,0 UV-I 0 W/m² 2,1 °C 3,1 °C 0,0 km/h (0 Bft)
02.11.2018 06:18 3,1 °C 93 % 1018,8 hPa 0,0 mm 0,0 km/h (0 Bft) S-SW 213 ° 0 min 0,000 mm 0,0 UV-I 0 W/m² 2,1 °C 3,1 °C 0,0 km/h (0 Bft)
02.11.2018 06:19 3,1 °C 93 % 1018,8 hPa 0,0 mm 0,0 km/h (0 Bft) S-SW 213 ° 0 min 0,000 mm 0,0 UV-I 0 W/m² 2,1 °C 3,1 °C 0,0 km/h (0 Bft)
02.11.2018 06:20 3,1 °C 93 % 1018,8 hPa 0,0 mm 0,0 km/h (0 Bft) S-SW 213 ° 0 min 0,000 mm 0,0 UV-I 0 W/m² 2,1 °C 3,1 °C 0,0 km/h (0 Bft)
02.11.2018 06:21 3,1 °C 93 % 1018,9 hPa 0,0 mm 0,0 km/h (0 Bft) S-SW 213 ° 0 min 0,000 mm 0,0 UV-I 0 W/m² 2,1 °C 3,1 °C 0,0 km/h (0 Bft)
02.11.2018 06:22 3,1 °C 93 % 1018,8 hPa 0,0 mm 0,0 km/h (0 Bft) S-SW 213 ° 0 min 0,000 mm 0,0 UV-I 0 W/m² 2,1 °C 3,1 °C 0,0 km/h (0 Bft)
02.11.2018 06:23 3,2 °C 93 % 1018,8 hPa 0,0 mm 0,0 km/h (0 Bft) S-SW 213 ° 0 min 0,000 mm 0,0 UV-I 0 W/m² 2,2 °C 3,2 °C 0,0 km/h (0 Bft)
02.11.2018 06:24 3,2 °C 93 % 1018,8 hPa 0,0 mm 0,0 km/h (0 Bft) S-SW 213 ° 0 min 0,000 mm 0,0 UV-I 0 W/m² 2,2 °C 3,2 °C 0,0 km/h (0 Bft)
02.11.2018 06:25 3,3 °C 93 % 1018,8 hPa 0,0 mm 0,0 km/h (0 Bft) S-SW 213 ° 0 min 0,000 mm 0,0 UV-I 0 W/m² 2,3 °C 3,3 °C 0,0 km/h (0 Bft)
02.11.2018 06:26 3,3 °C 93 % 1018,8 hPa 0,0 mm 0,0 km/h (0 Bft) S-SW 213 ° 0 min 0,000 mm 0,0 UV-I 0 W/m² 2,3 °C 3,3 °C 0,0 km/h (0 Bft)
02.11.2018 06:27 3,3 °C 93 % 1018,8 hPa 0,0 mm 0,0 km/h (0 Bft) S-SW 213 ° 0 min 0,000 mm 0,0 UV-I 0 W/m² 2,3 °C 3,3 °C 0,0 km/h (0 Bft)
02.11.2018 06:28 3,3 °C 93 % 1018,8 hPa 0,0 mm 0,0 km/h (0 Bft) S-SW 213 ° 0 min 0,000 mm 0,0 UV-I 0 W/m² 2,3 °C 3,3 °C 0,0 km/h (0 Bft)
02.11.2018 06:29 3,3 °C 93 % 1018,8 hPa 0,0 mm 0,0 km/h (0 Bft) S-SW 213 ° 0 min 0,000 mm 0,0 UV-I 0 W/m² 2,3 °C 3,3 °C 0,0 km/h (0 Bft)
02.11.2018 06:30 3,2 °C 93 % 1018,7 hPa 0,0 mm 0,0 km/h (0 Bft) S-SW 213 ° 0 min 0,000 mm 0,0 UV-I 0 W/m² 2,2 °C 3,2 °C 0,0 km/h (0 Bft)
02.11.2018 06:31 3,2 °C 93 % 1018,7 hPa 0,0 mm 0,0 km/h (0 Bft) S-SW 213 ° 0 min 0,000 mm 0,0 UV-I 0 W/m² 2,2 °C 3,2 °C 0,0 km/h (0 Bft)
02.11.2018 06:32 3,2 °C 93 % 1018,8 hPa 0,0 mm 0,0 km/h (0 Bft) S-SW 213 ° 0 min 0,000 mm 0,0 UV-I 0 W/m² 2,2 °C 3,2 °C 0,0 km/h (0 Bft)
02.11.2018 06:33 3,2 °C 93 % 1018,8 hPa 0,0 mm 0,0 km/h (0 Bft) S-SW 213 ° 0 min 0,000 mm 0,0 UV-I 0 W/m² 2,2 °C 3,2 °C 0,0 km/h (0 Bft)
02.11.2018 06:34 3,2 °C 93 % 1018,9 hPa 0,0 mm 0,0 km/h (0 Bft) S-SW 213 ° 0 min 0,000 mm 0,0 UV-I 0 W/m² 2,2 °C 3,2 °C 0,0 km/h (0 Bft)
02.11.2018 06:35 3,2 °C 93 % 1018,8 hPa 0,0 mm 0,0 km/h (0 Bft) S-SW 213 ° 0 min 0,000 mm 0,0 UV-I 0 W/m² 2,2 °C 3,2 °C 0,0 km/h (0 Bft)
02.11.2018 06:36 3,1 °C 93 % 1018,8 hPa 0,0 mm 0,0 km/h (0 Bft) S-SW 213 ° 0 min 0,000 mm 0,0 UV-I 0 W/m² 2,1 °C 3,1 °C 0,0 km/h (0 Bft)
02.11.2018 06:37 3,0 °C 93 % 1018,8 hPa 0,0 mm 0,0 km/h (0 Bft) S-SW 213 ° 0 min 0,000 mm 0,0 UV-I 0 W/m² 2,0 °C 3,0 °C 0,0 km/h (0 Bft)
02.11.2018 06:38 2,9 °C 93 % 1018,8 hPa 0,0 mm 0,0 km/h (0 Bft) S-SW 213 ° 0 min 0,000 mm 0,0 UV-I 0 W/m² 1,9 °C 2,9 °C 0,0 km/h (0 Bft)
02.11.2018 06:39 2,9 °C 93 % 1018,8 hPa 0,0 mm 0,0 km/h (0 Bft) S-SW 213 ° 0 min 0,000 mm 0,0 UV-I 0 W/m² 1,9 °C 2,9 °C 0,0 km/h (0 Bft)
02.11.2018 06:40 2,8 °C 93 % 1018,8 hPa 0,0 mm 0,0 km/h (0 Bft) S-SW 213 ° 0 min 0,000 mm 0,0 UV-I 0 W/m² 1,8 °C 2,8 °C 0,0 km/h (0 Bft)
02.11.2018 06:41 2,8 °C 93 % 1018,8 hPa 0,0 mm 0,0 km/h (0 Bft) S-SW 213 ° 0 min 0,000 mm 0,0 UV-I 0 W/m² 1,8 °C 2,8 °C 0,0 km/h (0 Bft)
02.11.2018 06:42 2,8 °C 93 % 1018,8 hPa 0,0 mm 0,0 km/h (0 Bft) S-SW 213 ° 0 min 0,000 mm 0,0 UV-I 0 W/m² 1,8 °C 2,8 °C 0,0 km/h (0 Bft)
02.11.2018 06:43 2,8 °C 93 % 1018,8 hPa 0,0 mm 0,0 km/h (0 Bft) S-SW 213 ° 0 min 0,000 mm 0,0 UV-I 0 W/m² 1,8 °C 2,8 °C 0,0 km/h (0 Bft)
02.11.2018 06:44 2,9 °C 93 % 1018,8 hPa 0,0 mm 0,0 km/h (0 Bft) S-SW 213 ° 0 min 0,000 mm 0,0 UV-I 0 W/m² 1,9 °C 2,9 °C 0,0 km/h (0 Bft)
02.11.2018 06:45 2,9 °C 93 % 1018,8 hPa 0,0 mm 0,0 km/h (0 Bft) S-SW 213 ° 0 min 0,000 mm 0,0 UV-I 0 W/m² 1,9 °C 2,9 °C 0,0 km/h (0 Bft)
02.11.2018 06:46 3,0 °C 93 % 1018,8 hPa 0,0 mm 0,0 km/h (0 Bft) S-SW 213 ° 0 min 0,000 mm 0,0 UV-I 0 W/m² 2,0 °C 3,0 °C 0,0 km/h (0 Bft)
02.11.2018 06:47 3,0 °C 93 % 1018,7 hPa 0,0 mm 0,0 km/h (0 Bft) S-SW 213 ° 0 min 0,000 mm 0,0 UV-I 0 W/m² 2,0 °C 3,0 °C 0,0 km/h (0 Bft)
02.11.2018 06:48 3,0 °C 93 % 1018,7 hPa 0,0 mm 0,0 km/h (0 Bft) S-SW 213 ° 0 min 0,000 mm 0,0 UV-I 0 W/m² 2,0 °C 3,0 °C 0,0 km/h (0 Bft)
02.11.2018 06:49 3,0 °C 93 % 1018,7 hPa 0,0 mm 0,0 km/h (0 Bft) S-SW 213 ° 0 min 0,000 mm 0,0 UV-I 0 W/m² 2,0 °C 3,0 °C 0,0 km/h (0 Bft)
02.11.2018 06:50 3,1 °C 93 % 1018,7 hPa 0,0 mm 0,0 km/h (0 Bft) S-SW 213 ° 0 min 0,000 mm 0,0 UV-I 0 W/m² 2,1 °C 3,1 °C 0,0 km/h (0 Bft)
02.11.2018 06:51 3,1 °C 93 % 1018,7 hPa 0,0 mm 0,0 km/h (0 Bft) S-SW 213 ° 0 min 0,000 mm 0,0 UV-I 0 W/m² 2,1 °C 3,1 °C 0,0 km/h (0 Bft)
02.11.2018 06:52 3,1 °C 93 % 1018,7 hPa 0,0 mm 0,0 km/h (0 Bft) S-SW 213 ° 0 min 0,000 mm 0,0 UV-I 0 W/m² 2,1 °C 3,1 °C 0,0 km/h (0 Bft)
02.11.2018 06:53 3,2 °C 93 % 1018,7 hPa 0,0 mm 0,0 km/h (0 Bft) S-SW 213 ° 0 min 0,000 mm 0,0 UV-I 0 W/m² 2,2 °C 3,2 °C 0,0 km/h (0 Bft)
02.11.2018 06:54 3,1 °C 93 % 1018,7 hPa 0,0 mm 0,0 km/h (0 Bft) S-SW 213 ° 0 min 0,000 mm 0,0 UV-I 0 W/m² 2,1 °C 3,1 °C 0,0 km/h (0 Bft)
02.11.2018 06:55 2,9 °C 93 % 1018,7 hPa 0,0 mm 0,0 km/h (0 Bft) S-SW 213 ° 0 min 0,000 mm 0,0 UV-I 0 W/m² 1,9 °C 2,9 °C 0,0 km/h (0 Bft)
02.11.2018 06:56 2,8 °C 93 % 1018,7 hPa 0,0 mm 0,0 km/h (0 Bft) S-SW 213 ° 0 min 0,000 mm 0,0 UV-I 0 W/m² 1,8 °C 2,8 °C 0,0 km/h (0 Bft)
02.11.2018 06:57 2,9 °C 93 % 1018,7 hPa 0,0 mm 0,0 km/h (0 Bft) S-SW 213 ° 0 min 0,000 mm 0,0 UV-I 0 W/m² 1,9 °C 2,9 °C 0,0 km/h (0 Bft)
02.11.2018 06:58 2,9 °C 93 % 1018,7 hPa 0,0 mm 0,0 km/h (0 Bft) S-SW 213 ° 0 min 0,000 mm 0,0 UV-I 0 W/m² 1,9 °C 2,9 °C 0,0 km/h (0 Bft)
02.11.2018 06:59 3,1 °C 93 % 1018,7 hPa 0,0 mm 0,0 km/h (0 Bft) S-SW 213 ° 0 min 0,000 mm 0,0 UV-I 0 W/m² 2,1 °C 3,1 °C 0,0 km/h (0 Bft)
02.11.2018 07:00 3,0 °C 93 % 1018,7 hPa 0,0 mm 0,0 km/h (0 Bft) S-SW 213 ° 0 min 0,000 mm 0,0 UV-I 0 W/m² 2,0 °C 3,0 °C 0,0 km/h (0 Bft)
02.11.2018 07:01 2,9 °C 93 % 1018,7 hPa 0,0 mm 0,0 km/h (0 Bft) S-SW 213 ° 0 min 0,000 mm 0,0 UV-I 0 W/m² 1,9 °C 2,9 °C 0,0 km/h (0 Bft)
02.11.2018 07:02 2,9 °C 93 % 1018,8 hPa 0,0 mm 0,0 km/h (0 Bft) S-SW 213 ° 0 min 0,000 mm 0,0 UV-I 0 W/m² 1,9 °C 2,9 °C 0,0 km/h (0 Bft)
02.11.2018 07:03 2,7 °C 93 % 1018,8 hPa 0,0 mm 0,0 km/h (0 Bft) S-SW 213 ° 0 min 0,000 mm 0,0 UV-I 0 W/m² 1,7 °C 2,7 °C 0,0 km/h (0 Bft)
02.11.2018 07:04 2,7 °C 93 % 1018,8 hPa 0,0 mm 0,0 km/h (0 Bft) S-SW 213 ° 0 min 0,000 mm 0,0 UV-I 0 W/m² 1,7 °C 2,7 °C 0,0 km/h (0 Bft)
02.11.2018 07:05 2,7 °C 93 % 1018,8 hPa 0,0 mm 0,0 km/h (0 Bft) S-SW 213 ° 0 min 0,000 mm 0,0 UV-I 0 W/m² 1,7 °C 2,7 °C 0,0 km/h (0 Bft)
02.11.2018 07:06 2,8 °C 93 % 1018,8 hPa 0,0 mm 0,0 km/h (0 Bft) S-SW 213 ° 0 min 0,000 mm 0,0 UV-I 0 W/m² 1,8 °C 2,8 °C 0,0 km/h (0 Bft)
02.11.2018 07:07 2,9 °C 93 % 1018,8 hPa 0,0 mm 0,0 km/h (0 Bft) S-SW 213 ° 0 min 0,000 mm 0,0 UV-I 0 W/m² 1,9 °C 2,9 °C 0,0 km/h (0 Bft)
02.11.2018 07:08 2,9 °C 94 % 1018,9 hPa 0,0 mm 0,0 km/h (0 Bft) S-SW 213 ° 0 min 0,000 mm 0,0 UV-I 0 W/m² 2,0 °C 2,9 °C 0,0 km/h (0 Bft)
02.11.2018 07:09 3,0 °C 94 % 1018,9 hPa 0,0 mm 0,0 km/h (0 Bft) S-SW 213 ° 0 min 0,000 mm 0,0 UV-I 0 W/m² 2,1 °C 3,0 °C 0,0 km/h (0 Bft)
02.11.2018 07:10 3,0 °C 93 % 1019,0 hPa 0,0 mm 0,0 km/h (0 Bft) S-SW 213 ° 0 min 0,000 mm 0,0 UV-I 0 W/m² 2,0 °C 3,0 °C 0,0 km/h (0 Bft)
02.11.2018 07:11 3,0 °C 93 % 1019,0 hPa 0,0 mm 0,0 km/h (0 Bft) S-SW 213 ° 0 min 0,000 mm 0,0 UV-I 0 W/m² 2,0 °C 3,0 °C 0,0 km/h (0 Bft)
02.11.2018 07:12 2,9 °C 93 % 1019,0 hPa 0,0 mm 0,0 km/h (0 Bft) S-SW 213 ° 0 min 0,000 mm 0,0 UV-I 0 W/m² 1,9 °C 2,9 °C 0,0 km/h (0 Bft)
02.11.2018 07:13 2,9 °C 93 % 1019,0 hPa 0,0 mm 0,0 km/h (0 Bft) S-SW 213 ° 0 min 0,000 mm 0,0 UV-I 0 W/m² 1,9 °C 2,9 °C 0,0 km/h (0 Bft)
02.11.2018 07:14 2,8 °C 93 % 1019,1 hPa 0,0 mm 0,0 km/h (0 Bft) S-SW 213 ° 0 min 0,000 mm 0,0 UV-I 0 W/m² 1,8 °C 2,8 °C 0,0 km/h (0 Bft)
02.11.2018 07:15 2,8 °C 93 % 1019,1 hPa 0,0 mm 0,0 km/h (0 Bft) S-SW 213 ° 0 min 0,000 mm 0,0 UV-I 0 W/m² 1,8 °C 2,8 °C 0,0 km/h (0 Bft)
02.11.2018 07:16 2,8 °C 93 % 1019,1 hPa 0,0 mm 0,0 km/h (0 Bft) S-SW 213 ° 0 min 0,000 mm 0,0 UV-I 0 W/m² 1,8 °C 2,8 °C 0,0 km/h (0 Bft)
02.11.2018 07:17 2,9 °C 93 % 1019,1 hPa 0,0 mm 0,0 km/h (0 Bft) S-SW 213 ° 0 min 0,000 mm 0,0 UV-I 0 W/m² 1,9 °C 2,9 °C 0,0 km/h (0 Bft)
02.11.2018 07:18 2,9 °C 93 % 1019,1 hPa 0,0 mm 0,0 km/h (0 Bft) S-SW 213 ° 0 min 0,000 mm 0,0 UV-I 0 W/m² 1,9 °C 2,9 °C 0,0 km/h (0 Bft)
02.11.2018 07:19 2,9 °C 93 % 1019,2 hPa 0,0 mm 0,0 km/h (0 Bft) S-SW 213 ° 0 min 0,000 mm 0,0 UV-I 0 W/m² 1,9 °C 2,9 °C 0,0 km/h (0 Bft)
02.11.2018 07:20 2,9 °C 93 % 1019,2 hPa 0,0 mm 0,0 km/h (0 Bft) S-SW 213 ° 0 min 0,000 mm 0,0 UV-I 0 W/m² 1,9 °C 2,9 °C 0,0 km/h (0 Bft)
02.11.2018 07:21 2,8 °C 93 % 1019,2 hPa 0,0 mm 0,0 km/h (0 Bft) S-SW 213 ° 0 min 0,000 mm 0,0 UV-I 5 W/m² 1,8 °C 2,8 °C 0,0 km/h (0 Bft)
02.11.2018 07:22 2,7 °C 93 % 1019,2 hPa 0,0 mm 0,0 km/h (0 Bft) S-SW 213 ° 0 min 0,000 mm 0,0 UV-I 5 W/m² 1,7 °C 2,7 °C 0,0 km/h (0 Bft)
02.11.2018 07:23 2,7 °C 93 % 1019,2 hPa 0,0 mm 0,0 km/h (0 Bft) S-SW 213 ° 0 min 0,000 mm 0,0 UV-I 5 W/m² 1,7 °C 2,7 °C 0,0 km/h (0 Bft)
02.11.2018 07:24 2,6 °C 93 % 1019,2 hPa 0,0 mm 0,0 km/h (0 Bft) S-SW 213 ° 0 min 0,000 mm 0,0 UV-I 5 W/m² 1,6 °C 2,6 °C 0,0 km/h (0 Bft)
02.11.2018 07:25 2,6 °C 93 % 1019,2 hPa 0,0 mm 0,0 km/h (0 Bft) S-SW 213 ° 0 min 0,000 mm 0,0 UV-I 5 W/m² 1,6 °C 2,6 °C 0,0 km/h (0 Bft)
02.11.2018 07:26 2,7 °C 93 % 1019,2 hPa 0,0 mm 0,0 km/h (0 Bft) S-SW 213 ° 0 min 0,000 mm 0,0 UV-I 5 W/m² 1,7 °C 2,7 °C 0,0 km/h (0 Bft)
02.11.2018 07:27 2,7 °C 93 % 1019,2 hPa 0,0 mm 0,0 km/h (0 Bft) S-SW 213 ° 0 min 0,000 mm 0,0 UV-I 5 W/m² 1,7 °C 2,7 °C 0,0 km/h (0 Bft)
02.11.2018 07:28 2,9 °C 94 % 1019,2 hPa 0,0 mm 0,0 km/h (0 Bft) S-SW 213 ° 0 min 0,000 mm 0,0 UV-I 5 W/m² 2,0 °C 2,9 °C 0,0 km/h (0 Bft)
02.11.2018 07:29 2,9 °C 94 % 1019,2 hPa 0,0 mm 0,0 km/h (0 Bft) S-SW 213 ° 0 min 0,000 mm 0,0 UV-I 5 W/m² 2,0 °C 2,9 °C 0,0 km/h (0 Bft)
02.11.2018 07:30 3,0 °C 94 % 1019,2 hPa 0,0 mm 0,0 km/h (0 Bft) S-SW 213 ° 0 min 0,000 mm 0,0 UV-I 5 W/m² 2,1 °C 3,0 °C 0,0 km/h (0 Bft)
02.11.2018 07:31 2,9 °C 93 % 1019,2 hPa 0,0 mm 0,0 km/h (0 Bft) S-SW 213 ° 0 min 0,000 mm 0,0 UV-I 5 W/m² 1,9 °C 2,9 °C 0,0 km/h (0 Bft)
02.11.2018 07:32 2,9 °C 93 % 1019,3 hPa 0,0 mm 0,0 km/h (0 Bft) S-SW 213 ° 0 min 0,000 mm 0,0 UV-I 5 W/m² 1,9 °C 2,9 °C 0,0 km/h (0 Bft)
02.11.2018 07:33 2,9 °C 93 % 1019,4 hPa 0,0 mm 0,0 km/h (0 Bft) S-SW 213 ° 0 min 0,000 mm 0,0 UV-I 5 W/m² 1,9 °C 2,9 °C 0,0 km/h (0 Bft)
02.11.2018 07:34 2,8 °C 93 % 1019,4 hPa 0,0 mm 0,0 km/h (0 Bft) S-SW 213 ° 0 min 0,000 mm 0,0 UV-I 5 W/m² 1,8 °C 2,8 °C 0,0 km/h (0 Bft)
02.11.2018 07:35 2,7 °C 93 % 1019,4 hPa 0,0 mm 0,0 km/h (0 Bft) S-SW 213 ° 0 min 0,000 mm 0,0 UV-I 5 W/m² 1,7 °C 2,7 °C 0,0 km/h (0 Bft)
02.11.2018 07:36 2,7 °C 93 % 1019,5 hPa 0,0 mm 0,0 km/h (0 Bft) S-SW 213 ° 0 min 0,000 mm 0,0 UV-I 5 W/m² 1,7 °C 2,7 °C 0,0 km/h (0 Bft)
02.11.2018 07:37 2,7 °C 93 % 1019,5 hPa 0,0 mm 0,0 km/h (0 Bft) S-SW 213 ° 0 min 0,000 mm 0,0 UV-I 5 W/m² 1,7 °C 2,7 °C 0,0 km/h (0 Bft)
02.11.2018 07:38 2,7 °C 93 % 1019,6 hPa 0,0 mm 0,0 km/h (0 Bft) S-SW 213 ° 0 min 0,000 mm 0,0 UV-I 5 W/m² 1,7 °C 2,7 °C 0,0 km/h (0 Bft)
02.11.2018 07:39 2,7 °C 93 % 1019,6 hPa 0,0 mm 0,0 km/h (0 Bft) S-SW 213 ° 0 min 0,000 mm 0,0 UV-I 5 W/m² 1,7 °C 2,7 °C 0,0 km/h (0 Bft)
02.11.2018 07:40 2,7 °C 93 % 1019,6 hPa 0,0 mm 0,0 km/h (0 Bft) S-SW 213 ° 0 min 0,000 mm 0,0 UV-I 5 W/m² 1,7 °C 2,7 °C 0,0 km/h (0 Bft)
02.11.2018 07:41 2,8 °C 93 % 1019,6 hPa 0,0 mm 0,0 km/h (0 Bft) S-SW 213 ° 0 min 0,000 mm 0,0 UV-I 5 W/m² 1,8 °C 2,8 °C 0,0 km/h (0 Bft)
02.11.2018 07:42 2,8 °C 93 % 1019,6 hPa 0,0 mm 0,0 km/h (0 Bft) S-SW 213 ° 0 min 0,000 mm 0,0 UV-I 7 W/m² 1,8 °C 2,8 °C 0,0 km/h (0 Bft)
02.11.2018 07:43 2,8 °C 94 % 1019,6 hPa 0,0 mm 0,0 km/h (0 Bft) S-SW 213 ° 0 min 0,000 mm 0,0 UV-I 7 W/m² 1,9 °C 2,8 °C 0,0 km/h (0 Bft)
02.11.2018 07:44 2,8 °C 93 % 1019,6 hPa 0,0 mm 0,0 km/h (0 Bft) S-SW 213 ° 0 min 0,000 mm 0,0 UV-I 7 W/m² 1,8 °C 2,8 °C 0,0 km/h (0 Bft)
02.11.2018 07:45 2,8 °C 93 % 1019,6 hPa 0,0 mm 0,0 km/h (0 Bft) S-SW 213 ° 0 min 0,000 mm 0,0 UV-I 7 W/m² 1,8 °C 2,8 °C 0,0 km/h (0 Bft)
02.11.2018 07:46 2,8 °C 93 % 1019,6 hPa 0,0 mm 0,0 km/h (0 Bft) S-SW 213 ° 0 min 0,000 mm 0,0 UV-I 11 W/m² 1,8 °C 2,8 °C 0,0 km/h (0 Bft)
02.11.2018 07:47 2,8 °C 93 % 1019,6 hPa 0,0 mm 0,0 km/h (0 Bft) S-SW 213 ° 0 min 0,000 mm 0,0 UV-I 11 W/m² 1,8 °C 2,8 °C 0,0 km/h (0 Bft)
02.11.2018 07:48 2,8 °C 94 % 1019,7 hPa 0,0 mm 0,0 km/h (0 Bft) S-SW 213 ° 0 min 0,000 mm 0,0 UV-I 12 W/m² 1,9 °C 2,8 °C 0,0 km/h (0 Bft)
02.11.2018 07:49 2,8 °C 94 % 1019,7 hPa 0,0 mm 0,0 km/h (0 Bft) S-SW 213 ° 0 min 0,000 mm 0,0 UV-I 12 W/m² 1,9 °C 2,8 °C 0,0 km/h (0 Bft)
02.11.2018 07:50 2,8 °C 93 % 1019,6 hPa 0,0 mm 0,0 km/h (0 Bft) S-SW 213 ° 0 min 0,000 mm 0,0 UV-I 14 W/m² 1,8 °C 2,8 °C 0,0 km/h (0 Bft)
02.11.2018 07:51 2,8 °C 94 % 1019,6 hPa 0,0 mm 0,0 km/h (0 Bft) S-SW 213 ° 0 min 0,000 mm 0,0 UV-I 14 W/m² 1,9 °C 2,8 °C 0,0 km/h (0 Bft)
02.11.2018 07:52 2,8 °C 94 % 1019,6 hPa 0,0 mm 0,0 km/h (0 Bft) S-SW 213 ° 0 min 0,000 mm 0,0 UV-I 14 W/m² 1,9 °C 2,8 °C 0,0 km/h (0 Bft)
02.11.2018 07:53 2,9 °C 94 % 1019,6 hPa 0,0 mm 0,0 km/h (0 Bft) S-SW 213 ° 0 min 0,000 mm 0,0 UV-I 14 W/m² 2,0 °C 2,9 °C 0,0 km/h (0 Bft)
02.11.2018 07:54 2,9 °C 94 % 1019,7 hPa 0,0 mm 0,0 km/h (0 Bft) S-SW 213 ° 0 min 0,000 mm 0,0 UV-I 16 W/m² 2,0 °C 2,9 °C 0,0 km/h (0 Bft)
02.11.2018 07:55 2,9 °C 94 % 1019,7 hPa 0,0 mm 0,0 km/h (0 Bft) S-SW 213 ° 0 min 0,000 mm 0,0 UV-I 16 W/m² 2,0 °C 2,9 °C 0,0 km/h (0 Bft)
02.11.2018 07:56 2,9 °C 93 % 1019,7 hPa 0,0 mm 0,0 km/h (0 Bft) S-SW 213 ° 0 min 0,000 mm 0,0 UV-I 18 W/m² 1,9 °C 2,9 °C 0,0 km/h (0 Bft)
02.11.2018 07:57 2,9 °C 94 % 1019,8 hPa 0,0 mm 0,0 km/h (0 Bft) S-SW 213 ° 0 min 0,000 mm 0,0 UV-I 18 W/m² 2,0 °C 2,9 °C 0,0 km/h (0 Bft)
02.11.2018 07:58 3,0 °C 94 % 1019,8 hPa 0,0 mm 0,0 km/h (0 Bft) S-SW 213 ° 0 min 0,000 mm 0,0 UV-I 19 W/m² 2,1 °C 3,0 °C 0,0 km/h (0 Bft)
02.11.2018 07:59 3,0 °C 94 % 1019,9 hPa 0,0 mm 0,0 km/h (0 Bft) S-SW 213 ° 0 min 0,000 mm 0,0 UV-I 19 W/m² 2,1 °C 3,0 °C 0,0 km/h (0 Bft)
02.11.2018 08:00 3,1 °C 93 % 1019,9 hPa 0,0 mm 0,0 km/h (0 Bft) S-SW 213 ° 0 min 0,000 mm 0,0 UV-I 19 W/m² 2,1 °C 3,1 °C 0,0 km/h (0 Bft)
02.11.2018 08:01 3,1 °C 93 % 1019,9 hPa 0,0 mm 0,0 km/h (0 Bft) S-SW 213 ° 0 min 0,000 mm 0,0 UV-I 19 W/m² 2,1 °C 3,1 °C 0,0 km/h (0 Bft)
02.11.2018 08:02 3,1 °C 93 % 1019,9 hPa 0,0 mm 0,0 km/h (0 Bft) S-SW 213 ° 0 min 0,000 mm 0,0 UV-I 21 W/m² 2,1 °C 3,1 °C 0,0 km/h (0 Bft)
02.11.2018 08:03 3,1 °C 93 % 1019,9 hPa 0,0 mm 0,0 km/h (0 Bft) S-SW 213 ° 0 min 0,000 mm 0,0 UV-I 21 W/m² 2,1 °C 3,1 °C 0,0 km/h (0 Bft)
02.11.2018 08:04 3,1 °C 93 % 1019,9 hPa 0,0 mm 0,0 km/h (0 Bft) S-SW 213 ° 0 min 0,000 mm 0,0 UV-I 23 W/m² 2,1 °C 3,1 °C 0,0 km/h (0 Bft)
02.11.2018 08:05 3,1 °C 93 % 1019,9 hPa 0,0 mm 0,0 km/h (0 Bft) S-SW 213 ° 0 min 0,000 mm 0,0 UV-I 23 W/m² 2,1 °C 3,1 °C 0,0 km/h (0 Bft)
02.11.2018 08:06 3,2 °C 93 % 1019,9 hPa 0,0 mm 0,0 km/h (0 Bft) S-SW 213 ° 0 min 0,000 mm 0,0 UV-I 25 W/m² 2,2 °C 3,2 °C 0,0 km/h (0 Bft)
02.11.2018 08:07 3,2 °C 93 % 1019,9 hPa 0,0 mm 0,0 km/h (0 Bft) S-SW 213 ° 0 min 0,000 mm 0,0 UV-I 25 W/m² 2,2 °C 3,2 °C 0,0 km/h (0 Bft)
02.11.2018 08:08 3,2 °C 93 % 1020,0 hPa 0,0 mm 0,0 km/h (0 Bft) S-SW 213 ° 0 min 0,000 mm 0,0 UV-I 26 W/m² 2,2 °C 3,2 °C 0,0 km/h (0 Bft)
02.11.2018 08:09 3,3 °C 94 % 1020,0 hPa 0,0 mm 0,0 km/h (0 Bft) S-SW 213 ° 0 min 0,000 mm 0,0 UV-I 26 W/m² 2,4 °C 3,3 °C 0,0 km/h (0 Bft)
02.11.2018 08:10 3,3 °C 94 % 1020,1 hPa 0,0 mm 0,0 km/h (0 Bft) S-SW 213 ° 0 min 0,000 mm 0,0 UV-I 26 W/m² 2,4 °C 3,3 °C 0,0 km/h (0 Bft)
02.11.2018 08:11 3,3 °C 94 % 1020,0 hPa 0,0 mm 0,0 km/h (0 Bft) S-SW 213 ° 0 min 0,000 mm 0,0 UV-I 26 W/m² 2,4 °C 3,3 °C 0,0 km/h (0 Bft)
02.11.2018 08:12 3,4 °C 94 % 1020,1 hPa 0,0 mm 0,0 km/h (0 Bft) S-SW 213 ° 0 min 0,000 mm 0,0 UV-I 28 W/m² 2,5 °C 3,4 °C 0,0 km/h (0 Bft)
02.11.2018 08:13 3,4 °C 94 % 1020,1 hPa 0,0 mm 0,0 km/h (0 Bft) S-SW 213 ° 0 min 0,000 mm 0,0 UV-I 30 W/m² 2,5 °C 3,4 °C 0,0 km/h (0 Bft)
02.11.2018 08:14 3,4 °C 93 % 1020,0 hPa 0,0 mm 0,0 km/h (0 Bft) S-SW 213 ° 0 min 0,000 mm 0,0 UV-I 30 W/m² 2,4 °C 3,4 °C 0,0 km/h (0 Bft)
02.11.2018 08:15 3,3 °C 93 % 1020,0 hPa 0,0 mm 0,0 km/h (0 Bft) S-SW 213 ° 0 min 0,000 mm 0,0 UV-I 32 W/m² 2,3 °C 3,3 °C 0,0 km/h (0 Bft)
02.11.2018 08:16 3,3 °C 93 % 1020,1 hPa 0,0 mm 0,0 km/h (0 Bft) S-SW 213 ° 0 min 0,000 mm 0,0 UV-I 32 W/m² 2,3 °C 3,3 °C 0,0 km/h (0 Bft)
02.11.2018 08:17 3,3 °C 93 % 1020,1 hPa 0,0 mm 0,0 km/h (0 Bft) S-SW 213 ° 0 min 0,000 mm 0,0 UV-I 33 W/m² 2,3 °C 3,3 °C 0,0 km/h (0 Bft)
02.11.2018 08:18 3,3 °C 93 % 1020,1 hPa 0,0 mm 0,0 km/h (0 Bft) S-SW 213 ° 0 min 0,000 mm 0,0 UV-I 33 W/m² 2,3 °C 3,3 °C 0,0 km/h (0 Bft)
02.11.2018 08:19 3,3 °C 93 % 1020,2 hPa 0,0 mm 0,0 km/h (0 Bft) S-SW 213 ° 0 min 0,000 mm 0,0 UV-I 35 W/m² 2,3 °C 3,3 °C 0,0 km/h (0 Bft)
02.11.2018 08:20 3,3 °C 93 % 1020,2 hPa 0,0 mm 0,0 km/h (0 Bft) S-SW 213 ° 0 min 0,000 mm 0,0 UV-I 37 W/m² 2,3 °C 3,3 °C 0,0 km/h (0 Bft)
02.11.2018 08:21 3,3 °C 93 % 1020,3 hPa 0,0 mm 0,0 km/h (0 Bft) S-SW 213 ° 0 min 0,000 mm 0,0 UV-I 37 W/m² 2,3 °C 3,3 °C 0,0 km/h (0 Bft)
02.11.2018 08:22 3,3 °C 93 % 1020,3 hPa 0,0 mm 0,0 km/h (0 Bft) S-SW 213 ° 0 min 0,000 mm 0,0 UV-I 39 W/m² 2,3 °C 3,3 °C 0,0 km/h (0 Bft)
02.11.2018 08:23 3,3 °C 93 % 1020,3 hPa 0,0 mm 0,0 km/h (0 Bft) S-SW 213 ° 0 min 0,000 mm 0,0 UV-I 42 W/m² 2,3 °C 3,3 °C 0,0 km/h (0 Bft)
02.11.2018 08:24 3,3 °C 93 % 1020,3 hPa 0,0 mm 0,0 km/h (0 Bft) S-SW 213 ° 0 min 0,000 mm 0,0 UV-I 44 W/m² 2,3 °C 3,3 °C 0,0 km/h (0 Bft)
02.11.2018 08:25 3,3 °C 93 % 1020,3 hPa 0,0 mm 0,0 km/h (0 Bft) S-SW 213 ° 0 min 0,000 mm 0,0 UV-I 44 W/m² 2,3 °C 3,3 °C 0,0 km/h (0 Bft)
02.11.2018 08:26 3,3 °C 93 % 1020,3 hPa 0,0 mm 0,0 km/h (0 Bft) S-SW 213 ° 0 min 0,000 mm 0,0 UV-I 46 W/m² 2,3 °C 3,3 °C 0,0 km/h (0 Bft)
02.11.2018 08:27 3,3 °C 93 % 1020,3 hPa 0,0 mm 0,0 km/h (0 Bft) S-SW 213 ° 0 min 0,000 mm 0,0 UV-I 47 W/m² 2,3 °C 3,3 °C 0,0 km/h (0 Bft)
02.11.2018 08:28 3,3 °C 93 % 1020,3 hPa 0,0 mm 0,0 km/h (0 Bft) S-SW 213 ° 0 min 0,000 mm 0,0 UV-I 49 W/m² 2,3 °C 3,3 °C 0,0 km/h (0 Bft)
02.11.2018 08:29 3,3 °C 93 % 1020,3 hPa 0,0 mm 0,0 km/h (0 Bft) S-SW 213 ° 0 min 0,000 mm 0,0 UV-I 53 W/m² 2,3 °C 3,3 °C 0,0 km/h (0 Bft)
02.11.2018 08:30 3,3 °C 93 % 1020,3 hPa 0,0 mm 0,0 km/h (0 Bft) S-SW 213 ° 0 min 0,000 mm 0,0 UV-I 56 W/m² 2,3 °C 3,3 °C 0,0 km/h (0 Bft)
02.11.2018 08:31 3,3 °C 93 % 1020,2 hPa 0,0 mm 0,0 km/h (0 Bft) S-SW 213 ° 0 min 0,000 mm 0,0 UV-I 58 W/m² 2,3 °C 3,3 °C 0,0 km/h (0 Bft)
02.11.2018 08:32 3,4 °C 93 % 1020,2 hPa 0,0 mm 0,0 km/h (0 Bft) S-SW 213 ° 0 min 0,000 mm 0,0 UV-I 62 W/m² 2,4 °C 3,4 °C 0,0 km/h (0 Bft)
02.11.2018 08:33 3,4 °C 93 % 1020,2 hPa 0,0 mm 0,0 km/h (0 Bft) S-SW 213 ° 0 min 0,000 mm 0,0 UV-I 62 W/m² 2,4 °C 3,4 °C 0,0 km/h (0 Bft)
02.11.2018 08:34 3,6 °C 93 % 1020,3 hPa 0,0 mm 0,0 km/h (0 Bft) S-SW 213 ° 0 min 0,000 mm 0,0 UV-I 63 W/m² 2,6 °C 3,6 °C 0,0 km/h (0 Bft)
02.11.2018 08:35 3,6 °C 93 % 1020,3 hPa 0,0 mm 0,0 km/h (0 Bft) S-SW 213 ° 0 min 0,000 mm 0,0 UV-I 65 W/m² 2,6 °C 3,6 °C 0,0 km/h (0 Bft)
02.11.2018 08:36 3,6 °C 93 % 1020,3 hPa 0,0 mm 0,0 km/h (0 Bft) S-SW 213 ° 0 min 0,000 mm 0,0 UV-I 65 W/m² 2,6 °C 3,6 °C 0,0 km/h (0 Bft)
02.11.2018 08:37 3,7 °C 93 % 1020,4 hPa 0,0 mm 0,0 km/h (0 Bft) S-SW 213 ° 0 min 0,000 mm 0,0 UV-I 65 W/m² 2,7 °C 3,7 °C 0,0 km/h (0 Bft)
02.11.2018 08:38 3,7 °C 93 % 1020,4 hPa 0,0 mm 0,0 km/h (0 Bft) S-SW 213 ° 0 min 0,000 mm 0,0 UV-I 65 W/m² 2,7 °C 3,7 °C 0,0 km/h (0 Bft)
02.11.2018 08:39 3,8 °C 93 % 1020,5 hPa 0,0 mm 0,0 km/h (0 Bft) S-SW 213 ° 0 min 0,000 mm 0,0 UV-I 65 W/m² 2,8 °C 3,8 °C 0,0 km/h (0 Bft)
02.11.2018 08:40 3,8 °C 93 % 1020,5 hPa 0,0 mm 0,0 km/h (0 Bft) S-SW 213 ° 0 min 0,000 mm 0,0 UV-I 67 W/m² 2,8 °C 3,8 °C 0,0 km/h (0 Bft)
02.11.2018 08:41 3,8 °C 93 % 1020,4 hPa 0,0 mm 0,0 km/h (0 Bft) S-SW 213 ° 0 min 0,000 mm 0,0 UV-I 70 W/m² 2,8 °C 3,8 °C 0,0 km/h (0 Bft)
02.11.2018 08:42 3,9 °C 93 % 1020,4 hPa 0,0 mm 0,0 km/h (0 Bft) S-SW 213 ° 0 min 0,000 mm 0,0 UV-I 72 W/m² 2,9 °C 3,9 °C 0,0 km/h (0 Bft)
02.11.2018 08:43 3,9 °C 93 % 1020,4 hPa 0,0 mm 0,0 km/h (0 Bft) S-SW 213 ° 0 min 0,000 mm 0,5 UV-I 74 W/m² 2,9 °C 3,9 °C 0,0 km/h (0 Bft)
02.11.2018 08:44 3,9 °C 93 % 1020,4 hPa 0,0 mm 0,0 km/h (0 Bft) S-SW 213 ° 0 min 0,000 mm 0,5 UV-I 76 W/m² 2,9 °C 3,9 °C 0,0 km/h (0 Bft)
02.11.2018 08:45 3,9 °C 93 % 1020,4 hPa 0,0 mm 0,0 km/h (0 Bft) S-SW 213 ° 0 min 0,000 mm 0,5 UV-I 77 W/m² 2,9 °C 3,9 °C 0,0 km/h (0 Bft)
02.11.2018 08:46 3,9 °C 93 % 1020,4 hPa 0,0 mm 0,0 km/h (0 Bft) S-SW 213 ° 0 min 0,000 mm 0,5 UV-I 79 W/m² 2,9 °C 3,9 °C 0,0 km/h (0 Bft)
02.11.2018 08:47 4,0 °C 93 % 1020,4 hPa 0,0 mm 0,0 km/h (0 Bft) S-SW 213 ° 0 min 0,000 mm 0,5 UV-I 81 W/m² 3,0 °C 4,0 °C 0,0 km/h (0 Bft)
02.11.2018 08:48 4,0 °C 93 % 1020,4 hPa 0,0 mm 0,0 km/h (0 Bft) S-SW 213 ° 0 min 0,000 mm 0,5 UV-I 83 W/m² 3,0 °C 4,0 °C 0,0 km/h (0 Bft)
02.11.2018 08:49 4,1 °C 93 % 1020,4 hPa 0,0 mm 0,0 km/h (0 Bft) S-SW 213 ° 0 min 0,000 mm 0,5 UV-I 83 W/m² 3,1 °C 4,1 °C 0,0 km/h (0 Bft)
02.11.2018 08:50 4,1 °C 93 % 1020,3 hPa 0,0 mm 0,0 km/h (0 Bft) S-SW 213 ° 0 min 0,000 mm 0,5 UV-I 83 W/m² 3,1 °C 4,1 °C 0,0 km/h (0 Bft)
02.11.2018 08:51 4,1 °C 93 % 1020,3 hPa 0,0 mm 0,0 km/h (0 Bft) S-SW 213 ° 0 min 0,000 mm 0,5 UV-I 81 W/m² 3,1 °C 4,1 °C 0,0 km/h (0 Bft)
02.11.2018 08:52 4,2 °C 93 % 1020,3 hPa 0,0 mm 0,0 km/h (0 Bft) S-SW 213 ° 0 min 0,000 mm 0,5 UV-I 83 W/m² 3,2 °C 4,2 °C 0,0 km/h (0 Bft)
02.11.2018 08:53 4,2 °C 93 % 1020,3 hPa 0,0 mm 0,0 km/h (0 Bft) S-SW 213 ° 0 min 0,000 mm 0,6 UV-I 83 W/m² 3,2 °C 4,2 °C 0,0 km/h (0 Bft)
02.11.2018 08:54 4,2 °C 93 % 1020,3 hPa 0,0 mm 0,0 km/h (0 Bft) S-SW 213 ° 0 min 0,000 mm 0,6 UV-I 81 W/m² 3,2 °C 4,2 °C 0,0 km/h (0 Bft)
02.11.2018 08:55 4,3 °C 93 % 1020,1 hPa 0,0 mm 0,0 km/h (0 Bft) S-SW 213 ° 0 min 0,000 mm 0,6 UV-I 79 W/m² 3,3 °C 4,3 °C 0,0 km/h (0 Bft)
02.11.2018 08:56 4,3 °C 93 % 1020,2 hPa 0,0 mm 0,0 km/h (0 Bft) S-SW 213 ° 0 min 0,000 mm 0,6 UV-I 77 W/m² 3,3 °C 4,3 °C 0,0 km/h (0 Bft)
02.11.2018 08:57 4,4 °C 93 % 1020,2 hPa 0,0 mm 0,0 km/h (0 Bft) S-SW 213 ° 0 min 0,000 mm 0,6 UV-I 77 W/m² 3,4 °C 4,4 °C 0,0 km/h (0 Bft)
02.11.2018 08:58 4,4 °C 93 % 1020,2 hPa 0,0 mm 0,0 km/h (0 Bft) S-SW 213 ° 0 min 0,000 mm 0,6 UV-I 74 W/m² 3,4 °C 4,4 °C 0,0 km/h (0 Bft)
02.11.2018 08:59 4,4 °C 93 % 1020,3 hPa 0,0 mm 0,0 km/h (0 Bft) S-SW 213 ° 0 min 0,000 mm 0,6 UV-I 76 W/m² 3,4 °C 4,4 °C 0,0 km/h (0 Bft)
02.11.2018 09:00 4,4 °C 93 % 1020,3 hPa 0,0 mm 0,0 km/h (0 Bft) S-SW 213 ° 0 min 0,025 mm 0,6 UV-I 79 W/m² 3,4 °C 4,4 °C 0,0 km/h (0 Bft)
02.11.2018 09:01 4,4 °C 93 % 1020,3 hPa 0,0 mm 0,0 km/h (0 Bft) S-SW 213 ° 0 min 0,000 mm 0,6 UV-I 81 W/m² 3,4 °C 4,4 °C 0,0 km/h (0 Bft)
02.11.2018 09:02 4,4 °C 93 % 1020,4 hPa 0,0 mm 0,0 km/h (0 Bft) S-SW 213 ° 0 min 0,000 mm 0,6 UV-I 81 W/m² 3,4 °C 4,4 °C 0,0 km/h (0 Bft)
02.11.2018 09:03 4,4 °C 93 % 1020,4 hPa 0,0 mm 0,0 km/h (0 Bft) S-SW 213 ° 0 min 0,000 mm 0,6 UV-I 81 W/m² 3,4 °C 4,4 °C 0,0 km/h (0 Bft)
02.11.2018 09:04 4,4 °C 93 % 1020,4 hPa 0,0 mm 0,0 km/h (0 Bft) S-SW 213 ° 0 min 0,000 mm 0,6 UV-I 84 W/m² 3,4 °C 4,4 °C 0,0 km/h (0 Bft)
02.11.2018 09:05 4,5 °C 93 % 1020,4 hPa 0,0 mm 0,0 km/h (0 Bft) S-SW 213 ° 0 min 0,000 mm 0,6 UV-I 88 W/m² 3,5 °C 4,5 °C 0,0 km/h (0 Bft)
02.11.2018 09:06 4,5 °C 93 % 1020,4 hPa 0,0 mm 0,0 km/h (0 Bft) S-SW 213 ° 0 min 0,000 mm 0,6 UV-I 90 W/m² 3,5 °C 4,5 °C 0,0 km/h (0 Bft)
02.11.2018 09:07 4,6 °C 93 % 1020,5 hPa 0,0 mm 0,0 km/h (0 Bft) S-SW 213 ° 0 min 0,000 mm 0,7 UV-I 91 W/m² 3,6 °C 4,6 °C 0,0 km/h (0 Bft)
02.11.2018 09:08 4,6 °C 93 % 1020,5 hPa 0,0 mm 0,0 km/h (0 Bft) S-SW 213 ° 0 min 0,000 mm 0,7 UV-I 93 W/m² 3,6 °C 4,6 °C 0,0 km/h (0 Bft)
02.11.2018 09:09 4,6 °C 93 % 1020,5 hPa 0,0 mm 0,0 km/h (0 Bft) S-SW 213 ° 0 min 0,000 mm 0,7 UV-I 95 W/m² 3,6 °C 4,6 °C 0,0 km/h (0 Bft)
02.11.2018 09:10 4,7 °C 93 % 1020,5 hPa 0,0 mm 0,0 km/h (0 Bft) S-SW 213 ° 0 min 0,000 mm 0,7 UV-I 95 W/m² 3,7 °C 4,7 °C 0,0 km/h (0 Bft)
02.11.2018 09:11 4,7 °C 93 % 1020,5 hPa 0,0 mm 0,0 km/h (0 Bft) S-SW 213 ° 0 min 0,000 mm 0,7 UV-I 97 W/m² 3,7 °C 4,7 °C 0,0 km/h (0 Bft)
02.11.2018 09:12 4,7 °C 93 % 1020,5 hPa 0,0 mm 0,0 km/h (0 Bft) S-SW 213 ° 0 min 0,000 mm 0,7 UV-I 97 W/m² 3,7 °C 4,7 °C 0,0 km/h (0 Bft)
02.11.2018 09:13 4,8 °C 93 % 1020,5 hPa 0,0 mm 0,0 km/h (0 Bft) S-SW 213 ° 0 min 0,000 mm 0,7 UV-I 100 W/m² 3,8 °C 4,8 °C 0,0 km/h (0 Bft)
02.11.2018 09:14 4,8 °C 93 % 1020,5 hPa 0,0 mm 0,0 km/h (0 Bft) S-SW 213 ° 0 min 0,000 mm 0,7 UV-I 104 W/m² 3,8 °C 4,8 °C 0,0 km/h (0 Bft)
02.11.2018 09:15 4,9 °C 93 % 1020,5 hPa 0,0 mm 0,0 km/h (0 Bft) S-SW 213 ° 0 min 0,000 mm 0,8 UV-I 104 W/m² 3,9 °C 4,9 °C 0,0 km/h (0 Bft)
02.11.2018 09:16 4,9 °C 93 % 1020,5 hPa 0,0 mm 0,0 km/h (0 Bft) S-SW 213 ° 0 min 0,000 mm 0,8 UV-I 113 W/m² 3,9 °C 4,9 °C 0,0 km/h (0 Bft)
02.11.2018 09:17 4,9 °C 93 % 1020,5 hPa 0,0 mm 0,0 km/h (0 Bft) S-SW 213 ° 0 min 0,000 mm 0,8 UV-I 114 W/m² 3,9 °C 4,9 °C 0,0 km/h (0 Bft)
02.11.2018 09:18 5,1 °C 93 % 1020,5 hPa 0,0 mm 0,0 km/h (0 Bft) S-SW 213 ° 0 min 0,000 mm 0,8 UV-I 116 W/m² 4,1 °C 5,1 °C 0,0 km/h (0 Bft)
02.11.2018 09:19 5,1 °C 93 % 1020,5 hPa 0,0 mm 0,0 km/h (0 Bft) S-SW 213 ° 0 min 0,000 mm 0,8 UV-I 116 W/m² 4,1 °C 5,1 °C 0,0 km/h (0 Bft)
02.11.2018 09:20 5,2 °C 93 % 1020,6 hPa 0,0 mm 0,0 km/h (0 Bft) S-SW 213 ° 0 min 0,000 mm 0,8 UV-I 116 W/m² 4,2 °C 5,2 °C 0,0 km/h (0 Bft)
02.11.2018 09:21 5,2 °C 93 % 1020,6 hPa 0,0 mm 0,0 km/h (0 Bft) S-SW 213 ° 0 min 0,000 mm 0,8 UV-I 113 W/m² 4,2 °C 5,2 °C 0,0 km/h (0 Bft)
02.11.2018 09:22 5,3 °C 93 % 1020,5 hPa 0,0 mm 0,0 km/h (0 Bft) S-SW 213 ° 0 min 0,000 mm 0,8 UV-I 113 W/m² 4,3 °C 5,3 °C 0,0 km/h (0 Bft)
02.11.2018 09:23 5,4 °C 93 % 1020,6 hPa 0,0 mm 0,0 km/h (0 Bft) S-SW 213 ° 0 min 0,000 mm 0,8 UV-I 111 W/m² 4,4 °C 5,4 °C 0,0 km/h (0 Bft)
02.11.2018 09:24 5,4 °C 93 % 1020,6 hPa 0,0 mm 0,0 km/h (0 Bft) S-SW 213 ° 0 min 0,000 mm 0,8 UV-I 109 W/m² 4,4 °C 5,4 °C 0,0 km/h (0 Bft)
02.11.2018 09:25 5,6 °C 93 % 1020,5 hPa 0,0 mm 0,0 km/h (0 Bft) S-SW 213 ° 0 min 0,000 mm 0,8 UV-I 107 W/m² 4,6 °C 5,6 °C 0,0 km/h (0 Bft)
02.11.2018 09:26 5,6 °C 93 % 1020,5 hPa 0,0 mm 0,0 km/h (0 Bft) S-SW 213 ° 0 min 0,000 mm 0,8 UV-I 105 W/m² 4,6 °C 5,6 °C 0,0 km/h (0 Bft)
02.11.2018 09:27 5,7 °C 93 % 1020,5 hPa 0,0 mm 0,0 km/h (0 Bft) S-SW 213 ° 0 min 0,000 mm 0,8 UV-I 105 W/m² 4,7 °C 5,7 °C 0,0 km/h (0 Bft)
02.11.2018 09:28 5,7 °C 93 % 1020,5 hPa 0,0 mm 0,0 km/h (0 Bft) S-SW 213 ° 0 min 0,000 mm 0,8 UV-I 105 W/m² 4,7 °C 5,7 °C 0,0 km/h (0 Bft)
02.11.2018 09:29 5,8 °C 93 % 1020,5 hPa 0,0 mm 0,0 km/h (0 Bft) S-SW 213 ° 0 min 0,000 mm 0,8 UV-I 104 W/m² 4,8 °C 5,8 °C 0,0 km/h (0 Bft)
02.11.2018 09:30 5,8 °C 92 % 1020,5 hPa 0,0 mm 0,0 km/h (0 Bft) S-SW 213 ° 0 min 0,000 mm 0,8 UV-I 102 W/m² 4,6 °C 5,8 °C 0,0 km/h (0 Bft)
02.11.2018 09:31 5,9 °C 92 % 1020,5 hPa 0,0 mm 0,0 km/h (0 Bft) S-SW 213 ° 0 min 0,000 mm 0,8 UV-I 100 W/m² 4,7 °C 5,9 °C 0,0 km/h (0 Bft)
02.11.2018 09:32 6,0 °C 92 % 1020,4 hPa 0,0 mm 0,0 km/h (0 Bft) S-SW 213 ° 0 min 0,000 mm 0,8 UV-I 100 W/m² 4,8 °C 6,0 °C 0,0 km/h (0 Bft)
02.11.2018 09:33 6,1 °C 92 % 1020,4 hPa 0,0 mm 0,0 km/h (0 Bft) S-SW 213 ° 0 min 0,000 mm 0,8 UV-I 102 W/m² 4,9 °C 6,1 °C 0,0 km/h (0 Bft)
02.11.2018 09:34 6,1 °C 92 % 1020,4 hPa 0,0 mm 0,0 km/h (0 Bft) S-SW 213 ° 0 min 0,000 mm 0,8 UV-I 102 W/m² 4,9 °C 6,1 °C 0,0 km/h (0 Bft)
02.11.2018 09:35 6,2 °C 91 % 1020,3 hPa 0,0 mm 0,0 km/h (0 Bft) S-SW 213 ° 0 min 0,000 mm 0,8 UV-I 102 W/m² 4,8 °C 6,2 °C 0,0 km/h (0 Bft)
02.11.2018 09:36 6,3 °C 91 % 1020,3 hPa 0,0 mm 0,0 km/h (0 Bft) S-SW 213 ° 0 min 0,000 mm 0,8 UV-I 100 W/m² 4,9 °C 6,3 °C 0,0 km/h (0 Bft)
02.11.2018 09:37 6,3 °C 91 % 1020,3 hPa 0,0 mm 0,0 km/h (0 Bft) S-SW 213 ° 0 min 0,000 mm 0,8 UV-I 100 W/m² 4,9 °C 6,3 °C 0,0 km/h (0 Bft)
02.11.2018 09:38 6,4 °C 90 % 1020,4 hPa 0,0 mm 0,0 km/h (0 Bft) S-SW 213 ° 0 min 0,000 mm 0,8 UV-I 100 W/m² 4,9 °C 6,4 °C 0,0 km/h (0 Bft)
02.11.2018 09:39 6,5 °C 90 % 1020,3 hPa 0,0 mm 0,0 km/h (0 Bft) S-SW 213 ° 0 min 0,000 mm 0,8 UV-I 98 W/m² 5,0 °C 6,5 °C 0,0 km/h (0 Bft)
02.11.2018 09:40 6,5 °C 90 % 1020,3 hPa 0,0 mm 0,0 km/h (0 Bft) S-SW 213 ° 0 min 0,000 mm 0,8 UV-I 100 W/m² 5,0 °C 6,5 °C 0,0 km/h (0 Bft)
02.11.2018 09:41 6,6 °C 90 % 1020,4 hPa 0,0 mm 0,0 km/h (0 Bft) S-SW 213 ° 0 min 0,000 mm 0,8 UV-I 104 W/m² 5,1 °C 6,6 °C 0,0 km/h (0 Bft)
02.11.2018 09:42 6,7 °C 90 % 1020,3 hPa 0,0 mm 0,0 km/h (0 Bft) S-SW 213 ° 0 min 0,000 mm 0,8 UV-I 105 W/m² 5,2 °C 6,7 °C 0,0 km/h (0 Bft)
02.11.2018 09:43 6,7 °C 90 % 1020,3 hPa 0,0 mm 0,0 km/h (0 Bft) S-SW 213 ° 0 min 0,000 mm 0,8 UV-I 109 W/m² 5,2 °C 6,7 °C 0,0 km/h (0 Bft)
02.11.2018 09:44 6,7 °C 90 % 1020,4 hPa 0,0 mm 0,0 km/h (0 Bft) S-SW 213 ° 0 min 0,000 mm 0,8 UV-I 113 W/m² 5,2 °C 6,7 °C 0,0 km/h (0 Bft)
02.11.2018 09:45 6,8 °C 90 % 1020,4 hPa 0,0 mm 0,0 km/h (0 Bft) S-SW 213 ° 0 min 0,000 mm 0,9 UV-I 116 W/m² 5,3 °C 6,8 °C 0,0 km/h (0 Bft)
02.11.2018 09:46 6,8 °C 90 % 1020,4 hPa 0,0 mm 0,0 km/h (0 Bft) S-SW 213 ° 0 min 0,000 mm 0,9 UV-I 116 W/m² 5,3 °C 6,8 °C 0,0 km/h (0 Bft)
02.11.2018 09:47 6,8 °C 90 % 1020,4 hPa 0,0 mm 0,0 km/h (0 Bft) S-SW 213 ° 0 min 0,000 mm 0,9 UV-I 118 W/m² 5,3 °C 6,8 °C 0,0 km/h (0 Bft)
02.11.2018 09:48 6,9 °C 90 % 1020,4 hPa 0,0 mm 0,0 km/h (0 Bft) S-SW 213 ° 0 min 0,000 mm 0,9 UV-I 118 W/m² 5,4 °C 6,9 °C 0,0 km/h (0 Bft)
02.11.2018 09:49 6,9 °C 90 % 1020,4 hPa 0,0 mm 0,0 km/h (0 Bft) S-SW 213 ° 0 min 0,000 mm 0,9 UV-I 118 W/m² 5,4 °C 6,9 °C 0,0 km/h (0 Bft)
02.11.2018 09:50 6,9 °C 90 % 1020,4 hPa 0,0 mm 0,0 km/h (0 Bft) S-SW 213 ° 0 min 0,000 mm 0,9 UV-I 120 W/m² 5,4 °C 6,9 °C 0,0 km/h (0 Bft)
02.11.2018 09:51 7,0 °C 90 % 1020,4 hPa 0,0 mm 0,0 km/h (0 Bft) S-SW 213 ° 0 min 0,000 mm 0,9 UV-I 120 W/m² 5,5 °C 7,0 °C 0,0 km/h (0 Bft)
02.11.2018 09:52 7,0 °C 90 % 1020,5 hPa 0,0 mm 0,0 km/h (0 Bft) S-SW 213 ° 0 min 0,000 mm 0,9 UV-I 120 W/m² 5,5 °C 7,0 °C 0,0 km/h (0 Bft)
02.11.2018 09:53 7,1 °C 90 % 1020,5 hPa 0,0 mm 0,0 km/h (0 Bft) S-SW 213 ° 0 min 0,000 mm 0,9 UV-I 118 W/m² 5,6 °C 7,1 °C 0,0 km/h (0 Bft)
02.11.2018 09:54 7,1 °C 90 % 1020,5 hPa 0,0 mm 0,0 km/h (0 Bft) S-SW 213 ° 0 min 0,000 mm 0,9 UV-I 116 W/m² 5,6 °C 7,1 °C 0,0 km/h (0 Bft)
02.11.2018 09:55 7,2 °C 90 % 1020,6 hPa 0,0 mm 0,0 km/h (0 Bft) S-SW 213 ° 0 min 0,000 mm 0,9 UV-I 118 W/m² 5,7 °C 7,2 °C 0,0 km/h (0 Bft)
02.11.2018 09:56 7,2 °C 90 % 1020,6 hPa 0,0 mm 0,0 km/h (0 Bft) S-SW 213 ° 0 min 0,000 mm 0,9 UV-I 121 W/m² 5,7 °C 7,2 °C 0,0 km/h (0 Bft)
02.11.2018 09:57 7,3 °C 90 % 1020,6 hPa 0,0 mm 0,0 km/h (0 Bft) S-SW 213 ° 0 min 0,000 mm 0,9 UV-I 121 W/m² 5,8 °C 7,3 °C 0,0 km/h (0 Bft)
02.11.2018 09:58 7,3 °C 90 % 1020,6 hPa 0,0 mm 0,0 km/h (0 Bft) S-SW 213 ° 0 min 0,000 mm 0,9 UV-I 121 W/m² 5,8 °C 7,3 °C 0,0 km/h (0 Bft)
02.11.2018 09:59 7,3 °C 90 % 1020,6 hPa 0,0 mm 0,0 km/h (0 Bft) S-SW 213 ° 0 min 0,000 mm 0,9 UV-I 121 W/m² 5,8 °C 7,3 °C 0,0 km/h (0 Bft)
02.11.2018 10:00 7,3 °C 90 % 1020,5 hPa 0,0 mm 0,0 km/h (0 Bft) S-SW 213 ° 0 min 0,000 mm 0,9 UV-I 120 W/m² 5,8 °C 7,3 °C 0,0 km/h (0 Bft)
02.11.2018 10:01 7,4 °C 90 % 1020,5 hPa 0,0 mm 0,0 km/h (0 Bft) S-SW 213 ° 0 min 0,051 mm 0,9 UV-I 121 W/m² 5,9 °C 7,4 °C 0,0 km/h (0 Bft)
02.11.2018 10:02 7,4 °C 90 % 1020,5 hPa 0,0 mm 0,0 km/h (0 Bft) S-SW 213 ° 0 min 0,000 mm 0,9 UV-I 128 W/m² 5,9 °C 7,4 °C 0,0 km/h (0 Bft)
02.11.2018 10:03 7,4 °C 90 % 1020,5 hPa 0,0 mm 0,0 km/h (0 Bft) S-SW 213 ° 0 min 0,000 mm 0,9 UV-I 132 W/m² 5,9 °C 7,4 °C 0,0 km/h (0 Bft)
02.11.2018 10:04 7,4 °C 90 % 1020,5 hPa 0,0 mm 0,0 km/h (0 Bft) S-SW 213 ° 0 min 0,000 mm 1,0 UV-I 134 W/m² 5,9 °C 7,4 °C 0,0 km/h (0 Bft)
02.11.2018 10:05 7,5 °C 90 % 1020,4 hPa 0,0 mm 0,0 km/h (0 Bft) S-SW 213 ° 0 min 0,000 mm 1,0 UV-I 132 W/m² 6,0 °C 7,5 °C 0,0 km/h (0 Bft)
02.11.2018 10:06 7,6 °C 90 % 1020,4 hPa 0,0 mm 0,0 km/h (0 Bft) S-SW 213 ° 0 min 0,000 mm 1,0 UV-I 132 W/m² 6,1 °C 7,6 °C 0,0 km/h (0 Bft)
02.11.2018 10:07 7,6 °C 89 % 1020,4 hPa 0,0 mm 0,0 km/h (0 Bft) S-SW 213 ° 0 min 0,000 mm 1,0 UV-I 134 W/m² 5,9 °C 7,6 °C 0,0 km/h (0 Bft)
02.11.2018 10:08 7,6 °C 88 % 1020,4 hPa 0,0 mm 0,0 km/h (0 Bft) S-SW 213 ° 0 min 0,000 mm 1,0 UV-I 135 W/m² 5,7 °C 7,6 °C 0,0 km/h (0 Bft)
02.11.2018 10:09 7,7 °C 88 % 1020,4 hPa 0,0 mm 0,0 km/h (0 Bft) S-SW 213 ° 0 min 0,000 mm 1,0 UV-I 134 W/m² 5,8 °C 7,7 °C 0,0 km/h (0 Bft)
02.11.2018 10:10 7,7 °C 88 % 1020,5 hPa 0,0 mm 0,0 km/h (0 Bft) S-SW 213 ° 0 min 0,000 mm 1,0 UV-I 134 W/m² 5,8 °C 7,7 °C 0,0 km/h (0 Bft)
02.11.2018 10:11 7,8 °C 88 % 1020,4 hPa 0,0 mm 0,7 km/h (0 Bft) S-SW 207 ° 0 min 0,000 mm 1,0 UV-I 134 W/m² 5,9 °C 7,8 °C 1,6 km/h (1 Bft)
02.11.2018 10:12 7,8 °C 87 % 1020,5 hPa 0,0 mm 0,8 km/h (0 Bft) O-SO 108 ° 0 min 0,000 mm 1,0 UV-I 134 W/m² 5,8 °C 7,8 °C 3,2 km/h (1 Bft)
02.11.2018 10:13 7,9 °C 86 % 1020,4 hPa 0,0 mm 2,3 km/h (1 Bft) O-SO 108 ° 0 min 0,000 mm 0,9 UV-I 132 W/m² 5,7 °C 7,9 °C 3,2 km/h (1 Bft)
02.11.2018 10:14 7,9 °C 86 % 1020,5 hPa 0,0 mm 1,3 km/h (1 Bft) O-SO 108 ° 0 min 0,000 mm 0,9 UV-I 128 W/m² 5,7 °C 7,9 °C 3,2 km/h (1 Bft)
02.11.2018 10:15 7,9 °C 85 % 1020,4 hPa 0,0 mm 0,0 km/h (0 Bft) O-SO 108 ° 0 min 0,000 mm 0,9 UV-I 128 W/m² 5,5 °C 7,9 °C 0,0 km/h (0 Bft)
02.11.2018 10:16 8,0 °C 85 % 1020,5 hPa 0,0 mm 0,6 km/h (0 Bft) O-SO 108 ° 0 min 0,000 mm 0,9 UV-I 128 W/m² 5,6 °C 8,0 °C 3,2 km/h (1 Bft)
02.11.2018 10:17 8,1 °C 85 % 1020,4 hPa 0,0 mm 3,3 km/h (1 Bft) O 86 ° 0 min 0,000 mm 0,9 UV-I 128 W/m² 5,7 °C 8,1 °C 4,8 km/h (1 Bft)
02.11.2018 10:18 8,1 °C 84 % 1020,4 hPa 0,0 mm 0,9 km/h (0 Bft) O 86 ° 0 min 0,000 mm 0,9 UV-I 130 W/m² 5,6 °C 8,1 °C 3,2 km/h (1 Bft)
02.11.2018 10:19 8,1 °C 84 % 1020,5 hPa 0,0 mm 0,4 km/h (0 Bft) O 86 ° 0 min 0,000 mm 0,9 UV-I 128 W/m² 5,6 °C 8,1 °C 1,6 km/h (1 Bft)
02.11.2018 10:20 8,1 °C 84 % 1020,5 hPa 0,0 mm 1,5 km/h (1 Bft) O 86 ° 0 min 0,000 mm 0,9 UV-I 127 W/m² 5,6 °C 8,1 °C 4,8 km/h (1 Bft)
02.11.2018 10:21 8,2 °C 84 % 1020,5 hPa 0,0 mm 2,7 km/h (1 Bft) O-NO 69 ° 0 min 0,000 mm 0,9 UV-I 125 W/m² 5,7 °C 8,2 °C 4,8 km/h (1 Bft)
02.11.2018 10:22 8,2 °C 84 % 1020,5 hPa 0,0 mm 2,7 km/h (1 Bft) O-NO 69 ° 0 min 0,000 mm 0,9 UV-I 125 W/m² 5,7 °C 8,2 °C 4,8 km/h (1 Bft)
02.11.2018 10:23 8,2 °C 84 % 1020,5 hPa 0,0 mm 0,6 km/h (0 Bft) O-NO 69 ° 0 min 0,000 mm 0,9 UV-I 127 W/m² 5,7 °C 8,2 °C 3,2 km/h (1 Bft)
02.11.2018 10:24 8,2 °C 85 % 1020,6 hPa 0,0 mm 2,7 km/h (1 Bft) O-NO 69 ° 0 min 0,000 mm 0,9 UV-I 128 W/m² 5,8 °C 8,2 °C 4,8 km/h (1 Bft)
02.11.2018 10:25 8,2 °C 85 % 1020,6 hPa 0,0 mm 1,3 km/h (1 Bft) O-NO 69 ° 0 min 0,000 mm 0,9 UV-I 130 W/m² 5,8 °C 8,2 °C 3,2 km/h (1 Bft)
02.11.2018 10:26 8,2 °C 85 % 1020,6 hPa 0,0 mm 0,2 km/h (0 Bft) O-NO 69 ° 0 min 0,000 mm 0,9 UV-I 132 W/m² 5,8 °C 8,2 °C 1,6 km/h (1 Bft)
02.11.2018 10:27 8,3 °C 84 % 1020,6 hPa 0,0 mm 0,6 km/h (0 Bft) O-NO 69 ° 0 min 0,000 mm 0,9 UV-I 132 W/m² 5,8 °C 8,3 °C 3,2 km/h (1 Bft)
02.11.2018 10:28 8,3 °C 85 % 1020,6 hPa 0,0 mm 2,8 km/h (1 Bft) O-NO 69 ° 0 min 0,000 mm 0,9 UV-I 135 W/m² 5,9 °C 8,3 °C 3,2 km/h (1 Bft)
02.11.2018 10:29 8,3 °C 84 % 1020,6 hPa 0,0 mm 3,0 km/h (1 Bft) O-NO 69 ° 0 min 0,000 mm 0,9 UV-I 137 W/m² 5,8 °C 8,3 °C 4,8 km/h (1 Bft)
02.11.2018 10:30 8,3 °C 84 % 1020,6 hPa 0,0 mm 3,6 km/h (1 Bft) O-NO 69 ° 0 min 0,000 mm 0,9 UV-I 137 W/m² 5,8 °C 8,3 °C 4,8 km/h (1 Bft)
02.11.2018 10:31 8,3 °C 84 % 1020,6 hPa 0,0 mm 4,3 km/h (1 Bft) O-NO 62 ° 0 min 0,000 mm 0,9 UV-I 134 W/m² 5,8 °C 8,3 °C 6,4 km/h (2 Bft)
02.11.2018 10:32 8,3 °C 83 % 1020,5 hPa 0,0 mm 2,4 km/h (1 Bft) O-NO 62 ° 0 min 0,000 mm 0,9 UV-I 132 W/m² 5,6 °C 8,3 °C 4,8 km/h (1 Bft)
02.11.2018 10:33 8,3 °C 84 % 1020,5 hPa 0,0 mm 3,6 km/h (1 Bft) NO 34 ° 0 min 0,000 mm 0,9 UV-I 134 W/m² 5,8 °C 8,3 °C 6,4 km/h (2 Bft)
02.11.2018 10:34 8,3 °C 83 % 1020,4 hPa 0,0 mm 1,3 km/h (1 Bft) NO 34 ° 0 min 0,000 mm 0,9 UV-I 135 W/m² 5,6 °C 8,3 °C 4,8 km/h (1 Bft)
02.11.2018 10:35 8,3 °C 84 % 1020,5 hPa 0,0 mm 3,1 km/h (1 Bft) NO 34 ° 0 min 0,000 mm 0,9 UV-I 137 W/m² 5,8 °C 8,3 °C 3,2 km/h (1 Bft)
02.11.2018 10:36 8,3 °C 83 % 1020,5 hPa 0,0 mm 2,2 km/h (1 Bft) NO 34 ° 0 min 0,000 mm 0,9 UV-I 135 W/m² 5,6 °C 8,3 °C 3,2 km/h (1 Bft)
02.11.2018 10:37 8,3 °C 83 % 1020,6 hPa 0,0 mm 2,0 km/h (1 Bft) NO 34 ° 0 min 0,000 mm 0,9 UV-I 137 W/m² 5,6 °C 8,3 °C 3,2 km/h (1 Bft)
02.11.2018 10:38 8,3 °C 84 % 1020,6 hPa 0,0 mm 2,7 km/h (1 Bft) NO 34 ° 0 min 0,000 mm 0,9 UV-I 142 W/m² 5,8 °C 8,3 °C 4,8 km/h (1 Bft)
02.11.2018 10:39 8,3 °C 84 % 1020,6 hPa 0,0 mm 3,0 km/h (1 Bft) NO 34 ° 0 min 0,000 mm 1,0 UV-I 146 W/m² 5,8 °C 8,3 °C 4,8 km/h (1 Bft)
02.11.2018 10:40 8,3 °C 84 % 1020,6 hPa 0,0 mm 0,7 km/h (0 Bft) NO 34 ° 0 min 0,000 mm 1,0 UV-I 146 W/m² 5,8 °C 8,3 °C 1,6 km/h (1 Bft)
02.11.2018 10:41 8,4 °C 84 % 1020,6 hPa 0,0 mm 0,5 km/h (0 Bft) NO 34 ° 0 min 0,000 mm 1,0 UV-I 146 W/m² 5,9 °C 8,4 °C 1,6 km/h (1 Bft)
02.11.2018 10:42 8,4 °C 84 % 1020,6 hPa 0,0 mm 2,1 km/h (1 Bft) NO 34 ° 0 min 0,000 mm 1,0 UV-I 148 W/m² 5,9 °C 8,4 °C 3,2 km/h (1 Bft)
02.11.2018 10:43 8,4 °C 84 % 1020,6 hPa 0,0 mm 0,1 km/h (0 Bft) NO 34 ° 0 min 0,000 mm 1,0 UV-I 151 W/m² 5,9 °C 8,4 °C 1,6 km/h (1 Bft)
02.11.2018 10:44 8,4 °C 84 % 1020,5 hPa 0,0 mm 2,8 km/h (1 Bft) NO 34 ° 0 min 0,000 mm 1,0 UV-I 153 W/m² 5,9 °C 8,4 °C 3,2 km/h (1 Bft)
02.11.2018 10:45 8,4 °C 84 % 1020,5 hPa 0,0 mm 2,8 km/h (1 Bft) NO 34 ° 0 min 0,000 mm 1,0 UV-I 153 W/m² 5,9 °C 8,4 °C 3,2 km/h (1 Bft)
02.11.2018 10:46 8,4 °C 84 % 1020,5 hPa 0,0 mm 2,2 km/h (1 Bft) NO 34 ° 0 min 0,000 mm 1,0 UV-I 148 W/m² 5,9 °C 8,4 °C 4,8 km/h (1 Bft)
02.11.2018 10:47 8,4 °C 84 % 1020,5 hPa 0,0 mm 2,5 km/h (1 Bft) N-NO 23 ° 0 min 0,000 mm 1,0 UV-I 144 W/m² 5,9 °C 8,4 °C 4,8 km/h (1 Bft)
02.11.2018 10:48 8,5 °C 84 % 1020,5 hPa 0,0 mm 1,3 km/h (1 Bft) N-NO 23 ° 0 min 0,000 mm 1,0 UV-I 142 W/m² 6,0 °C 8,5 °C 3,2 km/h (1 Bft)
02.11.2018 10:49 8,5 °C 83 % 1020,6 hPa 0,0 mm 0,2 km/h (0 Bft) N-NO 23 ° 0 min 0,000 mm 0,9 UV-I 142 W/m² 5,8 °C 8,5 °C 1,6 km/h (1 Bft)
02.11.2018 10:50 8,5 °C 84 % 1020,6 hPa 0,0 mm 0,0 km/h (0 Bft) N-NO 23 ° 0 min 0,000 mm 0,9 UV-I 142 W/m² 6,0 °C 8,5 °C 0,0 km/h (0 Bft)
02.11.2018 10:51 8,5 °C 84 % 1020,7 hPa 0,0 mm 1,6 km/h (1 Bft) N-NO 23 ° 0 min 0,000 mm 0,9 UV-I 142 W/m² 6,0 °C 8,5 °C 3,2 km/h (1 Bft)
02.11.2018 10:52 8,5 °C 83 % 1020,6 hPa 0,0 mm 0,3 km/h (0 Bft) N-NO 23 ° 0 min 0,000 mm 0,9 UV-I 139 W/m² 5,8 °C 8,5 °C 1,6 km/h (1 Bft)
02.11.2018 10:53 8,4 °C 83 % 1020,7 hPa 0,0 mm 2,1 km/h (1 Bft) N-NO 23 ° 0 min 0,000 mm 0,9 UV-I 135 W/m² 5,7 °C 8,4 °C 3,2 km/h (1 Bft)
02.11.2018 10:54 8,5 °C 83 % 1020,6 hPa 0,0 mm 2,2 km/h (1 Bft) N-NO 23 ° 0 min 0,000 mm 0,9 UV-I 132 W/m² 5,8 °C 8,5 °C 3,2 km/h (1 Bft)
02.11.2018 10:55 8,5 °C 83 % 1020,6 hPa 0,0 mm 0,4 km/h (0 Bft) N-NO 23 ° 0 min 0,000 mm 0,9 UV-I 127 W/m² 5,8 °C 8,5 °C 1,6 km/h (1 Bft)
02.11.2018 10:56 8,5 °C 82 % 1020,6 hPa 0,0 mm 0,0 km/h (0 Bft) N-NO 23 ° 0 min 0,000 mm 0,9 UV-I 125 W/m² 5,6 °C 8,5 °C 0,0 km/h (0 Bft)
02.11.2018 10:57 8,5 °C 82 % 1020,6 hPa 0,0 mm 0,0 km/h (0 Bft) N-NO 23 ° 0 min 0,000 mm 0,8 UV-I 121 W/m² 5,6 °C 8,5 °C 0,0 km/h (0 Bft)
02.11.2018 10:58 8,6 °C 83 % 1020,6 hPa 0,0 mm 0,0 km/h (0 Bft) N-NO 23 ° 0 min 0,000 mm 0,8 UV-I 118 W/m² 5,9 °C 8,6 °C 0,0 km/h (0 Bft)
02.11.2018 10:59 8,6 °C 83 % 1020,7 hPa 0,0 mm 0,5 km/h (0 Bft) N-NO 23 ° 0 min 0,000 mm 0,8 UV-I 113 W/m² 5,9 °C 8,6 °C 1,6 km/h (1 Bft)
02.11.2018 11:00 8,6 °C 83 % 1020,6 hPa 0,0 mm 0,8 km/h (0 Bft) N-NO 23 ° 0 min 0,000 mm 0,8 UV-I 109 W/m² 5,9 °C 8,6 °C 1,6 km/h (1 Bft)
02.11.2018 11:01 8,6 °C 82 % 1020,7 hPa 0,0 mm 0,7 km/h (0 Bft) N-NO 23 ° 0 min 0,051 mm 0,7 UV-I 109 W/m² 5,7 °C 8,6 °C 3,2 km/h (1 Bft)
02.11.2018 11:02 8,6 °C 82 % 1020,7 hPa 0,0 mm 0,9 km/h (0 Bft) N-NO 23 ° 0 min 0,000 mm 0,8 UV-I 109 W/m² 5,7 °C 8,6 °C 3,2 km/h (1 Bft)
02.11.2018 11:03 8,6 °C 82 % 1020,6 hPa 0,0 mm 1,4 km/h (1 Bft) N-NO 23 ° 0 min 0,000 mm 0,8 UV-I 114 W/m² 5,7 °C 8,6 °C 3,2 km/h (1 Bft)
02.11.2018 11:04 8,6 °C 82 % 1020,6 hPa 0,0 mm 0,6 km/h (0 Bft) N-NO 23 ° 0 min 0,000 mm 0,8 UV-I 118 W/m² 5,7 °C 8,6 °C 1,6 km/h (1 Bft)
02.11.2018 11:05 8,6 °C 83 % 1020,6 hPa 0,0 mm 0,8 km/h (0 Bft) N-NO 23 ° 0 min 0,000 mm 0,8 UV-I 120 W/m² 5,9 °C 8,6 °C 3,2 km/h (1 Bft)
02.11.2018 11:06 8,6 °C 82 % 1020,5 hPa 0,0 mm 3,8 km/h (1 Bft) N 11 ° 0 min 0,000 mm 0,8 UV-I 121 W/m² 5,7 °C 8,6 °C 4,8 km/h (1 Bft)
02.11.2018 11:07 8,6 °C 83 % 1020,5 hPa 0,0 mm 1,7 km/h (1 Bft) N 11 ° 0 min 0,000 mm 0,8 UV-I 125 W/m² 5,9 °C 8,6 °C 3,2 km/h (1 Bft)
02.11.2018 11:08 8,6 °C 82 % 1020,4 hPa 0,0 mm 4,5 km/h (1 Bft) N-NO 12 ° 0 min 0,000 mm 0,9 UV-I 127 W/m² 5,7 °C 8,6 °C 6,4 km/h (2 Bft)
02.11.2018 11:09 8,6 °C 82 % 1020,3 hPa 0,0 mm 2,4 km/h (1 Bft) N 11 ° 0 min 0,000 mm 0,9 UV-I 128 W/m² 5,7 °C 8,6 °C 4,8 km/h (1 Bft)
02.11.2018 11:10 8,6 °C 82 % 1020,3 hPa 0,0 mm 0,8 km/h (0 Bft) N 11 ° 0 min 0,000 mm 0,9 UV-I 130 W/m² 5,7 °C 8,6 °C 3,2 km/h (1 Bft)
02.11.2018 11:11 8,6 °C 82 % 1020,2 hPa 0,0 mm 2,9 km/h (1 Bft) N 11 ° 0 min 0,000 mm 0,9 UV-I 134 W/m² 5,7 °C 8,6 °C 4,8 km/h (1 Bft)
02.11.2018 11:12 8,6 °C 81 % 1020,3 hPa 0,0 mm 2,2 km/h (1 Bft) N 11 ° 0 min 0,000 mm 0,9 UV-I 134 W/m² 5,5 °C 8,6 °C 4,8 km/h (1 Bft)
02.11.2018 11:13 8,6 °C 81 % 1020,2 hPa 0,0 mm 0,0 km/h (0 Bft) N 11 ° 0 min 0,000 mm 0,9 UV-I 132 W/m² 5,5 °C 8,6 °C 0,0 km/h (0 Bft)
02.11.2018 11:14 8,5 °C 81 % 1020,3 hPa 0,0 mm 0,0 km/h (0 Bft) N 11 ° 0 min 0,000 mm 0,9 UV-I 128 W/m² 5,4 °C 8,5 °C 0,0 km/h (0 Bft)
02.11.2018 11:15 8,6 °C 81 % 1020,3 hPa 0,0 mm 0,0 km/h (0 Bft) N 11 ° 0 min 0,000 mm 0,9 UV-I 128 W/m² 5,5 °C 8,6 °C 0,0 km/h (0 Bft)
02.11.2018 11:16 8,6 °C 82 % 1020,3 hPa 0,0 mm 1,4 km/h (1 Bft) N 11 ° 0 min 0,000 mm 0,9 UV-I 130 W/m² 5,7 °C 8,6 °C 3,2 km/h (1 Bft)
02.11.2018 11:17 8,6 °C 83 % 1020,3 hPa 0,0 mm 1,3 km/h (1 Bft) NW 314 ° 0 min 0,000 mm 0,9 UV-I 135 W/m² 5,9 °C 8,6 °C 3,2 km/h (1 Bft)
02.11.2018 11:18 8,6 °C 84 % 1020,1 hPa 0,0 mm 1,6 km/h (1 Bft) NW 314 ° 0 min 0,000 mm 1,0 UV-I 141 W/m² 6,1 °C 8,6 °C 3,2 km/h (1 Bft)
02.11.2018 11:19 8,6 °C 84 % 1020,1 hPa 0,0 mm 0,4 km/h (0 Bft) NW 314 ° 0 min 0,000 mm 1,0 UV-I 141 W/m² 6,1 °C 8,6 °C 1,6 km/h (1 Bft)
02.11.2018 11:20 8,5 °C 84 % 1020,1 hPa 0,0 mm 0,2 km/h (0 Bft) NW 314 ° 0 min 0,000 mm 1,0 UV-I 141 W/m² 6,0 °C 8,5 °C 1,6 km/h (1 Bft)
02.11.2018 11:21 8,6 °C 84 % 1020,2 hPa 0,0 mm 0,0 km/h (0 Bft) NW 314 ° 0 min 0,000 mm 1,0 UV-I 139 W/m² 6,1 °C 8,6 °C 0,0 km/h (0 Bft)
02.11.2018 11:22 8,6 °C 86 % 1020,2 hPa 0,0 mm 0,0 km/h (0 Bft) NW 314 ° 0 min 0,000 mm 1,0 UV-I 141 W/m² 6,4 °C 8,6 °C 0,0 km/h (0 Bft)
02.11.2018 11:23 8,6 °C 85 % 1020,2 hPa 0,0 mm 0,0 km/h (0 Bft) NW 314 ° 0 min 0,000 mm 1,0 UV-I 141 W/m² 6,2 °C 8,6 °C 0,0 km/h (0 Bft)
02.11.2018 11:24 8,6 °C 86 % 1020,2 hPa 0,0 mm 0,0 km/h (0 Bft) NW 314 ° 0 min 0,000 mm 1,0 UV-I 135 W/m² 6,4 °C 8,6 °C 0,0 km/h (0 Bft)
02.11.2018 11:25 8,6 °C 85 % 1020,2 hPa 0,0 mm 0,5 km/h (0 Bft) NW 315 ° 0 min 0,000 mm 1,0 UV-I 130 W/m² 6,2 °C 8,6 °C 1,6 km/h (1 Bft)
02.11.2018 11:26 8,6 °C 85 % 1020,2 hPa 0,0 mm 0,1 km/h (0 Bft) NW 315 ° 0 min 0,000 mm 0,9 UV-I 125 W/m² 6,2 °C 8,6 °C 1,6 km/h (1 Bft)
02.11.2018 11:27 8,6 °C 85 % 1020,2 hPa 0,0 mm 0,0 km/h (0 Bft) NW 315 ° 0 min 0,000 mm 0,9 UV-I 120 W/m² 6,2 °C 8,6 °C 0,0 km/h (0 Bft)
02.11.2018 11:28 8,6 °C 84 % 1020,3 hPa 0,0 mm 0,0 km/h (0 Bft) NW 315 ° 0 min 0,000 mm 0,9 UV-I 118 W/m² 6,1 °C 8,6 °C 0,0 km/h (0 Bft)
02.11.2018 11:29 8,6 °C 84 % 1020,3 hPa 0,0 mm 0,0 km/h (0 Bft) NW 315 ° 0 min 0,000 mm 0,8 UV-I 116 W/m² 6,1 °C 8,6 °C 0,0 km/h (0 Bft)
02.11.2018 11:30 8,6 °C 84 % 1020,3 hPa 0,0 mm 0,3 km/h (0 Bft) NW 315 ° 0 min 0,000 mm 0,8 UV-I 113 W/m² 6,1 °C 8,6 °C 1,6 km/h (1 Bft)
02.11.2018 11:31 8,6 °C 84 % 1020,3 hPa 0,0 mm 0,8 km/h (0 Bft) NW 315 ° 0 min 0,000 mm 0,8 UV-I 114 W/m² 6,1 °C 8,6 °C 1,6 km/h (1 Bft)
02.11.2018 11:32 8,7 °C 84 % 1020,3 hPa 0,0 mm 1,4 km/h (1 Bft) NW 315 ° 0 min 0,000 mm 0,8 UV-I 120 W/m² 6,2 °C 8,7 °C 3,2 km/h (1 Bft)
02.11.2018 11:33 8,6 °C 84 % 1020,3 hPa 0,0 mm 0,8 km/h (0 Bft) NW 315 ° 0 min 0,000 mm 0,8 UV-I 125 W/m² 6,1 °C 8,6 °C 3,2 km/h (1 Bft)
02.11.2018 11:34 8,7 °C 83 % 1020,3 hPa 0,0 mm 1,3 km/h (1 Bft) NW 315 ° 0 min 0,000 mm 0,9 UV-I 128 W/m² 6,0 °C 8,7 °C 3,2 km/h (1 Bft)
02.11.2018 11:35 8,7 °C 83 % 1020,3 hPa 0,0 mm 0,2 km/h (0 Bft) NW 315 ° 0 min 0,000 mm 0,9 UV-I 130 W/m² 6,0 °C 8,7 °C 1,6 km/h (1 Bft)
02.11.2018 11:36 8,7 °C 84 % 1020,3 hPa 0,0 mm 0,0 km/h (0 Bft) NW 315 ° 0 min 0,000 mm 0,9 UV-I 125 W/m² 6,2 °C 8,7 °C 0,0 km/h (0 Bft)
02.11.2018 11:37 8,6 °C 83 % 1020,4 hPa 0,0 mm 0,0 km/h (0 Bft) NW 315 ° 0 min 0,000 mm 0,8 UV-I 118 W/m² 5,9 °C 8,6 °C 0,0 km/h (0 Bft)
02.11.2018 11:38 8,7 °C 83 % 1020,4 hPa 0,0 mm 0,0 km/h (0 Bft) NW 315 ° 0 min 0,000 mm 0,8 UV-I 118 W/m² 6,0 °C 8,7 °C 0,0 km/h (0 Bft)
02.11.2018 11:39 8,7 °C 83 % 1020,4 hPa 0,0 mm 1,3 km/h (1 Bft) NW 314 ° 0 min 0,000 mm 0,8 UV-I 116 W/m² 6,0 °C 8,7 °C 3,2 km/h (1 Bft)
02.11.2018 11:40 8,6 °C 84 % 1020,4 hPa 0,0 mm 3,4 km/h (1 Bft) NW 314 ° 0 min 0,000 mm 0,8 UV-I 114 W/m² 6,1 °C 8,6 °C 4,8 km/h (1 Bft)
02.11.2018 11:41 8,6 °C 84 % 1020,4 hPa 0,0 mm 2,7 km/h (1 Bft) NW 311 ° 0 min 0,000 mm 0,8 UV-I 111 W/m² 6,1 °C 8,6 °C 4,8 km/h (1 Bft)
02.11.2018 11:42 8,6 °C 84 % 1020,4 hPa 0,0 mm 3,0 km/h (1 Bft) NW 311 ° 0 min 0,000 mm 0,8 UV-I 104 W/m² 6,1 °C 8,6 °C 4,8 km/h (1 Bft)
02.11.2018 11:43 8,5 °C 84 % 1020,4 hPa 0,0 mm 1,8 km/h (1 Bft) NW 311 ° 0 min 0,000 mm 0,7 UV-I 102 W/m² 6,0 °C 8,5 °C 3,2 km/h (1 Bft)
02.11.2018 11:44 8,4 °C 84 % 1020,4 hPa 0,0 mm 2,2 km/h (1 Bft) NW 311 ° 0 min 0,000 mm 0,7 UV-I 100 W/m² 5,9 °C 8,4 °C 3,2 km/h (1 Bft)
02.11.2018 11:45 8,4 °C 84 % 1020,4 hPa 0,0 mm 1,6 km/h (1 Bft) NW 311 ° 0 min 0,000 mm 0,7 UV-I 100 W/m² 5,9 °C 8,4 °C 3,2 km/h (1 Bft)
02.11.2018 11:46 8,4 °C 85 % 1020,4 hPa 0,0 mm 1,3 km/h (1 Bft) NW 311 ° 0 min 0,000 mm 0,8 UV-I 105 W/m² 6,0 °C 8,4 °C 3,2 km/h (1 Bft)
02.11.2018 11:47 8,4 °C 84 % 1020,3 hPa 0,0 mm 0,5 km/h (0 Bft) NW 311 ° 0 min 0,000 mm 0,8 UV-I 114 W/m² 5,9 °C 8,4 °C 1,6 km/h (1 Bft)
02.11.2018 11:48 8,4 °C 85 % 1020,3 hPa 0,0 mm 1,8 km/h (1 Bft) NW 311 ° 0 min 0,000 mm 0,8 UV-I 116 W/m² 6,0 °C 8,4 °C 3,2 km/h (1 Bft)
02.11.2018 11:49 8,4 °C 85 % 1020,3 hPa 0,0 mm 0,7 km/h (0 Bft) NW 311 ° 0 min 0,000 mm 0,8 UV-I 113 W/m² 6,0 °C 8,4 °C 1,6 km/h (1 Bft)
02.11.2018 11:50 8,4 °C 85 % 1020,3 hPa 0,0 mm 0,1 km/h (0 Bft) NW 311 ° 0 min 0,000 mm 0,8 UV-I 111 W/m² 6,0 °C 8,4 °C 1,6 km/h (1 Bft)
02.11.2018 11:51 8,4 °C 85 % 1020,3 hPa 0,0 mm 0,0 km/h (0 Bft) NW 311 ° 0 min 0,000 mm 0,8 UV-I 114 W/m² 6,0 °C 8,4 °C 0,0 km/h (0 Bft)
02.11.2018 11:52 8,4 °C 84 % 1020,3 hPa 0,0 mm 0,0 km/h (0 Bft) NW 311 ° 0 min 0,000 mm 0,8 UV-I 121 W/m² 5,9 °C 8,4 °C 0,0 km/h (0 Bft)
02.11.2018 11:53 8,4 °C 84 % 1020,3 hPa 0,0 mm 0,1 km/h (0 Bft) NW 311 ° 0 min 0,000 mm 0,8 UV-I 123 W/m² 5,9 °C 8,4 °C 1,6 km/h (1 Bft)
02.11.2018 11:54 8,4 °C 85 % 1020,3 hPa 0,0 mm 0,0 km/h (0 Bft) NW 311 ° 0 min 0,000 mm 0,8 UV-I 118 W/m² 6,0 °C 8,4 °C 0,0 km/h (0 Bft)
02.11.2018 11:55 8,4 °C 85 % 1020,4 hPa 0,0 mm 0,0 km/h (0 Bft) NW 311 ° 0 min 0,000 mm 0,8 UV-I 109 W/m² 6,0 °C 8,4 °C 0,0 km/h (0 Bft)
02.11.2018 11:56 8,4 °C 84 % 1020,4 hPa 0,0 mm 0,0 km/h (0 Bft) NW 311 ° 0 min 0,000 mm 0,7 UV-I 109 W/m² 5,9 °C 8,4 °C 0,0 km/h (0 Bft)
02.11.2018 11:57 8,4 °C 84 % 1020,4 hPa 0,0 mm 0,0 km/h (0 Bft) NW 311 ° 0 min 0,000 mm 0,7 UV-I 91 W/m² 5,9 °C 8,4 °C 0,0 km/h (0 Bft)
02.11.2018 11:58 8,4 °C 84 % 1020,5 hPa 0,0 mm 0,0 km/h (0 Bft) NW 311 ° 0 min 0,000 mm 0,7 UV-I 90 W/m² 5,9 °C 8,4 °C 0,0 km/h (0 Bft)
02.11.2018 11:59 8,4 °C 85 % 1020,4 hPa 0,0 mm 0,0 km/h (0 Bft) NW 311 ° 0 min 0,000 mm 0,7 UV-I 86 W/m² 6,0 °C 8,4 °C 0,0 km/h (0 Bft)
02.11.2018 12:00 8,5 °C 86 % 1020,5 hPa 0,0 mm 0,0 km/h (0 Bft) NW 311 ° 0 min 0,000 mm 0,7 UV-I 88 W/m² 6,3 °C 8,5 °C 0,0 km/h (0 Bft)
02.11.2018 12:01 8,6 °C 86 % 1020,5 hPa 0,0 mm 0,0 km/h (0 Bft) NW 311 ° 0 min 0,051 mm 0,7 UV-I 93 W/m² 6,4 °C 8,6 °C 0,0 km/h (0 Bft)
02.11.2018 12:02 8,6 °C 85 % 1020,5 hPa 0,0 mm 0,0 km/h (0 Bft) NW 311 ° 0 min 0,000 mm 0,7 UV-I 95 W/m² 6,2 °C 8,6 °C 0,0 km/h (0 Bft)
02.11.2018 12:03 8,6 °C 85 % 1020,5 hPa 0,0 mm 0,0 km/h (0 Bft) NW 311 ° 0 min 0,000 mm 0,7 UV-I 97 W/m² 6,2 °C 8,6 °C 0,0 km/h (0 Bft)
02.11.2018 12:04 8,6 °C 85 % 1020,5 hPa 0,0 mm 0,0 km/h (0 Bft) NW 311 ° 0 min 0,000 mm 0,7 UV-I 98 W/m² 6,2 °C 8,6 °C 0,0 km/h (0 Bft)
02.11.2018 12:05 8,5 °C 84 % 1020,5 hPa 0,0 mm 0,0 km/h (0 Bft) NW 311 ° 0 min 0,000 mm 0,7 UV-I 98 W/m² 6,0 °C 8,5 °C 0,0 km/h (0 Bft)
02.11.2018 12:06 8,5 °C 84 % 1020,5 hPa 0,0 mm 0,0 km/h (0 Bft) NW 311 ° 0 min 0,000 mm 0,7 UV-I 98 W/m² 6,0 °C 8,5 °C 0,0 km/h (0 Bft)
02.11.2018 12:07 8,5 °C 84 % 1020,5 hPa 0,0 mm 0,0 km/h (0 Bft) NW 311 ° 0 min 0,000 mm 0,7 UV-I 98 W/m² 6,0 °C 8,5 °C 0,0 km/h (0 Bft)
02.11.2018 12:08 8,5 °C 84 % 1020,5 hPa 0,0 mm 0,0 km/h (0 Bft) NW 311 ° 0 min 0,000 mm 0,7 UV-I 97 W/m² 6,0 °C 8,5 °C 0,0 km/h (0 Bft)
02.11.2018 12:09 8,5 °C 84 % 1020,5 hPa 0,0 mm 0,0 km/h (0 Bft) NW 311 ° 0 min 0,000 mm 0,7 UV-I 91 W/m² 6,0 °C 8,5 °C 0,0 km/h (0 Bft)
02.11.2018 12:10 8,6 °C 84 % 1020,6 hPa 0,0 mm 0,0 km/h (0 Bft) NW 311 ° 0 min 0,000 mm 0,6 UV-I 84 W/m² 6,1 °C 8,6 °C 0,0 km/h (0 Bft)
02.11.2018 12:11 8,5 °C 84 % 1020,6 hPa 0,0 mm 0,0 km/h (0 Bft) NW 311 ° 0 min 0,000 mm 0,6 UV-I 76 W/m² 6,0 °C 8,5 °C 0,0 km/h (0 Bft)
02.11.2018 12:12 8,5 °C 84 % 1020,6 hPa 0,0 mm 0,0 km/h (0 Bft) NW 311 ° 0 min 0,000 mm 0,6 UV-I 72 W/m² 6,0 °C 8,5 °C 0,0 km/h (0 Bft)
02.11.2018 12:13 8,5 °C 84 % 1020,6 hPa 0,0 mm 2,1 km/h (1 Bft) O-NO 67 ° 0 min 0,000 mm 0,5 UV-I 69 W/m² 6,0 °C 8,5 °C 4,8 km/h (1 Bft)
02.11.2018 12:14 8,5 °C 83 % 1020,6 hPa 0,0 mm 3,7 km/h (1 Bft) O-NO 67 ° 0 min 0,000 mm 0,5 UV-I 69 W/m² 5,8 °C 8,5 °C 6,4 km/h (2 Bft)
02.11.2018 12:15 8,6 °C 82 % 1020,6 hPa 0,0 mm 1,1 km/h (1 Bft) O-NO 67 ° 0 min 0,000 mm 0,5 UV-I 63 W/m² 5,7 °C 8,6 °C 3,2 km/h (1 Bft)
02.11.2018 12:16 8,6 °C 83 % 1020,5 hPa 0,0 mm 0,0 km/h (0 Bft) O-NO 67 ° 0 min 0,000 mm 0,5 UV-I 63 W/m² 5,9 °C 8,6 °C 0,0 km/h (0 Bft)
02.11.2018 12:17 8,6 °C 83 % 1020,4 hPa 0,0 mm 1,5 km/h (1 Bft) O-NO 67 ° 0 min 0,000 mm 0,5 UV-I 63 W/m² 5,9 °C 8,6 °C 4,8 km/h (1 Bft)
02.11.2018 12:18 8,6 °C 83 % 1020,4 hPa 0,0 mm 1,1 km/h (1 Bft) O-NO 67 ° 0 min 0,000 mm 0,5 UV-I 62 W/m² 5,9 °C 8,6 °C 3,2 km/h (1 Bft)
02.11.2018 12:19 8,6 °C 83 % 1020,4 hPa 0,0 mm 0,5 km/h (0 Bft) O-NO 67 ° 0 min 0,000 mm 0,0 UV-I 60 W/m² 5,9 °C 8,6 °C 1,6 km/h (1 Bft)
02.11.2018 12:20 8,6 °C 83 % 1020,4 hPa 0,0 mm 1,5 km/h (1 Bft) O-NO 67 ° 0 min 0,000 mm 0,0 UV-I 60 W/m² 5,9 °C 8,6 °C 4,8 km/h (1 Bft)
02.11.2018 12:21 8,6 °C 82 % 1020,4 hPa 0,0 mm 3,9 km/h (1 Bft) O 88 ° 0 min 0,000 mm 0,5 UV-I 63 W/m² 5,7 °C 8,6 °C 4,8 km/h (1 Bft)
02.11.2018 12:22 8,6 °C 82 % 1020,3 hPa 0,0 mm 1,4 km/h (1 Bft) NO 44 ° 0 min 0,000 mm 0,5 UV-I 65 W/m² 5,7 °C 8,6 °C 4,8 km/h (1 Bft)
02.11.2018 12:23 8,5 °C 81 % 1020,2 hPa 0,0 mm 3,0 km/h (1 Bft) NO 44 ° 0 min 0,000 mm 0,5 UV-I 70 W/m² 5,4 °C 8,5 °C 4,8 km/h (1 Bft)
02.11.2018 12:24 8,5 °C 82 % 1020,1 hPa 0,0 mm 0,9 km/h (0 Bft) NO 44 ° 0 min 0,000 mm 0,5 UV-I 76 W/m² 5,6 °C 8,5 °C 1,6 km/h (1 Bft)
02.11.2018 12:25 8,5 °C 82 % 1020,1 hPa 0,0 mm 1,6 km/h (1 Bft) O-NO 57 ° 0 min 0,000 mm 0,6 UV-I 81 W/m² 5,6 °C 8,5 °C 4,8 km/h (1 Bft)
02.11.2018 12:26 8,5 °C 82 % 1020,1 hPa 0,0 mm 1,2 km/h (1 Bft) O-NO 57 ° 0 min 0,000 mm 0,6 UV-I 83 W/m² 5,6 °C 8,5 °C 3,2 km/h (1 Bft)
02.11.2018 12:27 8,4 °C 82 % 1020,1 hPa 0,0 mm 1,6 km/h (1 Bft) O-NO 57 ° 0 min 0,000 mm 0,6 UV-I 83 W/m² 5,5 °C 8,4 °C 1,6 km/h (1 Bft)
02.11.2018 12:28 8,4 °C 82 % 1020,1 hPa 0,0 mm 2,6 km/h (1 Bft) NO 56 ° 0 min 0,000 mm 0,6 UV-I 77 W/m² 5,5 °C 8,4 °C 4,8 km/h (1 Bft)
02.11.2018 12:29 8,4 °C 82 % 1020,2 hPa 0,0 mm 1,4 km/h (1 Bft) O-NO 57 ° 0 min 0,000 mm 0,5 UV-I 77 W/m² 5,5 °C 8,4 °C 3,2 km/h (1 Bft)
02.11.2018 12:30 8,4 °C 82 % 1020,2 hPa 0,0 mm 2,0 km/h (1 Bft) NO 56 ° 0 min 0,000 mm 0,6 UV-I 77 W/m² 5,5 °C 8,4 °C 3,2 km/h (1 Bft)
02.11.2018 12:31 8,4 °C 82 % 1020,2 hPa 0,0 mm 1,7 km/h (1 Bft) NO 56 ° 0 min 0,000 mm 0,6 UV-I 81 W/m² 5,5 °C 8,4 °C 3,2 km/h (1 Bft)
02.11.2018 12:32 8,4 °C 82 % 1020,2 hPa 0,0 mm 1,6 km/h (1 Bft) O-NO 70 ° 0 min 0,000 mm 0,6 UV-I 81 W/m² 5,5 °C 8,4 °C 6,4 km/h (2 Bft)
02.11.2018 12:33 8,4 °C 82 % 1020,2 hPa 0,0 mm 3,4 km/h (1 Bft) NO 47 ° 0 min 0,000 mm 0,6 UV-I 84 W/m² 5,5 °C 8,4 °C 4,8 km/h (1 Bft)
02.11.2018 12:34 8,4 °C 82 % 1020,2 hPa 0,0 mm 2,1 km/h (1 Bft) NO 47 ° 0 min 0,000 mm 0,6 UV-I 84 W/m² 5,5 °C 8,4 °C 3,2 km/h (1 Bft)
02.11.2018 12:35 8,4 °C 82 % 1020,1 hPa 0,0 mm 1,5 km/h (1 Bft) NO 47 ° 0 min 0,000 mm 0,6 UV-I 81 W/m² 5,5 °C 8,4 °C 3,2 km/h (1 Bft)
02.11.2018 12:36 8,4 °C 82 % 1020,1 hPa 0,0 mm 1,5 km/h (1 Bft) NO 48 ° 0 min 0,000 mm 0,6 UV-I 77 W/m² 5,5 °C 8,4 °C 3,2 km/h (1 Bft)
02.11.2018 12:37 8,4 °C 83 % 1020,1 hPa 0,0 mm 1,3 km/h (1 Bft) NO 48 ° 0 min 0,000 mm 0,5 UV-I 74 W/m² 5,7 °C 8,4 °C 3,2 km/h (1 Bft)
02.11.2018 12:38 8,4 °C 82 % 1020,1 hPa 0,0 mm 3,1 km/h (1 Bft) O-NO 57 ° 0 min 0,000 mm 0,5 UV-I 69 W/m² 5,5 °C 8,4 °C 6,4 km/h (2 Bft)
02.11.2018 12:39 8,3 °C 82 % 1020,1 hPa 0,0 mm 0,8 km/h (0 Bft) O-NO 57 ° 0 min 0,000 mm 0,5 UV-I 65 W/m² 5,4 °C 8,3 °C 1,6 km/h (1 Bft)
02.11.2018 12:40 8,3 °C 82 % 1020,1 hPa 0,0 mm 1,5 km/h (1 Bft) O-NO 57 ° 0 min 0,000 mm 0,5 UV-I 65 W/m² 5,4 °C 8,3 °C 3,2 km/h (1 Bft)
02.11.2018 12:41 8,3 °C 82 % 1020,2 hPa 0,0 mm 2,7 km/h (1 Bft) O-NO 57 ° 0 min 0,000 mm 0,5 UV-I 62 W/m² 5,4 °C 8,3 °C 4,8 km/h (1 Bft)
02.11.2018 12:42 8,3 °C 82 % 1020,3 hPa 0,0 mm 2,1 km/h (1 Bft) O-NO 57 ° 0 min 0,000 mm 0,5 UV-I 60 W/m² 5,4 °C 8,3 °C 4,8 km/h (1 Bft)
02.11.2018 12:43 8,3 °C 82 % 1020,2 hPa 0,0 mm 2,4 km/h (1 Bft) O-NO 57 ° 0 min 0,000 mm 0,5 UV-I 62 W/m² 5,4 °C 8,3 °C 4,8 km/h (1 Bft)
02.11.2018 12:44 8,3 °C 82 % 1020,3 hPa 0,0 mm 1,9 km/h (1 Bft) O-NO 57 ° 0 min 0,000 mm 0,0 UV-I 62 W/m² 5,4 °C 8,3 °C 3,2 km/h (1 Bft)
02.11.2018 12:45 8,3 °C 82 % 1020,4 hPa 0,0 mm 0,0 km/h (0 Bft) O-NO 57 ° 0 min 0,000 mm 0,0 UV-I 58 W/m² 5,4 °C 8,3 °C 0,0 km/h (0 Bft)
02.11.2018 12:46 8,3 °C 83 % 1020,3 hPa 0,0 mm 0,0 km/h (0 Bft) O-NO 57 ° 0 min 0,000 mm 0,0 UV-I 58 W/m² 5,6 °C 8,3 °C 0,0 km/h (0 Bft)
02.11.2018 12:47 8,3 °C 83 % 1020,4 hPa 0,0 mm 0,2 km/h (0 Bft) O-NO 57 ° 0 min 0,000 mm 0,0 UV-I 60 W/m² 5,6 °C 8,3 °C 1,6 km/h (1 Bft)
02.11.2018 12:48 8,3 °C 83 % 1020,5 hPa 0,0 mm 2,1 km/h (1 Bft) O-NO 57 ° 0 min 0,000 mm 0,0 UV-I 60 W/m² 5,6 °C 8,3 °C 3,2 km/h (1 Bft)
02.11.2018 12:49 8,2 °C 83 % 1020,4 hPa 0,0 mm 1,3 km/h (1 Bft) O-NO 57 ° 0 min 0,000 mm 0,0 UV-I 60 W/m² 5,5 °C 8,2 °C 1,6 km/h (1 Bft)
02.11.2018 12:50 8,2 °C 83 % 1020,4 hPa 0,0 mm 2,5 km/h (1 Bft) O-NO 59 ° 0 min 0,000 mm 0,0 UV-I 60 W/m² 5,5 °C 8,2 °C 6,4 km/h (2 Bft)
02.11.2018 12:51 8,2 °C 83 % 1020,4 hPa 0,0 mm 3,2 km/h (1 Bft) O-NO 59 ° 0 min 0,000 mm 0,5 UV-I 63 W/m² 5,5 °C 8,2 °C 6,4 km/h (2 Bft)
02.11.2018 12:52 8,2 °C 83 % 1020,5 hPa 0,0 mm 4,3 km/h (1 Bft) NO 46 ° 0 min 0,000 mm 0,5 UV-I 63 W/m² 5,5 °C 8,2 °C 6,4 km/h (2 Bft)
02.11.2018 12:53 8,2 °C 83 % 1020,5 hPa 0,0 mm 3,0 km/h (1 Bft) O-NO 59 ° 0 min 0,000 mm 0,5 UV-I 62 W/m² 5,5 °C 8,2 °C 6,4 km/h (2 Bft)
02.11.2018 12:54 8,2 °C 83 % 1020,5 hPa 0,0 mm 0,3 km/h (0 Bft) O-NO 59 ° 0 min 0,000 mm 0,0 UV-I 62 W/m² 5,5 °C 8,2 °C 1,6 km/h (1 Bft)
02.11.2018 12:55 8,2 °C 83 % 1020,6 hPa 0,0 mm 0,9 km/h (0 Bft) O-NO 59 ° 0 min 0,000 mm 0,0 UV-I 62 W/m² 5,5 °C 8,2 °C 1,6 km/h (1 Bft)
02.11.2018 12:56 8,2 °C 83 % 1020,6 hPa 0,0 mm 1,9 km/h (1 Bft) O-NO 59 ° 0 min 0,000 mm 0,0 UV-I 62 W/m² 5,5 °C 8,2 °C 3,2 km/h (1 Bft)
02.11.2018 12:57 8,2 °C 83 % 1020,6 hPa 0,0 mm 2,7 km/h (1 Bft) O-NO 59 ° 0 min 0,000 mm 0,0 UV-I 62 W/m² 5,5 °C 8,2 °C 4,8 km/h (1 Bft)
02.11.2018 12:58 8,2 °C 83 % 1020,6 hPa 0,0 mm 3,4 km/h (1 Bft) O-NO 73 ° 0 min 0,000 mm 0,0 UV-I 65 W/m² 5,5 °C 8,2 °C 4,8 km/h (1 Bft)
02.11.2018 12:59 8,2 °C 83 % 1020,6 hPa 0,0 mm 3,7 km/h (1 Bft) O-NO 66 ° 0 min 0,000 mm 0,5 UV-I 69 W/m² 5,5 °C 8,2 °C 8,0 km/h (2 Bft)
02.11.2018 13:00 8,2 °C 83 % 1020,6 hPa 0,0 mm 2,3 km/h (1 Bft) O-NO 66 ° 0 min 0,025 mm 0,5 UV-I 70 W/m² 5,5 °C 8,2 °C 4,8 km/h (1 Bft)
02.11.2018 13:01 8,2 °C 83 % 1020,6 hPa 0,0 mm 2,3 km/h (1 Bft) O-NO 66 ° 0 min 0,000 mm 0,5 UV-I 72 W/m² 5,5 °C 8,2 °C 4,8 km/h (1 Bft)
02.11.2018 13:02 8,1 °C 83 % 1020,5 hPa 0,0 mm 2,3 km/h (1 Bft) O-NO 65 ° 0 min 0,000 mm 0,5 UV-I 70 W/m² 5,4 °C 8,1 °C 4,8 km/h (1 Bft)
02.11.2018 13:03 8,2 °C 83 % 1020,6 hPa 0,0 mm 2,6 km/h (1 Bft) O-NO 65 ° 0 min 0,000 mm 0,5 UV-I 70 W/m² 5,5 °C 8,2 °C 6,4 km/h (2 Bft)
02.11.2018 13:04 8,2 °C 83 % 1020,6 hPa 0,0 mm 4,4 km/h (1 Bft) O-NO 65 ° 0 min 0,000 mm 0,5 UV-I 74 W/m² 5,5 °C 8,2 °C 6,4 km/h (2 Bft)
02.11.2018 13:05 8,1 °C 83 % 1020,6 hPa 0,0 mm 0,9 km/h (0 Bft) O-NO 65 ° 0 min 0,000 mm 0,5 UV-I 77 W/m² 5,4 °C 8,1 °C 3,2 km/h (1 Bft)
02.11.2018 13:06 8,2 °C 83 % 1020,6 hPa 0,0 mm 4,3 km/h (1 Bft) O-NO 65 ° 0 min 0,000 mm 0,5 UV-I 79 W/m² 5,5 °C 8,2 °C 4,8 km/h (1 Bft)
02.11.2018 13:07 8,2 °C 83 % 1020,6 hPa 0,0 mm 1,5 km/h (1 Bft) O-NO 65 ° 0 min 0,000 mm 0,5 UV-I 79 W/m² 5,5 °C 8,2 °C 4,8 km/h (1 Bft)
02.11.2018 13:08 8,1 °C 83 % 1020,6 hPa 0,0 mm 1,6 km/h (1 Bft) O-NO 65 ° 0 min 0,000 mm 0,5 UV-I 79 W/m² 5,4 °C 8,1 °C 3,2 km/h (1 Bft)
02.11.2018 13:09 8,1 °C 83 % 1020,6 hPa 0,0 mm 2,8 km/h (1 Bft) O-NO 65 ° 0 min 0,000 mm 0,5 UV-I 81 W/m² 5,4 °C 8,1 °C 4,8 km/h (1 Bft)
02.11.2018 13:10 8,2 °C 83 % 1020,5 hPa 0,0 mm 3,2 km/h (1 Bft) O-NO 65 ° 0 min 0,000 mm 0,5 UV-I 77 W/m² 5,5 °C 8,2 °C 4,8 km/h (1 Bft)
02.11.2018 13:11 8,1 °C 83 % 1020,5 hPa 0,0 mm 4,3 km/h (1 Bft) O 80 ° 0 min 0,000 mm 0,5 UV-I 76 W/m² 5,4 °C 8,1 °C 4,8 km/h (1 Bft)
02.11.2018 13:12 8,1 °C 83 % 1020,5 hPa 0,0 mm 3,6 km/h (1 Bft) O 81 ° 0 min 0,000 mm 0,5 UV-I 77 W/m² 5,4 °C 8,1 °C 4,8 km/h (1 Bft)
02.11.2018 13:13 8,1 °C 83 % 1020,5 hPa 0,0 mm 1,5 km/h (1 Bft) O 80 ° 0 min 0,000 mm 0,6 UV-I 81 W/m² 5,4 °C 8,1 °C 3,2 km/h (1 Bft)
02.11.2018 13:14 8,1 °C 84 % 1020,6 hPa 0,0 mm 1,5 km/h (1 Bft) O 80 ° 0 min 0,000 mm 0,6 UV-I 88 W/m² 5,6 °C 8,1 °C 3,2 km/h (1 Bft)
02.11.2018 13:15 8,1 °C 84 % 1020,5 hPa 0,0 mm 2,0 km/h (1 Bft) O 80 ° 0 min 0,000 mm 0,6 UV-I 95 W/m² 5,6 °C 8,1 °C 3,2 km/h (1 Bft)
02.11.2018 13:16 8,1 °C 84 % 1020,5 hPa 0,0 mm 0,8 km/h (0 Bft) O 80 ° 0 min 0,000 mm 0,6 UV-I 100 W/m² 5,6 °C 8,1 °C 3,2 km/h (1 Bft)
02.11.2018 13:17 8,1 °C 84 % 1020,5 hPa 0,0 mm 1,7 km/h (1 Bft) O 80 ° 0 min 0,000 mm 0,7 UV-I 102 W/m² 5,6 °C 8,1 °C 3,2 km/h (1 Bft)
02.11.2018 13:18 8,1 °C 84 % 1020,4 hPa 0,0 mm 2,2 km/h (1 Bft) O-NO 76 ° 0 min 0,000 mm 0,7 UV-I 105 W/m² 5,6 °C 8,1 °C 4,8 km/h (1 Bft)
02.11.2018 13:19 8,1 °C 84 % 1020,4 hPa 0,0 mm 4,4 km/h (1 Bft) O-NO 68 ° 0 min 0,000 mm 0,7 UV-I 105 W/m² 5,6 °C 8,1 °C 6,4 km/h (2 Bft)
02.11.2018 13:20 8,1 °C 84 % 1020,4 hPa 0,0 mm 4,3 km/h (1 Bft) NO 53 ° 0 min 0,000 mm 0,7 UV-I 107 W/m² 5,6 °C 8,1 °C 8,0 km/h (2 Bft)
02.11.2018 13:21 8,1 °C 84 % 1020,4 hPa 0,0 mm 2,4 km/h (1 Bft) NO 53 ° 0 min 0,000 mm 0,7 UV-I 107 W/m² 5,6 °C 8,1 °C 3,2 km/h (1 Bft)
02.11.2018 13:22 8,1 °C 84 % 1020,3 hPa 0,0 mm 3,4 km/h (1 Bft) NO 46 ° 0 min 0,000 mm 0,7 UV-I 107 W/m² 5,6 °C 8,1 °C 4,8 km/h (1 Bft)
02.11.2018 13:23 8,1 °C 84 % 1020,3 hPa 0,0 mm 4,7 km/h (1 Bft) NO 49 ° 0 min 0,000 mm 0,7 UV-I 105 W/m² 5,6 °C 7,7 °C 8,0 km/h (2 Bft)
02.11.2018 13:24 8,1 °C 84 % 1020,3 hPa 0,0 mm 4,6 km/h (1 Bft) NO 44 ° 0 min 0,000 mm 0,7 UV-I 100 W/m² 5,6 °C 7,7 °C 8,0 km/h (2 Bft)
02.11.2018 13:25 8,1 °C 84 % 1020,3 hPa 0,0 mm 5,1 km/h (1 Bft) NO 42 ° 0 min 0,000 mm 0,6 UV-I 95 W/m² 5,6 °C 7,6 °C 8,0 km/h (2 Bft)
02.11.2018 13:26 8,1 °C 84 % 1020,3 hPa 0,0 mm 3,6 km/h (1 Bft) O 90 ° 0 min 0,000 mm 0,6 UV-I 95 W/m² 5,6 °C 8,1 °C 6,4 km/h (2 Bft)
02.11.2018 13:27 8,1 °C 84 % 1020,3 hPa 0,0 mm 4,1 km/h (1 Bft) O 84 ° 0 min 0,000 mm 0,6 UV-I 83 W/m² 5,6 °C 8,1 °C 6,4 km/h (2 Bft)
02.11.2018 13:28 8,1 °C 84 % 1020,3 hPa 0,0 mm 4,5 km/h (1 Bft) O 92 ° 0 min 0,000 mm 0,6 UV-I 81 W/m² 5,6 °C 8,1 °C 6,4 km/h (2 Bft)
02.11.2018 13:29 8,1 °C 84 % 1020,2 hPa 0,0 mm 4,2 km/h (1 Bft) NO 50 ° 0 min 0,000 mm 0,6 UV-I 81 W/m² 5,6 °C 8,1 °C 9,7 km/h (2 Bft)
02.11.2018 13:30 8,0 °C 84 % 1020,2 hPa 0,0 mm 6,7 km/h (2 Bft) O-NO 75 ° 0 min 0,000 mm 0,6 UV-I 81 W/m² 5,5 °C 7,0 °C 9,7 km/h (2 Bft)
02.11.2018 13:31 8,0 °C 84 % 1020,1 hPa 0,0 mm 4,8 km/h (1 Bft) NO 37 ° 0 min 0,000 mm 0,6 UV-I 83 W/m² 5,5 °C 7,6 °C 9,7 km/h (2 Bft)
02.11.2018 13:32 8,0 °C 84 % 1020,2 hPa 0,0 mm 4,1 km/h (1 Bft) NO 53 ° 0 min 0,000 mm 0,6 UV-I 86 W/m² 5,5 °C 8,0 °C 6,4 km/h (2 Bft)
02.11.2018 13:33 8,0 °C 84 % 1020,3 hPa 0,0 mm 5,4 km/h (1 Bft) O-NO 66 ° 0 min 0,000 mm 0,6 UV-I 90 W/m² 5,5 °C 7,4 °C 9,7 km/h (2 Bft)
02.11.2018 13:34 8,0 °C 84 % 1020,3 hPa 0,0 mm 3,6 km/h (1 Bft) NO 53 ° 0 min 0,000 mm 0,6 UV-I 90 W/m² 5,5 °C 8,0 °C 4,8 km/h (1 Bft)
02.11.2018 13:35 8,0 °C 84 % 1020,3 hPa 0,0 mm 0,9 km/h (0 Bft) NO 53 ° 0 min 0,000 mm 0,6 UV-I 88 W/m² 5,5 °C 8,0 °C 3,2 km/h (1 Bft)
02.11.2018 13:36 8,0 °C 84 % 1020,3 hPa 0,0 mm 0,0 km/h (0 Bft) NO 53 ° 0 min 0,000 mm 0,6 UV-I 88 W/m² 5,5 °C 8,0 °C 0,0 km/h (0 Bft)
02.11.2018 13:37 8,0 °C 84 % 1020,3 hPa 0,0 mm 1,1 km/h (1 Bft) NO 53 ° 0 min 0,000 mm 0,6 UV-I 86 W/m² 5,5 °C 8,0 °C 3,2 km/h (1 Bft)
02.11.2018 13:38 7,9 °C 84 % 1020,3 hPa 0,0 mm 4,0 km/h (1 Bft) O 83 ° 0 min 0,000 mm 0,6 UV-I 88 W/m² 5,4 °C 7,9 °C 6,4 km/h (2 Bft)
02.11.2018 13:39 8,0 °C 84 % 1020,3 hPa 0,0 mm 3,7 km/h (1 Bft) NO 51 ° 0 min 0,000 mm 0,6 UV-I 93 W/m² 5,5 °C 8,0 °C 4,8 km/h (1 Bft)
02.11.2018 13:40 7,9 °C 84 % 1020,3 hPa 0,0 mm 6,0 km/h (2 Bft) O-NO 58 ° 0 min 0,000 mm 0,7 UV-I 97 W/m² 5,4 °C 7,1 °C 8,0 km/h (2 Bft)
02.11.2018 13:41 7,9 °C 84 % 1020,3 hPa 0,0 mm 5,4 km/h (1 Bft) O-NO 69 ° 0 min 0,000 mm 0,7 UV-I 104 W/m² 5,4 °C 7,2 °C 8,0 km/h (2 Bft)
02.11.2018 13:42 8,0 °C 84 % 1020,3 hPa 0,0 mm 1,6 km/h (1 Bft) O 82 ° 0 min 0,000 mm 0,7 UV-I 109 W/m² 5,5 °C 8,0 °C 3,2 km/h (1 Bft)
02.11.2018 13:43 8,0 °C 84 % 1020,3 hPa 0,0 mm 2,6 km/h (1 Bft) O-NO 72 ° 0 min 0,000 mm 0,7 UV-I 113 W/m² 5,5 °C 8,0 °C 6,4 km/h (2 Bft)
02.11.2018 13:44 8,0 °C 84 % 1020,3 hPa 0,0 mm 4,6 km/h (1 Bft) O-NO 57 ° 0 min 0,000 mm 0,7 UV-I 113 W/m² 5,5 °C 7,6 °C 6,4 km/h (2 Bft)
02.11.2018 13:45 8,1 °C 84 % 1020,3 hPa 0,0 mm 3,8 km/h (1 Bft) NO 56 ° 0 min 0,000 mm 0,8 UV-I 141 W/m² 5,6 °C 8,1 °C 4,8 km/h (1 Bft)
02.11.2018 13:46 8,1 °C 84 % 1020,3 hPa 0,0 mm 2,9 km/h (1 Bft) NO 56 ° 0 min 0,000 mm 0,9 UV-I 142 W/m² 5,6 °C 8,1 °C 4,8 km/h (1 Bft)
02.11.2018 13:47 8,1 °C 84 % 1020,4 hPa 0,0 mm 3,0 km/h (1 Bft) NO 56 ° 0 min 0,000 mm 0,9 UV-I 146 W/m² 5,6 °C 8,1 °C 4,8 km/h (1 Bft)
02.11.2018 13:48 8,1 °C 84 % 1020,3 hPa 0,0 mm 1,3 km/h (1 Bft) NO 56 ° 0 min 0,000 mm 0,9 UV-I 149 W/m² 5,6 °C 8,1 °C 3,2 km/h (1 Bft)
02.11.2018 13:49 8,1 °C 84 % 1020,3 hPa 0,0 mm 2,1 km/h (1 Bft) O 84 ° 0 min 0,000 mm 0,9 UV-I 149 W/m² 5,6 °C 8,1 °C 3,2 km/h (1 Bft)
02.11.2018 13:50 8,1 °C 84 % 1020,4 hPa 0,0 mm 0,7 km/h (0 Bft) O 84 ° 0 min 0,000 mm 0,9 UV-I 148 W/m² 5,6 °C 8,1 °C 3,2 km/h (1 Bft)
02.11.2018 13:51 8,1 °C 84 % 1020,3 hPa 0,0 mm 3,7 km/h (1 Bft) NO 56 ° 0 min 0,000 mm 0,9 UV-I 135 W/m² 5,6 °C 8,1 °C 6,4 km/h (2 Bft)
02.11.2018 13:52 8,1 °C 84 % 1020,3 hPa 0,0 mm 5,1 km/h (1 Bft) NO 55 ° 0 min 0,000 mm 0,8 UV-I 130 W/m² 5,6 °C 7,6 °C 6,4 km/h (2 Bft)
02.11.2018 13:53 8,2 °C 84 % 1020,3 hPa 0,0 mm 5,6 km/h (1 Bft) NO 38 ° 0 min 0,000 mm 0,8 UV-I 130 W/m² 5,7 °C 7,5 °C 8,0 km/h (2 Bft)
02.11.2018 13:54 8,2 °C 84 % 1020,3 hPa 0,0 mm 5,2 km/h (1 Bft) NO 36 ° 0 min 0,000 mm 0,8 UV-I 130 W/m² 5,7 °C 7,6 °C 8,0 km/h (2 Bft)
02.11.2018 13:55 8,2 °C 84 % 1020,4 hPa 0,0 mm 2,7 km/h (1 Bft) NO 36 ° 0 min 0,000 mm 0,8 UV-I 118 W/m² 5,7 °C 8,2 °C 8,0 km/h (2 Bft)
02.11.2018 13:56 8,2 °C 84 % 1020,3 hPa 0,0 mm 5,6 km/h (1 Bft) NO 46 ° 0 min 0,000 mm 0,7 UV-I 113 W/m² 5,7 °C 7,5 °C 6,4 km/h (2 Bft)
02.11.2018 13:57 8,2 °C 83 % 1020,4 hPa 0,0 mm 5,0 km/h (1 Bft) NO 49 ° 0 min 0,000 mm 0,7 UV-I 102 W/m² 5,5 °C 7,7 °C 8,0 km/h (2 Bft)
02.11.2018 13:58 8,2 °C 83 % 1020,3 hPa 0,0 mm 5,0 km/h (1 Bft) NO 47 ° 0 min 0,000 mm 0,7 UV-I 98 W/m² 5,5 °C 7,7 °C 9,7 km/h (2 Bft)
02.11.2018 13:59 8,1 °C 83 % 1020,4 hPa 0,0 mm 3,8 km/h (1 Bft) NO 47 ° 0 min 0,000 mm 0,6 UV-I 97 W/m² 5,4 °C 8,1 °C 4,8 km/h (1 Bft)
02.11.2018 14:00 8,1 °C 83 % 1020,4 hPa 0,0 mm 4,6 km/h (1 Bft) N-NO 32 ° 0 min 0,051 mm 0,6 UV-I 97 W/m² 5,4 °C 7,7 °C 6,4 km/h (2 Bft)
02.11.2018 14:01 8,1 °C 83 % 1020,4 hPa 0,0 mm 3,1 km/h (1 Bft) NO 55 ° 0 min 0,000 mm 0,6 UV-I 97 W/m² 5,4 °C 8,1 °C 6,4 km/h (2 Bft)
02.11.2018 14:02 8,1 °C 84 % 1020,4 hPa 0,0 mm 3,2 km/h (1 Bft) NO 35 ° 0 min 0,000 mm 0,6 UV-I 97 W/m² 5,6 °C 8,1 °C 6,4 km/h (2 Bft)
02.11.2018 14:03 8,1 °C 84 % 1020,4 hPa 0,0 mm 4,1 km/h (1 Bft) NO 35 ° 0 min 0,000 mm 0,7 UV-I 105 W/m² 5,6 °C 8,1 °C 4,8 km/h (1 Bft)
02.11.2018 14:04 8,1 °C 84 % 1020,4 hPa 0,0 mm 3,0 km/h (1 Bft) O-NO 70 ° 0 min 0,000 mm 0,7 UV-I 113 W/m² 5,6 °C 8,1 °C 6,4 km/h (2 Bft)
02.11.2018 14:05 8,1 °C 84 % 1020,4 hPa 0,0 mm 4,7 km/h (1 Bft) O-NO 65 ° 0 min 0,000 mm 0,7 UV-I 123 W/m² 5,6 °C 7,7 °C 6,4 km/h (2 Bft)
02.11.2018 14:06 8,1 °C 84 % 1020,4 hPa 0,0 mm 1,9 km/h (1 Bft) O-NO 65 ° 0 min 0,000 mm 0,8 UV-I 132 W/m² 5,6 °C 8,1 °C 3,2 km/h (1 Bft)
02.11.2018 14:07 8,1 °C 84 % 1020,4 hPa 0,0 mm 0,8 km/h (0 Bft) O-NO 65 ° 0 min 0,000 mm 0,8 UV-I 135 W/m² 5,6 °C 8,1 °C 3,2 km/h (1 Bft)
02.11.2018 14:08 8,1 °C 84 % 1020,4 hPa 0,0 mm 2,7 km/h (1 Bft) NO 38 ° 0 min 0,000 mm 0,8 UV-I 135 W/m² 5,6 °C 8,1 °C 4,8 km/h (1 Bft)
02.11.2018 14:09 8,1 °C 84 % 1020,4 hPa 0,0 mm 5,2 km/h (1 Bft) NO 37 ° 0 min 0,000 mm 0,8 UV-I 137 W/m² 5,6 °C 7,5 °C 8,0 km/h (2 Bft)
02.11.2018 14:10 8,1 °C 84 % 1020,5 hPa 0,0 mm 3,0 km/h (1 Bft) NO 39 ° 0 min 0,000 mm 0,8 UV-I 141 W/m² 5,6 °C 8,1 °C 4,8 km/h (1 Bft)
02.11.2018 14:11 8,1 °C 84 % 1020,4 hPa 0,0 mm 3,1 km/h (1 Bft) NO 44 ° 0 min 0,000 mm 0,8 UV-I 142 W/m² 5,6 °C 8,1 °C 6,4 km/h (2 Bft)
02.11.2018 14:12 8,1 °C 84 % 1020,5 hPa 0,0 mm 6,4 km/h (2 Bft) NO 45 ° 0 min 0,000 mm 0,8 UV-I 141 W/m² 5,6 °C 7,2 °C 8,0 km/h (2 Bft)
02.11.2018 14:13 8,1 °C 84 % 1020,4 hPa 0,0 mm 5,6 km/h (1 Bft) NO 39 ° 0 min 0,000 mm 0,8 UV-I 142 W/m² 5,6 °C 7,4 °C 8,0 km/h (2 Bft)
02.11.2018 14:14 8,1 °C 84 % 1020,4 hPa 0,0 mm 4,4 km/h (1 Bft) NO 49 ° 0 min 0,000 mm 0,8 UV-I 160 W/m² 5,6 °C 8,1 °C 8,0 km/h (2 Bft)
02.11.2018 14:15 8,1 °C 84 % 1020,4 hPa 0,0 mm 4,4 km/h (1 Bft) O-NO 65 ° 0 min 0,000 mm 0,9 UV-I 165 W/m² 5,6 °C 8,1 °C 6,4 km/h (2 Bft)
02.11.2018 14:16 8,1 °C 84 % 1020,4 hPa 0,0 mm 5,2 km/h (1 Bft) O-NO 67 ° 0 min 0,000 mm 0,9 UV-I 160 W/m² 5,6 °C 7,5 °C 8,0 km/h (2 Bft)
02.11.2018 14:17 8,1 °C 84 % 1020,4 hPa 0,0 mm 4,8 km/h (1 Bft) N-NW 347 ° 0 min 0,000 mm 0,8 UV-I 153 W/m² 5,6 °C 7,7 °C 8,0 km/h (2 Bft)
02.11.2018 14:18 8,2 °C 84 % 1020,4 hPa 0,0 mm 7,4 km/h (2 Bft) O-NO 62 ° 0 min 0,000 mm 0,8 UV-I 146 W/m² 5,7 °C 7,0 °C 9,7 km/h (2 Bft)
02.11.2018 14:19 8,2 °C 84 % 1020,5 hPa 0,0 mm 5,6 km/h (1 Bft) O-NO 65 ° 0 min 0,000 mm 0,8 UV-I 142 W/m² 5,7 °C 7,5 °C 6,4 km/h (2 Bft)
02.11.2018 14:20 8,2 °C 84 % 1020,5 hPa 0,0 mm 3,2 km/h (1 Bft) N-NO 13 ° 0 min 0,000 mm 0,8 UV-I 130 W/m² 5,7 °C 8,2 °C 4,8 km/h (1 Bft)
02.11.2018 14:21 8,2 °C 84 % 1020,5 hPa 0,0 mm 3,5 km/h (1 Bft) NO 49 ° 0 min 0,000 mm 0,7 UV-I 121 W/m² 5,7 °C 8,2 °C 6,4 km/h (2 Bft)
02.11.2018 14:22 8,2 °C 84 % 1020,5 hPa 0,0 mm 2,3 km/h (1 Bft) O-NO 63 ° 0 min 0,000 mm 0,7 UV-I 113 W/m² 5,7 °C 8,2 °C 4,8 km/h (1 Bft)
02.11.2018 14:23 8,2 °C 84 % 1020,5 hPa 0,0 mm 4,3 km/h (1 Bft) O-NO 64 ° 0 min 0,000 mm 0,7 UV-I 105 W/m² 5,7 °C 8,2 °C 6,4 km/h (2 Bft)
02.11.2018 14:24 8,2 °C 84 % 1020,5 hPa 0,0 mm 2,8 km/h (1 Bft) O-NO 65 ° 0 min 0,000 mm 0,7 UV-I 102 W/m² 5,7 °C 8,2 °C 6,4 km/h (2 Bft)
02.11.2018 14:25 8,2 °C 85 % 1020,5 hPa 0,0 mm 3,8 km/h (1 Bft) NO 51 ° 0 min 0,000 mm 0,6 UV-I 100 W/m² 5,8 °C 8,2 °C 6,4 km/h (2 Bft)
02.11.2018 14:26 8,3 °C 84 % 1020,5 hPa 0,0 mm 2,7 km/h (1 Bft) NO 51 ° 0 min 0,000 mm 0,6 UV-I 102 W/m² 5,8 °C 8,3 °C 4,8 km/h (1 Bft)
02.11.2018 14:27 8,3 °C 84 % 1020,4 hPa 0,0 mm 1,7 km/h (1 Bft) O-NO 65 ° 0 min 0,000 mm 0,7 UV-I 107 W/m² 5,8 °C 8,3 °C 4,8 km/h (1 Bft)
02.11.2018 14:28 8,3 °C 84 % 1020,4 hPa 0,0 mm 3,3 km/h (1 Bft) O-NO 75 ° 0 min 0,000 mm 0,7 UV-I 116 W/m² 5,8 °C 8,3 °C 4,8 km/h (1 Bft)
02.11.2018 14:29 8,3 °C 84 % 1020,4 hPa 0,0 mm 3,2 km/h (1 Bft) O-NO 75 ° 0 min 0,000 mm 0,7 UV-I 118 W/m² 5,8 °C 8,3 °C 4,8 km/h (1 Bft)
02.11.2018 14:30 8,2 °C 84 % 1020,4 hPa 0,0 mm 1,9 km/h (1 Bft) O-NO 74 ° 0 min 0,000 mm 0,7 UV-I 113 W/m² 5,7 °C 8,2 °C 4,8 km/h (1 Bft)
02.11.2018 14:31 8,2 °C 84 % 1020,4 hPa 0,0 mm 1,2 km/h (1 Bft) O-NO 74 ° 0 min 0,000 mm 0,6 UV-I 104 W/m² 5,7 °C 8,2 °C 3,2 km/h (1 Bft)
02.11.2018 14:32 8,3 °C 84 % 1020,4 hPa 0,0 mm 5,3 km/h (1 Bft) O-NO 65 ° 0 min 0,000 mm 0,6 UV-I 88 W/m² 5,8 °C 7,7 °C 8,0 km/h (2 Bft)
02.11.2018 14:33 8,3 °C 84 % 1020,4 hPa 0,0 mm 5,2 km/h (1 Bft) O 89 ° 0 min 0,000 mm 0,6 UV-I 86 W/m² 5,8 °C 7,8 °C 9,7 km/h (2 Bft)
02.11.2018 14:34 8,2 °C 84 % 1020,4 hPa 0,0 mm 5,1 km/h (1 Bft) O-NO 71 ° 0 min 0,000 mm 0,5 UV-I 83 W/m² 5,7 °C 7,7 °C 6,4 km/h (2 Bft)
02.11.2018 14:35 8,2 °C 84 % 1020,5 hPa 0,0 mm 4,4 km/h (1 Bft) O-NO 74 ° 0 min 0,000 mm 0,5 UV-I 76 W/m² 5,7 °C 8,2 °C 6,4 km/h (2 Bft)
02.11.2018 14:36 8,3 °C 84 % 1020,5 hPa 0,0 mm 2,3 km/h (1 Bft) O-NO 74 ° 0 min 0,000 mm 0,5 UV-I 70 W/m² 5,8 °C 8,3 °C 4,8 km/h (1 Bft)
02.11.2018 14:37 8,3 °C 84 % 1020,5 hPa 0,0 mm 2,9 km/h (1 Bft) O-NO 76 ° 0 min 0,000 mm 0,5 UV-I 65 W/m² 5,8 °C 8,3 °C 4,8 km/h (1 Bft)
02.11.2018 14:38 8,3 °C 84 % 1020,5 hPa 0,0 mm 2,2 km/h (1 Bft) O-NO 76 ° 0 min 0,000 mm 0,0 UV-I 60 W/m² 5,8 °C 8,3 °C 4,8 km/h (1 Bft)
02.11.2018 14:39 8,3 °C 84 % 1020,5 hPa 0,0 mm 1,9 km/h (1 Bft) O-NO 76 ° 0 min 0,000 mm 0,0 UV-I 58 W/m² 5,8 °C 8,3 °C 6,4 km/h (2 Bft)
02.11.2018 14:40 8,2 °C 84 % 1020,6 hPa 0,0 mm 4,0 km/h (1 Bft) O-NO 76 ° 0 min 0,000 mm 0,0 UV-I 56 W/m² 5,7 °C 8,2 °C 6,4 km/h (2 Bft)
02.11.2018 14:41 8,2 °C 84 % 1020,6 hPa 0,0 mm 4,8 km/h (1 Bft) O 83 ° 0 min 0,000 mm 0,0 UV-I 54 W/m² 5,7 °C 7,8 °C 8,0 km/h (2 Bft)
02.11.2018 14:42 8,2 °C 84 % 1020,6 hPa 0,0 mm 1,4 km/h (1 Bft) O 83 ° 0 min 0,000 mm 0,0 UV-I 53 W/m² 5,7 °C 8,2 °C 4,8 km/h (1 Bft)
02.11.2018 14:43 8,2 °C 84 % 1020,6 hPa 0,0 mm 2,7 km/h (1 Bft) O 83 ° 0 min 0,000 mm 0,0 UV-I 51 W/m² 5,7 °C 8,2 °C 4,8 km/h (1 Bft)
02.11.2018 14:44 8,2 °C 84 % 1020,6 hPa 0,0 mm 0,8 km/h (0 Bft) O 83 ° 0 min 0,000 mm 0,0 UV-I 46 W/m² 5,7 °C 8,2 °C 1,6 km/h (1 Bft)
02.11.2018 14:45 8,2 °C 84 % 1020,6 hPa 0,0 mm 4,1 km/h (1 Bft) O 83 ° 0 min 0,000 mm 0,0 UV-I 44 W/m² 5,7 °C 8,2 °C 4,8 km/h (1 Bft)
02.11.2018 14:46 8,2 °C 84 % 1020,6 hPa 0,0 mm 3,5 km/h (1 Bft) O-NO 65 ° 0 min 0,000 mm 0,0 UV-I 47 W/m² 5,7 °C 8,2 °C 6,4 km/h (2 Bft)
02.11.2018 14:47 8,2 °C 84 % 1020,6 hPa 0,0 mm 3,8 km/h (1 Bft) O-NO 65 ° 0 min 0,000 mm 0,0 UV-I 51 W/m² 5,7 °C 8,2 °C 6,4 km/h (2 Bft)
02.11.2018 14:48 8,2 °C 84 % 1020,6 hPa 0,0 mm 2,4 km/h (1 Bft) O-NO 65 ° 0 min 0,000 mm 0,0 UV-I 53 W/m² 5,7 °C 8,2 °C 3,2 km/h (1 Bft)
02.11.2018 14:49 8,1 °C 84 % 1020,5 hPa 0,0 mm 2,0 km/h (1 Bft) O-NO 65 ° 0 min 0,000 mm 0,0 UV-I 49 W/m² 5,6 °C 8,1 °C 3,2 km/h (1 Bft)
02.11.2018 14:50 8,2 °C 84 % 1020,5 hPa 0,0 mm 3,6 km/h (1 Bft) O 84 ° 0 min 0,000 mm 0,0 UV-I 40 W/m² 5,7 °C 8,2 °C 4,8 km/h (1 Bft)
02.11.2018 14:51 8,2 °C 84 % 1020,5 hPa 0,0 mm 1,2 km/h (1 Bft) O 84 ° 0 min 0,000 mm 0,0 UV-I 40 W/m² 5,7 °C 8,2 °C 3,2 km/h (1 Bft)
02.11.2018 14:52 8,1 °C 85 % 1020,6 hPa 0,0 mm 3,5 km/h (1 Bft) O 84 ° 0 min 0,000 mm 0,0 UV-I 40 W/m² 5,7 °C 8,1 °C 4,8 km/h (1 Bft)
02.11.2018 14:53 8,1 °C 85 % 1020,6 hPa 0,0 mm 3,4 km/h (1 Bft) O 84 ° 0 min 0,000 mm 0,0 UV-I 42 W/m² 5,7 °C 8,1 °C 4,8 km/h (1 Bft)
02.11.2018 14:54 8,1 °C 85 % 1020,6 hPa 0,0 mm 2,1 km/h (1 Bft) O 84 ° 0 min 0,000 mm 0,0 UV-I 46 W/m² 5,7 °C 8,1 °C 3,2 km/h (1 Bft)
02.11.2018 14:55 8,1 °C 85 % 1020,6 hPa 0,0 mm 2,6 km/h (1 Bft) O 84 ° 0 min 0,000 mm 0,0 UV-I 53 W/m² 5,7 °C 8,1 °C 3,2 km/h (1 Bft)
02.11.2018 14:56 8,1 °C 85 % 1020,6 hPa 0,0 mm 1,1 km/h (1 Bft) O 84 ° 0 min 0,000 mm 0,0 UV-I 53 W/m² 5,7 °C 8,1 °C 3,2 km/h (1 Bft)
02.11.2018 14:57 8,1 °C 85 % 1020,6 hPa 0,0 mm 0,3 km/h (0 Bft) O 84 ° 0 min 0,000 mm 0,0 UV-I 51 W/m² 5,7 °C 8,1 °C 1,6 km/h (1 Bft)
02.11.2018 14:58 8,1 °C 85 % 1020,5 hPa 0,0 mm 0,0 km/h (0 Bft) O 84 ° 0 min 0,000 mm 0,0 UV-I 51 W/m² 5,7 °C 8,1 °C 0,0 km/h (0 Bft)
02.11.2018 14:59 8,1 °C 85 % 1020,6 hPa 0,0 mm 1,1 km/h (1 Bft) O 84 ° 0 min 0,000 mm 0,0 UV-I 49 W/m² 5,7 °C 8,1 °C 3,2 km/h (1 Bft)
02.11.2018 15:00 8,1 °C 85 % 1020,6 hPa 0,0 mm 0,8 km/h (0 Bft) O 84 ° 0 min 0,051 mm 0,0 UV-I 49 W/m² 5,7 °C 8,1 °C 1,6 km/h (1 Bft)
02.11.2018 15:01 8,1 °C 85 % 1020,6 hPa 0,0 mm 0,7 km/h (0 Bft) O 84 ° 0 min 0,000 mm 0,0 UV-I 44 W/m² 5,7 °C 8,1 °C 1,6 km/h (1 Bft)
02.11.2018 15:02 8,1 °C 85 % 1020,6 hPa 0,0 mm 2,7 km/h (1 Bft) O 84 ° 0 min 0,000 mm 0,0 UV-I 40 W/m² 5,7 °C 8,1 °C 4,8 km/h (1 Bft)
02.11.2018 15:03 8,1 °C 85 % 1020,6 hPa 0,0 mm 0,7 km/h (0 Bft) O 84 ° 0 min 0,000 mm 0,0 UV-I 37 W/m² 5,7 °C 8,1 °C 1,6 km/h (1 Bft)
02.11.2018 15:04 8,1 °C 85 % 1020,6 hPa 0,0 mm 1,2 km/h (1 Bft) NO 43 ° 0 min 0,000 mm 0,0 UV-I 35 W/m² 5,7 °C 8,1 °C 4,8 km/h (1 Bft)
02.11.2018 15:05 8,1 °C 85 % 1020,6 hPa 0,0 mm 2,9 km/h (1 Bft) NO 43 ° 0 min 0,000 mm 0,0 UV-I 35 W/m² 5,7 °C 8,1 °C 4,8 km/h (1 Bft)
02.11.2018 15:06 8,1 °C 85 % 1020,6 hPa 0,0 mm 2,3 km/h (1 Bft) NO 40 ° 0 min 0,000 mm 0,0 UV-I 35 W/m² 5,7 °C 8,1 °C 3,2 km/h (1 Bft)
02.11.2018 15:07 8,1 °C 85 % 1020,6 hPa 0,0 mm 0,9 km/h (0 Bft) NO 40 ° 0 min 0,000 mm 0,0 UV-I 35 W/m² 5,7 °C 8,1 °C 1,6 km/h (1 Bft)
02.11.2018 15:08 8,1 °C 85 % 1020,7 hPa 0,0 mm 0,1 km/h (0 Bft) NO 40 ° 0 min 0,000 mm 0,0 UV-I 35 W/m² 5,7 °C 8,1 °C 1,6 km/h (1 Bft)
02.11.2018 15:09 8,1 °C 85 % 1020,7 hPa 0,0 mm 0,0 km/h (0 Bft) NO 40 ° 0 min 0,000 mm 0,0 UV-I 35 W/m² 5,7 °C 8,1 °C 0,0 km/h (0 Bft)
02.11.2018 15:10 8,0 °C 85 % 1020,6 hPa 0,0 mm 1,0 km/h (0 Bft) NO 40 ° 0 min 0,000 mm 0,0 UV-I 35 W/m² 5,6 °C 8,0 °C 3,2 km/h (1 Bft)
02.11.2018 15:11 8,0 °C 85 % 1020,7 hPa 0,0 mm 2,0 km/h (1 Bft) NO 40 ° 0 min 0,000 mm 0,0 UV-I 35 W/m² 5,6 °C 8,0 °C 3,2 km/h (1 Bft)
02.11.2018 15:12 8,0 °C 85 % 1020,7 hPa 0,0 mm 0,4 km/h (0 Bft) NO 40 ° 0 min 0,000 mm 0,0 UV-I 37 W/m² 5,6 °C 8,0 °C 1,6 km/h (1 Bft)
02.11.2018 15:13 8,0 °C 85 % 1020,7 hPa 0,0 mm 2,1 km/h (1 Bft) N-NO 33 ° 0 min 0,000 mm 0,0 UV-I 39 W/m² 5,6 °C 8,0 °C 3,2 km/h (1 Bft)
02.11.2018 15:14 7,9 °C 85 % 1020,8 hPa 0,0 mm 0,3 km/h (0 Bft) N-NO 33 ° 0 min 0,000 mm 0,0 UV-I 39 W/m² 5,5 °C 7,9 °C 1,6 km/h (1 Bft)
02.11.2018 15:15 7,9 °C 85 % 1020,8 hPa 0,0 mm 1,0 km/h (0 Bft) N-NO 33 ° 0 min 0,000 mm 0,0 UV-I 39 W/m² 5,5 °C 7,9 °C 1,6 km/h (1 Bft)
02.11.2018 15:16 7,9 °C 85 % 1020,8 hPa 0,0 mm 1,7 km/h (1 Bft) N-NO 33 ° 0 min 0,000 mm 0,0 UV-I 37 W/m² 5,5 °C 7,9 °C 3,2 km/h (1 Bft)
02.11.2018 15:17 7,9 °C 85 % 1020,8 hPa 0,0 mm 1,7 km/h (1 Bft) N-NO 33 ° 0 min 0,000 mm 0,0 UV-I 35 W/m² 5,5 °C 7,9 °C 3,2 km/h (1 Bft)
02.11.2018 15:18 7,9 °C 85 % 1020,8 hPa 0,0 mm 0,3 km/h (0 Bft) N-NO 33 ° 0 min 0,000 mm 0,0 UV-I 33 W/m² 5,5 °C 7,9 °C 3,2 km/h (1 Bft)
02.11.2018 15:19 7,9 °C 85 % 1020,9 hPa 0,0 mm 0,6 km/h (0 Bft) N-NO 33 ° 0 min 0,000 mm 0,0 UV-I 28 W/m² 5,5 °C 7,9 °C 1,6 km/h (1 Bft)
02.11.2018 15:20 7,9 °C 85 % 1020,9 hPa 0,0 mm 2,2 km/h (1 Bft) N-NO 33 ° 0 min 0,000 mm 0,0 UV-I 26 W/m² 5,5 °C 7,9 °C 3,2 km/h (1 Bft)
02.11.2018 15:21 7,9 °C 85 % 1020,9 hPa 0,0 mm 2,2 km/h (1 Bft) N-NO 33 ° 0 min 0,000 mm 0,0 UV-I 25 W/m² 5,5 °C 7,9 °C 3,2 km/h (1 Bft)
02.11.2018 15:22 7,8 °C 85 % 1021,0 hPa 0,0 mm 0,0 km/h (0 Bft) N-NO 33 ° 0 min 0,000 mm 0,0 UV-I 23 W/m² 5,4 °C 7,8 °C 0,0 km/h (0 Bft)
02.11.2018 15:23 7,8 °C 86 % 1020,9 hPa 0,0 mm 0,0 km/h (0 Bft) N-NO 33 ° 0 min 0,000 mm 0,0 UV-I 23 W/m² 5,6 °C 7,8 °C 0,0 km/h (0 Bft)
02.11.2018 15:24 7,8 °C 86 % 1021,0 hPa 0,0 mm 0,0 km/h (0 Bft) N-NO 33 ° 0 min 0,000 mm 0,0 UV-I 23 W/m² 5,6 °C 7,8 °C 0,0 km/h (0 Bft)
02.11.2018 15:25 7,8 °C 86 % 1020,9 hPa 0,0 mm 0,0 km/h (0 Bft) N-NO 33 ° 0 min 0,000 mm 0,0 UV-I 25 W/m² 5,6 °C 7,8 °C 0,0 km/h (0 Bft)
02.11.2018 15:26 7,8 °C 86 % 1020,9 hPa 0,0 mm 0,0 km/h (0 Bft) N-NO 33 ° 0 min 0,000 mm 0,0 UV-I 25 W/m² 5,6 °C 7,8 °C 0,0 km/h (0 Bft)
02.11.2018 15:27 7,8 °C 86 % 1020,9 hPa 0,0 mm 0,0 km/h (0 Bft) N-NO 33 ° 0 min 0,000 mm 0,0 UV-I 26 W/m² 5,6 °C 7,8 °C 0,0 km/h (0 Bft)
02.11.2018 15:28 7,8 °C 86 % 1020,9 hPa 0,0 mm 0,0 km/h (0 Bft) N-NO 33 ° 0 min 0,000 mm 0,0 UV-I 26 W/m² 5,6 °C 7,8 °C 0,0 km/h (0 Bft)
02.11.2018 15:29 7,8 °C 86 % 1020,9 hPa 0,0 mm 0,0 km/h (0 Bft) N-NO 33 ° 0 min 0,000 mm 0,0 UV-I 25 W/m² 5,6 °C 7,8 °C 0,0 km/h (0 Bft)
02.11.2018 15:30 7,8 °C 86 % 1020,9 hPa 0,0 mm 0,0 km/h (0 Bft) N-NO 33 ° 0 min 0,000 mm 0,0 UV-I 25 W/m² 5,6 °C 7,8 °C 0,0 km/h (0 Bft)
02.11.2018 15:31 7,8 °C 86 % 1021,0 hPa 0,0 mm 0,0 km/h (0 Bft) N-NO 33 ° 0 min 0,000 mm 0,0 UV-I 21 W/m² 5,6 °C 7,8 °C 0,0 km/h (0 Bft)
02.11.2018 15:32 7,8 °C 86 % 1021,1 hPa 0,0 mm 0,0 km/h (0 Bft) N-NO 33 ° 0 min 0,000 mm 0,0 UV-I 21 W/m² 5,6 °C 7,8 °C 0,0 km/h (0 Bft)
02.11.2018 15:33 7,8 °C 86 % 1021,0 hPa 0,0 mm 0,0 km/h (0 Bft) N-NO 33 ° 0 min 0,000 mm 0,0 UV-I 23 W/m² 5,6 °C 7,8 °C 0,0 km/h (0 Bft)
02.11.2018 15:34 7,8 °C 86 % 1021,0 hPa 0,0 mm 0,0 km/h (0 Bft) N-NO 33 ° 0 min 0,000 mm 0,0 UV-I 23 W/m² 5,6 °C 7,8 °C 0,0 km/h (0 Bft)
02.11.2018 15:35 7,8 °C 86 % 1021,1 hPa 0,0 mm 0,0 km/h (0 Bft) N-NO 33 ° 0 min 0,000 mm 0,0 UV-I 23 W/m² 5,6 °C 7,8 °C 0,0 km/h (0 Bft)
02.11.2018 15:36 7,8 °C 86 % 1021,0 hPa 0,0 mm 0,0 km/h (0 Bft) N-NO 33 ° 0 min 0,000 mm 0,0 UV-I 21 W/m² 5,6 °C 7,8 °C 0,0 km/h (0 Bft)
02.11.2018 15:37 7,7 °C 86 % 1021,0 hPa 0,0 mm 0,0 km/h (0 Bft) N-NO 33 ° 0 min 0,000 mm 0,0 UV-I 23 W/m² 5,5 °C 7,7 °C 0,0 km/h (0 Bft)
02.11.2018 15:38 7,7 °C 86 % 1021,0 hPa 0,0 mm 0,0 km/h (0 Bft) N-NO 33 ° 0 min 0,000 mm 0,0 UV-I 23 W/m² 5,5 °C 7,7 °C 0,0 km/h (0 Bft)
02.11.2018 15:39 7,7 °C 86 % 1021,0 hPa 0,0 mm 0,0 km/h (0 Bft) N-NO 33 ° 0 min 0,000 mm 0,0 UV-I 23 W/m² 5,5 °C 7,7 °C 0,0 km/h (0 Bft)
02.11.2018 15:40 7,7 °C 87 % 1021,1 hPa 0,0 mm 0,0 km/h (0 Bft) N-NO 33 ° 0 min 0,000 mm 0,0 UV-I 23 W/m² 5,7 °C 7,7 °C 0,0 km/h (0 Bft)
02.11.2018 15:41 7,7 °C 87 % 1021,1 hPa 0,0 mm 0,0 km/h (0 Bft) N-NO 33 ° 0 min 0,000 mm 0,0 UV-I 21 W/m² 5,7 °C 7,7 °C 0,0 km/h (0 Bft)
02.11.2018 15:42 7,7 °C 87 % 1021,1 hPa 0,0 mm 0,0 km/h (0 Bft) N-NO 33 ° 0 min 0,000 mm 0,0 UV-I 21 W/m² 5,7 °C 7,7 °C 0,0 km/h (0 Bft)
02.11.2018 15:43 7,7 °C 87 % 1021,2 hPa 0,0 mm 0,0 km/h (0 Bft) N-NO 33 ° 0 min 0,000 mm 0,0 UV-I 21 W/m² 5,7 °C 7,7 °C 0,0 km/h (0 Bft)
02.11.2018 15:44 7,6 °C 87 % 1021,2 hPa 0,0 mm 0,0 km/h (0 Bft) N-NO 33 ° 0 min 0,000 mm 0,0 UV-I 21 W/m² 5,6 °C 7,6 °C 0,0 km/h (0 Bft)
02.11.2018 15:45 7,6 °C 87 % 1021,2 hPa 0,0 mm 0,0 km/h (0 Bft) N-NO 33 ° 0 min 0,000 mm 0,0 UV-I 21 W/m² 5,6 °C 7,6 °C 0,0 km/h (0 Bft)
02.11.2018 15:46 7,6 °C 87 % 1021,2 hPa 0,0 mm 0,0 km/h (0 Bft) N-NO 33 ° 0 min 0,000 mm 0,0 UV-I 21 W/m² 5,6 °C 7,6 °C 0,0 km/h (0 Bft)
02.11.2018 15:47 7,6 °C 87 % 1021,2 hPa 0,0 mm 0,0 km/h (0 Bft) N-NO 33 ° 0 min 0,000 mm 0,0 UV-I 21 W/m² 5,6 °C 7,6 °C 0,0 km/h (0 Bft)
02.11.2018 15:48 7,6 °C 87 % 1021,3 hPa 0,0 mm 0,0 km/h (0 Bft) N-NO 33 ° 0 min 0,000 mm 0,0 UV-I 21 W/m² 5,6 °C 7,6 °C 0,0 km/h (0 Bft)
02.11.2018 15:49 7,6 °C 87 % 1021,3 hPa 0,0 mm 0,0 km/h (0 Bft) N-NO 33 ° 0 min 0,000 mm 0,0 UV-I 19 W/m² 5,6 °C 7,6 °C 0,0 km/h (0 Bft)
02.11.2018 15:50 7,6 °C 87 % 1021,3 hPa 0,0 mm 0,0 km/h (0 Bft) N-NO 33 ° 0 min 0,000 mm 0,0 UV-I 19 W/m² 5,6 °C 7,6 °C 0,0 km/h (0 Bft)
02.11.2018 15:51 7,6 °C 88 % 1021,3 hPa 0,0 mm 0,0 km/h (0 Bft) N-NO 33 ° 0 min 0,000 mm 0,0 UV-I 18 W/m² 5,7 °C 7,6 °C 0,0 km/h (0 Bft)
02.11.2018 15:52 7,6 °C 88 % 1021,4 hPa 0,0 mm 0,0 km/h (0 Bft) N-NO 33 ° 0 min 0,000 mm 0,0 UV-I 18 W/m² 5,7 °C 7,6 °C 0,0 km/h (0 Bft)
02.11.2018 15:53 7,6 °C 88 % 1021,4 hPa 0,0 mm 0,0 km/h (0 Bft) N-NO 33 ° 0 min 0,000 mm 0,0 UV-I 18 W/m² 5,7 °C 7,6 °C 0,0 km/h (0 Bft)
02.11.2018 15:54 7,6 °C 88 % 1021,5 hPa 0,0 mm 0,0 km/h (0 Bft) N-NO 33 ° 0 min 0,000 mm 0,0 UV-I 18 W/m² 5,7 °C 7,6 °C 0,0 km/h (0 Bft)
02.11.2018 15:55 7,6 °C 88 % 1021,5 hPa 0,0 mm 0,0 km/h (0 Bft) N-NO 33 ° 0 min 0,000 mm 0,0 UV-I 18 W/m² 5,7 °C 7,6 °C 0,0 km/h (0 Bft)
02.11.2018 15:56 7,6 °C 88 % 1021,5 hPa 0,0 mm 0,0 km/h (0 Bft) N-NO 33 ° 0 min 0,000 mm 0,0 UV-I 18 W/m² 5,7 °C 7,6 °C 0,0 km/h (0 Bft)
02.11.2018 15:57 7,6 °C 88 % 1021,5 hPa 0,0 mm 0,0 km/h (0 Bft) N-NO 33 ° 0 min 0,000 mm 0,0 UV-I 18 W/m² 5,7 °C 7,6 °C 0,0 km/h (0 Bft)
02.11.2018 15:58 7,6 °C 88 % 1021,5 hPa 0,0 mm 0,0 km/h (0 Bft) N-NO 33 ° 0 min 0,000 mm 0,0 UV-I 19 W/m² 5,7 °C 7,6 °C 0,0 km/h (0 Bft)
02.11.2018 15:59 7,6 °C 88 % 1021,5 hPa 0,0 mm 0,0 km/h (0 Bft) N-NO 33 ° 0 min 0,000 mm 0,0 UV-I 21 W/m² 5,7 °C 7,6 °C 0,0 km/h (0 Bft)
02.11.2018 16:00 7,6 °C 88 % 1021,5 hPa 0,0 mm 0,0 km/h (0 Bft) N-NO 33 ° 0 min 0,000 mm 0,0 UV-I 21 W/m² 5,7 °C 7,6 °C 0,0 km/h (0 Bft)
02.11.2018 16:01 7,6 °C 88 % 1021,5 hPa 0,0 mm 0,0 km/h (0 Bft) N-NO 33 ° 0 min 0,025 mm 0,0 UV-I 21 W/m² 5,7 °C 7,6 °C 0,0 km/h (0 Bft)
02.11.2018 16:02 7,6 °C 88 % 1021,6 hPa 0,0 mm 0,0 km/h (0 Bft) N-NO 33 ° 0 min 0,000 mm 0,0 UV-I 19 W/m² 5,7 °C 7,6 °C 0,0 km/h (0 Bft)
02.11.2018 16:03 7,6 °C 88 % 1021,6 hPa 0,0 mm 0,0 km/h (0 Bft) N-NO 33 ° 0 min 0,000 mm 0,0 UV-I 18 W/m² 5,7 °C 7,6 °C 0,0 km/h (0 Bft)
02.11.2018 16:04 7,6 °C 88 % 1021,6 hPa 0,0 mm 0,0 km/h (0 Bft) N-NO 33 ° 0 min 0,000 mm 0,0 UV-I 16 W/m² 5,7 °C 7,6 °C 0,0 km/h (0 Bft)
02.11.2018 16:05 7,6 °C 89 % 1021,7 hPa 0,0 mm 0,0 km/h (0 Bft) N-NO 33 ° 0 min 0,000 mm 0,0 UV-I 14 W/m² 5,9 °C 7,6 °C 0,0 km/h (0 Bft)
02.11.2018 16:06 7,5 °C 89 % 1021,7 hPa 0,0 mm 0,0 km/h (0 Bft) N-NO 33 ° 0 min 0,000 mm 0,0 UV-I 14 W/m² 5,8 °C 7,5 °C 0,0 km/h (0 Bft)
02.11.2018 16:07 7,5 °C 88 % 1021,7 hPa 0,0 mm 0,0 km/h (0 Bft) N-NO 33 ° 0 min 0,000 mm 0,0 UV-I 16 W/m² 5,6 °C 7,5 °C 0,0 km/h (0 Bft)
02.11.2018 16:08 7,5 °C 88 % 1021,7 hPa 0,0 mm 0,0 km/h (0 Bft) N-NO 33 ° 0 min 0,000 mm 0,0 UV-I 16 W/m² 5,6 °C 7,5 °C 0,0 km/h (0 Bft)
02.11.2018 16:09 7,6 °C 88 % 1021,8 hPa 0,0 mm 0,0 km/h (0 Bft) N-NO 33 ° 0 min 0,000 mm 0,0 UV-I 18 W/m² 5,7 °C 7,6 °C 0,0 km/h (0 Bft)
02.11.2018 16:10 7,6 °C 88 % 1021,7 hPa 0,0 mm 0,0 km/h (0 Bft) N-NO 33 ° 0 min 0,000 mm 0,0 UV-I 19 W/m² 5,7 °C 7,6 °C 0,0 km/h (0 Bft)
02.11.2018 16:11 7,6 °C 88 % 1021,8 hPa 0,0 mm 0,0 km/h (0 Bft) N-NO 33 ° 0 min 0,000 mm 0,0 UV-I 19 W/m² 5,7 °C 7,6 °C 0,0 km/h (0 Bft)
02.11.2018 16:12 7,6 °C 88 % 1021,8 hPa 0,0 mm 0,0 km/h (0 Bft) N-NO 33 ° 0 min 0,000 mm 0,0 UV-I 18 W/m² 5,7 °C 7,6 °C 0,0 km/h (0 Bft)
02.11.2018 16:13 7,5 °C 89 % 1021,8 hPa 0,0 mm 0,0 km/h (0 Bft) N-NO 33 ° 0 min 0,000 mm 0,0 UV-I 16 W/m² 5,8 °C 7,5 °C 0,0 km/h (0 Bft)
02.11.2018 16:14 7,6 °C 89 % 1021,8 hPa 0,0 mm 0,0 km/h (0 Bft) N-NO 33 ° 0 min 0,000 mm 0,0 UV-I 16 W/m² 5,9 °C 7,6 °C 0,0 km/h (0 Bft)
02.11.2018 16:15 7,5 °C 89 % 1021,9 hPa 0,0 mm 0,0 km/h (0 Bft) N-NO 33 ° 0 min 0,000 mm 0,0 UV-I 14 W/m² 5,8 °C 7,5 °C 0,0 km/h (0 Bft)
02.11.2018 16:16 7,5 °C 89 % 1021,9 hPa 0,0 mm 0,0 km/h (0 Bft) N-NO 33 ° 0 min 0,000 mm 0,0 UV-I 14 W/m² 5,8 °C 7,5 °C 0,0 km/h (0 Bft)
02.11.2018 16:17 7,5 °C 89 % 1021,9 hPa 0,0 mm 0,0 km/h (0 Bft) N-NO 33 ° 0 min 0,000 mm 0,0 UV-I 12 W/m² 5,8 °C 7,5 °C 0,0 km/h (0 Bft)
02.11.2018 16:18 7,5 °C 89 % 1021,9 hPa 0,0 mm 0,0 km/h (0 Bft) N-NO 33 ° 0 min 0,000 mm 0,0 UV-I 11 W/m² 5,8 °C 7,5 °C 0,0 km/h (0 Bft)
02.11.2018 16:19 7,5 °C 89 % 1022,0 hPa 0,0 mm 0,0 km/h (0 Bft) N-NO 33 ° 0 min 0,000 mm 0,0 UV-I 11 W/m² 5,8 °C 7,5 °C 0,0 km/h (0 Bft)
02.11.2018 16:20 7,4 °C 89 % 1022,0 hPa 0,0 mm 0,0 km/h (0 Bft) N-NO 33 ° 0 min 0,000 mm 0,0 UV-I 11 W/m² 5,7 °C 7,4 °C 0,0 km/h (0 Bft)
02.11.2018 16:21 7,4 °C 89 % 1022,0 hPa 0,0 mm 0,0 km/h (0 Bft) N-NO 33 ° 0 min 0,000 mm 0,0 UV-I 11 W/m² 5,7 °C 7,4 °C 0,0 km/h (0 Bft)
02.11.2018 16:22 7,4 °C 89 % 1022,0 hPa 0,0 mm 0,0 km/h (0 Bft) N-NO 33 ° 0 min 0,000 mm 0,0 UV-I 11 W/m² 5,7 °C 7,4 °C 0,0 km/h (0 Bft)
02.11.2018 16:23 7,4 °C 89 % 1022,1 hPa 0,0 mm 0,0 km/h (0 Bft) N-NO 33 ° 0 min 0,000 mm 0,0 UV-I 11 W/m² 5,7 °C 7,4 °C 0,0 km/h (0 Bft)
02.11.2018 16:24 7,4 °C 89 % 1022,1 hPa 0,0 mm 0,0 km/h (0 Bft) N-NO 33 ° 0 min 0,000 mm 0,0 UV-I 11 W/m² 5,7 °C 7,4 °C 0,0 km/h (0 Bft)
02.11.2018 16:25 7,4 °C 89 % 1022,1 hPa 0,0 mm 0,0 km/h (0 Bft) N-NO 33 ° 0 min 0,000 mm 0,0 UV-I 11 W/m² 5,7 °C 7,4 °C 0,0 km/h (0 Bft)
02.11.2018 16:26 7,4 °C 90 % 1022,2 hPa 0,0 mm 0,0 km/h (0 Bft) N-NO 33 ° 0 min 0,000 mm 0,0 UV-I 9 W/m² 5,9 °C 7,4 °C 0,0 km/h (0 Bft)
02.11.2018 16:27 7,4 °C 90 % 1022,2 hPa 0,0 mm 0,0 km/h (0 Bft) N-NO 33 ° 0 min 0,000 mm 0,0 UV-I 9 W/m² 5,9 °C 7,4 °C 0,0 km/h (0 Bft)
02.11.2018 16:28 7,4 °C 90 % 1022,3 hPa 0,0 mm 0,0 km/h (0 Bft) N-NO 33 ° 0 min 0,000 mm 0,0 UV-I 9 W/m² 5,9 °C 7,4 °C 0,0 km/h (0 Bft)
02.11.2018 16:29 7,4 °C 90 % 1022,3 hPa 0,0 mm 0,0 km/h (0 Bft) N-NO 33 ° 0 min 0,000 mm 0,0 UV-I 9 W/m² 5,9 °C 7,4 °C 0,0 km/h (0 Bft)
02.11.2018 16:30 7,3 °C 90 % 1022,4 hPa 0,0 mm 0,0 km/h (0 Bft) N-NO 33 ° 0 min 0,000 mm 0,0 UV-I 9 W/m² 5,8 °C 7,3 °C 0,0 km/h (0 Bft)
02.11.2018 16:31 7,4 °C 90 % 1022,3 hPa 0,0 mm 0,0 km/h (0 Bft) N-NO 33 ° 0 min 0,000 mm 0,0 UV-I 11 W/m² 5,9 °C 7,4 °C 0,0 km/h (0 Bft)
02.11.2018 16:32 7,3 °C 90 % 1022,4 hPa 0,0 mm 0,0 km/h (0 Bft) N-NO 33 ° 0 min 0,000 mm 0,0 UV-I 11 W/m² 5,8 °C 7,3 °C 0,0 km/h (0 Bft)
02.11.2018 16:33 7,3 °C 90 % 1022,4 hPa 0,0 mm 0,0 km/h (0 Bft) N-NO 33 ° 0 min 0,000 mm 0,0 UV-I 11 W/m² 5,8 °C 7,3 °C 0,0 km/h (0 Bft)
02.11.2018 16:34 7,3 °C 91 % 1022,4 hPa 0,0 mm 0,0 km/h (0 Bft) N-NO 33 ° 0 min 0,000 mm 0,0 UV-I 11 W/m² 5,9 °C 7,3 °C 0,0 km/h (0 Bft)
02.11.2018 16:35 7,3 °C 90 % 1022,4 hPa 0,0 mm 0,0 km/h (0 Bft) N-NO 33 ° 0 min 0,000 mm 0,0 UV-I 11 W/m² 5,8 °C 7,3 °C 0,0 km/h (0 Bft)
02.11.2018 16:36 7,3 °C 91 % 1022,4 hPa 0,0 mm 0,0 km/h (0 Bft) N-NO 33 ° 0 min 0,000 mm 0,0 UV-I 11 W/m² 5,9 °C 7,3 °C 0,0 km/h (0 Bft)
02.11.2018 16:37 7,3 °C 91 % 1022,4 hPa 0,0 mm 0,0 km/h (0 Bft) N-NO 33 ° 0 min 0,000 mm 0,0 UV-I 11 W/m² 5,9 °C 7,3 °C 0,0 km/h (0 Bft)
02.11.2018 16:38 7,2 °C 91 % 1022,4 hPa 0,0 mm 0,0 km/h (0 Bft) N-NO 33 ° 0 min 0,000 mm 0,0 UV-I 11 W/m² 5,8 °C 7,2 °C 0,0 km/h (0 Bft)
02.11.2018 16:39 7,2 °C 91 % 1022,4 hPa 0,0 mm 0,0 km/h (0 Bft) N-NO 33 ° 0 min 0,000 mm 0,0 UV-I 11 W/m² 5,8 °C 7,2 °C 0,0 km/h (0 Bft)
02.11.2018 16:40 7,2 °C 91 % 1022,4 hPa 0,0 mm 0,0 km/h (0 Bft) N-NO 33 ° 0 min 0,000 mm 0,0 UV-I 11 W/m² 5,8 °C 7,2 °C 0,0 km/h (0 Bft)
02.11.2018 16:41 7,2 °C 91 % 1022,4 hPa 0,0 mm 0,0 km/h (0 Bft) N-NO 33 ° 0 min 0,000 mm 0,0 UV-I 11 W/m² 5,8 °C 7,2 °C 0,0 km/h (0 Bft)
02.11.2018 16:42 7,2 °C 91 % 1022,4 hPa 0,0 mm 0,0 km/h (0 Bft) N-NO 33 ° 0 min 0,000 mm 0,0 UV-I 11 W/m² 5,8 °C 7,2 °C 0,0 km/h (0 Bft)
02.11.2018 16:43 7,2 °C 91 % 1022,3 hPa 0,0 mm 0,0 km/h (0 Bft) N-NO 33 ° 0 min 0,000 mm 0,0 UV-I 11 W/m² 5,8 °C 7,2 °C 0,0 km/h (0 Bft)
02.11.2018 16:44 7,2 °C 91 % 1022,3 hPa 0,0 mm 0,0 km/h (0 Bft) N-NO 33 ° 0 min 0,000 mm 0,0 UV-I 11 W/m² 5,8 °C 7,2 °C 0,0 km/h (0 Bft)
02.11.2018 16:45 7,2 °C 91 % 1022,4 hPa 0,0 mm 0,0 km/h (0 Bft) N-NO 33 ° 0 min 0,000 mm 0,0 UV-I 9 W/m² 5,8 °C 7,2 °C 0,0 km/h (0 Bft)
02.11.2018 16:46 7,1 °C 91 % 1022,3 hPa 0,0 mm 0,0 km/h (0 Bft) N-NO 33 ° 0 min 0,000 mm 0,0 UV-I 9 W/m² 5,7 °C 7,1 °C 0,0 km/h (0 Bft)
02.11.2018 16:47 7,1 °C 91 % 1022,3 hPa 0,0 mm 0,0 km/h (0 Bft) N-NO 33 ° 0 min 0,000 mm 0,0 UV-I 9 W/m² 5,7 °C 7,1 °C 0,0 km/h (0 Bft)
02.11.2018 16:48 7,1 °C 91 % 1022,3 hPa 0,0 mm 0,0 km/h (0 Bft) N-NO 33 ° 0 min 0,000 mm 0,0 UV-I 7 W/m² 5,7 °C 7,1 °C 0,0 km/h (0 Bft)
02.11.2018 16:49 7,1 °C 91 % 1022,4 hPa 0,0 mm 0,0 km/h (0 Bft) N-NO 33 ° 0 min 0,000 mm 0,0 UV-I 7 W/m² 5,7 °C 7,1 °C 0,0 km/h (0 Bft)
02.11.2018 16:50 7,1 °C 92 % 1022,4 hPa 0,0 mm 0,0 km/h (0 Bft) N-NO 33 ° 0 min 0,000 mm 0,0 UV-I 7 W/m² 5,9 °C 7,1 °C 0,0 km/h (0 Bft)
02.11.2018 16:51 7,1 °C 92 % 1022,4 hPa 0,0 mm 0,0 km/h (0 Bft) N-NO 33 ° 0 min 0,000 mm 0,0 UV-I 7 W/m² 5,9 °C 7,1 °C 0,0 km/h (0 Bft)
02.11.2018 16:52 7,1 °C 92 % 1022,4 hPa 0,0 mm 0,0 km/h (0 Bft) N-NO 33 ° 0 min 0,000 mm 0,0 UV-I 7 W/m² 5,9 °C 7,1 °C 0,0 km/h (0 Bft)
02.11.2018 16:53 7,1 °C 92 % 1022,4 hPa 0,0 mm 0,0 km/h (0 Bft) N-NO 33 ° 0 min 0,000 mm 0,0 UV-I 7 W/m² 5,9 °C 7,1 °C 0,0 km/h (0 Bft)
02.11.2018 16:54 7,1 °C 92 % 1022,4 hPa 0,0 mm 0,0 km/h (0 Bft) N-NO 33 ° 0 min 0,000 mm 0,0 UV-I 5 W/m² 5,9 °C 7,1 °C 0,0 km/h (0 Bft)
02.11.2018 16:55 7,1 °C 92 % 1022,4 hPa 0,0 mm 0,0 km/h (0 Bft) N-NO 33 ° 0 min 0,000 mm 0,0 UV-I 5 W/m² 5,9 °C 7,1 °C 0,0 km/h (0 Bft)
02.11.2018 16:56 7,1 °C 92 % 1022,4 hPa 0,2 mm 0,0 km/h (0 Bft) N-NO 33 ° 0 min 0,000 mm 0,0 UV-I 5 W/m² 5,9 °C 7,1 °C 0,0 km/h (0 Bft)
02.11.2018 16:57 7,1 °C 92 % 1022,4 hPa 0,0 mm 0,0 km/h (0 Bft) N-NO 33 ° 0 min 0,000 mm 0,0 UV-I 5 W/m² 5,9 °C 7,1 °C 0,0 km/h (0 Bft)
02.11.2018 16:58 7,0 °C 92 % 1022,5 hPa 0,0 mm 0,0 km/h (0 Bft) N-NO 33 ° 0 min 0,000 mm 0,0 UV-I 0 W/m² 5,8 °C 7,0 °C 0,0 km/h (0 Bft)
02.11.2018 16:59 7,0 °C 92 % 1022,5 hPa 0,0 mm 0,0 km/h (0 Bft) N-NO 33 ° 0 min 0,000 mm 0,0 UV-I 0 W/m² 5,8 °C 7,0 °C 0,0 km/h (0 Bft)
02.11.2018 17:00 7,0 °C 92 % 1022,5 hPa 0,0 mm 0,0 km/h (0 Bft) N-NO 33 ° 0 min 0,000 mm 0,0 UV-I 0 W/m² 5,8 °C 7,0 °C 0,0 km/h (0 Bft)
02.11.2018 17:01 7,0 °C 92 % 1022,4 hPa 0,0 mm 0,0 km/h (0 Bft) N-NO 33 ° 0 min 0,000 mm 0,0 UV-I 0 W/m² 5,8 °C 7,0 °C 0,0 km/h (0 Bft)
02.11.2018 17:02 7,0 °C 92 % 1022,4 hPa 0,0 mm 0,0 km/h (0 Bft) N-NO 33 ° 0 min 0,000 mm 0,0 UV-I 0 W/m² 5,8 °C 7,0 °C 0,0 km/h (0 Bft)
02.11.2018 17:03 7,0 °C 92 % 1022,4 hPa 0,0 mm 0,0 km/h (0 Bft) N-NO 33 ° 0 min 0,000 mm 0,0 UV-I 0 W/m² 5,8 °C 7,0 °C 0,0 km/h (0 Bft)
02.11.2018 17:04 7,0 °C 92 % 1022,4 hPa 0,0 mm 0,0 km/h (0 Bft) N-NO 33 ° 0 min 0,000 mm 0,0 UV-I 0 W/m² 5,8 °C 7,0 °C 0,0 km/h (0 Bft)
02.11.2018 17:05 6,9 °C 92 % 1022,4 hPa 0,0 mm 0,0 km/h (0 Bft) N-NO 33 ° 0 min 0,000 mm 0,0 UV-I 0 W/m² 5,7 °C 6,9 °C 0,0 km/h (0 Bft)
02.11.2018 17:06 6,9 °C 92 % 1022,4 hPa 0,0 mm 0,0 km/h (0 Bft) N-NO 33 ° 0 min 0,000 mm 0,0 UV-I 0 W/m² 5,7 °C 6,9 °C 0,0 km/h (0 Bft)
02.11.2018 17:07 6,9 °C 92 % 1022,4 hPa 0,0 mm 0,0 km/h (0 Bft) N-NO 33 ° 0 min 0,000 mm 0,0 UV-I 0 W/m² 5,7 °C 6,9 °C 0,0 km/h (0 Bft)
02.11.2018 17:08 6,9 °C 92 % 1022,4 hPa 0,0 mm 0,0 km/h (0 Bft) N-NO 33 ° 0 min 0,000 mm 0,0 UV-I 0 W/m² 5,7 °C 6,9 °C 0,0 km/h (0 Bft)
02.11.2018 17:09 6,9 °C 92 % 1022,4 hPa 0,0 mm 0,0 km/h (0 Bft) N-NO 33 ° 0 min 0,000 mm 0,0 UV-I 0 W/m² 5,7 °C 6,9 °C 0,0 km/h (0 Bft)
02.11.2018 17:10 6,9 °C 92 % 1022,4 hPa 0,0 mm 0,0 km/h (0 Bft) N-NO 33 ° 0 min 0,000 mm 0,0 UV-I 0 W/m² 5,7 °C 6,9 °C 0,0 km/h (0 Bft)
02.11.2018 17:11 6,9 °C 92 % 1022,4 hPa 0,0 mm 0,0 km/h (0 Bft) N-NO 33 ° 0 min 0,000 mm 0,0 UV-I 0 W/m² 5,7 °C 6,9 °C 0,0 km/h (0 Bft)
02.11.2018 17:12 6,9 °C 92 % 1022,4 hPa 0,0 mm 0,0 km/h (0 Bft) N-NO 33 ° 0 min 0,000 mm 0,0 UV-I 0 W/m² 5,7 °C 6,9 °C 0,0 km/h (0 Bft)
02.11.2018 17:13 6,9 °C 92 % 1022,4 hPa 0,0 mm 0,0 km/h (0 Bft) N-NO 33 ° 0 min 0,000 mm 0,0 UV-I 0 W/m² 5,7 °C 6,9 °C 0,0 km/h (0 Bft)
02.11.2018 17:14 6,9 °C 92 % 1022,4 hPa 0,0 mm 0,0 km/h (0 Bft) N-NO 33 ° 0 min 0,000 mm 0,0 UV-I 0 W/m² 5,7 °C 6,9 °C 0,0 km/h (0 Bft)
02.11.2018 17:15 6,9 °C 92 % 1022,4 hPa 0,0 mm 0,0 km/h (0 Bft) N-NO 33 ° 0 min 0,000 mm 0,0 UV-I 0 W/m² 5,7 °C 6,9 °C 0,0 km/h (0 Bft)
02.11.2018 17:16 6,9 °C 92 % 1022,5 hPa 0,0 mm 0,0 km/h (0 Bft) N-NO 33 ° 0 min 0,000 mm 0,0 UV-I 0 W/m² 5,7 °C 6,9 °C 0,0 km/h (0 Bft)
02.11.2018 17:17 6,8 °C 92 % 1022,4 hPa 0,0 mm 0,0 km/h (0 Bft) N-NO 33 ° 0 min 0,000 mm 0,0 UV-I 0 W/m² 5,6 °C 6,8 °C 0,0 km/h (0 Bft)
02.11.2018 17:18 6,8 °C 92 % 1022,4 hPa 0,0 mm 0,0 km/h (0 Bft) N-NO 33 ° 0 min 0,000 mm 0,0 UV-I 0 W/m² 5,6 °C 6,8 °C 0,0 km/h (0 Bft)
02.11.2018 17:19 6,8 °C 92 % 1022,4 hPa 0,0 mm 0,0 km/h (0 Bft) N-NO 33 ° 0 min 0,000 mm 0,0 UV-I 0 W/m² 5,6 °C 6,8 °C 0,0 km/h (0 Bft)
02.11.2018 17:20 6,8 °C 93 % 1022,4 hPa 0,0 mm 0,0 km/h (0 Bft) N-NO 33 ° 0 min 0,000 mm 0,0 UV-I 0 W/m² 5,7 °C 6,8 °C 0,0 km/h (0 Bft)
02.11.2018 17:21 6,8 °C 93 % 1022,4 hPa 0,0 mm 0,0 km/h (0 Bft) N-NO 33 ° 0 min 0,000 mm 0,0 UV-I 0 W/m² 5,7 °C 6,8 °C 0,0 km/h (0 Bft)
02.11.2018 17:22 6,8 °C 93 % 1022,5 hPa 0,0 mm 0,0 km/h (0 Bft) N-NO 33 ° 0 min 0,000 mm 0,0 UV-I 0 W/m² 5,7 °C 6,8 °C 0,0 km/h (0 Bft)
02.11.2018 17:23 6,8 °C 93 % 1022,5 hPa 0,0 mm 0,0 km/h (0 Bft) N-NO 33 ° 0 min 0,000 mm 0,0 UV-I 0 W/m² 5,7 °C 6,8 °C 0,0 km/h (0 Bft)
02.11.2018 17:24 6,8 °C 93 % 1022,5 hPa 0,0 mm 0,0 km/h (0 Bft) N-NO 33 ° 0 min 0,000 mm 0,0 UV-I 0 W/m² 5,7 °C 6,8 °C 0,0 km/h (0 Bft)
02.11.2018 17:25 6,8 °C 93 % 1022,6 hPa 0,0 mm 0,0 km/h (0 Bft) N-NO 33 ° 0 min 0,000 mm 0,0 UV-I 0 W/m² 5,7 °C 6,8 °C 0,0 km/h (0 Bft)
02.11.2018 17:26 6,7 °C 93 % 1022,6 hPa 0,0 mm 0,0 km/h (0 Bft) N-NO 33 ° 0 min 0,000 mm 0,0 UV-I 0 W/m² 5,6 °C 6,7 °C 0,0 km/h (0 Bft)
02.11.2018 17:27 6,7 °C 93 % 1022,6 hPa 0,0 mm 0,0 km/h (0 Bft) N-NO 33 ° 0 min 0,000 mm 0,0 UV-I 0 W/m² 5,6 °C 6,7 °C 0,0 km/h (0 Bft)
02.11.2018 17:28 6,7 °C 93 % 1022,6 hPa 0,0 mm 0,0 km/h (0 Bft) N-NO 33 ° 0 min 0,000 mm 0,0 UV-I 0 W/m² 5,6 °C 6,7 °C 0,0 km/h (0 Bft)
02.11.2018 17:29 6,7 °C 93 % 1022,5 hPa 0,0 mm 0,0 km/h (0 Bft) N-NO 33 ° 0 min 0,000 mm 0,0 UV-I 0 W/m² 5,6 °C 6,7 °C 0,0 km/h (0 Bft)
02.11.2018 17:30 6,7 °C 93 % 1022,5 hPa 0,0 mm 0,0 km/h (0 Bft) N-NO 33 ° 0 min 0,000 mm 0,0 UV-I 0 W/m² 5,6 °C 6,7 °C 0,0 km/h (0 Bft)
02.11.2018 17:31 6,7 °C 93 % 1022,5 hPa 0,0 mm 0,0 km/h (0 Bft) N-NO 33 ° 0 min 0,000 mm 0,0 UV-I 0 W/m² 5,6 °C 6,7 °C 0,0 km/h (0 Bft)
02.11.2018 17:32 6,7 °C 93 % 1022,6 hPa 0,0 mm 0,0 km/h (0 Bft) N-NO 33 ° 0 min 0,000 mm 0,0 UV-I 0 W/m² 5,6 °C 6,7 °C 0,0 km/h (0 Bft)
02.11.2018 17:33 6,6 °C 93 % 1022,6 hPa 0,0 mm 0,0 km/h (0 Bft) N-NO 33 ° 0 min 0,000 mm 0,0 UV-I 0 W/m² 5,6 °C 6,6 °C 0,0 km/h (0 Bft)
02.11.2018 17:34 6,6 °C 93 % 1022,7 hPa 0,0 mm 0,0 km/h (0 Bft) N-NO 33 ° 0 min 0,000 mm 0,0 UV-I 0 W/m² 5,6 °C 6,6 °C 0,0 km/h (0 Bft)
02.11.2018 17:35 6,6 °C 93 % 1022,7 hPa 0,0 mm 0,0 km/h (0 Bft) N-NO 33 ° 0 min 0,000 mm 0,0 UV-I 0 W/m² 5,6 °C 6,6 °C 0,0 km/h (0 Bft)
02.11.2018 17:36 6,6 °C 93 % 1022,7 hPa 0,0 mm 0,0 km/h (0 Bft) N-NO 33 ° 0 min 0,000 mm 0,0 UV-I 0 W/m² 5,6 °C 6,6 °C 0,0 km/h (0 Bft)
02.11.2018 17:37 6,6 °C 93 % 1022,7 hPa 0,0 mm 0,0 km/h (0 Bft) N-NO 33 ° 0 min 0,000 mm 0,0 UV-I 0 W/m² 5,6 °C 6,6 °C 0,0 km/h (0 Bft)
02.11.2018 17:38 6,6 °C 93 % 1022,9 hPa 0,0 mm 0,0 km/h (0 Bft) N-NO 33 ° 0 min 0,000 mm 0,0 UV-I 0 W/m² 5,6 °C 6,6 °C 0,0 km/h (0 Bft)
02.11.2018 17:39 6,6 °C 93 % 1022,8 hPa 0,0 mm 0,0 km/h (0 Bft) N-NO 33 ° 0 min 0,000 mm 0,0 UV-I 0 W/m² 5,6 °C 6,6 °C 0,0 km/h (0 Bft)
02.11.2018 17:40 6,6 °C 93 % 1022,9 hPa 0,0 mm 0,0 km/h (0 Bft) N-NO 33 ° 0 min 0,000 mm 0,0 UV-I 0 W/m² 5,6 °C 6,6 °C 0,0 km/h (0 Bft)
02.11.2018 17:41 6,6 °C 93 % 1022,9 hPa 0,0 mm 0,0 km/h (0 Bft) N-NO 33 ° 0 min 0,000 mm 0,0 UV-I 0 W/m² 5,6 °C 6,6 °C 0,0 km/h (0 Bft)
02.11.2018 17:42 6,6 °C 93 % 1022,9 hPa 0,0 mm 0,0 km/h (0 Bft) N-NO 33 ° 0 min 0,000 mm 0,0 UV-I 0 W/m² 5,6 °C 6,6 °C 0,0 km/h (0 Bft)
02.11.2018 17:43 6,6 °C 93 % 1022,9 hPa 0,0 mm 0,0 km/h (0 Bft) N-NO 33 ° 0 min 0,000 mm 0,0 UV-I 0 W/m² 5,6 °C 6,6 °C 0,0 km/h (0 Bft)
02.11.2018 17:44 6,6 °C 93 % 1022,9 hPa 0,0 mm 0,0 km/h (0 Bft) N-NO 33 ° 0 min 0,000 mm 0,0 UV-I 0 W/m² 5,6 °C 6,6 °C 0,0 km/h (0 Bft)
02.11.2018 17:45 6,6 °C 93 % 1022,9 hPa 0,0 mm 0,0 km/h (0 Bft) N-NO 33 ° 0 min 0,000 mm 0,0 UV-I 0 W/m² 5,6 °C 6,6 °C 0,0 km/h (0 Bft)
02.11.2018 17:46 6,6 °C 93 % 1022,9 hPa 0,0 mm 0,0 km/h (0 Bft) N-NO 33 ° 0 min 0,000 mm 0,0 UV-I 0 W/m² 5,6 °C 6,6 °C 0,0 km/h (0 Bft)
02.11.2018 17:47 6,6 °C 93 % 1022,9 hPa 0,0 mm 0,0 km/h (0 Bft) N-NO 33 ° 0 min 0,000 mm 0,0 UV-I 0 W/m² 5,6 °C 6,6 °C 0,0 km/h (0 Bft)
02.11.2018 17:48 6,6 °C 93 % 1022,8 hPa 0,0 mm 0,0 km/h (0 Bft) N-NO 33 ° 0 min 0,000 mm 0,0 UV-I 0 W/m² 5,6 °C 6,6 °C 0,0 km/h (0 Bft)
02.11.2018 17:49 6,6 °C 93 % 1022,8 hPa 0,0 mm 0,0 km/h (0 Bft) N-NO 33 ° 0 min 0,000 mm 0,0 UV-I 0 W/m² 5,6 °C 6,6 °C 0,0 km/h (0 Bft)
02.11.2018 17:50 6,6 °C 93 % 1022,9 hPa 0,0 mm 0,0 km/h (0 Bft) N-NO 33 ° 0 min 0,000 mm 0,0 UV-I 0 W/m² 5,6 °C 6,6 °C 0,0 km/h (0 Bft)
02.11.2018 17:51 6,6 °C 93 % 1022,9 hPa 0,0 mm 0,0 km/h (0 Bft) N-NO 33 ° 0 min 0,000 mm 0,0 UV-I 0 W/m² 5,6 °C 6,6 °C 0,0 km/h (0 Bft)
02.11.2018 17:52 6,6 °C 93 % 1022,9 hPa 0,0 mm 0,0 km/h (0 Bft) N-NO 33 ° 0 min 0,000 mm 0,0 UV-I 0 W/m² 5,6 °C 6,6 °C 0,0 km/h (0 Bft)
02.11.2018 17:53 6,6 °C 93 % 1022,9 hPa 0,0 mm 0,0 km/h (0 Bft) N-NO 33 ° 0 min 0,000 mm 0,0 UV-I 0 W/m² 5,6 °C 6,6 °C 0,0 km/h (0 Bft)
02.11.2018 17:54 6,6 °C 93 % 1022,9 hPa 0,0 mm 0,0 km/h (0 Bft) N-NO 33 ° 0 min 0,000 mm 0,0 UV-I 0 W/m² 5,6 °C 6,6 °C 0,0 km/h (0 Bft)
02.11.2018 17:55 6,6 °C 93 % 1022,9 hPa 0,0 mm 0,0 km/h (0 Bft) N-NO 33 ° 0 min 0,000 mm 0,0 UV-I 0 W/m² 5,6 °C 6,6 °C 0,0 km/h (0 Bft)
02.11.2018 17:56 6,6 °C 93 % 1023,0 hPa 0,0 mm 0,0 km/h (0 Bft) N-NO 33 ° 0 min 0,000 mm 0,0 UV-I 0 W/m² 5,6 °C 6,6 °C 0,0 km/h (0 Bft)
02.11.2018 17:57 6,6 °C 93 % 1023,0 hPa 0,0 mm 0,0 km/h (0 Bft) N-NO 33 ° 0 min 0,000 mm 0,0 UV-I 0 W/m² 5,6 °C 6,6 °C 0,0 km/h (0 Bft)
02.11.2018 17:58 6,6 °C 93 % 1023,1 hPa 0,0 mm 0,0 km/h (0 Bft) O 99 ° 0 min 0,000 mm 0,0 UV-I 0 W/m² 5,6 °C 6,6 °C 0,0 km/h (0 Bft)
02.11.2018 17:59 6,6 °C 93 % 1023,1 hPa 0,0 mm 0,0 km/h (0 Bft) O 99 ° 0 min 0,000 mm 0,0 UV-I 0 W/m² 5,6 °C 6,6 °C 0,0 km/h (0 Bft)
02.11.2018 18:00 6,6 °C 93 % 1023,1 hPa 0,0 mm 0,0 km/h (0 Bft) O 99 ° 0 min 0,000 mm 0,0 UV-I 0 W/m² 5,6 °C 6,6 °C 0,0 km/h (0 Bft)
02.11.2018 18:01 6,6 °C 93 % 1023,2 hPa 0,0 mm 0,0 km/h (0 Bft) O 99 ° 0 min 0,000 mm 0,0 UV-I 0 W/m² 5,6 °C 6,6 °C 0,0 km/h (0 Bft)
02.11.2018 18:02 6,7 °C 93 % 1023,2 hPa 0,0 mm 0,0 km/h (0 Bft) O 99 ° 0 min 0,000 mm 0,0 UV-I 0 W/m² 5,6 °C 6,7 °C 0,0 km/h (0 Bft)
02.11.2018 18:03 6,6 °C 93 % 1023,2 hPa 0,0 mm 0,0 km/h (0 Bft) O 99 ° 0 min 0,000 mm 0,0 UV-I 0 W/m² 5,6 °C 6,6 °C 0,0 km/h (0 Bft)
02.11.2018 18:04 6,6 °C 93 % 1023,2 hPa 0,0 mm 0,0 km/h (0 Bft) O 99 ° 0 min 0,000 mm 0,0 UV-I 0 W/m² 5,6 °C 6,6 °C 0,0 km/h (0 Bft)
02.11.2018 18:05 6,6 °C 93 % 1023,2 hPa 0,0 mm 0,0 km/h (0 Bft) O 99 ° 0 min 0,000 mm 0,0 UV-I 0 W/m² 5,6 °C 6,6 °C 0,0 km/h (0 Bft)
02.11.2018 18:06 6,6 °C 93 % 1023,2 hPa 0,0 mm 0,0 km/h (0 Bft) O 99 ° 0 min 0,000 mm 0,0 UV-I 0 W/m² 5,6 °C 6,6 °C 0,0 km/h (0 Bft)
02.11.2018 18:07 6,6 °C 93 % 1023,2 hPa 0,0 mm 0,0 km/h (0 Bft) O 99 ° 0 min 0,000 mm 0,0 UV-I 0 W/m² 5,6 °C 6,6 °C 0,0 km/h (0 Bft)
02.11.2018 18:08 6,6 °C 93 % 1023,2 hPa 0,0 mm 0,0 km/h (0 Bft) O 99 ° 0 min 0,000 mm 0,0 UV-I 0 W/m² 5,6 °C 6,6 °C 0,0 km/h (0 Bft)
02.11.2018 18:09 6,6 °C 93 % 1023,2 hPa 0,0 mm 0,0 km/h (0 Bft) O 99 ° 0 min 0,000 mm 0,0 UV-I 0 W/m² 5,6 °C 6,6 °C 0,0 km/h (0 Bft)
02.11.2018 18:10 6,6 °C 93 % 1023,2 hPa 0,0 mm 0,0 km/h (0 Bft) O 99 ° 0 min 0,000 mm 0,0 UV-I 0 W/m² 5,6 °C 6,6 °C 0,0 km/h (0 Bft)
02.11.2018 18:11 6,6 °C 93 % 1023,3 hPa 0,0 mm 0,0 km/h (0 Bft) O 99 ° 0 min 0,000 mm 0,0 UV-I 0 W/m² 5,6 °C 6,6 °C 0,0 km/h (0 Bft)
02.11.2018 18:12 6,6 °C 93 % 1023,3 hPa 0,0 mm 1,1 km/h (1 Bft) O-NO 57 ° 0 min 0,000 mm 0,0 UV-I 0 W/m² 5,6 °C 6,6 °C 3,2 km/h (1 Bft)
02.11.2018 18:13 6,7 °C 93 % 1023,3 hPa 0,0 mm 1,4 km/h (1 Bft) O-NO 58 ° 0 min 0,000 mm 0,0 UV-I 0 W/m² 5,6 °C 6,7 °C 3,2 km/h (1 Bft)
02.11.2018 18:14 6,7 °C 93 % 1023,3 hPa 0,0 mm 0,0 km/h (0 Bft) O-NO 57 ° 0 min 0,000 mm 0,0 UV-I 0 W/m² 5,6 °C 6,7 °C 0,0 km/h (0 Bft)
02.11.2018 18:15 6,6 °C 93 % 1023,3 hPa 0,0 mm 0,0 km/h (0 Bft) O-NO 58 ° 0 min 0,000 mm 0,0 UV-I 0 W/m² 5,6 °C 6,6 °C 0,0 km/h (0 Bft)
02.11.2018 18:16 6,7 °C 93 % 1023,3 hPa 0,0 mm 0,7 km/h (0 Bft) O-NO 57 ° 0 min 0,000 mm 0,0 UV-I 0 W/m² 5,6 °C 6,7 °C 3,2 km/h (1 Bft)
02.11.2018 18:17 6,6 °C 93 % 1023,3 hPa 0,0 mm 1,0 km/h (0 Bft) O-NO 58 ° 0 min 0,000 mm 0,0 UV-I 0 W/m² 5,6 °C 6,6 °C 3,2 km/h (1 Bft)
02.11.2018 18:18 6,6 °C 93 % 1023,3 hPa 0,0 mm 0,4 km/h (0 Bft) O-NO 57 ° 0 min 0,000 mm 0,0 UV-I 0 W/m² 5,6 °C 6,6 °C 3,2 km/h (1 Bft)
02.11.2018 18:19 6,7 °C 93 % 1023,3 hPa 0,0 mm 0,0 km/h (0 Bft) O-NO 58 ° 0 min 0,000 mm 0,0 UV-I 0 W/m² 5,6 °C 6,7 °C 0,0 km/h (0 Bft)
02.11.2018 18:20 6,7 °C 93 % 1023,3 hPa 0,0 mm 0,0 km/h (0 Bft) O-NO 57 ° 0 min 0,000 mm 0,0 UV-I 0 W/m² 5,6 °C 6,7 °C 0,0 km/h (0 Bft)
02.11.2018 18:21 6,7 °C 93 % 1023,3 hPa 0,0 mm 0,0 km/h (0 Bft) O-NO 58 ° 0 min 0,000 mm 0,0 UV-I 0 W/m² 5,6 °C 6,7 °C 0,0 km/h (0 Bft)
02.11.2018 18:22 6,6 °C 93 % 1023,4 hPa 0,0 mm 0,0 km/h (0 Bft) O-NO 57 ° 0 min 0,000 mm 0,0 UV-I 0 W/m² 5,6 °C 6,6 °C 0,0 km/h (0 Bft)
02.11.2018 18:23 6,6 °C 93 % 1023,3 hPa 0,0 mm 0,0 km/h (0 Bft) O-NO 57 ° 0 min 0,000 mm 0,0 UV-I 0 W/m² 5,6 °C 6,6 °C 0,0 km/h (0 Bft)
02.11.2018 18:24 6,6 °C 93 % 1023,3 hPa 0,0 mm 0,0 km/h (0 Bft) O-NO 58 ° 0 min 0,000 mm 0,0 UV-I 0 W/m² 5,6 °C 6,6 °C 0,0 km/h (0 Bft)
02.11.2018 18:25 6,6 °C 93 % 1023,2 hPa 0,0 mm 0,0 km/h (0 Bft) O-NO 57 ° 0 min 0,000 mm 0,0 UV-I 0 W/m² 5,6 °C 6,6 °C 0,0 km/h (0 Bft)
02.11.2018 18:26 6,6 °C 93 % 1023,3 hPa 0,0 mm 0,3 km/h (0 Bft) O-NO 58 ° 0 min 0,000 mm 0,0 UV-I 0 W/m² 5,6 °C 6,6 °C 1,6 km/h (1 Bft)
02.11.2018 18:27 6,6 °C 93 % 1023,3 hPa 0,0 mm 0,7 km/h (0 Bft) O-NO 58 ° 0 min 0,000 mm 0,0 UV-I 0 W/m² 5,6 °C 6,6 °C 3,2 km/h (1 Bft)
02.11.2018 18:28 6,5 °C 93 % 1023,3 hPa 0,0 mm 0,0 km/h (0 Bft) O-NO 58 ° 0 min 0,000 mm 0,0 UV-I 0 W/m² 5,5 °C 6,5 °C 0,0 km/h (0 Bft)
02.11.2018 18:29 6,6 °C 93 % 1023,3 hPa 0,0 mm 0,0 km/h (0 Bft) O-NO 58 ° 0 min 0,000 mm 0,0 UV-I 0 W/m² 5,6 °C 6,6 °C 0,0 km/h (0 Bft)
02.11.2018 18:30 6,6 °C 93 % 1023,3 hPa 0,0 mm 0,0 km/h (0 Bft) O-NO 58 ° 0 min 0,000 mm 0,0 UV-I 0 W/m² 5,6 °C 6,6 °C 0,0 km/h (0 Bft)
02.11.2018 18:31 6,6 °C 93 % 1023,3 hPa 0,0 mm 0,0 km/h (0 Bft) O-NO 58 ° 0 min 0,000 mm 0,0 UV-I 0 W/m² 5,6 °C 6,6 °C 0,0 km/h (0 Bft)
02.11.2018 18:32 6,6 °C 94 % 1023,4 hPa 0,0 mm 0,0 km/h (0 Bft) O-NO 58 ° 0 min 0,000 mm 0,0 UV-I 0 W/m² 5,7 °C 6,6 °C 0,0 km/h (0 Bft)
02.11.2018 18:33 6,6 °C 94 % 1023,4 hPa 0,0 mm 1,9 km/h (1 Bft) O-SO 104 ° 0 min 0,000 mm 0,0 UV-I 0 W/m² 5,7 °C 6,6 °C 6,4 km/h (2 Bft)
02.11.2018 18:34 6,6 °C 93 % 1023,4 hPa 0,0 mm 1,6 km/h (1 Bft) O-SO 105 ° 0 min 0,000 mm 0,0 UV-I 0 W/m² 5,6 °C 6,6 °C 4,8 km/h (1 Bft)
02.11.2018 18:35 6,6 °C 94 % 1023,4 hPa 0,0 mm 0,3 km/h (0 Bft) O-SO 105 ° 0 min 0,000 mm 0,0 UV-I 0 W/m² 5,7 °C 6,6 °C 1,6 km/h (1 Bft)
02.11.2018 18:36 6,6 °C 94 % 1023,4 hPa 0,0 mm 0,0 km/h (0 Bft) O-SO 105 ° 0 min 0,000 mm 0,0 UV-I 0 W/m² 5,7 °C 6,6 °C 0,0 km/h (0 Bft)
02.11.2018 18:37 6,6 °C 94 % 1023,5 hPa 0,0 mm 0,0 km/h (0 Bft) O-SO 105 ° 0 min 0,000 mm 0,0 UV-I 0 W/m² 5,7 °C 6,6 °C 0,0 km/h (0 Bft)
02.11.2018 18:38 6,6 °C 94 % 1023,4 hPa 0,0 mm 1,7 km/h (1 Bft) NO 55 ° 0 min 0,000 mm 0,0 UV-I 0 W/m² 5,7 °C 6,6 °C 4,8 km/h (1 Bft)
02.11.2018 18:39 6,6 °C 94 % 1023,5 hPa 0,0 mm 0,7 km/h (0 Bft) NO 55 ° 0 min 0,000 mm 0,0 UV-I 0 W/m² 5,7 °C 6,6 °C 1,6 km/h (1 Bft)
02.11.2018 18:40 6,6 °C 94 % 1023,4 hPa 0,0 mm 0,5 km/h (0 Bft) NO 55 ° 0 min 0,000 mm 0,0 UV-I 0 W/m² 5,7 °C 6,6 °C 3,2 km/h (1 Bft)
02.11.2018 18:41 6,6 °C 94 % 1023,4 hPa 0,0 mm 0,1 km/h (0 Bft) NO 55 ° 0 min 0,000 mm 0,0 UV-I 0 W/m² 5,7 °C 6,6 °C 1,6 km/h (1 Bft)
02.11.2018 18:42 6,6 °C 94 % 1023,4 hPa 0,0 mm 0,0 km/h (0 Bft) NO 55 ° 0 min 0,000 mm 0,0 UV-I 0 W/m² 5,7 °C 6,6 °C 0,0 km/h (0 Bft)
02.11.2018 18:43 6,6 °C 94 % 1023,4 hPa 0,0 mm 0,8 km/h (0 Bft) NO 55 ° 0 min 0,000 mm 0,0 UV-I 0 W/m² 5,7 °C 6,6 °C 3,2 km/h (1 Bft)
02.11.2018 18:44 6,6 °C 94 % 1023,4 hPa 0,0 mm 2,7 km/h (1 Bft) O 88 ° 0 min 0,000 mm 0,0 UV-I 0 W/m² 5,7 °C 6,6 °C 4,8 km/h (1 Bft)
02.11.2018 18:45 6,6 °C 94 % 1023,4 hPa 0,0 mm 0,3 km/h (0 Bft) O 88 ° 0 min 0,000 mm 0,0 UV-I 0 W/m² 5,7 °C 6,6 °C 1,6 km/h (1 Bft)
02.11.2018 18:46 6,6 °C 93 % 1023,4 hPa 0,0 mm 1,6 km/h (1 Bft) O 88 ° 0 min 0,000 mm 0,0 UV-I 0 W/m² 5,6 °C 6,6 °C 3,2 km/h (1 Bft)
02.11.2018 18:47 6,5 °C 94 % 1023,4 hPa 0,0 mm 1,8 km/h (1 Bft) O 88 ° 0 min 0,000 mm 0,0 UV-I 0 W/m² 5,6 °C 6,5 °C 3,2 km/h (1 Bft)
02.11.2018 18:48 6,6 °C 93 % 1023,4 hPa 0,0 mm 0,5 km/h (0 Bft) O 88 ° 0 min 0,000 mm 0,0 UV-I 0 W/m² 5,6 °C 6,6 °C 1,6 km/h (1 Bft)
02.11.2018 18:49 6,6 °C 93 % 1023,4 hPa 0,0 mm 0,8 km/h (0 Bft) O 88 ° 0 min 0,000 mm 0,0 UV-I 0 W/m² 5,6 °C 6,6 °C 1,6 km/h (1 Bft)
02.11.2018 18:50 6,6 °C 94 % 1023,4 hPa 0,0 mm 0,5 km/h (0 Bft) O 88 ° 0 min 0,000 mm 0,0 UV-I 0 W/m² 5,7 °C 6,6 °C 1,6 km/h (1 Bft)
02.11.2018 18:51 6,6 °C 94 % 1023,5 hPa 0,0 mm 2,2 km/h (1 Bft) O-NO 70 ° 0 min 0,000 mm 0,0 UV-I 0 W/m² 5,7 °C 6,6 °C 4,8 km/h (1 Bft)
02.11.2018 18:52 6,6 °C 94 % 1023,5 hPa 0,0 mm 0,9 km/h (0 Bft) O-NO 70 ° 0 min 0,000 mm 0,0 UV-I 0 W/m² 5,7 °C 6,6 °C 4,8 km/h (1 Bft)
02.11.2018 18:53 6,6 °C 94 % 1023,4 hPa 0,0 mm 2,0 km/h (1 Bft) O-NO 62 ° 0 min 0,000 mm 0,0 UV-I 0 W/m² 5,7 °C 6,6 °C 4,8 km/h (1 Bft)
02.11.2018 18:54 6,5 °C 93 % 1023,4 hPa 0,0 mm 2,1 km/h (1 Bft) N-NO 31 ° 0 min 0,000 mm 0,0 UV-I 0 W/m² 5,5 °C 6,5 °C 4,8 km/h (1 Bft)
02.11.2018 18:55 6,6 °C 94 % 1023,4 hPa 0,0 mm 1,5 km/h (1 Bft) N-NO 31 ° 0 min 0,000 mm 0,0 UV-I 0 W/m² 5,7 °C 6,6 °C 3,2 km/h (1 Bft)
02.11.2018 18:56 6,6 °C 94 % 1023,4 hPa 0,0 mm 0,4 km/h (0 Bft) N-NO 31 ° 0 min 0,000 mm 0,0 UV-I 0 W/m² 5,7 °C 6,6 °C 1,6 km/h (1 Bft)
02.11.2018 18:57 6,6 °C 94 % 1023,4 hPa 0,0 mm 1,9 km/h (1 Bft) N-NO 32 ° 0 min 0,000 mm 0,0 UV-I 0 W/m² 5,7 °C 6,6 °C 3,2 km/h (1 Bft)
02.11.2018 18:58 6,6 °C 94 % 1023,4 hPa 0,0 mm 1,8 km/h (1 Bft) O-NO 62 ° 0 min 0,000 mm 0,0 UV-I 0 W/m² 5,7 °C 6,6 °C 4,8 km/h (1 Bft)
02.11.2018 18:59 6,5 °C 94 % 1023,5 hPa 0,0 mm 0,2 km/h (0 Bft) O-NO 62 ° 0 min 0,000 mm 0,0 UV-I 0 W/m² 5,6 °C 6,5 °C 1,6 km/h (1 Bft)
02.11.2018 19:00 6,5 °C 94 % 1023,5 hPa 0,0 mm 1,4 km/h (1 Bft) O-NO 62 ° 0 min 0,000 mm 0,0 UV-I 0 W/m² 5,6 °C 6,5 °C 3,2 km/h (1 Bft)
02.11.2018 19:01 6,5 °C 93 % 1023,5 hPa 0,0 mm 0,0 km/h (0 Bft) O-NO 62 ° 0 min 0,000 mm 0,0 UV-I 0 W/m² 5,5 °C 6,5 °C 0,0 km/h (0 Bft)
02.11.2018 19:02 6,4 °C 94 % 1023,6 hPa 0,0 mm 1,5 km/h (1 Bft) O-NO 62 ° 0 min 0,000 mm 0,0 UV-I 0 W/m² 5,5 °C 6,4 °C 3,2 km/h (1 Bft)
02.11.2018 19:03 6,5 °C 94 % 1023,6 hPa 0,0 mm 0,7 km/h (0 Bft) O-NO 62 ° 0 min 0,000 mm 0,0 UV-I 0 W/m² 5,6 °C 6,5 °C 1,6 km/h (1 Bft)
02.11.2018 19:04 6,5 °C 94 % 1023,7 hPa 0,0 mm 1,7 km/h (1 Bft) O-NO 62 ° 0 min 0,000 mm 0,0 UV-I 0 W/m² 5,6 °C 6,5 °C 4,8 km/h (1 Bft)
02.11.2018 19:05 6,5 °C 94 % 1023,7 hPa 0,0 mm 0,7 km/h (0 Bft) O-NO 62 ° 0 min 0,000 mm 0,0 UV-I 0 W/m² 5,6 °C 6,5 °C 1,6 km/h (1 Bft)
02.11.2018 19:06 6,5 °C 94 % 1023,6 hPa 0,0 mm 1,1 km/h (1 Bft) O-NO 62 ° 0 min 0,000 mm 0,0 UV-I 0 W/m² 5,6 °C 6,5 °C 3,2 km/h (1 Bft)
02.11.2018 19:07 6,5 °C 94 % 1023,6 hPa 0,0 mm 0,4 km/h (0 Bft) O-NO 62 ° 0 min 0,000 mm 0,0 UV-I 0 W/m² 5,6 °C 6,5 °C 3,2 km/h (1 Bft)
02.11.2018 19:08 6,5 °C 94 % 1023,7 hPa 0,0 mm 2,9 km/h (1 Bft) O-NO 62 ° 0 min 0,000 mm 0,0 UV-I 0 W/m² 5,6 °C 6,5 °C 4,8 km/h (1 Bft)
02.11.2018 19:09 6,5 °C 94 % 1023,7 hPa 0,0 mm 0,1 km/h (0 Bft) O-NO 62 ° 0 min 0,000 mm 0,0 UV-I 0 W/m² 5,6 °C 6,5 °C 1,6 km/h (1 Bft)
02.11.2018 19:10 6,5 °C 94 % 1023,7 hPa 0,0 mm 0,0 km/h (0 Bft) O-NO 62 ° 0 min 0,000 mm 0,0 UV-I 0 W/m² 5,6 °C 6,5 °C 0,0 km/h (0 Bft)
02.11.2018 19:11 6,5 °C 94 % 1023,7 hPa 0,0 mm 0,1 km/h (0 Bft) O-NO 62 ° 0 min 0,000 mm 0,0 UV-I 0 W/m² 5,6 °C 6,5 °C 1,6 km/h (1 Bft)
02.11.2018 19:12 6,5 °C 94 % 1023,7 hPa 0,0 mm 0,0 km/h (0 Bft) O-NO 62 ° 0 min 0,000 mm 0,0 UV-I 0 W/m² 5,6 °C 6,5 °C 0,0 km/h (0 Bft)
02.11.2018 19:13 6,5 °C 94 % 1023,7 hPa 0,0 mm 0,0 km/h (0 Bft) O-NO 62 ° 0 min 0,000 mm 0,0 UV-I 0 W/m² 5,6 °C 6,5 °C 0,0 km/h (0 Bft)
02.11.2018 19:14 6,5 °C 94 % 1023,7 hPa 0,0 mm 0,0 km/h (0 Bft) O-NO 62 ° 0 min 0,000 mm 0,0 UV-I 0 W/m² 5,6 °C 6,5 °C 0,0 km/h (0 Bft)
02.11.2018 19:15 6,5 °C 94 % 1023,7 hPa 0,0 mm 0,0 km/h (0 Bft) O-NO 62 ° 0 min 0,000 mm 0,0 UV-I 0 W/m² 5,6 °C 6,5 °C 0,0 km/h (0 Bft)
02.11.2018 19:16 6,5 °C 94 % 1023,7 hPa 0,0 mm 0,0 km/h (0 Bft) O-NO 62 ° 0 min 0,000 mm 0,0 UV-I 0 W/m² 5,6 °C 6,5 °C 0,0 km/h (0 Bft)
02.11.2018 19:17 6,5 °C 94 % 1023,7 hPa 0,0 mm 0,0 km/h (0 Bft) O-NO 62 ° 0 min 0,000 mm 0,0 UV-I 0 W/m² 5,6 °C 6,5 °C 0,0 km/h (0 Bft)
02.11.2018 19:18 6,6 °C 94 % 1023,7 hPa 0,0 mm 0,0 km/h (0 Bft) O-NO 62 ° 0 min 0,000 mm 0,0 UV-I 0 W/m² 5,7 °C 6,6 °C 0,0 km/h (0 Bft)
02.11.2018 19:19 6,5 °C 94 % 1023,7 hPa 0,0 mm 0,0 km/h (0 Bft) O-NO 62 ° 0 min 0,000 mm 0,0 UV-I 0 W/m² 5,6 °C 6,5 °C 0,0 km/h (0 Bft)
02.11.2018 19:20 6,5 °C 94 % 1023,7 hPa 0,0 mm 0,0 km/h (0 Bft) O-NO 62 ° 0 min 0,000 mm 0,0 UV-I 0 W/m² 5,6 °C 6,5 °C 0,0 km/h (0 Bft)
02.11.2018 19:21 6,5 °C 94 % 1023,7 hPa 0,0 mm 0,0 km/h (0 Bft) O-NO 62 ° 0 min 0,000 mm 0,0 UV-I 0 W/m² 5,6 °C 6,5 °C 0,0 km/h (0 Bft)
02.11.2018 19:22 6,5 °C 94 % 1023,7 hPa 0,0 mm 0,0 km/h (0 Bft) O-NO 62 ° 0 min 0,000 mm 0,0 UV-I 0 W/m² 5,6 °C 6,5 °C 0,0 km/h (0 Bft)
02.11.2018 19:23 6,5 °C 94 % 1023,7 hPa 0,0 mm 0,0 km/h (0 Bft) O-NO 62 ° 0 min 0,000 mm 0,0 UV-I 0 W/m² 5,6 °C 6,5 °C 0,0 km/h (0 Bft)
02.11.2018 19:24 6,5 °C 94 % 1023,7 hPa 0,0 mm 0,0 km/h (0 Bft) O-NO 62 ° 0 min 0,000 mm 0,0 UV-I 0 W/m² 5,6 °C 6,5 °C 0,0 km/h (0 Bft)
02.11.2018 19:25 6,5 °C 94 % 1023,8 hPa 0,0 mm 0,0 km/h (0 Bft) O-NO 62 ° 0 min 0,000 mm 0,0 UV-I 0 W/m² 5,6 °C 6,5 °C 0,0 km/h (0 Bft)
02.11.2018 19:26 6,5 °C 94 % 1023,8 hPa 0,0 mm 0,0 km/h (0 Bft) O-NO 62 ° 0 min 0,000 mm 0,0 UV-I 0 W/m² 5,6 °C 6,5 °C 0,0 km/h (0 Bft)
02.11.2018 19:27 6,5 °C 94 % 1023,8 hPa 0,0 mm 0,0 km/h (0 Bft) O-NO 62 ° 0 min 0,000 mm 0,0 UV-I 0 W/m² 5,6 °C 6,5 °C 0,0 km/h (0 Bft)
02.11.2018 19:28 6,4 °C 94 % 1023,8 hPa 0,0 mm 0,0 km/h (0 Bft) O-NO 62 ° 0 min 0,000 mm 0,0 UV-I 0 W/m² 5,5 °C 6,4 °C 0,0 km/h (0 Bft)
02.11.2018 19:29 6,4 °C 94 % 1023,8 hPa 0,0 mm 0,0 km/h (0 Bft) O-NO 62 ° 0 min 0,000 mm 0,0 UV-I 0 W/m² 5,5 °C 6,4 °C 0,0 km/h (0 Bft)
02.11.2018 19:30 6,5 °C 94 % 1023,9 hPa 0,0 mm 0,0 km/h (0 Bft) O-NO 62 ° 0 min 0,000 mm 0,0 UV-I 0 W/m² 5,6 °C 6,5 °C 0,0 km/h (0 Bft)
02.11.2018 19:31 6,5 °C 94 % 1023,9 hPa 0,0 mm 0,0 km/h (0 Bft) O-NO 62 ° 0 min 0,000 mm 0,0 UV-I 0 W/m² 5,6 °C 6,5 °C 0,0 km/h (0 Bft)
02.11.2018 19:32 6,5 °C 94 % 1023,9 hPa 0,0 mm 0,0 km/h (0 Bft) O-NO 62 ° 0 min 0,000 mm 0,0 UV-I 0 W/m² 5,6 °C 6,5 °C 0,0 km/h (0 Bft)
02.11.2018 19:33 6,5 °C 94 % 1023,9 hPa 0,0 mm 0,0 km/h (0 Bft) O-NO 62 ° 0 min 0,000 mm 0,0 UV-I 0 W/m² 5,6 °C 6,5 °C 0,0 km/h (0 Bft)
02.11.2018 19:34 6,4 °C 94 % 1023,9 hPa 0,0 mm 0,0 km/h (0 Bft) O-NO 62 ° 0 min 0,000 mm 0,0 UV-I 0 W/m² 5,5 °C 6,4 °C 0,0 km/h (0 Bft)
02.11.2018 19:35 6,5 °C 94 % 1023,9 hPa 0,0 mm 0,0 km/h (0 Bft) O-NO 62 ° 0 min 0,000 mm 0,0 UV-I 0 W/m² 5,6 °C 6,5 °C 0,0 km/h (0 Bft)
02.11.2018 19:36 6,5 °C 94 % 1023,9 hPa 0,0 mm 0,0 km/h (0 Bft) O-NO 62 ° 0 min 0,000 mm 0,0 UV-I 0 W/m² 5,6 °C 6,5 °C 0,0 km/h (0 Bft)
02.11.2018 19:37 6,4 °C 94 % 1023,9 hPa 0,0 mm 0,0 km/h (0 Bft) O-NO 62 ° 0 min 0,000 mm 0,0 UV-I 0 W/m² 5,5 °C 6,4 °C 0,0 km/h (0 Bft)
02.11.2018 19:38 6,4 °C 94 % 1023,9 hPa 0,0 mm 0,0 km/h (0 Bft) O-NO 62 ° 0 min 0,000 mm 0,0 UV-I 0 W/m² 5,5 °C 6,4 °C 0,0 km/h (0 Bft)
02.11.2018 19:39 6,5 °C 94 % 1023,9 hPa 0,0 mm 0,0 km/h (0 Bft) O-NO 62 ° 0 min 0,000 mm 0,0 UV-I 0 W/m² 5,6 °C 6,5 °C 0,0 km/h (0 Bft)
02.11.2018 19:40 6,4 °C 94 % 1023,9 hPa 0,0 mm 0,0 km/h (0 Bft) O-NO 62 ° 0 min 0,000 mm 0,0 UV-I 0 W/m² 5,5 °C 6,4 °C 0,0 km/h (0 Bft)
02.11.2018 19:41 6,4 °C 94 % 1023,8 hPa 0,0 mm 0,0 km/h (0 Bft) O-NO 62 ° 0 min 0,000 mm 0,0 UV-I 0 W/m² 5,5 °C 6,4 °C 0,0 km/h (0 Bft)
02.11.2018 19:42 6,5 °C 94 % 1023,8 hPa 0,0 mm 0,0 km/h (0 Bft) O-NO 62 ° 0 min 0,000 mm 0,0 UV-I 0 W/m² 5,6 °C 6,5 °C 0,0 km/h (0 Bft)
02.11.2018 19:43 6,5 °C 94 % 1023,8 hPa 0,0 mm 0,0 km/h (0 Bft) O-NO 62 ° 0 min 0,000 mm 0,0 UV-I 0 W/m² 5,6 °C 6,5 °C 0,0 km/h (0 Bft)
02.11.2018 19:44 6,5 °C 94 % 1023,8 hPa 0,0 mm 0,0 km/h (0 Bft) O-NO 62 ° 0 min 0,000 mm 0,0 UV-I 0 W/m² 5,6 °C 6,5 °C 0,0 km/h (0 Bft)
02.11.2018 19:45 6,5 °C 94 % 1023,8 hPa 0,0 mm 0,0 km/h (0 Bft) O-NO 62 ° 0 min 0,000 mm 0,0 UV-I 0 W/m² 5,6 °C 6,5 °C 0,0 km/h (0 Bft)
02.11.2018 19:46 6,5 °C 94 % 1023,8 hPa 0,0 mm 0,0 km/h (0 Bft) O-NO 62 ° 0 min 0,000 mm 0,0 UV-I 0 W/m² 5,6 °C 6,5 °C 0,0 km/h (0 Bft)
02.11.2018 19:47 6,4 °C 94 % 1023,8 hPa 0,0 mm 0,0 km/h (0 Bft) O-NO 62 ° 0 min 0,000 mm 0,0 UV-I 0 W/m² 5,5 °C 6,4 °C 0,0 km/h (0 Bft)
02.11.2018 19:48 6,4 °C 94 % 1023,8 hPa 0,0 mm 0,0 km/h (0 Bft) O-NO 62 ° 0 min 0,000 mm 0,0 UV-I 0 W/m² 5,5 °C 6,4 °C 0,0 km/h (0 Bft)
02.11.2018 19:49 6,4 °C 94 % 1023,9 hPa 0,0 mm 0,0 km/h (0 Bft) O-NO 62 ° 0 min 0,000 mm 0,0 UV-I 0 W/m² 5,5 °C 6,4 °C 0,0 km/h (0 Bft)
02.11.2018 19:50 6,5 °C 94 % 1023,9 hPa 0,0 mm 0,0 km/h (0 Bft) O-NO 62 ° 0 min 0,000 mm 0,0 UV-I 0 W/m² 5,6 °C 6,5 °C 0,0 km/h (0 Bft)
02.11.2018 19:51 6,5 °C 94 % 1023,9 hPa 0,0 mm 0,0 km/h (0 Bft) O-NO 62 ° 0 min 0,000 mm 0,0 UV-I 0 W/m² 5,6 °C 6,5 °C 0,0 km/h (0 Bft)
02.11.2018 19:52 6,5 °C 94 % 1023,9 hPa 0,0 mm 0,0 km/h (0 Bft) O-NO 62 ° 0 min 0,000 mm 0,0 UV-I 0 W/m² 5,6 °C 6,5 °C 0,0 km/h (0 Bft)
02.11.2018 19:53 6,5 °C 94 % 1023,9 hPa 0,0 mm 0,0 km/h (0 Bft) O-NO 62 ° 0 min 0,000 mm 0,0 UV-I 0 W/m² 5,6 °C 6,5 °C 0,0 km/h (0 Bft)
02.11.2018 19:54 6,5 °C 94 % 1023,9 hPa 0,0 mm 0,0 km/h (0 Bft) O-NO 62 ° 0 min 0,000 mm 0,0 UV-I 0 W/m² 5,6 °C 6,5 °C 0,0 km/h (0 Bft)
02.11.2018 19:55 6,5 °C 94 % 1023,9 hPa 0,0 mm 0,0 km/h (0 Bft) O-NO 62 ° 0 min 0,000 mm 0,0 UV-I 0 W/m² 5,6 °C 6,5 °C 0,0 km/h (0 Bft)
02.11.2018 19:56 6,5 °C 94 % 1023,9 hPa 0,0 mm 0,0 km/h (0 Bft) O-NO 62 ° 0 min 0,000 mm 0,0 UV-I 0 W/m² 5,6 °C 6,5 °C 0,0 km/h (0 Bft)
02.11.2018 19:57 6,6 °C 94 % 1023,9 hPa 0,0 mm 0,0 km/h (0 Bft) O-NO 62 ° 0 min 0,000 mm 0,0 UV-I 0 W/m² 5,7 °C 6,6 °C 0,0 km/h (0 Bft)
02.11.2018 19:58 6,5 °C 94 % 1023,9 hPa 0,0 mm 0,0 km/h (0 Bft) O-NO 62 ° 0 min 0,000 mm 0,0 UV-I 0 W/m² 5,6 °C 6,5 °C 0,0 km/h (0 Bft)
02.11.2018 19:59 6,5 °C 94 % 1023,8 hPa 0,0 mm 0,0 km/h (0 Bft) O-NO 62 ° 0 min 0,000 mm 0,0 UV-I 0 W/m² 5,6 °C 6,5 °C 0,0 km/h (0 Bft)
02.11.2018 20:00 6,5 °C 94 % 1023,8 hPa 0,0 mm 0,0 km/h (0 Bft) O-NO 62 ° 0 min 0,000 mm 0,0 UV-I 0 W/m² 5,6 °C 6,5 °C 0,0 km/h (0 Bft)
02.11.2018 20:01 6,5 °C 94 % 1023,8 hPa 0,0 mm 0,0 km/h (0 Bft) O-NO 62 ° 0 min 0,000 mm 0,0 UV-I 0 W/m² 5,6 °C 6,5 °C 0,0 km/h (0 Bft)
02.11.2018 20:02 6,5 °C 94 % 1023,9 hPa 0,0 mm 0,0 km/h (0 Bft) O-NO 62 ° 0 min 0,000 mm 0,0 UV-I 0 W/m² 5,6 °C 6,5 °C 0,0 km/h (0 Bft)
02.11.2018 20:03 6,5 °C 94 % 1023,8 hPa 0,0 mm 0,0 km/h (0 Bft) O-NO 62 ° 0 min 0,000 mm 0,0 UV-I 0 W/m² 5,6 °C 6,5 °C 0,0 km/h (0 Bft)
02.11.2018 20:04 6,6 °C 94 % 1023,8 hPa 0,0 mm 0,0 km/h (0 Bft) O-NO 62 ° 0 min 0,000 mm 0,0 UV-I 0 W/m² 5,7 °C 6,6 °C 0,0 km/h (0 Bft)
02.11.2018 20:05 6,5 °C 94 % 1023,8 hPa 0,0 mm 0,0 km/h (0 Bft) O-NO 62 ° 0 min 0,000 mm 0,0 UV-I 0 W/m² 5,6 °C 6,5 °C 0,0 km/h (0 Bft)
02.11.2018 20:06 6,5 °C 94 % 1023,8 hPa 0,0 mm 0,0 km/h (0 Bft) O-NO 62 ° 0 min 0,000 mm 0,0 UV-I 0 W/m² 5,6 °C 6,5 °C 0,0 km/h (0 Bft)
02.11.2018 20:07 6,5 °C 94 % 1023,9 hPa 0,0 mm 0,0 km/h (0 Bft) O-NO 62 ° 0 min 0,000 mm 0,0 UV-I 0 W/m² 5,6 °C 6,5 °C 0,0 km/h (0 Bft)
02.11.2018 20:08 6,5 °C 94 % 1023,9 hPa 0,0 mm 0,0 km/h (0 Bft) O-NO 62 ° 0 min 0,000 mm 0,0 UV-I 0 W/m² 5,6 °C 6,5 °C 0,0 km/h (0 Bft)
02.11.2018 20:09 6,5 °C 94 % 1023,9 hPa 0,0 mm 0,0 km/h (0 Bft) O-NO 62 ° 0 min 0,000 mm 0,0 UV-I 0 W/m² 5,6 °C 6,5 °C 0,0 km/h (0 Bft)
02.11.2018 20:10 6,5 °C 94 % 1023,9 hPa 0,0 mm 0,0 km/h (0 Bft) O-NO 62 ° 0 min 0,000 mm 0,0 UV-I 0 W/m² 5,6 °C 6,5 °C 0,0 km/h (0 Bft)
02.11.2018 20:11 6,5 °C 94 % 1023,9 hPa 0,0 mm 0,0 km/h (0 Bft) O-NO 62 ° 0 min 0,000 mm 0,0 UV-I 0 W/m² 5,6 °C 6,5 °C 0,0 km/h (0 Bft)
02.11.2018 20:12 6,5 °C 94 % 1024,0 hPa 0,0 mm 0,0 km/h (0 Bft) O-NO 62 ° 0 min 0,000 mm 0,0 UV-I 0 W/m² 5,6 °C 6,5 °C 0,0 km/h (0 Bft)
02.11.2018 20:13 6,5 °C 94 % 1023,9 hPa 0,0 mm 0,0 km/h (0 Bft) O-NO 62 ° 0 min 0,000 mm 0,0 UV-I 0 W/m² 5,6 °C 6,5 °C 0,0 km/h (0 Bft)
02.11.2018 20:14 6,5 °C 94 % 1023,9 hPa 0,0 mm 0,0 km/h (0 Bft) O-NO 62 ° 0 min 0,000 mm 0,0 UV-I 0 W/m² 5,6 °C 6,5 °C 0,0 km/h (0 Bft)
02.11.2018 20:15 6,5 °C 94 % 1023,9 hPa 0,0 mm 0,0 km/h (0 Bft) O-NO 62 ° 0 min 0,000 mm 0,0 UV-I 0 W/m² 5,6 °C 6,5 °C 0,0 km/h (0 Bft)
02.11.2018 20:16 6,5 °C 94 % 1023,9 hPa 0,0 mm 0,0 km/h (0 Bft) O-NO 62 ° 0 min 0,000 mm 0,0 UV-I 0 W/m² 5,6 °C 6,5 °C 0,0 km/h (0 Bft)
02.11.2018 20:17 6,4 °C 94 % 1023,9 hPa 0,0 mm 0,0 km/h (0 Bft) O-NO 62 ° 0 min 0,000 mm 0,0 UV-I 0 W/m² 5,5 °C 6,4 °C 0,0 km/h (0 Bft)
02.11.2018 20:18 6,4 °C 94 % 1023,9 hPa 0,0 mm 0,0 km/h (0 Bft) O-NO 62 ° 0 min 0,000 mm 0,0 UV-I 0 W/m² 5,5 °C 6,4 °C 0,0 km/h (0 Bft)
02.11.2018 20:19 6,4 °C 94 % 1023,9 hPa 0,0 mm 0,0 km/h (0 Bft) O-NO 62 ° 0 min 0,000 mm 0,0 UV-I 0 W/m² 5,5 °C 6,4 °C 0,0 km/h (0 Bft)
02.11.2018 20:20 6,4 °C 94 % 1023,9 hPa 0,0 mm 0,0 km/h (0 Bft) O-NO 62 ° 0 min 0,000 mm 0,0 UV-I 0 W/m² 5,5 °C 6,4 °C 0,0 km/h (0 Bft)
02.11.2018 20:21 6,4 °C 94 % 1023,9 hPa 0,0 mm 0,0 km/h (0 Bft) O-NO 62 ° 0 min 0,000 mm 0,0 UV-I 0 W/m² 5,5 °C 6,4 °C 0,0 km/h (0 Bft)
02.11.2018 20:22 6,4 °C 94 % 1023,9 hPa 0,0 mm 0,0 km/h (0 Bft) O-NO 62 ° 0 min 0,000 mm 0,0 UV-I 0 W/m² 5,5 °C 6,4 °C 0,0 km/h (0 Bft)
02.11.2018 20:23 6,4 °C 94 % 1023,9 hPa 0,0 mm 0,0 km/h (0 Bft) O-NO 62 ° 0 min 0,000 mm 0,0 UV-I 0 W/m² 5,5 °C 6,4 °C 0,0 km/h (0 Bft)
02.11.2018 20:24 6,4 °C 94 % 1023,9 hPa 0,0 mm 0,0 km/h (0 Bft) O-NO 62 ° 0 min 0,000 mm 0,0 UV-I 0 W/m² 5,5 °C 6,4 °C 0,0 km/h (0 Bft)
02.11.2018 20:25 6,4 °C 94 % 1023,9 hPa 0,0 mm 0,0 km/h (0 Bft) O-NO 62 ° 0 min 0,000 mm 0,0 UV-I 0 W/m² 5,5 °C 6,4 °C 0,0 km/h (0 Bft)
02.11.2018 20:26 6,4 °C 94 % 1024,0 hPa 0,0 mm 0,0 km/h (0 Bft) O-NO 62 ° 0 min 0,000 mm 0,0 UV-I 0 W/m² 5,5 °C 6,4 °C 0,0 km/h (0 Bft)
02.11.2018 20:27 6,4 °C 94 % 1023,9 hPa 0,0 mm 0,0 km/h (0 Bft) O-NO 62 ° 0 min 0,000 mm 0,0 UV-I 0 W/m² 5,5 °C 6,4 °C 0,0 km/h (0 Bft)
02.11.2018 20:28 6,4 °C 94 % 1023,9 hPa 0,0 mm 0,0 km/h (0 Bft) O-NO 62 ° 0 min 0,000 mm 0,0 UV-I 0 W/m² 5,5 °C 6,4 °C 0,0 km/h (0 Bft)
02.11.2018 20:29 6,4 °C 94 % 1023,9 hPa 0,0 mm 0,0 km/h (0 Bft) O-NO 62 ° 0 min 0,000 mm 0,0 UV-I 0 W/m² 5,5 °C 6,4 °C 0,0 km/h (0 Bft)
02.11.2018 20:30 6,4 °C 94 % 1024,0 hPa 0,0 mm 0,0 km/h (0 Bft) O-NO 62 ° 0 min 0,000 mm 0,0 UV-I 0 W/m² 5,5 °C 6,4 °C 0,0 km/h (0 Bft)
02.11.2018 20:31 6,4 °C 94 % 1024,0 hPa 0,0 mm 0,0 km/h (0 Bft) O-NO 62 ° 0 min 0,000 mm 0,0 UV-I 0 W/m² 5,5 °C 6,4 °C 0,0 km/h (0 Bft)
02.11.2018 20:32 6,4 °C 94 % 1024,0 hPa 0,0 mm 0,0 km/h (0 Bft) O-NO 62 ° 0 min 0,000 mm 0,0 UV-I 0 W/m² 5,5 °C 6,4 °C 0,0 km/h (0 Bft)
02.11.2018 20:33 6,4 °C 94 % 1024,0 hPa 0,0 mm 0,0 km/h (0 Bft) O-NO 62 ° 0 min 0,000 mm 0,0 UV-I 0 W/m² 5,5 °C 6,4 °C 0,0 km/h (0 Bft)
02.11.2018 20:34 6,4 °C 94 % 1024,0 hPa 0,0 mm 0,0 km/h (0 Bft) O-NO 62 ° 0 min 0,000 mm 0,0 UV-I 0 W/m² 5,5 °C 6,4 °C 0,0 km/h (0 Bft)
02.11.2018 20:35 6,4 °C 94 % 1024,1 hPa 0,0 mm 0,0 km/h (0 Bft) O-NO 62 ° 0 min 0,000 mm 0,0 UV-I 0 W/m² 5,5 °C 6,4 °C 0,0 km/h (0 Bft)
02.11.2018 20:36 6,4 °C 94 % 1024,1 hPa 0,0 mm 0,0 km/h (0 Bft) O-NO 62 ° 0 min 0,000 mm 0,0 UV-I 0 W/m² 5,5 °C 6,4 °C 0,0 km/h (0 Bft)
02.11.2018 20:37 6,4 °C 94 % 1024,1 hPa 0,0 mm 0,0 km/h (0 Bft) O-NO 62 ° 0 min 0,000 mm 0,0 UV-I 0 W/m² 5,5 °C 6,4 °C 0,0 km/h (0 Bft)
02.11.2018 20:38 6,4 °C 94 % 1024,1 hPa 0,0 mm 0,0 km/h (0 Bft) O-NO 62 ° 0 min 0,000 mm 0,0 UV-I 0 W/m² 5,5 °C 6,4 °C 0,0 km/h (0 Bft)
02.11.2018 20:39 6,4 °C 94 % 1024,1 hPa 0,0 mm 0,0 km/h (0 Bft) O-NO 62 ° 0 min 0,000 mm 0,0 UV-I 0 W/m² 5,5 °C 6,4 °C 0,0 km/h (0 Bft)
02.11.2018 20:40 6,4 °C 94 % 1024,1 hPa 0,0 mm 0,0 km/h (0 Bft) O-NO 62 ° 0 min 0,000 mm 0,0 UV-I 0 W/m² 5,5 °C 6,4 °C 0,0 km/h (0 Bft)
02.11.2018 20:41 6,3 °C 94 % 1024,1 hPa 0,0 mm 0,0 km/h (0 Bft) O-NO 62 ° 0 min 0,000 mm 0,0 UV-I 0 W/m² 5,4 °C 6,3 °C 0,0 km/h (0 Bft)
02.11.2018 20:42 6,3 °C 94 % 1024,1 hPa 0,0 mm 0,0 km/h (0 Bft) O-NO 62 ° 0 min 0,000 mm 0,0 UV-I 0 W/m² 5,4 °C 6,3 °C 0,0 km/h (0 Bft)
02.11.2018 20:43 6,4 °C 94 % 1024,1 hPa 0,0 mm 0,0 km/h (0 Bft) O-NO 62 ° 0 min 0,000 mm 0,0 UV-I 0 W/m² 5,5 °C 6,4 °C 0,0 km/h (0 Bft)
02.11.2018 20:44 6,3 °C 94 % 1024,2 hPa 0,0 mm 0,0 km/h (0 Bft) O-NO 62 ° 0 min 0,000 mm 0,0 UV-I 0 W/m² 5,4 °C 6,3 °C 0,0 km/h (0 Bft)
02.11.2018 20:45 6,3 °C 94 % 1024,2 hPa 0,0 mm 0,0 km/h (0 Bft) O-NO 62 ° 0 min 0,000 mm 0,0 UV-I 0 W/m² 5,4 °C 6,3 °C 0,0 km/h (0 Bft)
02.11.2018 20:46 6,3 °C 94 % 1024,2 hPa 0,0 mm 0,0 km/h (0 Bft) O-NO 62 ° 0 min 0,000 mm 0,0 UV-I 0 W/m² 5,4 °C 6,3 °C 0,0 km/h (0 Bft)
02.11.2018 20:47 6,3 °C 94 % 1024,2 hPa 0,0 mm 0,0 km/h (0 Bft) O-NO 62 ° 0 min 0,000 mm 0,0 UV-I 0 W/m² 5,4 °C 6,3 °C 0,0 km/h (0 Bft)
02.11.2018 20:48 6,3 °C 94 % 1024,2 hPa 0,0 mm 0,0 km/h (0 Bft) O-NO 62 ° 0 min 0,000 mm 0,0 UV-I 0 W/m² 5,4 °C 6,3 °C 0,0 km/h (0 Bft)
02.11.2018 20:49 6,3 °C 94 % 1024,2 hPa 0,0 mm 0,0 km/h (0 Bft) O-NO 62 ° 0 min 0,000 mm 0,0 UV-I 0 W/m² 5,4 °C 6,3 °C 0,0 km/h (0 Bft)
02.11.2018 20:50 6,3 °C 94 % 1024,3 hPa 0,0 mm 0,0 km/h (0 Bft) O-NO 62 ° 0 min 0,000 mm 0,0 UV-I 0 W/m² 5,4 °C 6,3 °C 0,0 km/h (0 Bft)
02.11.2018 20:51 6,2 °C 94 % 1024,3 hPa 0,0 mm 0,0 km/h (0 Bft) O-NO 62 ° 0 min 0,000 mm 0,0 UV-I 0 W/m² 5,3 °C 6,2 °C 0,0 km/h (0 Bft)
02.11.2018 20:52 6,3 °C 94 % 1024,3 hPa 0,0 mm 0,0 km/h (0 Bft) O-NO 62 ° 0 min 0,000 mm 0,0 UV-I 0 W/m² 5,4 °C 6,3 °C 0,0 km/h (0 Bft)
02.11.2018 20:53 6,2 °C 95 % 1024,3 hPa 0,0 mm 0,0 km/h (0 Bft) O-NO 62 ° 0 min 0,000 mm 0,0 UV-I 0 W/m² 5,5 °C 6,2 °C 0,0 km/h (0 Bft)
02.11.2018 20:54 6,2 °C 95 % 1024,3 hPa 0,0 mm 0,0 km/h (0 Bft) O-NO 62 ° 0 min 0,000 mm 0,0 UV-I 0 W/m² 5,5 °C 6,2 °C 0,0 km/h (0 Bft)
02.11.2018 20:55 6,2 °C 95 % 1024,3 hPa 0,0 mm 0,0 km/h (0 Bft) O-NO 62 ° 0 min 0,000 mm 0,0 UV-I 0 W/m² 5,5 °C 6,2 °C 0,0 km/h (0 Bft)
02.11.2018 20:56 6,3 °C 95 % 1024,3 hPa 0,0 mm 0,0 km/h (0 Bft) O-NO 62 ° 0 min 0,000 mm 0,0 UV-I 0 W/m² 5,6 °C 6,3 °C 0,0 km/h (0 Bft)
02.11.2018 20:57 6,2 °C 95 % 1024,4 hPa 0,0 mm 0,0 km/h (0 Bft) O-NO 62 ° 0 min 0,000 mm 0,0 UV-I 0 W/m² 5,5 °C 6,2 °C 0,0 km/h (0 Bft)
02.11.2018 20:58 6,3 °C 95 % 1024,4 hPa 0,0 mm 0,0 km/h (0 Bft) O-NO 62 ° 0 min 0,000 mm 0,0 UV-I 0 W/m² 5,6 °C 6,3 °C 0,0 km/h (0 Bft)
02.11.2018 20:59 6,2 °C 95 % 1024,4 hPa 0,0 mm 0,0 km/h (0 Bft) O-NO 62 ° 0 min 0,000 mm 0,0 UV-I 0 W/m² 5,5 °C 6,2 °C 0,0 km/h (0 Bft)
02.11.2018 21:00 6,2 °C 95 % 1024,5 hPa 0,0 mm 0,0 km/h (0 Bft) O-NO 62 ° 0 min 0,000 mm 0,0 UV-I 0 W/m² 5,5 °C 6,2 °C 0,0 km/h (0 Bft)
02.11.2018 21:01 6,2 °C 95 % 1024,4 hPa 0,0 mm 0,0 km/h (0 Bft) O-NO 62 ° 0 min 0,000 mm 0,0 UV-I 0 W/m² 5,5 °C 6,2 °C 0,0 km/h (0 Bft)
02.11.2018 21:02 6,2 °C 95 % 1024,4 hPa 0,0 mm 0,0 km/h (0 Bft) O-NO 62 ° 0 min 0,000 mm 0,0 UV-I 0 W/m² 5,5 °C 6,2 °C 0,0 km/h (0 Bft)
02.11.2018 21:03 6,2 °C 94 % 1024,4 hPa 0,0 mm 0,0 km/h (0 Bft) O-NO 62 ° 0 min 0,000 mm 0,0 UV-I 0 W/m² 5,3 °C 6,2 °C 0,0 km/h (0 Bft)
02.11.2018 21:04 6,2 °C 95 % 1024,4 hPa 0,0 mm 0,0 km/h (0 Bft) O-NO 62 ° 0 min 0,000 mm 0,0 UV-I 0 W/m² 5,5 °C 6,2 °C 0,0 km/h (0 Bft)
02.11.2018 21:05 6,2 °C 94 % 1024,4 hPa 0,0 mm 0,0 km/h (0 Bft) O-NO 62 ° 0 min 0,000 mm 0,0 UV-I 0 W/m² 5,3 °C 6,2 °C 0,0 km/h (0 Bft)
02.11.2018 21:06 6,2 °C 95 % 1024,5 hPa 0,0 mm 0,0 km/h (0 Bft) O-NO 62 ° 0 min 0,000 mm 0,0 UV-I 0 W/m² 5,5 °C 6,2 °C 0,0 km/h (0 Bft)
02.11.2018 21:07 6,2 °C 95 % 1024,4 hPa 0,0 mm 0,0 km/h (0 Bft) O-NO 62 ° 0 min 0,000 mm 0,0 UV-I 0 W/m² 5,5 °C 6,2 °C 0,0 km/h (0 Bft)
02.11.2018 21:08 6,2 °C 95 % 1024,4 hPa 0,0 mm 0,0 km/h (0 Bft) O-NO 62 ° 0 min 0,000 mm 0,0 UV-I 0 W/m² 5,5 °C 6,2 °C 0,0 km/h (0 Bft)
02.11.2018 21:09 6,2 °C 95 % 1024,4 hPa 0,0 mm 0,0 km/h (0 Bft) O-NO 62 ° 0 min 0,000 mm 0,0 UV-I 0 W/m² 5,5 °C 6,2 °C 0,0 km/h (0 Bft)
02.11.2018 21:10 6,2 °C 94 % 1024,4 hPa 0,0 mm 0,0 km/h (0 Bft) O-NO 62 ° 0 min 0,000 mm 0,0 UV-I 0 W/m² 5,3 °C 6,2 °C 0,0 km/h (0 Bft)
02.11.2018 21:11 6,2 °C 95 % 1024,4 hPa 0,0 mm 0,0 km/h (0 Bft) O-NO 62 ° 0 min 0,000 mm 0,0 UV-I 0 W/m² 5,5 °C 6,2 °C 0,0 km/h (0 Bft)
02.11.2018 21:12 6,2 °C 95 % 1024,4 hPa 0,0 mm 0,0 km/h (0 Bft) O-NO 62 ° 0 min 0,000 mm 0,0 UV-I 0 W/m² 5,5 °C 6,2 °C 0,0 km/h (0 Bft)
02.11.2018 21:13 6,2 °C 94 % 1024,4 hPa 0,0 mm 0,0 km/h (0 Bft) O-NO 62 ° 0 min 0,000 mm 0,0 UV-I 0 W/m² 5,3 °C 6,2 °C 0,0 km/h (0 Bft)
02.11.2018 21:14 6,1 °C 95 % 1024,4 hPa 0,0 mm 0,0 km/h (0 Bft) O-NO 62 ° 0 min 0,000 mm 0,0 UV-I 0 W/m² 5,4 °C 6,1 °C 0,0 km/h (0 Bft)
02.11.2018 21:15 6,1 °C 94 % 1024,4 hPa 0,0 mm 0,0 km/h (0 Bft) O-NO 62 ° 0 min 0,000 mm 0,0 UV-I 0 W/m² 5,2 °C 6,1 °C 0,0 km/h (0 Bft)
02.11.2018 21:16 6,1 °C 94 % 1024,4 hPa 0,0 mm 0,0 km/h (0 Bft) O-NO 62 ° 0 min 0,000 mm 0,0 UV-I 0 W/m² 5,2 °C 6,1 °C 0,0 km/h (0 Bft)
02.11.2018 21:17 6,1 °C 94 % 1024,4 hPa 0,0 mm 0,0 km/h (0 Bft) O-NO 62 ° 0 min 0,000 mm 0,0 UV-I 0 W/m² 5,2 °C 6,1 °C 0,0 km/h (0 Bft)
02.11.2018 21:18 6,1 °C 94 % 1024,4 hPa 0,0 mm 0,0 km/h (0 Bft) O-NO 62 ° 0 min 0,000 mm 0,0 UV-I 0 W/m² 5,2 °C 6,1 °C 0,0 km/h (0 Bft)
02.11.2018 21:19 6,1 °C 94 % 1024,4 hPa 0,0 mm 0,0 km/h (0 Bft) O-NO 62 ° 0 min 0,000 mm 0,0 UV-I 0 W/m² 5,2 °C 6,1 °C 0,0 km/h (0 Bft)
02.11.2018 21:20 6,0 °C 95 % 1024,4 hPa 0,0 mm 0,0 km/h (0 Bft) O-NO 62 ° 0 min 0,000 mm 0,0 UV-I 0 W/m² 5,3 °C 6,0 °C 0,0 km/h (0 Bft)
02.11.2018 21:21 6,0 °C 95 % 1024,4 hPa 0,0 mm 0,0 km/h (0 Bft) O-NO 62 ° 0 min 0,000 mm 0,0 UV-I 0 W/m² 5,3 °C 6,0 °C 0,0 km/h (0 Bft)
02.11.2018 21:22 5,9 °C 95 % 1024,4 hPa 0,0 mm 0,0 km/h (0 Bft) O-NO 62 ° 0 min 0,000 mm 0,0 UV-I 0 W/m² 5,2 °C 5,9 °C 0,0 km/h (0 Bft)
02.11.2018 21:23 5,9 °C 95 % 1024,4 hPa 0,0 mm 0,0 km/h (0 Bft) O-NO 62 ° 0 min 0,000 mm 0,0 UV-I 0 W/m² 5,2 °C 5,9 °C 0,0 km/h (0 Bft)
02.11.2018 21:24 5,9 °C 95 % 1024,5 hPa 0,0 mm 0,0 km/h (0 Bft) O-NO 62 ° 0 min 0,000 mm 0,0 UV-I 0 W/m² 5,2 °C 5,9 °C 0,0 km/h (0 Bft)
02.11.2018 21:25 5,9 °C 95 % 1024,5 hPa 0,0 mm 0,0 km/h (0 Bft) O-NO 62 ° 0 min 0,000 mm 0,0 UV-I 0 W/m² 5,2 °C 5,9 °C 0,0 km/h (0 Bft)
02.11.2018 21:26 5,9 °C 95 % 1024,5 hPa 0,0 mm 0,0 km/h (0 Bft) O-NO 62 ° 0 min 0,000 mm 0,0 UV-I 0 W/m² 5,2 °C 5,9 °C 0,0 km/h (0 Bft)
02.11.2018 21:27 5,9 °C 95 % 1024,6 hPa 0,0 mm 0,0 km/h (0 Bft) O-NO 62 ° 0 min 0,000 mm 0,0 UV-I 0 W/m² 5,2 °C 5,9 °C 0,0 km/h (0 Bft)
02.11.2018 21:28 5,9 °C 95 % 1024,6 hPa 0,0 mm 0,0 km/h (0 Bft) O-NO 62 ° 0 min 0,000 mm 0,0 UV-I 0 W/m² 5,2 °C 5,9 °C 0,0 km/h (0 Bft)
02.11.2018 21:29 5,9 °C 95 % 1024,5 hPa 0,0 mm 0,0 km/h (0 Bft) O-NO 62 ° 0 min 0,000 mm 0,0 UV-I 0 W/m² 5,2 °C 5,9 °C 0,0 km/h (0 Bft)
02.11.2018 21:30 5,9 °C 95 % 1024,5 hPa 0,0 mm 0,0 km/h (0 Bft) O-NO 62 ° 0 min 0,000 mm 0,0 UV-I 0 W/m² 5,2 °C 5,9 °C 0,0 km/h (0 Bft)
02.11.2018 21:31 5,9 °C 95 % 1024,6 hPa 0,0 mm 0,0 km/h (0 Bft) O-NO 62 ° 0 min 0,000 mm 0,0 UV-I 0 W/m² 5,2 °C 5,9 °C 0,0 km/h (0 Bft)
02.11.2018 21:32 5,9 °C 95 % 1024,6 hPa 0,0 mm 0,0 km/h (0 Bft) O-NO 62 ° 0 min 0,000 mm 0,0 UV-I 0 W/m² 5,2 °C 5,9 °C 0,0 km/h (0 Bft)
02.11.2018 21:33 5,9 °C 95 % 1024,6 hPa 0,0 mm 0,0 km/h (0 Bft) O-NO 62 ° 0 min 0,000 mm 0,0 UV-I 0 W/m² 5,2 °C 5,9 °C 0,0 km/h (0 Bft)
02.11.2018 21:34 5,9 °C 95 % 1024,6 hPa 0,0 mm 0,0 km/h (0 Bft) O-NO 62 ° 0 min 0,000 mm 0,0 UV-I 0 W/m² 5,2 °C 5,9 °C 0,0 km/h (0 Bft)
02.11.2018 21:35 5,9 °C 95 % 1024,6 hPa 0,0 mm 0,0 km/h (0 Bft) O-NO 62 ° 0 min 0,000 mm 0,0 UV-I 0 W/m² 5,2 °C 5,9 °C 0,0 km/h (0 Bft)
02.11.2018 21:36 5,9 °C 95 % 1024,6 hPa 0,0 mm 0,0 km/h (0 Bft) O-NO 62 ° 0 min 0,000 mm 0,0 UV-I 0 W/m² 5,2 °C 5,9 °C 0,0 km/h (0 Bft)
02.11.2018 21:37 5,9 °C 95 % 1024,6 hPa 0,0 mm 0,0 km/h (0 Bft) O-NO 62 ° 0 min 0,000 mm 0,0 UV-I 0 W/m² 5,2 °C 5,9 °C 0,0 km/h (0 Bft)
02.11.2018 21:38 5,9 °C 95 % 1024,7 hPa 0,0 mm 0,0 km/h (0 Bft) O-NO 62 ° 0 min 0,000 mm 0,0 UV-I 0 W/m² 5,2 °C 5,9 °C 0,0 km/h (0 Bft)
02.11.2018 21:39 5,9 °C 95 % 1024,7 hPa 0,0 mm 0,0 km/h (0 Bft) O-NO 62 ° 0 min 0,000 mm 0,0 UV-I 0 W/m² 5,2 °C 5,9 °C 0,0 km/h (0 Bft)
02.11.2018 21:40 5,9 °C 95 % 1024,7 hPa 0,0 mm 0,0 km/h (0 Bft) O-NO 62 ° 0 min 0,000 mm 0,0 UV-I 0 W/m² 5,2 °C 5,9 °C 0,0 km/h (0 Bft)
02.11.2018 21:41 5,9 °C 95 % 1024,8 hPa 0,0 mm 0,0 km/h (0 Bft) O-NO 62 ° 0 min 0,000 mm 0,0 UV-I 0 W/m² 5,2 °C 5,9 °C 0,0 km/h (0 Bft)
02.11.2018 21:42 6,0 °C 95 % 1024,8 hPa 0,0 mm 0,0 km/h (0 Bft) O-NO 62 ° 0 min 0,000 mm 0,0 UV-I 0 W/m² 5,3 °C 6,0 °C 0,0 km/h (0 Bft)
02.11.2018 21:43 6,0 °C 95 % 1024,8 hPa 0,0 mm 0,0 km/h (0 Bft) O-NO 62 ° 0 min 0,000 mm 0,0 UV-I 0 W/m² 5,3 °C 6,0 °C 0,0 km/h (0 Bft)
02.11.2018 21:44 6,0 °C 95 % 1024,9 hPa 0,0 mm 0,0 km/h (0 Bft) O-NO 62 ° 0 min 0,000 mm 0,0 UV-I 0 W/m² 5,3 °C 6,0 °C 0,0 km/h (0 Bft)
02.11.2018 21:45 6,0 °C 95 % 1024,9 hPa 0,0 mm 0,0 km/h (0 Bft) O-NO 62 ° 0 min 0,000 mm 0,0 UV-I 0 W/m² 5,3 °C 6,0 °C 0,0 km/h (0 Bft)
02.11.2018 21:46 6,0 °C 95 % 1024,9 hPa 0,0 mm 0,0 km/h (0 Bft) O-NO 62 ° 0 min 0,000 mm 0,0 UV-I 0 W/m² 5,3 °C 6,0 °C 0,0 km/h (0 Bft)
02.11.2018 21:47 6,1 °C 95 % 1025,0 hPa 0,0 mm 0,0 km/h (0 Bft) O-NO 62 ° 0 min 0,000 mm 0,0 UV-I 0 W/m² 5,4 °C 6,1 °C 0,0 km/h (0 Bft)
02.11.2018 21:48 6,1 °C 95 % 1025,0 hPa 0,0 mm 0,0 km/h (0 Bft) O-NO 62 ° 0 min 0,000 mm 0,0 UV-I 0 W/m² 5,4 °C 6,1 °C 0,0 km/h (0 Bft)
02.11.2018 21:49 6,1 °C 95 % 1025,0 hPa 0,0 mm 0,0 km/h (0 Bft) O-NO 62 ° 0 min 0,000 mm 0,0 UV-I 0 W/m² 5,4 °C 6,1 °C 0,0 km/h (0 Bft)
02.11.2018 21:50 6,1 °C 95 % 1025,0 hPa 0,0 mm 0,0 km/h (0 Bft) O-NO 62 ° 0 min 0,000 mm 0,0 UV-I 0 W/m² 5,4 °C 6,1 °C 0,0 km/h (0 Bft)
02.11.2018 21:51 6,1 °C 95 % 1025,0 hPa 0,0 mm 0,0 km/h (0 Bft) O-NO 62 ° 0 min 0,000 mm 0,0 UV-I 0 W/m² 5,4 °C 6,1 °C 0,0 km/h (0 Bft)
02.11.2018 21:52 6,1 °C 95 % 1025,0 hPa 0,0 mm 0,0 km/h (0 Bft) O-NO 62 ° 0 min 0,000 mm 0,0 UV-I 0 W/m² 5,4 °C 6,1 °C 0,0 km/h (0 Bft)
02.11.2018 21:53 6,1 °C 95 % 1025,0 hPa 0,0 mm 0,0 km/h (0 Bft) O-NO 62 ° 0 min 0,000 mm 0,0 UV-I 0 W/m² 5,4 °C 6,1 °C 0,0 km/h (0 Bft)
02.11.2018 21:54 6,0 °C 95 % 1025,0 hPa 0,0 mm 0,0 km/h (0 Bft) O-NO 62 ° 0 min 0,000 mm 0,0 UV-I 0 W/m² 5,3 °C 6,0 °C 0,0 km/h (0 Bft)
02.11.2018 21:55 6,0 °C 95 % 1025,0 hPa 0,0 mm 0,0 km/h (0 Bft) O-NO 62 ° 0 min 0,000 mm 0,0 UV-I 0 W/m² 5,3 °C 6,0 °C 0,0 km/h (0 Bft)
02.11.2018 21:56 6,0 °C 95 % 1025,0 hPa 0,0 mm 0,0 km/h (0 Bft) O-NO 62 ° 0 min 0,000 mm 0,0 UV-I 0 W/m² 5,3 °C 6,0 °C 0,0 km/h (0 Bft)
02.11.2018 21:57 6,0 °C 95 % 1025,0 hPa 0,0 mm 0,0 km/h (0 Bft) O-NO 62 ° 0 min 0,000 mm 0,0 UV-I 0 W/m² 5,3 °C 6,0 °C 0,0 km/h (0 Bft)
02.11.2018 21:58 6,0 °C 95 % 1025,1 hPa 0,0 mm 0,0 km/h (0 Bft) O-NO 62 ° 0 min 0,000 mm 0,0 UV-I 0 W/m² 5,3 °C 6,0 °C 0,0 km/h (0 Bft)
02.11.2018 21:59 6,0 °C 95 % 1025,1 hPa 0,0 mm 0,0 km/h (0 Bft) O-NO 62 ° 0 min 0,000 mm 0,0 UV-I 0 W/m² 5,3 °C 6,0 °C 0,0 km/h (0 Bft)
02.11.2018 22:00 6,0 °C 95 % 1025,2 hPa 0,0 mm 0,0 km/h (0 Bft) O-NO 62 ° 0 min 0,000 mm 0,0 UV-I 0 W/m² 5,3 °C 6,0 °C 0,0 km/h (0 Bft)
02.11.2018 22:01 6,0 °C 95 % 1025,2 hPa 0,0 mm 0,0 km/h (0 Bft) O-NO 62 ° 0 min 0,000 mm 0,0 UV-I 0 W/m² 5,3 °C 6,0 °C 0,0 km/h (0 Bft)
02.11.2018 22:02 5,9 °C 95 % 1025,2 hPa 0,0 mm 0,0 km/h (0 Bft) O-NO 62 ° 0 min 0,000 mm 0,0 UV-I 0 W/m² 5,2 °C 5,9 °C 0,0 km/h (0 Bft)
02.11.2018 22:03 5,9 °C 95 % 1025,2 hPa 0,0 mm 0,0 km/h (0 Bft) O-NO 62 ° 0 min 0,000 mm 0,0 UV-I 0 W/m² 5,2 °C 5,9 °C 0,0 km/h (0 Bft)
02.11.2018 22:04 5,9 °C 95 % 1025,1 hPa 0,0 mm 0,0 km/h (0 Bft) O-NO 62 ° 0 min 0,000 mm 0,0 UV-I 0 W/m² 5,2 °C 5,9 °C 0,0 km/h (0 Bft)
02.11.2018 22:05 5,9 °C 95 % 1025,2 hPa 0,0 mm 0,0 km/h (0 Bft) O-NO 62 ° 0 min 0,000 mm 0,0 UV-I 0 W/m² 5,2 °C 5,9 °C 0,0 km/h (0 Bft)
02.11.2018 22:06 5,9 °C 95 % 1025,2 hPa 0,0 mm 0,0 km/h (0 Bft) O-NO 62 ° 0 min 0,000 mm 0,0 UV-I 0 W/m² 5,2 °C 5,9 °C 0,0 km/h (0 Bft)
02.11.2018 22:07 5,9 °C 95 % 1025,1 hPa 0,0 mm 0,0 km/h (0 Bft) O-NO 62 ° 0 min 0,000 mm 0,0 UV-I 0 W/m² 5,2 °C 5,9 °C 0,0 km/h (0 Bft)
02.11.2018 22:08 6,0 °C 95 % 1025,1 hPa 0,0 mm 0,0 km/h (0 Bft) O-NO 62 ° 0 min 0,000 mm 0,0 UV-I 0 W/m² 5,3 °C 6,0 °C 0,0 km/h (0 Bft)
02.11.2018 22:09 5,9 °C 95 % 1025,1 hPa 0,0 mm 0,0 km/h (0 Bft) O-NO 62 ° 0 min 0,000 mm 0,0 UV-I 0 W/m² 5,2 °C 5,9 °C 0,0 km/h (0 Bft)
02.11.2018 22:10 5,9 °C 95 % 1025,1 hPa 0,0 mm 0,0 km/h (0 Bft) O-NO 62 ° 0 min 0,000 mm 0,0 UV-I 0 W/m² 5,2 °C 5,9 °C 0,0 km/h (0 Bft)
02.11.2018 22:11 6,0 °C 95 % 1025,1 hPa 0,0 mm 0,0 km/h (0 Bft) O-NO 62 ° 0 min 0,000 mm 0,0 UV-I 0 W/m² 5,3 °C 6,0 °C 0,0 km/h (0 Bft)
02.11.2018 22:12 5,9 °C 95 % 1025,1 hPa 0,0 mm 0,0 km/h (0 Bft) O-NO 62 ° 0 min 0,000 mm 0,0 UV-I 0 W/m² 5,2 °C 5,9 °C 0,0 km/h (0 Bft)
02.11.2018 22:13 5,9 °C 95 % 1025,1 hPa 0,0 mm 0,0 km/h (0 Bft) O-NO 62 ° 0 min 0,000 mm 0,0 UV-I 0 W/m² 5,2 °C 5,9 °C 0,0 km/h (0 Bft)
02.11.2018 22:14 5,9 °C 95 % 1025,1 hPa 0,0 mm 0,0 km/h (0 Bft) O-NO 62 ° 0 min 0,000 mm 0,0 UV-I 0 W/m² 5,2 °C 5,9 °C 0,0 km/h (0 Bft)
02.11.2018 22:15 6,0 °C 95 % 1025,1 hPa 0,0 mm 0,0 km/h (0 Bft) O-NO 62 ° 0 min 0,000 mm 0,0 UV-I 0 W/m² 5,3 °C 6,0 °C 0,0 km/h (0 Bft)
02.11.2018 22:16 6,0 °C 95 % 1025,2 hPa 0,0 mm 0,0 km/h (0 Bft) O-NO 62 ° 0 min 0,000 mm 0,0 UV-I 0 W/m² 5,3 °C 6,0 °C 0,0 km/h (0 Bft)
02.11.2018 22:17 5,9 °C 95 % 1025,2 hPa 0,0 mm 0,0 km/h (0 Bft) O-NO 62 ° 0 min 0,000 mm 0,0 UV-I 0 W/m² 5,2 °C 5,9 °C 0,0 km/h (0 Bft)
02.11.2018 22:18 6,0 °C 95 % 1025,2 hPa 0,0 mm 0,0 km/h (0 Bft) O-NO 62 ° 0 min 0,000 mm 0,0 UV-I 0 W/m² 5,3 °C 6,0 °C 0,0 km/h (0 Bft)
02.11.2018 22:19 5,9 °C 95 % 1025,1 hPa 0,0 mm 0,0 km/h (0 Bft) O-NO 62 ° 0 min 0,000 mm 0,0 UV-I 0 W/m² 5,2 °C 5,9 °C 0,0 km/h (0 Bft)
02.11.2018 22:20 6,0 °C 95 % 1025,2 hPa 0,0 mm 0,0 km/h (0 Bft) O-NO 62 ° 0 min 0,000 mm 0,0 UV-I 0 W/m² 5,3 °C 6,0 °C 0,0 km/h (0 Bft)
02.11.2018 22:21 6,0 °C 95 % 1025,1 hPa 0,0 mm 0,0 km/h (0 Bft) O-NO 62 ° 0 min 0,000 mm 0,0 UV-I 0 W/m² 5,3 °C 6,0 °C 0,0 km/h (0 Bft)
02.11.2018 22:22 6,0 °C 95 % 1025,2 hPa 0,0 mm 0,0 km/h (0 Bft) O-NO 62 ° 0 min 0,000 mm 0,0 UV-I 0 W/m² 5,3 °C 6,0 °C 0,0 km/h (0 Bft)
02.11.2018 22:23 5,9 °C 95 % 1025,1 hPa 0,0 mm 0,0 km/h (0 Bft) O-NO 62 ° 0 min 0,000 mm 0,0 UV-I 0 W/m² 5,2 °C 5,9 °C 0,0 km/h (0 Bft)
02.11.2018 22:24 6,0 °C 95 % 1025,2 hPa 0,0 mm 0,0 km/h (0 Bft) O-NO 62 ° 0 min 0,000 mm 0,0 UV-I 0 W/m² 5,3 °C 6,0 °C 0,0 km/h (0 Bft)
02.11.2018 22:25 5,9 °C 95 % 1025,2 hPa 0,0 mm 0,0 km/h (0 Bft) O-NO 62 ° 0 min 0,000 mm 0,0 UV-I 0 W/m² 5,2 °C 5,9 °C 0,0 km/h (0 Bft)
02.11.2018 22:26 5,9 °C 95 % 1025,2 hPa 0,0 mm 0,0 km/h (0 Bft) O-NO 62 ° 0 min 0,000 mm 0,0 UV-I 0 W/m² 5,2 °C 5,9 °C 0,0 km/h (0 Bft)
02.11.2018 22:27 6,0 °C 95 % 1025,2 hPa 0,0 mm 0,0 km/h (0 Bft) O-NO 62 ° 0 min 0,000 mm 0,0 UV-I 0 W/m² 5,3 °C 6,0 °C 0,0 km/h (0 Bft)
02.11.2018 22:28 6,0 °C 95 % 1025,2 hPa 0,0 mm 0,0 km/h (0 Bft) O-NO 62 ° 0 min 0,000 mm 0,0 UV-I 0 W/m² 5,3 °C 6,0 °C 0,0 km/h (0 Bft)
02.11.2018 22:29 6,0 °C 95 % 1025,2 hPa 0,0 mm 0,0 km/h (0 Bft) O-NO 62 ° 0 min 0,000 mm 0,0 UV-I 0 W/m² 5,3 °C 6,0 °C 0,0 km/h (0 Bft)
02.11.2018 22:30 6,0 °C 95 % 1025,2 hPa 0,0 mm 0,0 km/h (0 Bft) O-NO 62 ° 0 min 0,000 mm 0,0 UV-I 0 W/m² 5,3 °C 6,0 °C 0,0 km/h (0 Bft)
02.11.2018 22:31 6,0 °C 95 % 1025,2 hPa 0,0 mm 0,0 km/h (0 Bft) O-NO 62 ° 0 min 0,000 mm 0,0 UV-I 0 W/m² 5,3 °C 6,0 °C 0,0 km/h (0 Bft)
02.11.2018 22:32 6,0 °C 95 % 1025,2 hPa 0,0 mm 0,0 km/h (0 Bft) O-NO 62 ° 0 min 0,000 mm 0,0 UV-I 0 W/m² 5,3 °C 6,0 °C 0,0 km/h (0 Bft)
02.11.2018 22:33 6,0 °C 95 % 1025,2 hPa 0,0 mm 0,0 km/h (0 Bft) O-NO 62 ° 0 min 0,000 mm 0,0 UV-I 0 W/m² 5,3 °C 6,0 °C 0,0 km/h (0 Bft)
02.11.2018 22:34 6,0 °C 95 % 1025,2 hPa 0,0 mm 0,0 km/h (0 Bft) O-NO 62 ° 0 min 0,000 mm 0,0 UV-I 0 W/m² 5,3 °C 6,0 °C 0,0 km/h (0 Bft)
02.11.2018 22:35 6,1 °C 95 % 1025,2 hPa 0,0 mm 0,0 km/h (0 Bft) O-NO 62 ° 0 min 0,000 mm 0,0 UV-I 0 W/m² 5,4 °C 6,1 °C 0,0 km/h (0 Bft)
02.11.2018 22:36 6,1 °C 95 % 1025,2 hPa 0,0 mm 0,0 km/h (0 Bft) O-NO 62 ° 0 min 0,000 mm 0,0 UV-I 0 W/m² 5,4 °C 6,1 °C 0,0 km/h (0 Bft)
02.11.2018 22:37 6,0 °C 95 % 1025,2 hPa 0,0 mm 0,0 km/h (0 Bft) O-NO 62 ° 0 min 0,000 mm 0,0 UV-I 0 W/m² 5,3 °C 6,0 °C 0,0 km/h (0 Bft)
02.11.2018 22:38 6,1 °C 95 % 1025,2 hPa 0,0 mm 0,0 km/h (0 Bft) O-NO 62 ° 0 min 0,000 mm 0,0 UV-I 0 W/m² 5,4 °C 6,1 °C 0,0 km/h (0 Bft)
02.11.2018 22:39 6,0 °C 95 % 1025,2 hPa 0,0 mm 0,0 km/h (0 Bft) O-NO 62 ° 0 min 0,000 mm 0,0 UV-I 0 W/m² 5,3 °C 6,0 °C 0,0 km/h (0 Bft)
02.11.2018 22:40 6,1 °C 95 % 1025,2 hPa 0,0 mm 0,0 km/h (0 Bft) O-NO 62 ° 0 min 0,000 mm 0,0 UV-I 0 W/m² 5,4 °C 6,1 °C 0,0 km/h (0 Bft)
02.11.2018 22:41 6,1 °C 95 % 1025,1 hPa 0,0 mm 0,0 km/h (0 Bft) O-NO 62 ° 0 min 0,000 mm 0,0 UV-I 0 W/m² 5,4 °C 6,1 °C 0,0 km/h (0 Bft)
02.11.2018 22:42 6,1 °C 95 % 1025,2 hPa 0,0 mm 0,0 km/h (0 Bft) O-NO 62 ° 0 min 0,000 mm 0,0 UV-I 0 W/m² 5,4 °C 6,1 °C 0,0 km/h (0 Bft)
02.11.2018 22:43 6,0 °C 95 % 1025,1 hPa 0,0 mm 0,0 km/h (0 Bft) O-NO 62 ° 0 min 0,000 mm 0,0 UV-I 0 W/m² 5,3 °C 6,0 °C 0,0 km/h (0 Bft)
02.11.2018 22:44 6,1 °C 95 % 1025,2 hPa 0,0 mm 0,0 km/h (0 Bft) O-NO 62 ° 0 min 0,000 mm 0,0 UV-I 0 W/m² 5,4 °C 6,1 °C 0,0 km/h (0 Bft)
02.11.2018 22:45 6,1 °C 95 % 1025,2 hPa 0,0 mm 0,0 km/h (0 Bft) O-NO 62 ° 0 min 0,000 mm 0,0 UV-I 0 W/m² 5,4 °C 6,1 °C 0,0 km/h (0 Bft)
02.11.2018 22:46 6,1 °C 95 % 1025,2 hPa 0,0 mm 0,0 km/h (0 Bft) O-NO 62 ° 0 min 0,000 mm 0,0 UV-I 0 W/m² 5,4 °C 6,1 °C 0,0 km/h (0 Bft)
02.11.2018 22:47 6,0 °C 95 % 1025,2 hPa 0,0 mm 0,0 km/h (0 Bft) O-NO 62 ° 0 min 0,000 mm 0,0 UV-I 0 W/m² 5,3 °C 6,0 °C 0,0 km/h (0 Bft)
02.11.2018 22:48 6,0 °C 95 % 1025,2 hPa 0,0 mm 0,0 km/h (0 Bft) O-NO 62 ° 0 min 0,000 mm 0,0 UV-I 0 W/m² 5,3 °C 6,0 °C 0,0 km/h (0 Bft)
02.11.2018 22:49 6,0 °C 95 % 1025,2 hPa 0,0 mm 0,0 km/h (0 Bft) O-NO 62 ° 0 min 0,000 mm 0,0 UV-I 0 W/m² 5,3 °C 6,0 °C 0,0 km/h (0 Bft)
02.11.2018 22:50 6,0 °C 95 % 1025,2 hPa 0,0 mm 0,0 km/h (0 Bft) O-NO 62 ° 0 min 0,000 mm 0,0 UV-I 0 W/m² 5,3 °C 6,0 °C 0,0 km/h (0 Bft)
02.11.2018 22:51 5,9 °C 95 % 1025,2 hPa 0,0 mm 0,0 km/h (0 Bft) O-NO 62 ° 0 min 0,000 mm 0,0 UV-I 0 W/m² 5,2 °C 5,9 °C 0,0 km/h (0 Bft)
02.11.2018 22:52 5,9 °C 95 % 1025,3 hPa 0,0 mm 0,0 km/h (0 Bft) O-NO 62 ° 0 min 0,000 mm 0,0 UV-I 0 W/m² 5,2 °C 5,9 °C 0,0 km/h (0 Bft)
02.11.2018 22:53 5,9 °C 95 % 1025,2 hPa 0,0 mm 0,0 km/h (0 Bft) O-NO 62 ° 0 min 0,000 mm 0,0 UV-I 0 W/m² 5,2 °C 5,9 °C 0,0 km/h (0 Bft)
02.11.2018 22:54 5,9 °C 95 % 1025,3 hPa 0,0 mm 0,0 km/h (0 Bft) O-NO 62 ° 0 min 0,000 mm 0,0 UV-I 0 W/m² 5,2 °C 5,9 °C 0,0 km/h (0 Bft)
02.11.2018 22:55 5,9 °C 95 % 1025,2 hPa 0,0 mm 0,0 km/h (0 Bft) O-NO 62 ° 0 min 0,000 mm 0,0 UV-I 0 W/m² 5,2 °C 5,9 °C 0,0 km/h (0 Bft)
02.11.2018 22:56 5,9 °C 95 % 1025,2 hPa 0,0 mm 0,0 km/h (0 Bft) O-NO 62 ° 0 min 0,000 mm 0,0 UV-I 0 W/m² 5,2 °C 5,9 °C 0,0 km/h (0 Bft)
02.11.2018 22:57 5,9 °C 95 % 1025,3 hPa 0,0 mm 0,0 km/h (0 Bft) O-NO 62 ° 0 min 0,000 mm 0,0 UV-I 0 W/m² 5,2 °C 5,9 °C 0,0 km/h (0 Bft)
02.11.2018 22:58 5,9 °C 95 % 1025,2 hPa 0,0 mm 0,0 km/h (0 Bft) O-NO 62 ° 0 min 0,000 mm 0,0 UV-I 0 W/m² 5,2 °C 5,9 °C 0,0 km/h (0 Bft)
02.11.2018 22:59 5,9 °C 95 % 1025,3 hPa 0,0 mm 0,0 km/h (0 Bft) O-NO 62 ° 0 min 0,000 mm 0,0 UV-I 0 W/m² 5,2 °C 5,9 °C 0,0 km/h (0 Bft)
02.11.2018 23:00 5,9 °C 95 % 1025,2 hPa 0,0 mm 0,0 km/h (0 Bft) O-NO 62 ° 0 min 0,000 mm 0,0 UV-I 0 W/m² 5,2 °C 5,9 °C 0,0 km/h (0 Bft)
02.11.2018 23:01 5,9 °C 95 % 1025,2 hPa 0,0 mm 0,0 km/h (0 Bft) O-NO 62 ° 0 min 0,000 mm 0,0 UV-I 0 W/m² 5,2 °C 5,9 °C 0,0 km/h (0 Bft)
02.11.2018 23:02 5,9 °C 95 % 1025,2 hPa 0,0 mm 0,0 km/h (0 Bft) O-NO 62 ° 0 min 0,000 mm 0,0 UV-I 0 W/m² 5,2 °C 5,9 °C 0,0 km/h (0 Bft)
02.11.2018 23:03 5,9 °C 95 % 1025,2 hPa 0,0 mm 0,0 km/h (0 Bft) O-NO 62 ° 0 min 0,000 mm 0,0 UV-I 0 W/m² 5,2 °C 5,9 °C 0,0 km/h (0 Bft)
02.11.2018 23:04 5,9 °C 95 % 1025,2 hPa 0,0 mm 0,0 km/h (0 Bft) O-NO 62 ° 0 min 0,000 mm 0,0 UV-I 0 W/m² 5,2 °C 5,9 °C 0,0 km/h (0 Bft)
02.11.2018 23:05 5,9 °C 95 % 1025,2 hPa 0,0 mm 0,0 km/h (0 Bft) O-NO 62 ° 0 min 0,000 mm 0,0 UV-I 0 W/m² 5,2 °C 5,9 °C 0,0 km/h (0 Bft)
02.11.2018 23:06 5,9 °C 95 % 1025,3 hPa 0,0 mm 0,0 km/h (0 Bft) O-NO 62 ° 0 min 0,000 mm 0,0 UV-I 0 W/m² 5,2 °C 5,9 °C 0,0 km/h (0 Bft)
02.11.2018 23:07 5,9 °C 95 % 1025,3 hPa 0,0 mm 0,0 km/h (0 Bft) O-NO 62 ° 0 min 0,000 mm 0,0 UV-I 0 W/m² 5,2 °C 5,9 °C 0,0 km/h (0 Bft)
02.11.2018 23:08 5,9 °C 95 % 1025,2 hPa 0,0 mm 0,0 km/h (0 Bft) O-NO 62 ° 0 min 0,000 mm 0,0 UV-I 0 W/m² 5,2 °C 5,9 °C 0,0 km/h (0 Bft)
02.11.2018 23:09 6,0 °C 95 % 1025,3 hPa 0,0 mm 0,0 km/h (0 Bft) O-NO 62 ° 0 min 0,000 mm 0,0 UV-I 0 W/m² 5,3 °C 6,0 °C 0,0 km/h (0 Bft)
02.11.2018 23:10 6,0 °C 95 % 1025,3 hPa 0,0 mm 0,0 km/h (0 Bft) O-NO 62 ° 0 min 0,000 mm 0,0 UV-I 0 W/m² 5,3 °C 6,0 °C 0,0 km/h (0 Bft)
02.11.2018 23:11 6,0 °C 95 % 1025,3 hPa 0,0 mm 0,0 km/h (0 Bft) O-NO 62 ° 0 min 0,000 mm 0,0 UV-I 0 W/m² 5,3 °C 6,0 °C 0,0 km/h (0 Bft)
02.11.2018 23:12 6,0 °C 95 % 1025,3 hPa 0,0 mm 0,0 km/h (0 Bft) O-NO 62 ° 0 min 0,000 mm 0,0 UV-I 0 W/m² 5,3 °C 6,0 °C 0,0 km/h (0 Bft)
02.11.2018 23:13 6,0 °C 95 % 1025,3 hPa 0,0 mm 0,0 km/h (0 Bft) O-NO 62 ° 0 min 0,000 mm 0,0 UV-I 0 W/m² 5,3 °C 6,0 °C 0,0 km/h (0 Bft)
02.11.2018 23:14 5,9 °C 95 % 1025,3 hPa 0,0 mm 0,0 km/h (0 Bft) O-NO 62 ° 0 min 0,000 mm 0,0 UV-I 0 W/m² 5,2 °C 5,9 °C 0,0 km/h (0 Bft)
02.11.2018 23:15 6,0 °C 95 % 1025,3 hPa 0,0 mm 0,0 km/h (0 Bft) O-NO 62 ° 0 min 0,000 mm 0,0 UV-I 0 W/m² 5,3 °C 6,0 °C 0,0 km/h (0 Bft)
02.11.2018 23:16 6,0 °C 95 % 1025,3 hPa 0,0 mm 0,0 km/h (0 Bft) O-NO 62 ° 0 min 0,000 mm 0,0 UV-I 0 W/m² 5,3 °C 6,0 °C 0,0 km/h (0 Bft)
02.11.2018 23:17 6,0 °C 95 % 1025,3 hPa 0,0 mm 0,0 km/h (0 Bft) O-NO 62 ° 0 min 0,000 mm 0,0 UV-I 0 W/m² 5,3 °C 6,0 °C 0,0 km/h (0 Bft)
02.11.2018 23:18 6,1 °C 95 % 1025,3 hPa 0,0 mm 0,0 km/h (0 Bft) O-NO 62 ° 0 min 0,000 mm 0,0 UV-I 0 W/m² 5,4 °C 6,1 °C 0,0 km/h (0 Bft)
02.11.2018 23:19 6,0 °C 95 % 1025,3 hPa 0,0 mm 0,0 km/h (0 Bft) O-NO 62 ° 0 min 0,000 mm 0,0 UV-I 0 W/m² 5,3 °C 6,0 °C 0,0 km/h (0 Bft)
02.11.2018 23:20 6,0 °C 95 % 1025,3 hPa 0,0 mm 0,0 km/h (0 Bft) O-NO 62 ° 0 min 0,000 mm 0,0 UV-I 0 W/m² 5,3 °C 6,0 °C 0,0 km/h (0 Bft)
02.11.2018 23:21 6,1 °C 95 % 1025,3 hPa 0,0 mm 0,0 km/h (0 Bft) O-NO 62 ° 0 min 0,000 mm 0,0 UV-I 0 W/m² 5,4 °C 6,1 °C 0,0 km/h (0 Bft)
02.11.2018 23:22 6,0 °C 95 % 1025,3 hPa 0,0 mm 0,0 km/h (0 Bft) O-NO 62 ° 0 min 0,000 mm 0,0 UV-I 0 W/m² 5,3 °C 6,0 °C 0,0 km/h (0 Bft)
02.11.2018 23:23 6,1 °C 95 % 1025,3 hPa 0,0 mm 0,0 km/h (0 Bft) O-NO 62 ° 0 min 0,000 mm 0,0 UV-I 0 W/m² 5,4 °C 6,1 °C 0,0 km/h (0 Bft)
02.11.2018 23:24 6,1 °C 95 % 1025,3 hPa 0,0 mm 0,0 km/h (0 Bft) O-NO 62 ° 0 min 0,000 mm 0,0 UV-I 0 W/m² 5,4 °C 6,1 °C 0,0 km/h (0 Bft)
02.11.2018 23:25 6,1 °C 95 % 1025,3 hPa 0,0 mm 0,0 km/h (0 Bft) O-NO 62 ° 0 min 0,000 mm 0,0 UV-I 0 W/m² 5,4 °C 6,1 °C 0,0 km/h (0 Bft)
02.11.2018 23:26 6,1 °C 95 % 1025,3 hPa 0,0 mm 0,0 km/h (0 Bft) O-NO 62 ° 0 min 0,000 mm 0,0 UV-I 0 W/m² 5,4 °C 6,1 °C 0,0 km/h (0 Bft)
02.11.2018 23:27 6,1 °C 95 % 1025,3 hPa 0,0 mm 0,0 km/h (0 Bft) O-NO 62 ° 0 min 0,000 mm 0,0 UV-I 0 W/m² 5,4 °C 6,1 °C 0,0 km/h (0 Bft)
02.11.2018 23:28 6,1 °C 95 % 1025,3 hPa 0,0 mm 0,0 km/h (0 Bft) O-NO 62 ° 0 min 0,000 mm 0,0 UV-I 0 W/m² 5,4 °C 6,1 °C 0,0 km/h (0 Bft)
02.11.2018 23:29 6,1 °C 95 % 1025,3 hPa 0,0 mm 0,0 km/h (0 Bft) O-NO 62 ° 0 min 0,000 mm 0,0 UV-I 0 W/m² 5,4 °C 6,1 °C 0,0 km/h (0 Bft)
02.11.2018 23:30 6,1 °C 95 % 1025,3 hPa 0,0 mm 0,0 km/h (0 Bft) O-NO 62 ° 0 min 0,000 mm 0,0 UV-I 0 W/m² 5,4 °C 6,1 °C 0,0 km/h (0 Bft)
02.11.2018 23:31 6,1 °C 95 % 1025,2 hPa 0,0 mm 0,0 km/h (0 Bft) O-NO 62 ° 0 min 0,000 mm 0,0 UV-I 0 W/m² 5,4 °C 6,1 °C 0,0 km/h (0 Bft)
02.11.2018 23:32 6,1 °C 95 % 1025,2 hPa 0,0 mm 0,0 km/h (0 Bft) O-NO 62 ° 0 min 0,000 mm 0,0 UV-I 0 W/m² 5,4 °C 6,1 °C 0,0 km/h (0 Bft)
02.11.2018 23:33 6,1 °C 95 % 1025,2 hPa 0,0 mm 0,0 km/h (0 Bft) O-NO 62 ° 0 min 0,000 mm 0,0 UV-I 0 W/m² 5,4 °C 6,1 °C 0,0 km/h (0 Bft)
02.11.2018 23:34 6,1 °C 95 % 1025,2 hPa 0,2 mm 0,0 km/h (0 Bft) O-NO 62 ° 0 min 0,000 mm 0,0 UV-I 0 W/m² 5,4 °C 6,1 °C 0,0 km/h (0 Bft)
02.11.2018 23:35 6,1 °C 95 % 1025,3 hPa 0,0 mm 0,0 km/h (0 Bft) O-NO 62 ° 0 min 0,000 mm 0,0 UV-I 0 W/m² 5,4 °C 6,1 °C 0,0 km/h (0 Bft)
02.11.2018 23:36 6,1 °C 95 % 1025,2 hPa 0,0 mm 0,0 km/h (0 Bft) O-NO 62 ° 0 min 0,000 mm 0,0 UV-I 0 W/m² 5,4 °C 6,1 °C 0,0 km/h (0 Bft)
02.11.2018 23:37 6,1 °C 95 % 1025,3 hPa 0,0 mm 0,0 km/h (0 Bft) O-NO 62 ° 0 min 0,000 mm 0,0 UV-I 0 W/m² 5,4 °C 6,1 °C 0,0 km/h (0 Bft)
02.11.2018 23:38 6,1 °C 95 % 1025,3 hPa 0,0 mm 0,0 km/h (0 Bft) O-NO 62 ° 0 min 0,000 mm 0,0 UV-I 0 W/m² 5,4 °C 6,1 °C 0,0 km/h (0 Bft)
02.11.2018 23:39 6,2 °C 95 % 1025,3 hPa 0,0 mm 0,0 km/h (0 Bft) O-NO 62 ° 0 min 0,000 mm 0,0 UV-I 0 W/m² 5,5 °C 6,2 °C 0,0 km/h (0 Bft)
02.11.2018 23:40 6,2 °C 95 % 1025,3 hPa 0,0 mm 0,0 km/h (0 Bft) O-NO 62 ° 0 min 0,000 mm 0,0 UV-I 0 W/m² 5,5 °C 6,2 °C 0,0 km/h (0 Bft)
02.11.2018 23:41 6,2 °C 95 % 1025,3 hPa 0,0 mm 0,0 km/h (0 Bft) O-NO 62 ° 0 min 0,000 mm 0,0 UV-I 0 W/m² 5,5 °C 6,2 °C 0,0 km/h (0 Bft)
02.11.2018 23:42 6,2 °C 95 % 1025,3 hPa 0,0 mm 0,0 km/h (0 Bft) O-NO 62 ° 0 min 0,000 mm 0,0 UV-I 0 W/m² 5,5 °C 6,2 °C 0,0 km/h (0 Bft)
02.11.2018 23:43 6,2 °C 95 % 1025,3 hPa 0,0 mm 0,0 km/h (0 Bft) O-NO 62 ° 0 min 0,000 mm 0,0 UV-I 0 W/m² 5,5 °C 6,2 °C 0,0 km/h (0 Bft)
02.11.2018 23:44 6,2 °C 95 % 1025,3 hPa 0,0 mm 0,0 km/h (0 Bft) O-NO 62 ° 0 min 0,000 mm 0,0 UV-I 0 W/m² 5,5 °C 6,2 °C 0,0 km/h (0 Bft)
02.11.2018 23:45 6,2 °C 95 % 1025,4 hPa 0,0 mm 0,0 km/h (0 Bft) O-NO 62 ° 0 min 0,000 mm 0,0 UV-I 0 W/m² 5,5 °C 6,2 °C 0,0 km/h (0 Bft)
02.11.2018 23:46 6,2 °C 95 % 1025,4 hPa 0,0 mm 0,0 km/h (0 Bft) O-NO 62 ° 0 min 0,000 mm 0,0 UV-I 0 W/m² 5,5 °C 6,2 °C 0,0 km/h (0 Bft)
02.11.2018 23:47 6,2 °C 95 % 1025,3 hPa 0,0 mm 0,0 km/h (0 Bft) O-NO 62 ° 0 min 0,000 mm 0,0 UV-I 0 W/m² 5,5 °C 6,2 °C 0,0 km/h (0 Bft)
02.11.2018 23:48 6,2 °C 95 % 1025,4 hPa 0,0 mm 0,0 km/h (0 Bft) O-NO 62 ° 0 min 0,000 mm 0,0 UV-I 0 W/m² 5,5 °C 6,2 °C 0,0 km/h (0 Bft)
02.11.2018 23:49 6,2 °C 95 % 1025,4 hPa 0,0 mm 0,0 km/h (0 Bft) O-NO 62 ° 0 min 0,000 mm 0,0 UV-I 0 W/m² 5,5 °C 6,2 °C 0,0 km/h (0 Bft)
02.11.2018 23:50 6,2 °C 95 % 1025,4 hPa 0,0 mm 0,0 km/h (0 Bft) O-NO 62 ° 0 min 0,000 mm 0,0 UV-I 0 W/m² 5,5 °C 6,2 °C 0,0 km/h (0 Bft)
02.11.2018 23:51 6,2 °C 95 % 1025,5 hPa 0,0 mm 0,0 km/h (0 Bft) O-NO 62 ° 0 min 0,000 mm 0,0 UV-I 0 W/m² 5,5 °C 6,2 °C 0,0 km/h (0 Bft)
02.11.2018 23:52 6,2 °C 95 % 1025,4 hPa 0,0 mm 0,0 km/h (0 Bft) O-NO 62 ° 0 min 0,000 mm 0,0 UV-I 0 W/m² 5,5 °C 6,2 °C 0,0 km/h (0 Bft)
02.11.2018 23:53 6,2 °C 95 % 1025,4 hPa 0,0 mm 0,0 km/h (0 Bft) O-NO 62 ° 0 min 0,000 mm 0,0 UV-I 0 W/m² 5,5 °C 6,2 °C 0,0 km/h (0 Bft)
02.11.2018 23:54 6,2 °C 95 % 1025,4 hPa 0,0 mm 0,0 km/h (0 Bft) O-NO 62 ° 0 min 0,000 mm 0,0 UV-I 0 W/m² 5,5 °C 6,2 °C 0,0 km/h (0 Bft)
02.11.2018 23:55 6,1 °C 95 % 1025,5 hPa 0,0 mm 0,0 km/h (0 Bft) O-NO 62 ° 0 min 0,000 mm 0,0 UV-I 0 W/m² 5,4 °C 6,1 °C 0,0 km/h (0 Bft)
02.11.2018 23:56 6,1 °C 95 % 1025,5 hPa 0,0 mm 0,0 km/h (0 Bft) O-NO 62 ° 0 min 0,000 mm 0,0 UV-I 0 W/m² 5,4 °C 6,1 °C 0,0 km/h (0 Bft)
02.11.2018 23:57 6,1 °C 95 % 1025,5 hPa 0,0 mm 0,0 km/h (0 Bft) O-NO 62 ° 0 min 0,000 mm 0,0 UV-I 0 W/m² 5,4 °C 6,1 °C 0,0 km/h (0 Bft)
02.11.2018 23:58 6,0 °C 95 % 1025,5 hPa 0,0 mm 0,0 km/h (0 Bft) O-NO 62 ° 0 min 0,000 mm 0,0 UV-I 0 W/m² 5,3 °C 6,0 °C 0,0 km/h (0 Bft)
02.11.2018 23:59 6,0 °C 95 % 1025,5 hPa 0,0 mm 0,0 km/h (0 Bft) O-NO 62 ° 0 min 0,000 mm 0,0 UV-I 0 W/m² 5,3 °C 6,0 °C 0,0 km/h (0 Bft)
_ Min-Zeit 07:25 12:23 00:02 - 23:59 - - - - - - 07:25 07:25 23:59
Minimum _ 2,6 °C 81 % 1016,9 hPa - 0,0 km/h (0 Bft) - - - - - - 1,6 °C 2,6 °C 0,0 km/h (0 Bft)
_ Max-Zeit 11:39 23:59 23:59 23:34 14:18 - - 23:59 15:00 11:25 14:15 12:01 11:39 14:33
Maximum _ 8,7 °C 95 % 1025,5 hPa 0,2 mm 7,4 km/h
O-NO (2 Bft)
- - 0 min 0,051 mm 1,0 UV-I 165 W/m² 6,4 °C 8,7 °C 9,7 km/h
O (2 Bft)
Durchschnitt _ 5,7 °C 91 % 1020,8 hPa #0,4 mm 0,5 km/h (0 Bft) O-NO - #0 min. #0,330 mm 0,7 UV-I 30 W/m² 4,3 °C 5,7 °C 0,9 km/h (0 Bft)